<?xml version="1.0" encoding="UTF-8" standalone="no" ?>
<gpx xmlns="http://www.topografix.com/GPX/1/1" xmlns:xsi="http://www.w3.org/2001/XMLSchema-instance" xsi:schemaLocation="http://www.topografix.com/GPX/1/1 http://www.topografix.com/GPX/1/1/gpx.xsd" version="1.1" creator="VisuGPX - https://www.visugpx.com">
  <metadata>
    <name>Rando VTT la trans'juminoise 2023</name>
    <desc><![CDATA[Beau parcours dans l'ensemble, beaucoup de boue.....]]></desc>
  </metadata>
  <trk>
    <name><![CDATA[Rando VTT la trans'juminoise 2023_1]]></name>
    <trkseg>
      <trkpt lat="46.57199" lon="0.55799">
        <ele>128.4</ele>
        <time>2023-03-19T07:29:06Z</time>
      </trkpt>
      <trkpt lat="46.572" lon="0.558">
        <ele>128.4</ele>
        <time>2023-03-19T07:29:21Z</time>
      </trkpt>
      <trkpt lat="46.57193" lon="0.55795">
        <ele>128.4</ele>
        <time>2023-03-19T07:29:28Z</time>
      </trkpt>
      <trkpt lat="46.57182" lon="0.5579">
        <ele>128.4</ele>
        <time>2023-03-19T07:29:33Z</time>
      </trkpt>
      <trkpt lat="46.57182" lon="0.55791">
        <ele>128.4</ele>
        <time>2023-03-19T07:29:34Z</time>
      </trkpt>
      <trkpt lat="46.57182" lon="0.55794">
        <ele>128.4</ele>
        <time>2023-03-19T07:29:36Z</time>
      </trkpt>
      <trkpt lat="46.57181" lon="0.55799">
        <ele>128.4</ele>
        <time>2023-03-19T07:29:38Z</time>
      </trkpt>
      <trkpt lat="46.57172" lon="0.55818">
        <ele>129.2</ele>
        <time>2023-03-19T07:29:43Z</time>
      </trkpt>
      <trkpt lat="46.57169" lon="0.55825">
        <ele>129.4</ele>
        <time>2023-03-19T07:29:45Z</time>
      </trkpt>
      <trkpt lat="46.57165" lon="0.55838">
        <ele>129.6</ele>
        <time>2023-03-19T07:29:48Z</time>
      </trkpt>
      <trkpt lat="46.5716" lon="0.55863">
        <ele>129.4</ele>
        <time>2023-03-19T07:29:53Z</time>
      </trkpt>
      <trkpt lat="46.57158" lon="0.55877">
        <ele>129.4</ele>
        <time>2023-03-19T07:29:56Z</time>
      </trkpt>
      <trkpt lat="46.57155" lon="0.55907">
        <ele>130</ele>
        <time>2023-03-19T07:30:02Z</time>
      </trkpt>
      <trkpt lat="46.57148" lon="0.5596">
        <ele>130.2</ele>
        <time>2023-03-19T07:30:12Z</time>
      </trkpt>
      <trkpt lat="46.57143" lon="0.56012">
        <ele>130.2</ele>
        <time>2023-03-19T07:30:21Z</time>
      </trkpt>
      <trkpt lat="46.57135" lon="0.56072">
        <ele>130</ele>
        <time>2023-03-19T07:30:31Z</time>
      </trkpt>
      <trkpt lat="46.5713" lon="0.56087">
        <ele>129.6</ele>
        <time>2023-03-19T07:30:35Z</time>
      </trkpt>
      <trkpt lat="46.57123" lon="0.56096">
        <ele>129.4</ele>
        <time>2023-03-19T07:30:39Z</time>
      </trkpt>
      <trkpt lat="46.57123" lon="0.561">
        <ele>129.4</ele>
        <time>2023-03-19T07:30:40Z</time>
      </trkpt>
      <trkpt lat="46.57121" lon="0.56121">
        <ele>129.2</ele>
        <time>2023-03-19T07:30:44Z</time>
      </trkpt>
      <trkpt lat="46.57118" lon="0.56124">
        <ele>129.4</ele>
        <time>2023-03-19T07:30:45Z</time>
      </trkpt>
      <trkpt lat="46.57104" lon="0.56131">
        <ele>129.6</ele>
        <time>2023-03-19T07:30:49Z</time>
      </trkpt>
      <trkpt lat="46.57079" lon="0.56142">
        <ele>129.6</ele>
        <time>2023-03-19T07:30:55Z</time>
      </trkpt>
      <trkpt lat="46.57076" lon="0.56144">
        <ele>129.6</ele>
        <time>2023-03-19T07:30:56Z</time>
      </trkpt>
      <trkpt lat="46.57071" lon="0.56152">
        <ele>129.4</ele>
        <time>2023-03-19T07:30:58Z</time>
      </trkpt>
      <trkpt lat="46.57069" lon="0.56158">
        <ele>129.4</ele>
        <time>2023-03-19T07:30:59Z</time>
      </trkpt>
      <trkpt lat="46.5706" lon="0.56195">
        <ele>129.6</ele>
        <time>2023-03-19T07:31:04Z</time>
      </trkpt>
      <trkpt lat="46.57059" lon="0.56201">
        <ele>129.4</ele>
        <time>2023-03-19T07:31:06Z</time>
      </trkpt>
      <trkpt lat="46.57049" lon="0.5624">
        <ele>128.4</ele>
        <time>2023-03-19T07:31:12Z</time>
      </trkpt>
      <trkpt lat="46.57047" lon="0.56252">
        <ele>128.2</ele>
        <time>2023-03-19T07:31:14Z</time>
      </trkpt>
      <trkpt lat="46.57041" lon="0.56278">
        <ele>128</ele>
        <time>2023-03-19T07:31:18Z</time>
      </trkpt>
      <trkpt lat="46.57035" lon="0.56301">
        <ele>127.4</ele>
        <time>2023-03-19T07:31:22Z</time>
      </trkpt>
      <trkpt lat="46.57033" lon="0.56304">
        <ele>127.2</ele>
        <time>2023-03-19T07:31:23Z</time>
      </trkpt>
      <trkpt lat="46.57031" lon="0.56309">
        <ele>127.2</ele>
        <time>2023-03-19T07:31:25Z</time>
      </trkpt>
      <trkpt lat="46.57031" lon="0.56311">
        <ele>127</ele>
        <time>2023-03-19T07:31:26Z</time>
      </trkpt>
      <trkpt lat="46.57032" lon="0.56316">
        <ele>127</ele>
        <time>2023-03-19T07:31:28Z</time>
      </trkpt>
      <trkpt lat="46.57038" lon="0.56325">
        <ele>127</ele>
        <time>2023-03-19T07:31:31Z</time>
      </trkpt>
      <trkpt lat="46.57051" lon="0.56338">
        <ele>126.8</ele>
        <time>2023-03-19T07:31:34Z</time>
      </trkpt>
      <trkpt lat="46.57056" lon="0.56342">
        <ele>126.6</ele>
        <time>2023-03-19T07:31:35Z</time>
      </trkpt>
      <trkpt lat="46.57072" lon="0.56356">
        <ele>126.2</ele>
        <time>2023-03-19T07:31:39Z</time>
      </trkpt>
      <trkpt lat="46.57074" lon="0.56359">
        <ele>126.2</ele>
        <time>2023-03-19T07:31:40Z</time>
      </trkpt>
      <trkpt lat="46.57077" lon="0.5636">
        <ele>126</ele>
        <time>2023-03-19T07:31:41Z</time>
      </trkpt>
      <trkpt lat="46.57088" lon="0.56363">
        <ele>125.8</ele>
        <time>2023-03-19T07:31:44Z</time>
      </trkpt>
      <trkpt lat="46.57119" lon="0.56385">
        <ele>125.8</ele>
        <time>2023-03-19T07:31:51Z</time>
      </trkpt>
      <trkpt lat="46.57146" lon="0.56405">
        <ele>125.2</ele>
        <time>2023-03-19T07:31:57Z</time>
      </trkpt>
      <trkpt lat="46.57155" lon="0.56412">
        <ele>125</ele>
        <time>2023-03-19T07:31:59Z</time>
      </trkpt>
      <trkpt lat="46.57189" lon="0.56439">
        <ele>124.8</ele>
        <time>2023-03-19T07:32:07Z</time>
      </trkpt>
      <trkpt lat="46.57196" lon="0.56445">
        <ele>124.8</ele>
        <time>2023-03-19T07:32:09Z</time>
      </trkpt>
      <trkpt lat="46.57201" lon="0.56453">
        <ele>124.4</ele>
        <time>2023-03-19T07:32:11Z</time>
      </trkpt>
      <trkpt lat="46.57202" lon="0.56458">
        <ele>124.2</ele>
        <time>2023-03-19T07:32:12Z</time>
      </trkpt>
      <trkpt lat="46.57202" lon="0.56464">
        <ele>124</ele>
        <time>2023-03-19T07:32:13Z</time>
      </trkpt>
      <trkpt lat="46.572" lon="0.56493">
        <ele>123.8</ele>
        <time>2023-03-19T07:32:17Z</time>
      </trkpt>
      <trkpt lat="46.57199" lon="0.56514">
        <ele>123.4</ele>
        <time>2023-03-19T07:32:20Z</time>
      </trkpt>
      <trkpt lat="46.57199" lon="0.56529">
        <ele>123.2</ele>
        <time>2023-03-19T07:32:22Z</time>
      </trkpt>
      <trkpt lat="46.57201" lon="0.56537">
        <ele>123</ele>
        <time>2023-03-19T07:32:23Z</time>
      </trkpt>
      <trkpt lat="46.57206" lon="0.5655">
        <ele>123</ele>
        <time>2023-03-19T07:32:25Z</time>
      </trkpt>
      <trkpt lat="46.57228" lon="0.5659">
        <ele>122.6</ele>
        <time>2023-03-19T07:32:32Z</time>
      </trkpt>
      <trkpt lat="46.57245" lon="0.56624">
        <ele>122</ele>
        <time>2023-03-19T07:32:38Z</time>
      </trkpt>
      <trkpt lat="46.57254" lon="0.56639">
        <ele>122</ele>
        <time>2023-03-19T07:32:41Z</time>
      </trkpt>
      <trkpt lat="46.57257" lon="0.56643">
        <ele>121.8</ele>
        <time>2023-03-19T07:32:42Z</time>
      </trkpt>
      <trkpt lat="46.57263" lon="0.56651">
        <ele>121.6</ele>
        <time>2023-03-19T07:32:44Z</time>
      </trkpt>
      <trkpt lat="46.57264" lon="0.5666">
        <ele>121.6</ele>
        <time>2023-03-19T07:32:46Z</time>
      </trkpt>
      <trkpt lat="46.57263" lon="0.56665">
        <ele>121.6</ele>
        <time>2023-03-19T07:32:47Z</time>
      </trkpt>
      <trkpt lat="46.57259" lon="0.56678">
        <ele>121.4</ele>
        <time>2023-03-19T07:32:49Z</time>
      </trkpt>
      <trkpt lat="46.57256" lon="0.56692">
        <ele>121.6</ele>
        <time>2023-03-19T07:32:51Z</time>
      </trkpt>
      <trkpt lat="46.57254" lon="0.56713">
        <ele>122</ele>
        <time>2023-03-19T07:32:54Z</time>
      </trkpt>
      <trkpt lat="46.57248" lon="0.5673">
        <ele>122</ele>
        <time>2023-03-19T07:32:57Z</time>
      </trkpt>
      <trkpt lat="46.57246" lon="0.56735">
        <ele>122.2</ele>
        <time>2023-03-19T07:32:58Z</time>
      </trkpt>
      <trkpt lat="46.57245" lon="0.56747">
        <ele>122.4</ele>
        <time>2023-03-19T07:33:00Z</time>
      </trkpt>
      <trkpt lat="46.57246" lon="0.56754">
        <ele>122.4</ele>
        <time>2023-03-19T07:33:01Z</time>
      </trkpt>
      <trkpt lat="46.57259" lon="0.56801">
        <ele>122.4</ele>
        <time>2023-03-19T07:33:07Z</time>
      </trkpt>
      <trkpt lat="46.5728" lon="0.56849">
        <ele>122.2</ele>
        <time>2023-03-19T07:33:13Z</time>
      </trkpt>
      <trkpt lat="46.57309" lon="0.56894">
        <ele>120.8</ele>
        <time>2023-03-19T07:33:19Z</time>
      </trkpt>
      <trkpt lat="46.57315" lon="0.56901">
        <ele>120.8</ele>
        <time>2023-03-19T07:33:20Z</time>
      </trkpt>
      <trkpt lat="46.57353" lon="0.56934">
        <ele>120</ele>
        <time>2023-03-19T07:33:26Z</time>
      </trkpt>
      <trkpt lat="46.57366" lon="0.56944">
        <ele>119.8</ele>
        <time>2023-03-19T07:33:28Z</time>
      </trkpt>
      <trkpt lat="46.57395" lon="0.56971">
        <ele>119.6</ele>
        <time>2023-03-19T07:33:33Z</time>
      </trkpt>
      <trkpt lat="46.57446" lon="0.57017">
        <ele>120</ele>
        <time>2023-03-19T07:33:42Z</time>
      </trkpt>
      <trkpt lat="46.57451" lon="0.57022">
        <ele>120</ele>
        <time>2023-03-19T07:33:43Z</time>
      </trkpt>
      <trkpt lat="46.57499" lon="0.57072">
        <ele>120.8</ele>
        <time>2023-03-19T07:33:52Z</time>
      </trkpt>
      <trkpt lat="46.57504" lon="0.57077">
        <ele>120.8</ele>
        <time>2023-03-19T07:33:53Z</time>
      </trkpt>
      <trkpt lat="46.57537" lon="0.57125">
        <ele>120.6</ele>
        <time>2023-03-19T07:34:00Z</time>
      </trkpt>
      <trkpt lat="46.57568" lon="0.57181">
        <ele>120.4</ele>
        <time>2023-03-19T07:34:07Z</time>
      </trkpt>
      <trkpt lat="46.57598" lon="0.57238">
        <ele>119</ele>
        <time>2023-03-19T07:34:14Z</time>
      </trkpt>
      <trkpt lat="46.57606" lon="0.57255">
        <ele>118.6</ele>
        <time>2023-03-19T07:34:16Z</time>
      </trkpt>
      <trkpt lat="46.57633" lon="0.57301">
        <ele>118.2</ele>
        <time>2023-03-19T07:34:22Z</time>
      </trkpt>
      <trkpt lat="46.57649" lon="0.57321">
        <ele>118.4</ele>
        <time>2023-03-19T07:34:25Z</time>
      </trkpt>
      <trkpt lat="46.5766" lon="0.5733">
        <ele>118.4</ele>
        <time>2023-03-19T07:34:27Z</time>
      </trkpt>
      <trkpt lat="46.57678" lon="0.5734">
        <ele>118.6</ele>
        <time>2023-03-19T07:34:31Z</time>
      </trkpt>
      <trkpt lat="46.57681" lon="0.57352">
        <ele>118.6</ele>
        <time>2023-03-19T07:34:34Z</time>
      </trkpt>
      <trkpt lat="46.57674" lon="0.57376">
        <ele>118.4</ele>
        <time>2023-03-19T07:34:38Z</time>
      </trkpt>
      <trkpt lat="46.5766" lon="0.57417">
        <ele>118</ele>
        <time>2023-03-19T07:34:44Z</time>
      </trkpt>
      <trkpt lat="46.57645" lon="0.57465">
        <ele>117.4</ele>
        <time>2023-03-19T07:34:51Z</time>
      </trkpt>
      <trkpt lat="46.57637" lon="0.57503">
        <ele>117</ele>
        <time>2023-03-19T07:34:57Z</time>
      </trkpt>
      <trkpt lat="46.57624" lon="0.5756">
        <ele>116.2</ele>
        <time>2023-03-19T07:35:04Z</time>
      </trkpt>
      <trkpt lat="46.57613" lon="0.57602">
        <ele>115.2</ele>
        <time>2023-03-19T07:35:12Z</time>
      </trkpt>
      <trkpt lat="46.57612" lon="0.57607">
        <ele>115.2</ele>
        <time>2023-03-19T07:35:13Z</time>
      </trkpt>
      <trkpt lat="46.57605" lon="0.57636">
        <ele>114.4</ele>
        <time>2023-03-19T07:35:18Z</time>
      </trkpt>
      <trkpt lat="46.57603" lon="0.57643">
        <ele>114.2</ele>
        <time>2023-03-19T07:35:19Z</time>
      </trkpt>
      <trkpt lat="46.576" lon="0.5766">
        <ele>113.8</ele>
        <time>2023-03-19T07:35:21Z</time>
      </trkpt>
      <trkpt lat="46.57598" lon="0.57677">
        <ele>112.8</ele>
        <time>2023-03-19T07:35:23Z</time>
      </trkpt>
      <trkpt lat="46.57595" lon="0.5773">
        <ele>112.2</ele>
        <time>2023-03-19T07:35:29Z</time>
      </trkpt>
      <trkpt lat="46.57597" lon="0.57767">
        <ele>112.6</ele>
        <time>2023-03-19T07:35:34Z</time>
      </trkpt>
      <trkpt lat="46.57599" lon="0.57781">
        <ele>112.6</ele>
        <time>2023-03-19T07:35:36Z</time>
      </trkpt>
      <trkpt lat="46.57602" lon="0.57808">
        <ele>112.6</ele>
        <time>2023-03-19T07:35:40Z</time>
      </trkpt>
      <trkpt lat="46.57608" lon="0.57838">
        <ele>114</ele>
        <time>2023-03-19T07:35:45Z</time>
      </trkpt>
      <trkpt lat="46.5761" lon="0.57848">
        <ele>114.6</ele>
        <time>2023-03-19T07:35:47Z</time>
      </trkpt>
      <trkpt lat="46.57612" lon="0.57859">
        <ele>115.4</ele>
        <time>2023-03-19T07:35:49Z</time>
      </trkpt>
      <trkpt lat="46.57613" lon="0.57869">
        <ele>116.2</ele>
        <time>2023-03-19T07:35:51Z</time>
      </trkpt>
      <trkpt lat="46.57614" lon="0.57875">
        <ele>116.4</ele>
        <time>2023-03-19T07:35:52Z</time>
      </trkpt>
      <trkpt lat="46.57614" lon="0.5788">
        <ele>116.6</ele>
        <time>2023-03-19T07:35:53Z</time>
      </trkpt>
      <trkpt lat="46.57617" lon="0.57893">
        <ele>117.6</ele>
        <time>2023-03-19T07:35:56Z</time>
      </trkpt>
      <trkpt lat="46.5762" lon="0.57907">
        <ele>118.2</ele>
        <time>2023-03-19T07:35:59Z</time>
      </trkpt>
      <trkpt lat="46.57622" lon="0.57922">
        <ele>118.6</ele>
        <time>2023-03-19T07:36:02Z</time>
      </trkpt>
      <trkpt lat="46.57624" lon="0.5794">
        <ele>119.2</ele>
        <time>2023-03-19T07:36:05Z</time>
      </trkpt>
      <trkpt lat="46.57627" lon="0.57968">
        <ele>119.4</ele>
        <time>2023-03-19T07:36:10Z</time>
      </trkpt>
      <trkpt lat="46.57627" lon="0.57973">
        <ele>119.4</ele>
        <time>2023-03-19T07:36:11Z</time>
      </trkpt>
      <trkpt lat="46.57627" lon="0.57982">
        <ele>119.4</ele>
        <time>2023-03-19T07:36:13Z</time>
      </trkpt>
      <trkpt lat="46.5763" lon="0.57992">
        <ele>119.6</ele>
        <time>2023-03-19T07:36:16Z</time>
      </trkpt>
      <trkpt lat="46.57633" lon="0.58017">
        <ele>119.4</ele>
        <time>2023-03-19T07:36:22Z</time>
      </trkpt>
      <trkpt lat="46.57636" lon="0.58036">
        <ele>119.2</ele>
        <time>2023-03-19T07:36:27Z</time>
      </trkpt>
      <trkpt lat="46.5764" lon="0.58063">
        <ele>119.2</ele>
        <time>2023-03-19T07:36:34Z</time>
      </trkpt>
      <trkpt lat="46.57642" lon="0.58093">
        <ele>119.4</ele>
        <time>2023-03-19T07:36:41Z</time>
      </trkpt>
      <trkpt lat="46.57642" lon="0.58101">
        <ele>119.6</ele>
        <time>2023-03-19T07:36:43Z</time>
      </trkpt>
      <trkpt lat="46.57641" lon="0.58104">
        <ele>119.6</ele>
        <time>2023-03-19T07:36:44Z</time>
      </trkpt>
      <trkpt lat="46.57639" lon="0.58106">
        <ele>119.8</ele>
        <time>2023-03-19T07:36:45Z</time>
      </trkpt>
      <trkpt lat="46.57635" lon="0.58113">
        <ele>119.8</ele>
        <time>2023-03-19T07:36:48Z</time>
      </trkpt>
      <trkpt lat="46.57628" lon="0.58125">
        <ele>120</ele>
        <time>2023-03-19T07:36:53Z</time>
      </trkpt>
      <trkpt lat="46.57626" lon="0.58127">
        <ele>120</ele>
        <time>2023-03-19T07:36:54Z</time>
      </trkpt>
      <trkpt lat="46.57617" lon="0.58132">
        <ele>120</ele>
        <time>2023-03-19T07:36:58Z</time>
      </trkpt>
      <trkpt lat="46.57601" lon="0.5814">
        <ele>120</ele>
        <time>2023-03-19T07:37:04Z</time>
      </trkpt>
      <trkpt lat="46.5759" lon="0.58138">
        <ele>120</ele>
        <time>2023-03-19T07:37:09Z</time>
      </trkpt>
      <trkpt lat="46.57575" lon="0.58142">
        <ele>119.8</ele>
        <time>2023-03-19T07:37:14Z</time>
      </trkpt>
      <trkpt lat="46.57563" lon="0.58155">
        <ele>120</ele>
        <time>2023-03-19T07:37:18Z</time>
      </trkpt>
      <trkpt lat="46.57561" lon="0.58159">
        <ele>120.2</ele>
        <time>2023-03-19T07:37:19Z</time>
      </trkpt>
      <trkpt lat="46.57555" lon="0.58167">
        <ele>119.8</ele>
        <time>2023-03-19T07:37:22Z</time>
      </trkpt>
      <trkpt lat="46.57543" lon="0.58173">
        <ele>120</ele>
        <time>2023-03-19T07:37:27Z</time>
      </trkpt>
      <trkpt lat="46.57532" lon="0.58176">
        <ele>119.6</ele>
        <time>2023-03-19T07:37:32Z</time>
      </trkpt>
      <trkpt lat="46.5753" lon="0.58179">
        <ele>119.6</ele>
        <time>2023-03-19T07:37:33Z</time>
      </trkpt>
      <trkpt lat="46.57528" lon="0.58186">
        <ele>119.2</ele>
        <time>2023-03-19T07:37:36Z</time>
      </trkpt>
      <trkpt lat="46.57523" lon="0.58197">
        <ele>119</ele>
        <time>2023-03-19T07:37:40Z</time>
      </trkpt>
      <trkpt lat="46.57522" lon="0.582">
        <ele>119</ele>
        <time>2023-03-19T07:37:41Z</time>
      </trkpt>
      <trkpt lat="46.57518" lon="0.58215">
        <ele>118.8</ele>
        <time>2023-03-19T07:37:46Z</time>
      </trkpt>
      <trkpt lat="46.57517" lon="0.58218">
        <ele>118.6</ele>
        <time>2023-03-19T07:37:47Z</time>
      </trkpt>
      <trkpt lat="46.57516" lon="0.58221">
        <ele>118.6</ele>
        <time>2023-03-19T07:37:48Z</time>
      </trkpt>
      <trkpt lat="46.57512" lon="0.58233">
        <ele>118.4</ele>
        <time>2023-03-19T07:37:52Z</time>
      </trkpt>
      <trkpt lat="46.57511" lon="0.58237">
        <ele>118.2</ele>
        <time>2023-03-19T07:37:54Z</time>
      </trkpt>
      <trkpt lat="46.57509" lon="0.58244">
        <ele>118</ele>
        <time>2023-03-19T07:37:56Z</time>
      </trkpt>
      <trkpt lat="46.57508" lon="0.58247">
        <ele>118</ele>
        <time>2023-03-19T07:37:57Z</time>
      </trkpt>
      <trkpt lat="46.575" lon="0.58268">
        <ele>117.6</ele>
        <time>2023-03-19T07:38:03Z</time>
      </trkpt>
      <trkpt lat="46.57483" lon="0.58295">
        <ele>117.2</ele>
        <time>2023-03-19T07:38:10Z</time>
      </trkpt>
      <trkpt lat="46.57469" lon="0.58322">
        <ele>117.2</ele>
        <time>2023-03-19T07:38:15Z</time>
      </trkpt>
      <trkpt lat="46.5746" lon="0.58348">
        <ele>116.8</ele>
        <time>2023-03-19T07:38:20Z</time>
      </trkpt>
      <trkpt lat="46.57457" lon="0.58357">
        <ele>116.8</ele>
        <time>2023-03-19T07:38:22Z</time>
      </trkpt>
      <trkpt lat="46.57451" lon="0.5836">
        <ele>116.6</ele>
        <time>2023-03-19T07:38:24Z</time>
      </trkpt>
      <trkpt lat="46.57438" lon="0.58369">
        <ele>116.8</ele>
        <time>2023-03-19T07:38:28Z</time>
      </trkpt>
      <trkpt lat="46.57418" lon="0.58381">
        <ele>116.4</ele>
        <time>2023-03-19T07:38:33Z</time>
      </trkpt>
      <trkpt lat="46.57399" lon="0.58388">
        <ele>116.2</ele>
        <time>2023-03-19T07:38:38Z</time>
      </trkpt>
      <trkpt lat="46.57379" lon="0.58391">
        <ele>116.2</ele>
        <time>2023-03-19T07:38:43Z</time>
      </trkpt>
      <trkpt lat="46.57365" lon="0.58396">
        <ele>115.6</ele>
        <time>2023-03-19T07:38:47Z</time>
      </trkpt>
      <trkpt lat="46.57355" lon="0.58406">
        <ele>115.4</ele>
        <time>2023-03-19T07:38:50Z</time>
      </trkpt>
      <trkpt lat="46.57343" lon="0.58417">
        <ele>115.2</ele>
        <time>2023-03-19T07:38:54Z</time>
      </trkpt>
      <trkpt lat="46.5733" lon="0.58436">
        <ele>114.8</ele>
        <time>2023-03-19T07:38:59Z</time>
      </trkpt>
      <trkpt lat="46.57318" lon="0.58454">
        <ele>114.6</ele>
        <time>2023-03-19T07:39:04Z</time>
      </trkpt>
      <trkpt lat="46.57314" lon="0.58465">
        <ele>114</ele>
        <time>2023-03-19T07:39:06Z</time>
      </trkpt>
      <trkpt lat="46.5731" lon="0.58474">
        <ele>113.6</ele>
        <time>2023-03-19T07:39:08Z</time>
      </trkpt>
      <trkpt lat="46.5731" lon="0.58484">
        <ele>113</ele>
        <time>2023-03-19T07:39:10Z</time>
      </trkpt>
      <trkpt lat="46.57311" lon="0.58493">
        <ele>112.8</ele>
        <time>2023-03-19T07:39:12Z</time>
      </trkpt>
      <trkpt lat="46.57305" lon="0.58517">
        <ele>112</ele>
        <time>2023-03-19T07:39:17Z</time>
      </trkpt>
      <trkpt lat="46.57302" lon="0.58521">
        <ele>111.8</ele>
        <time>2023-03-19T07:39:18Z</time>
      </trkpt>
      <trkpt lat="46.57296" lon="0.5853">
        <ele>111</ele>
        <time>2023-03-19T07:39:20Z</time>
      </trkpt>
      <trkpt lat="46.57293" lon="0.58533">
        <ele>110.6</ele>
        <time>2023-03-19T07:39:21Z</time>
      </trkpt>
      <trkpt lat="46.57289" lon="0.5854">
        <ele>110.2</ele>
        <time>2023-03-19T07:39:23Z</time>
      </trkpt>
      <trkpt lat="46.57289" lon="0.58544">
        <ele>110</ele>
        <time>2023-03-19T07:39:24Z</time>
      </trkpt>
      <trkpt lat="46.5729" lon="0.58552">
        <ele>109.8</ele>
        <time>2023-03-19T07:39:26Z</time>
      </trkpt>
      <trkpt lat="46.57296" lon="0.58558">
        <ele>109.8</ele>
        <time>2023-03-19T07:39:28Z</time>
      </trkpt>
      <trkpt lat="46.573" lon="0.58559">
        <ele>109.6</ele>
        <time>2023-03-19T07:39:29Z</time>
      </trkpt>
      <trkpt lat="46.57309" lon="0.5856">
        <ele>110</ele>
        <time>2023-03-19T07:39:31Z</time>
      </trkpt>
      <trkpt lat="46.57319" lon="0.58563">
        <ele>110.2</ele>
        <time>2023-03-19T07:39:33Z</time>
      </trkpt>
      <trkpt lat="46.57356" lon="0.5858">
        <ele>109.2</ele>
        <time>2023-03-19T07:39:40Z</time>
      </trkpt>
      <trkpt lat="46.57361" lon="0.58584">
        <ele>109</ele>
        <time>2023-03-19T07:39:41Z</time>
      </trkpt>
      <trkpt lat="46.57369" lon="0.58596">
        <ele>108.8</ele>
        <time>2023-03-19T07:39:43Z</time>
      </trkpt>
      <trkpt lat="46.57376" lon="0.58607">
        <ele>108.8</ele>
        <time>2023-03-19T07:39:45Z</time>
      </trkpt>
      <trkpt lat="46.57379" lon="0.58621">
        <ele>108.8</ele>
        <time>2023-03-19T07:39:47Z</time>
      </trkpt>
      <trkpt lat="46.57379" lon="0.58629">
        <ele>108.8</ele>
        <time>2023-03-19T07:39:48Z</time>
      </trkpt>
      <trkpt lat="46.57378" lon="0.58635">
        <ele>108.8</ele>
        <time>2023-03-19T07:39:49Z</time>
      </trkpt>
      <trkpt lat="46.57373" lon="0.58652">
        <ele>109.6</ele>
        <time>2023-03-19T07:39:52Z</time>
      </trkpt>
      <trkpt lat="46.5737" lon="0.58662">
        <ele>111</ele>
        <time>2023-03-19T07:39:54Z</time>
      </trkpt>
      <trkpt lat="46.57368" lon="0.58672">
        <ele>112.2</ele>
        <time>2023-03-19T07:39:56Z</time>
      </trkpt>
      <trkpt lat="46.57362" lon="0.58685">
        <ele>113</ele>
        <time>2023-03-19T07:39:59Z</time>
      </trkpt>
      <trkpt lat="46.57361" lon="0.5869">
        <ele>113.6</ele>
        <time>2023-03-19T07:40:00Z</time>
      </trkpt>
      <trkpt lat="46.57355" lon="0.58708">
        <ele>114.6</ele>
        <time>2023-03-19T07:40:04Z</time>
      </trkpt>
      <trkpt lat="46.57353" lon="0.58717">
        <ele>115.4</ele>
        <time>2023-03-19T07:40:06Z</time>
      </trkpt>
      <trkpt lat="46.5735" lon="0.58727">
        <ele>115.8</ele>
        <time>2023-03-19T07:40:08Z</time>
      </trkpt>
      <trkpt lat="46.57344" lon="0.58749">
        <ele>117.2</ele>
        <time>2023-03-19T07:40:13Z</time>
      </trkpt>
      <trkpt lat="46.57342" lon="0.58757">
        <ele>117.4</ele>
        <time>2023-03-19T07:40:15Z</time>
      </trkpt>
      <trkpt lat="46.57339" lon="0.58765">
        <ele>118.4</ele>
        <time>2023-03-19T07:40:17Z</time>
      </trkpt>
      <trkpt lat="46.57334" lon="0.58783">
        <ele>119.6</ele>
        <time>2023-03-19T07:40:21Z</time>
      </trkpt>
      <trkpt lat="46.57331" lon="0.58792">
        <ele>119.8</ele>
        <time>2023-03-19T07:40:23Z</time>
      </trkpt>
      <trkpt lat="46.57318" lon="0.58839">
        <ele>120.6</ele>
        <time>2023-03-19T07:40:32Z</time>
      </trkpt>
      <trkpt lat="46.57316" lon="0.58844">
        <ele>120.6</ele>
        <time>2023-03-19T07:40:33Z</time>
      </trkpt>
      <trkpt lat="46.57306" lon="0.5888">
        <ele>121.8</ele>
        <time>2023-03-19T07:40:40Z</time>
      </trkpt>
      <trkpt lat="46.57303" lon="0.58891">
        <ele>121.8</ele>
        <time>2023-03-19T07:40:42Z</time>
      </trkpt>
      <trkpt lat="46.57289" lon="0.58943">
        <ele>122.6</ele>
        <time>2023-03-19T07:40:51Z</time>
      </trkpt>
      <trkpt lat="46.57289" lon="0.58949">
        <ele>122.6</ele>
        <time>2023-03-19T07:40:52Z</time>
      </trkpt>
      <trkpt lat="46.57292" lon="0.58965">
        <ele>122.6</ele>
        <time>2023-03-19T07:40:55Z</time>
      </trkpt>
      <trkpt lat="46.57294" lon="0.5897">
        <ele>122.8</ele>
        <time>2023-03-19T07:40:56Z</time>
      </trkpt>
      <trkpt lat="46.57305" lon="0.58992">
        <ele>123.6</ele>
        <time>2023-03-19T07:41:01Z</time>
      </trkpt>
      <trkpt lat="46.5731" lon="0.59001">
        <ele>124.2</ele>
        <time>2023-03-19T07:41:03Z</time>
      </trkpt>
      <trkpt lat="46.57331" lon="0.5903">
        <ele>124.8</ele>
        <time>2023-03-19T07:41:10Z</time>
      </trkpt>
      <trkpt lat="46.57351" lon="0.59055">
        <ele>125.2</ele>
        <time>2023-03-19T07:41:16Z</time>
      </trkpt>
      <trkpt lat="46.57364" lon="0.59072">
        <ele>126</ele>
        <time>2023-03-19T07:41:20Z</time>
      </trkpt>
      <trkpt lat="46.57374" lon="0.59085">
        <ele>126.2</ele>
        <time>2023-03-19T07:41:23Z</time>
      </trkpt>
      <trkpt lat="46.57393" lon="0.59111">
        <ele>126.4</ele>
        <time>2023-03-19T07:41:29Z</time>
      </trkpt>
      <trkpt lat="46.57423" lon="0.59149">
        <ele>126.6</ele>
        <time>2023-03-19T07:41:38Z</time>
      </trkpt>
      <trkpt lat="46.57455" lon="0.59193">
        <ele>127.2</ele>
        <time>2023-03-19T07:41:48Z</time>
      </trkpt>
      <trkpt lat="46.57458" lon="0.59197">
        <ele>127.4</ele>
        <time>2023-03-19T07:41:49Z</time>
      </trkpt>
      <trkpt lat="46.57483" lon="0.59231">
        <ele>127.4</ele>
        <time>2023-03-19T07:41:57Z</time>
      </trkpt>
      <trkpt lat="46.57503" lon="0.59254">
        <ele>127.8</ele>
        <time>2023-03-19T07:42:03Z</time>
      </trkpt>
      <trkpt lat="46.57506" lon="0.59256">
        <ele>127.8</ele>
        <time>2023-03-19T07:42:04Z</time>
      </trkpt>
      <trkpt lat="46.57521" lon="0.59249">
        <ele>127.8</ele>
        <time>2023-03-19T07:42:08Z</time>
      </trkpt>
      <trkpt lat="46.5753" lon="0.59238">
        <ele>127.8</ele>
        <time>2023-03-19T07:42:11Z</time>
      </trkpt>
      <trkpt lat="46.57538" lon="0.59228">
        <ele>127.8</ele>
        <time>2023-03-19T07:42:14Z</time>
      </trkpt>
      <trkpt lat="46.57541" lon="0.59224">
        <ele>127.8</ele>
        <time>2023-03-19T07:42:15Z</time>
      </trkpt>
      <trkpt lat="46.57547" lon="0.59216">
        <ele>127.8</ele>
        <time>2023-03-19T07:42:17Z</time>
      </trkpt>
      <trkpt lat="46.5755" lon="0.59214">
        <ele>127.8</ele>
        <time>2023-03-19T07:42:18Z</time>
      </trkpt>
      <trkpt lat="46.57553" lon="0.59213">
        <ele>127.6</ele>
        <time>2023-03-19T07:42:19Z</time>
      </trkpt>
      <trkpt lat="46.57554" lon="0.59214">
        <ele>127.4</ele>
        <time>2023-03-19T07:42:20Z</time>
      </trkpt>
      <trkpt lat="46.57556" lon="0.59214">
        <ele>127.4</ele>
        <time>2023-03-19T07:42:21Z</time>
      </trkpt>
      <trkpt lat="46.57558" lon="0.59214">
        <ele>127.4</ele>
        <time>2023-03-19T07:42:22Z</time>
      </trkpt>
      <trkpt lat="46.57561" lon="0.59208">
        <ele>127.2</ele>
        <time>2023-03-19T07:42:25Z</time>
      </trkpt>
      <trkpt lat="46.57564" lon="0.592">
        <ele>126.6</ele>
        <time>2023-03-19T07:42:30Z</time>
      </trkpt>
      <trkpt lat="46.57568" lon="0.59194">
        <ele>126.4</ele>
        <time>2023-03-19T07:42:35Z</time>
      </trkpt>
      <trkpt lat="46.57571" lon="0.59187">
        <ele>126.4</ele>
        <time>2023-03-19T07:42:38Z</time>
      </trkpt>
      <trkpt lat="46.57573" lon="0.59183">
        <ele>126.4</ele>
        <time>2023-03-19T07:42:40Z</time>
      </trkpt>
      <trkpt lat="46.57581" lon="0.59169">
        <ele>126.2</ele>
        <time>2023-03-19T07:42:45Z</time>
      </trkpt>
      <trkpt lat="46.57587" lon="0.5916">
        <ele>125.8</ele>
        <time>2023-03-19T07:42:48Z</time>
      </trkpt>
      <trkpt lat="46.57592" lon="0.59157">
        <ele>125.6</ele>
        <time>2023-03-19T07:42:50Z</time>
      </trkpt>
      <trkpt lat="46.57597" lon="0.59155">
        <ele>125.2</ele>
        <time>2023-03-19T07:42:52Z</time>
      </trkpt>
      <trkpt lat="46.57602" lon="0.59152">
        <ele>125</ele>
        <time>2023-03-19T07:42:54Z</time>
      </trkpt>
      <trkpt lat="46.57617" lon="0.59136">
        <ele>124.2</ele>
        <time>2023-03-19T07:43:00Z</time>
      </trkpt>
      <trkpt lat="46.57619" lon="0.59136">
        <ele>124</ele>
        <time>2023-03-19T07:43:01Z</time>
      </trkpt>
      <trkpt lat="46.57631" lon="0.59137">
        <ele>123.8</ele>
        <time>2023-03-19T07:43:06Z</time>
      </trkpt>
      <trkpt lat="46.57638" lon="0.59127">
        <ele>123.6</ele>
        <time>2023-03-19T07:43:10Z</time>
      </trkpt>
      <trkpt lat="46.5764" lon="0.59121">
        <ele>123.4</ele>
        <time>2023-03-19T07:43:12Z</time>
      </trkpt>
      <trkpt lat="46.57643" lon="0.59115">
        <ele>122.8</ele>
        <time>2023-03-19T07:43:14Z</time>
      </trkpt>
      <trkpt lat="46.5765" lon="0.59109">
        <ele>122</ele>
        <time>2023-03-19T07:43:16Z</time>
      </trkpt>
      <trkpt lat="46.57652" lon="0.59106">
        <ele>121.8</ele>
        <time>2023-03-19T07:43:17Z</time>
      </trkpt>
      <trkpt lat="46.57665" lon="0.591">
        <ele>121.4</ele>
        <time>2023-03-19T07:43:21Z</time>
      </trkpt>
      <trkpt lat="46.57667" lon="0.59098">
        <ele>121.4</ele>
        <time>2023-03-19T07:43:22Z</time>
      </trkpt>
      <trkpt lat="46.57674" lon="0.59086">
        <ele>121</ele>
        <time>2023-03-19T07:43:26Z</time>
      </trkpt>
      <trkpt lat="46.57676" lon="0.59081">
        <ele>120.8</ele>
        <time>2023-03-19T07:43:28Z</time>
      </trkpt>
      <trkpt lat="46.57677" lon="0.59078">
        <ele>120.8</ele>
        <time>2023-03-19T07:43:29Z</time>
      </trkpt>
      <trkpt lat="46.57683" lon="0.59073">
        <ele>120.4</ele>
        <time>2023-03-19T07:43:31Z</time>
      </trkpt>
      <trkpt lat="46.5769" lon="0.59068">
        <ele>119.8</ele>
        <time>2023-03-19T07:43:34Z</time>
      </trkpt>
      <trkpt lat="46.57693" lon="0.59064">
        <ele>119.4</ele>
        <time>2023-03-19T07:43:35Z</time>
      </trkpt>
      <trkpt lat="46.57698" lon="0.59053">
        <ele>119</ele>
        <time>2023-03-19T07:43:38Z</time>
      </trkpt>
      <trkpt lat="46.57703" lon="0.5904">
        <ele>118</ele>
        <time>2023-03-19T07:43:41Z</time>
      </trkpt>
      <trkpt lat="46.5771" lon="0.59032">
        <ele>117</ele>
        <time>2023-03-19T07:43:43Z</time>
      </trkpt>
      <trkpt lat="46.57713" lon="0.59029">
        <ele>116.8</ele>
        <time>2023-03-19T07:43:44Z</time>
      </trkpt>
      <trkpt lat="46.57716" lon="0.59025">
        <ele>116.6</ele>
        <time>2023-03-19T07:43:45Z</time>
      </trkpt>
      <trkpt lat="46.57722" lon="0.59016">
        <ele>115.6</ele>
        <time>2023-03-19T07:43:47Z</time>
      </trkpt>
      <trkpt lat="46.57731" lon="0.59005">
        <ele>115</ele>
        <time>2023-03-19T07:43:50Z</time>
      </trkpt>
      <trkpt lat="46.57736" lon="0.58993">
        <ele>114</ele>
        <time>2023-03-19T07:43:53Z</time>
      </trkpt>
      <trkpt lat="46.57741" lon="0.58984">
        <ele>112.8</ele>
        <time>2023-03-19T07:43:55Z</time>
      </trkpt>
      <trkpt lat="46.57743" lon="0.58979">
        <ele>112.6</ele>
        <time>2023-03-19T07:43:56Z</time>
      </trkpt>
      <trkpt lat="46.5775" lon="0.58964">
        <ele>111.6</ele>
        <time>2023-03-19T07:43:59Z</time>
      </trkpt>
      <trkpt lat="46.57765" lon="0.58957">
        <ele>110.4</ele>
        <time>2023-03-19T07:44:03Z</time>
      </trkpt>
      <trkpt lat="46.57776" lon="0.58953">
        <ele>109.8</ele>
        <time>2023-03-19T07:44:06Z</time>
      </trkpt>
      <trkpt lat="46.57778" lon="0.5895">
        <ele>109.8</ele>
        <time>2023-03-19T07:44:07Z</time>
      </trkpt>
      <trkpt lat="46.57784" lon="0.58944">
        <ele>109.2</ele>
        <time>2023-03-19T07:44:09Z</time>
      </trkpt>
      <trkpt lat="46.57791" lon="0.58936">
        <ele>107.8</ele>
        <time>2023-03-19T07:44:12Z</time>
      </trkpt>
      <trkpt lat="46.57793" lon="0.58935">
        <ele>107.4</ele>
        <time>2023-03-19T07:44:13Z</time>
      </trkpt>
      <trkpt lat="46.57798" lon="0.58933">
        <ele>106.8</ele>
        <time>2023-03-19T07:44:16Z</time>
      </trkpt>
      <trkpt lat="46.57801" lon="0.58931">
        <ele>106.6</ele>
        <time>2023-03-19T07:44:17Z</time>
      </trkpt>
      <trkpt lat="46.5781" lon="0.5892">
        <ele>106</ele>
        <time>2023-03-19T07:44:22Z</time>
      </trkpt>
      <trkpt lat="46.57811" lon="0.58917">
        <ele>105.4</ele>
        <time>2023-03-19T07:44:23Z</time>
      </trkpt>
      <trkpt lat="46.57816" lon="0.5891">
        <ele>105</ele>
        <time>2023-03-19T07:44:26Z</time>
      </trkpt>
      <trkpt lat="46.57819" lon="0.58907">
        <ele>104.8</ele>
        <time>2023-03-19T07:44:27Z</time>
      </trkpt>
      <trkpt lat="46.57821" lon="0.58907">
        <ele>104.4</ele>
        <time>2023-03-19T07:44:28Z</time>
      </trkpt>
      <trkpt lat="46.57827" lon="0.58904">
        <ele>104.2</ele>
        <time>2023-03-19T07:44:30Z</time>
      </trkpt>
      <trkpt lat="46.57831" lon="0.58899">
        <ele>104</ele>
        <time>2023-03-19T07:44:32Z</time>
      </trkpt>
      <trkpt lat="46.57836" lon="0.58891">
        <ele>103.4</ele>
        <time>2023-03-19T07:44:35Z</time>
      </trkpt>
      <trkpt lat="46.57837" lon="0.5889">
        <ele>103</ele>
        <time>2023-03-19T07:44:37Z</time>
      </trkpt>
      <trkpt lat="46.5784" lon="0.58901">
        <ele>103.4</ele>
        <time>2023-03-19T07:44:43Z</time>
      </trkpt>
      <trkpt lat="46.57843" lon="0.58914">
        <ele>104.6</ele>
        <time>2023-03-19T07:44:47Z</time>
      </trkpt>
      <trkpt lat="46.57844" lon="0.58922">
        <ele>105.4</ele>
        <time>2023-03-19T07:44:49Z</time>
      </trkpt>
      <trkpt lat="46.57846" lon="0.58929">
        <ele>105.8</ele>
        <time>2023-03-19T07:44:51Z</time>
      </trkpt>
      <trkpt lat="46.57849" lon="0.58941">
        <ele>106.6</ele>
        <time>2023-03-19T07:44:55Z</time>
      </trkpt>
      <trkpt lat="46.57852" lon="0.5895">
        <ele>107.2</ele>
        <time>2023-03-19T07:44:58Z</time>
      </trkpt>
      <trkpt lat="46.57855" lon="0.5896">
        <ele>108</ele>
        <time>2023-03-19T07:45:01Z</time>
      </trkpt>
      <trkpt lat="46.57856" lon="0.58963">
        <ele>108.2</ele>
        <time>2023-03-19T07:45:02Z</time>
      </trkpt>
      <trkpt lat="46.57861" lon="0.58975">
        <ele>109.4</ele>
        <time>2023-03-19T07:45:06Z</time>
      </trkpt>
      <trkpt lat="46.57864" lon="0.58981">
        <ele>109.8</ele>
        <time>2023-03-19T07:45:08Z</time>
      </trkpt>
      <trkpt lat="46.57865" lon="0.58989">
        <ele>110.4</ele>
        <time>2023-03-19T07:45:10Z</time>
      </trkpt>
      <trkpt lat="46.5787" lon="0.59002">
        <ele>111.4</ele>
        <time>2023-03-19T07:45:14Z</time>
      </trkpt>
      <trkpt lat="46.57871" lon="0.59005">
        <ele>111.4</ele>
        <time>2023-03-19T07:45:15Z</time>
      </trkpt>
      <trkpt lat="46.57875" lon="0.59021">
        <ele>112</ele>
        <time>2023-03-19T07:45:19Z</time>
      </trkpt>
      <trkpt lat="46.57876" lon="0.59028">
        <ele>112.6</ele>
        <time>2023-03-19T07:45:21Z</time>
      </trkpt>
      <trkpt lat="46.57876" lon="0.59044">
        <ele>114</ele>
        <time>2023-03-19T07:45:25Z</time>
      </trkpt>
      <trkpt lat="46.57875" lon="0.59065">
        <ele>115.2</ele>
        <time>2023-03-19T07:45:30Z</time>
      </trkpt>
      <trkpt lat="46.57874" lon="0.59074">
        <ele>115.4</ele>
        <time>2023-03-19T07:45:32Z</time>
      </trkpt>
      <trkpt lat="46.57873" lon="0.59088">
        <ele>116.2</ele>
        <time>2023-03-19T07:45:36Z</time>
      </trkpt>
      <trkpt lat="46.57872" lon="0.59098">
        <ele>117</ele>
        <time>2023-03-19T07:45:39Z</time>
      </trkpt>
      <trkpt lat="46.57874" lon="0.59113">
        <ele>117.2</ele>
        <time>2023-03-19T07:45:43Z</time>
      </trkpt>
      <trkpt lat="46.57873" lon="0.59123">
        <ele>117.6</ele>
        <time>2023-03-19T07:45:45Z</time>
      </trkpt>
      <trkpt lat="46.57867" lon="0.5914">
        <ele>118.2</ele>
        <time>2023-03-19T07:45:49Z</time>
      </trkpt>
      <trkpt lat="46.57865" lon="0.59145">
        <ele>118.4</ele>
        <time>2023-03-19T07:45:51Z</time>
      </trkpt>
      <trkpt lat="46.57863" lon="0.59154">
        <ele>119.2</ele>
        <time>2023-03-19T07:45:54Z</time>
      </trkpt>
      <trkpt lat="46.5786" lon="0.59166">
        <ele>120</ele>
        <time>2023-03-19T07:45:58Z</time>
      </trkpt>
      <trkpt lat="46.57858" lon="0.59172">
        <ele>120.4</ele>
        <time>2023-03-19T07:46:00Z</time>
      </trkpt>
      <trkpt lat="46.57856" lon="0.59186">
        <ele>121</ele>
        <time>2023-03-19T07:46:05Z</time>
      </trkpt>
      <trkpt lat="46.57857" lon="0.59194">
        <ele>121.6</ele>
        <time>2023-03-19T07:46:08Z</time>
      </trkpt>
      <trkpt lat="46.57859" lon="0.59205">
        <ele>122</ele>
        <time>2023-03-19T07:46:12Z</time>
      </trkpt>
      <trkpt lat="46.57867" lon="0.59224">
        <ele>122.6</ele>
        <time>2023-03-19T07:46:18Z</time>
      </trkpt>
      <trkpt lat="46.57868" lon="0.59227">
        <ele>122.6</ele>
        <time>2023-03-19T07:46:19Z</time>
      </trkpt>
      <trkpt lat="46.57875" lon="0.59246">
        <ele>122.6</ele>
        <time>2023-03-19T07:46:24Z</time>
      </trkpt>
      <trkpt lat="46.57886" lon="0.59262">
        <ele>122.8</ele>
        <time>2023-03-19T07:46:29Z</time>
      </trkpt>
      <trkpt lat="46.57902" lon="0.5929">
        <ele>122.6</ele>
        <time>2023-03-19T07:46:34Z</time>
      </trkpt>
      <trkpt lat="46.57922" lon="0.5932">
        <ele>123</ele>
        <time>2023-03-19T07:46:40Z</time>
      </trkpt>
      <trkpt lat="46.57946" lon="0.59357">
        <ele>122.4</ele>
        <time>2023-03-19T07:46:47Z</time>
      </trkpt>
      <trkpt lat="46.5795" lon="0.59362">
        <ele>122.4</ele>
        <time>2023-03-19T07:46:48Z</time>
      </trkpt>
      <trkpt lat="46.57968" lon="0.59387">
        <ele>122.6</ele>
        <time>2023-03-19T07:46:54Z</time>
      </trkpt>
      <trkpt lat="46.57971" lon="0.5939">
        <ele>122.4</ele>
        <time>2023-03-19T07:46:55Z</time>
      </trkpt>
      <trkpt lat="46.57991" lon="0.59409">
        <ele>122</ele>
        <time>2023-03-19T07:47:01Z</time>
      </trkpt>
      <trkpt lat="46.58005" lon="0.59426">
        <ele>121.6</ele>
        <time>2023-03-19T07:47:04Z</time>
      </trkpt>
      <trkpt lat="46.58025" lon="0.59451">
        <ele>121.6</ele>
        <time>2023-03-19T07:47:11Z</time>
      </trkpt>
      <trkpt lat="46.58035" lon="0.59469">
        <ele>121.4</ele>
        <time>2023-03-19T07:47:16Z</time>
      </trkpt>
      <trkpt lat="46.58039" lon="0.59476">
        <ele>121.2</ele>
        <time>2023-03-19T07:47:19Z</time>
      </trkpt>
      <trkpt lat="46.5804" lon="0.59479">
        <ele>121.2</ele>
        <time>2023-03-19T07:47:21Z</time>
      </trkpt>
      <trkpt lat="46.58045" lon="0.59469">
        <ele>120.2</ele>
        <time>2023-03-19T07:47:26Z</time>
      </trkpt>
      <trkpt lat="46.58047" lon="0.59463">
        <ele>119.2</ele>
        <time>2023-03-19T07:47:30Z</time>
      </trkpt>
      <trkpt lat="46.58047" lon="0.59461">
        <ele>119</ele>
        <time>2023-03-19T07:47:31Z</time>
      </trkpt>
      <trkpt lat="46.58052" lon="0.59449">
        <ele>118.2</ele>
        <time>2023-03-19T07:47:35Z</time>
      </trkpt>
      <trkpt lat="46.58054" lon="0.59446">
        <ele>118</ele>
        <time>2023-03-19T07:47:36Z</time>
      </trkpt>
      <trkpt lat="46.58062" lon="0.59424">
        <ele>116.8</ele>
        <time>2023-03-19T07:47:41Z</time>
      </trkpt>
      <trkpt lat="46.58068" lon="0.59401">
        <ele>115.8</ele>
        <time>2023-03-19T07:47:45Z</time>
      </trkpt>
      <trkpt lat="46.5807" lon="0.59395">
        <ele>115.2</ele>
        <time>2023-03-19T07:47:46Z</time>
      </trkpt>
      <trkpt lat="46.58075" lon="0.59379">
        <ele>114</ele>
        <time>2023-03-19T07:47:49Z</time>
      </trkpt>
      <trkpt lat="46.58075" lon="0.59376">
        <ele>113.2</ele>
        <time>2023-03-19T07:47:50Z</time>
      </trkpt>
      <trkpt lat="46.58075" lon="0.59373">
        <ele>112.6</ele>
        <time>2023-03-19T07:47:51Z</time>
      </trkpt>
      <trkpt lat="46.58077" lon="0.59369">
        <ele>112</ele>
        <time>2023-03-19T07:47:53Z</time>
      </trkpt>
      <trkpt lat="46.5808" lon="0.59366">
        <ele>111.8</ele>
        <time>2023-03-19T07:47:55Z</time>
      </trkpt>
      <trkpt lat="46.58081" lon="0.59364">
        <ele>111.2</ele>
        <time>2023-03-19T07:47:56Z</time>
      </trkpt>
      <trkpt lat="46.58086" lon="0.59354">
        <ele>110.4</ele>
        <time>2023-03-19T07:48:00Z</time>
      </trkpt>
      <trkpt lat="46.58087" lon="0.5935">
        <ele>110</ele>
        <time>2023-03-19T07:48:01Z</time>
      </trkpt>
      <trkpt lat="46.58091" lon="0.59342">
        <ele>108.8</ele>
        <time>2023-03-19T07:48:04Z</time>
      </trkpt>
      <trkpt lat="46.58092" lon="0.59336">
        <ele>108.6</ele>
        <time>2023-03-19T07:48:06Z</time>
      </trkpt>
      <trkpt lat="46.58092" lon="0.59332">
        <ele>108.4</ele>
        <time>2023-03-19T07:48:07Z</time>
      </trkpt>
      <trkpt lat="46.58093" lon="0.59324">
        <ele>107.6</ele>
        <time>2023-03-19T07:48:09Z</time>
      </trkpt>
      <trkpt lat="46.58092" lon="0.59317">
        <ele>106.6</ele>
        <time>2023-03-19T07:48:12Z</time>
      </trkpt>
      <trkpt lat="46.58092" lon="0.59315">
        <ele>106.2</ele>
        <time>2023-03-19T07:48:13Z</time>
      </trkpt>
      <trkpt lat="46.58094" lon="0.5931">
        <ele>105.8</ele>
        <time>2023-03-19T07:48:15Z</time>
      </trkpt>
      <trkpt lat="46.58096" lon="0.59303">
        <ele>105.2</ele>
        <time>2023-03-19T07:48:17Z</time>
      </trkpt>
      <trkpt lat="46.58096" lon="0.593">
        <ele>104.6</ele>
        <time>2023-03-19T07:48:18Z</time>
      </trkpt>
      <trkpt lat="46.58097" lon="0.59294">
        <ele>104</ele>
        <time>2023-03-19T07:48:20Z</time>
      </trkpt>
      <trkpt lat="46.58099" lon="0.59284">
        <ele>102.6</ele>
        <time>2023-03-19T07:48:24Z</time>
      </trkpt>
      <trkpt lat="46.58099" lon="0.5928">
        <ele>101.8</ele>
        <time>2023-03-19T07:48:26Z</time>
      </trkpt>
      <trkpt lat="46.58099" lon="0.59278">
        <ele>101.4</ele>
        <time>2023-03-19T07:48:27Z</time>
      </trkpt>
      <trkpt lat="46.58099" lon="0.59263">
        <ele>100.6</ele>
        <time>2023-03-19T07:48:32Z</time>
      </trkpt>
      <trkpt lat="46.58099" lon="0.59262">
        <ele>100.4</ele>
        <time>2023-03-19T07:48:33Z</time>
      </trkpt>
      <trkpt lat="46.581" lon="0.59255">
        <ele>99.8</ele>
        <time>2023-03-19T07:48:36Z</time>
      </trkpt>
      <trkpt lat="46.58102" lon="0.59253">
        <ele>99.4</ele>
        <time>2023-03-19T07:48:37Z</time>
      </trkpt>
      <trkpt lat="46.58104" lon="0.59248">
        <ele>98.4</ele>
        <time>2023-03-19T07:48:39Z</time>
      </trkpt>
      <trkpt lat="46.58105" lon="0.59246">
        <ele>98.2</ele>
        <time>2023-03-19T07:48:40Z</time>
      </trkpt>
      <trkpt lat="46.58106" lon="0.59242">
        <ele>97.8</ele>
        <time>2023-03-19T07:48:41Z</time>
      </trkpt>
      <trkpt lat="46.5811" lon="0.59236">
        <ele>97.2</ele>
        <time>2023-03-19T07:48:43Z</time>
      </trkpt>
      <trkpt lat="46.58113" lon="0.59229">
        <ele>96</ele>
        <time>2023-03-19T07:48:45Z</time>
      </trkpt>
      <trkpt lat="46.58115" lon="0.59226">
        <ele>95.8</ele>
        <time>2023-03-19T07:48:46Z</time>
      </trkpt>
      <trkpt lat="46.58117" lon="0.59225">
        <ele>95.4</ele>
        <time>2023-03-19T07:48:47Z</time>
      </trkpt>
      <trkpt lat="46.58121" lon="0.59224">
        <ele>95</ele>
        <time>2023-03-19T07:48:50Z</time>
      </trkpt>
      <trkpt lat="46.58122" lon="0.59224">
        <ele>95</ele>
        <time>2023-03-19T07:48:51Z</time>
      </trkpt>
      <trkpt lat="46.58126" lon="0.59224">
        <ele>95</ele>
        <time>2023-03-19T07:48:56Z</time>
      </trkpt>
      <trkpt lat="46.58129" lon="0.59225">
        <ele>95</ele>
        <time>2023-03-19T07:48:59Z</time>
      </trkpt>
      <trkpt lat="46.58142" lon="0.59228">
        <ele>94.2</ele>
        <time>2023-03-19T07:49:10Z</time>
      </trkpt>
      <trkpt lat="46.58147" lon="0.59229">
        <ele>94</ele>
        <time>2023-03-19T07:49:15Z</time>
      </trkpt>
      <trkpt lat="46.58157" lon="0.59233">
        <ele>93.6</ele>
        <time>2023-03-19T07:49:22Z</time>
      </trkpt>
      <trkpt lat="46.58174" lon="0.5925">
        <ele>93.6</ele>
        <time>2023-03-19T07:49:34Z</time>
      </trkpt>
      <trkpt lat="46.58184" lon="0.59256">
        <ele>93.4</ele>
        <time>2023-03-19T07:49:40Z</time>
      </trkpt>
      <trkpt lat="46.58199" lon="0.59266">
        <ele>93</ele>
        <time>2023-03-19T07:49:50Z</time>
      </trkpt>
      <trkpt lat="46.58205" lon="0.59273">
        <ele>93</ele>
        <time>2023-03-19T07:49:54Z</time>
      </trkpt>
      <trkpt lat="46.58219" lon="0.59283">
        <ele>93</ele>
        <time>2023-03-19T07:50:04Z</time>
      </trkpt>
      <trkpt lat="46.58239" lon="0.59297">
        <ele>92.8</ele>
        <time>2023-03-19T07:50:17Z</time>
      </trkpt>
      <trkpt lat="46.58258" lon="0.59312">
        <ele>92</ele>
        <time>2023-03-19T07:50:27Z</time>
      </trkpt>
      <trkpt lat="46.58273" lon="0.59323">
        <ele>92</ele>
        <time>2023-03-19T07:50:33Z</time>
      </trkpt>
      <trkpt lat="46.58275" lon="0.59326">
        <ele>91.8</ele>
        <time>2023-03-19T07:50:34Z</time>
      </trkpt>
      <trkpt lat="46.5829" lon="0.59341">
        <ele>91.6</ele>
        <time>2023-03-19T07:50:39Z</time>
      </trkpt>
      <trkpt lat="46.58312" lon="0.59358">
        <ele>91.2</ele>
        <time>2023-03-19T07:50:44Z</time>
      </trkpt>
      <trkpt lat="46.58315" lon="0.59362">
        <ele>91.2</ele>
        <time>2023-03-19T07:50:45Z</time>
      </trkpt>
      <trkpt lat="46.58323" lon="0.59369">
        <ele>90.8</ele>
        <time>2023-03-19T07:50:48Z</time>
      </trkpt>
      <trkpt lat="46.58325" lon="0.59372">
        <ele>90.6</ele>
        <time>2023-03-19T07:50:49Z</time>
      </trkpt>
      <trkpt lat="46.58345" lon="0.59382">
        <ele>90.4</ele>
        <time>2023-03-19T07:50:55Z</time>
      </trkpt>
      <trkpt lat="46.58361" lon="0.59395">
        <ele>90.4</ele>
        <time>2023-03-19T07:51:01Z</time>
      </trkpt>
      <trkpt lat="46.58374" lon="0.59414">
        <ele>89.8</ele>
        <time>2023-03-19T07:51:07Z</time>
      </trkpt>
      <trkpt lat="46.58379" lon="0.59421">
        <ele>89.6</ele>
        <time>2023-03-19T07:51:09Z</time>
      </trkpt>
      <trkpt lat="46.5839" lon="0.59434">
        <ele>89.6</ele>
        <time>2023-03-19T07:51:13Z</time>
      </trkpt>
      <trkpt lat="46.58409" lon="0.59454">
        <ele>89.2</ele>
        <time>2023-03-19T07:51:19Z</time>
      </trkpt>
      <trkpt lat="46.58418" lon="0.59478">
        <ele>88.8</ele>
        <time>2023-03-19T07:51:24Z</time>
      </trkpt>
      <trkpt lat="46.58422" lon="0.59486">
        <ele>88.6</ele>
        <time>2023-03-19T07:51:26Z</time>
      </trkpt>
      <trkpt lat="46.58428" lon="0.59499">
        <ele>88.6</ele>
        <time>2023-03-19T07:51:30Z</time>
      </trkpt>
      <trkpt lat="46.58439" lon="0.59518">
        <ele>88.8</ele>
        <time>2023-03-19T07:51:37Z</time>
      </trkpt>
      <trkpt lat="46.58441" lon="0.59521">
        <ele>88.8</ele>
        <time>2023-03-19T07:51:38Z</time>
      </trkpt>
      <trkpt lat="46.58442" lon="0.59528">
        <ele>89.2</ele>
        <time>2023-03-19T07:51:40Z</time>
      </trkpt>
      <trkpt lat="46.58443" lon="0.59531">
        <ele>89.4</ele>
        <time>2023-03-19T07:51:41Z</time>
      </trkpt>
      <trkpt lat="46.58445" lon="0.59538">
        <ele>89.8</ele>
        <time>2023-03-19T07:51:43Z</time>
      </trkpt>
      <trkpt lat="46.58448" lon="0.59551">
        <ele>91</ele>
        <time>2023-03-19T07:51:47Z</time>
      </trkpt>
      <trkpt lat="46.58452" lon="0.59563">
        <ele>92.6</ele>
        <time>2023-03-19T07:51:51Z</time>
      </trkpt>
      <trkpt lat="46.58457" lon="0.59575">
        <ele>93.8</ele>
        <time>2023-03-19T07:51:55Z</time>
      </trkpt>
      <trkpt lat="46.58462" lon="0.59589">
        <ele>95</ele>
        <time>2023-03-19T07:52:00Z</time>
      </trkpt>
      <trkpt lat="46.58463" lon="0.59598">
        <ele>96</ele>
        <time>2023-03-19T07:52:03Z</time>
      </trkpt>
      <trkpt lat="46.58465" lon="0.59604">
        <ele>97.2</ele>
        <time>2023-03-19T07:52:06Z</time>
      </trkpt>
      <trkpt lat="46.58466" lon="0.59612">
        <ele>97.6</ele>
        <time>2023-03-19T07:52:09Z</time>
      </trkpt>
      <trkpt lat="46.58467" lon="0.59617">
        <ele>98.4</ele>
        <time>2023-03-19T07:52:11Z</time>
      </trkpt>
      <trkpt lat="46.58469" lon="0.59622">
        <ele>99.4</ele>
        <time>2023-03-19T07:52:14Z</time>
      </trkpt>
      <trkpt lat="46.5847" lon="0.59629">
        <ele>100</ele>
        <time>2023-03-19T07:52:17Z</time>
      </trkpt>
      <trkpt lat="46.58471" lon="0.59636">
        <ele>100.4</ele>
        <time>2023-03-19T07:52:20Z</time>
      </trkpt>
      <trkpt lat="46.58472" lon="0.59638">
        <ele>100.6</ele>
        <time>2023-03-19T07:52:21Z</time>
      </trkpt>
      <trkpt lat="46.58471" lon="0.59643">
        <ele>101.2</ele>
        <time>2023-03-19T07:52:23Z</time>
      </trkpt>
      <trkpt lat="46.58471" lon="0.59648">
        <ele>101.6</ele>
        <time>2023-03-19T07:52:25Z</time>
      </trkpt>
      <trkpt lat="46.5847" lon="0.59664">
        <ele>103</ele>
        <time>2023-03-19T07:52:31Z</time>
      </trkpt>
      <trkpt lat="46.58469" lon="0.59679">
        <ele>104</ele>
        <time>2023-03-19T07:52:38Z</time>
      </trkpt>
      <trkpt lat="46.58469" lon="0.59681">
        <ele>104.2</ele>
        <time>2023-03-19T07:52:39Z</time>
      </trkpt>
      <trkpt lat="46.58468" lon="0.59691">
        <ele>104.8</ele>
        <time>2023-03-19T07:52:43Z</time>
      </trkpt>
      <trkpt lat="46.58467" lon="0.59695">
        <ele>105.2</ele>
        <time>2023-03-19T07:52:45Z</time>
      </trkpt>
      <trkpt lat="46.58465" lon="0.59707">
        <ele>106.4</ele>
        <time>2023-03-19T07:52:51Z</time>
      </trkpt>
      <trkpt lat="46.58465" lon="0.59709">
        <ele>106.4</ele>
        <time>2023-03-19T07:52:52Z</time>
      </trkpt>
      <trkpt lat="46.58462" lon="0.5973">
        <ele>107.2</ele>
        <time>2023-03-19T07:53:00Z</time>
      </trkpt>
      <trkpt lat="46.58462" lon="0.59733">
        <ele>107.4</ele>
        <time>2023-03-19T07:53:01Z</time>
      </trkpt>
      <trkpt lat="46.58463" lon="0.59741">
        <ele>108</ele>
        <time>2023-03-19T07:53:04Z</time>
      </trkpt>
      <trkpt lat="46.58463" lon="0.59744">
        <ele>108</ele>
        <time>2023-03-19T07:53:05Z</time>
      </trkpt>
      <trkpt lat="46.58461" lon="0.59761">
        <ele>108.4</ele>
        <time>2023-03-19T07:53:11Z</time>
      </trkpt>
      <trkpt lat="46.58461" lon="0.59764">
        <ele>108.6</ele>
        <time>2023-03-19T07:53:12Z</time>
      </trkpt>
      <trkpt lat="46.58459" lon="0.59779">
        <ele>109.4</ele>
        <time>2023-03-19T07:53:17Z</time>
      </trkpt>
      <trkpt lat="46.58459" lon="0.59782">
        <ele>109.6</ele>
        <time>2023-03-19T07:53:18Z</time>
      </trkpt>
      <trkpt lat="46.58456" lon="0.59803">
        <ele>110.4</ele>
        <time>2023-03-19T07:53:25Z</time>
      </trkpt>
      <trkpt lat="46.58455" lon="0.59806">
        <ele>110.6</ele>
        <time>2023-03-19T07:53:26Z</time>
      </trkpt>
      <trkpt lat="46.58451" lon="0.59832">
        <ele>111.6</ele>
        <time>2023-03-19T07:53:34Z</time>
      </trkpt>
      <trkpt lat="46.5845" lon="0.59858">
        <ele>112.2</ele>
        <time>2023-03-19T07:53:41Z</time>
      </trkpt>
      <trkpt lat="46.58449" lon="0.59865">
        <ele>112.6</ele>
        <time>2023-03-19T07:53:43Z</time>
      </trkpt>
      <trkpt lat="46.58449" lon="0.59887">
        <ele>113.4</ele>
        <time>2023-03-19T07:53:50Z</time>
      </trkpt>
      <trkpt lat="46.58447" lon="0.59901">
        <ele>113.6</ele>
        <time>2023-03-19T07:53:54Z</time>
      </trkpt>
      <trkpt lat="46.58447" lon="0.59906">
        <ele>113.8</ele>
        <time>2023-03-19T07:53:56Z</time>
      </trkpt>
      <trkpt lat="46.58448" lon="0.59926">
        <ele>114.6</ele>
        <time>2023-03-19T07:54:02Z</time>
      </trkpt>
      <trkpt lat="46.58447" lon="0.59929">
        <ele>114.6</ele>
        <time>2023-03-19T07:54:03Z</time>
      </trkpt>
      <trkpt lat="46.58446" lon="0.5995">
        <ele>115.4</ele>
        <time>2023-03-19T07:54:10Z</time>
      </trkpt>
      <trkpt lat="46.58445" lon="0.59968">
        <ele>115.8</ele>
        <time>2023-03-19T07:54:14Z</time>
      </trkpt>
      <trkpt lat="46.58446" lon="0.59975">
        <ele>115.8</ele>
        <time>2023-03-19T07:54:16Z</time>
      </trkpt>
      <trkpt lat="46.58445" lon="0.59996">
        <ele>116.2</ele>
        <time>2023-03-19T07:54:22Z</time>
      </trkpt>
      <trkpt lat="46.58441" lon="0.60019">
        <ele>116.8</ele>
        <time>2023-03-19T07:54:28Z</time>
      </trkpt>
      <trkpt lat="46.5844" lon="0.60026">
        <ele>117</ele>
        <time>2023-03-19T07:54:30Z</time>
      </trkpt>
      <trkpt lat="46.58435" lon="0.60039">
        <ele>117.4</ele>
        <time>2023-03-19T07:54:33Z</time>
      </trkpt>
      <trkpt lat="46.58435" lon="0.60042">
        <ele>117.6</ele>
        <time>2023-03-19T07:54:34Z</time>
      </trkpt>
      <trkpt lat="46.58438" lon="0.60054">
        <ele>117.6</ele>
        <time>2023-03-19T07:54:37Z</time>
      </trkpt>
      <trkpt lat="46.58442" lon="0.60071">
        <ele>117.6</ele>
        <time>2023-03-19T07:54:42Z</time>
      </trkpt>
      <trkpt lat="46.58449" lon="0.60087">
        <ele>117.2</ele>
        <time>2023-03-19T07:54:47Z</time>
      </trkpt>
      <trkpt lat="46.5845" lon="0.60089">
        <ele>117.4</ele>
        <time>2023-03-19T07:54:48Z</time>
      </trkpt>
      <trkpt lat="46.58459" lon="0.60106">
        <ele>117.6</ele>
        <time>2023-03-19T07:54:53Z</time>
      </trkpt>
      <trkpt lat="46.58469" lon="0.60125">
        <ele>117</ele>
        <time>2023-03-19T07:54:58Z</time>
      </trkpt>
      <trkpt lat="46.5848" lon="0.60143">
        <ele>116.4</ele>
        <time>2023-03-19T07:55:04Z</time>
      </trkpt>
      <trkpt lat="46.58497" lon="0.60164">
        <ele>116.4</ele>
        <time>2023-03-19T07:55:10Z</time>
      </trkpt>
      <trkpt lat="46.5851" lon="0.60175">
        <ele>116</ele>
        <time>2023-03-19T07:55:15Z</time>
      </trkpt>
      <trkpt lat="46.58526" lon="0.60186">
        <ele>115.8</ele>
        <time>2023-03-19T07:55:20Z</time>
      </trkpt>
      <trkpt lat="46.5853" lon="0.60189">
        <ele>115.8</ele>
        <time>2023-03-19T07:55:21Z</time>
      </trkpt>
      <trkpt lat="46.58544" lon="0.60211">
        <ele>115.4</ele>
        <time>2023-03-19T07:55:26Z</time>
      </trkpt>
      <trkpt lat="46.58554" lon="0.60237">
        <ele>115.2</ele>
        <time>2023-03-19T07:55:32Z</time>
      </trkpt>
      <trkpt lat="46.58562" lon="0.60264">
        <ele>114.6</ele>
        <time>2023-03-19T07:55:39Z</time>
      </trkpt>
      <trkpt lat="46.5857" lon="0.60294">
        <ele>114</ele>
        <time>2023-03-19T07:55:46Z</time>
      </trkpt>
      <trkpt lat="46.58573" lon="0.60308">
        <ele>113.8</ele>
        <time>2023-03-19T07:55:49Z</time>
      </trkpt>
      <trkpt lat="46.58578" lon="0.60319">
        <ele>113.6</ele>
        <time>2023-03-19T07:55:53Z</time>
      </trkpt>
      <trkpt lat="46.58587" lon="0.60342">
        <ele>113.4</ele>
        <time>2023-03-19T07:55:58Z</time>
      </trkpt>
      <trkpt lat="46.58588" lon="0.60348">
        <ele>113.2</ele>
        <time>2023-03-19T07:55:59Z</time>
      </trkpt>
      <trkpt lat="46.58596" lon="0.6037">
        <ele>112.6</ele>
        <time>2023-03-19T07:56:03Z</time>
      </trkpt>
      <trkpt lat="46.586" lon="0.60384">
        <ele>111.6</ele>
        <time>2023-03-19T07:56:06Z</time>
      </trkpt>
      <trkpt lat="46.58602" lon="0.60388">
        <ele>111.4</ele>
        <time>2023-03-19T07:56:07Z</time>
      </trkpt>
      <trkpt lat="46.58605" lon="0.60403">
        <ele>110.2</ele>
        <time>2023-03-19T07:56:11Z</time>
      </trkpt>
      <trkpt lat="46.58606" lon="0.60407">
        <ele>109.6</ele>
        <time>2023-03-19T07:56:12Z</time>
      </trkpt>
      <trkpt lat="46.58607" lon="0.60416">
        <ele>109.4</ele>
        <time>2023-03-19T07:56:14Z</time>
      </trkpt>
      <trkpt lat="46.58605" lon="0.60426">
        <ele>108.8</ele>
        <time>2023-03-19T07:56:16Z</time>
      </trkpt>
      <trkpt lat="46.58605" lon="0.60431">
        <ele>108.8</ele>
        <time>2023-03-19T07:56:17Z</time>
      </trkpt>
      <trkpt lat="46.586" lon="0.60454">
        <ele>107.8</ele>
        <time>2023-03-19T07:56:23Z</time>
      </trkpt>
      <trkpt lat="46.586" lon="0.60459">
        <ele>107.8</ele>
        <time>2023-03-19T07:56:24Z</time>
      </trkpt>
      <trkpt lat="46.586" lon="0.60463">
        <ele>107.6</ele>
        <time>2023-03-19T07:56:25Z</time>
      </trkpt>
      <trkpt lat="46.58599" lon="0.60479">
        <ele>107.6</ele>
        <time>2023-03-19T07:56:29Z</time>
      </trkpt>
      <trkpt lat="46.58601" lon="0.60491">
        <ele>107.6</ele>
        <time>2023-03-19T07:56:33Z</time>
      </trkpt>
      <trkpt lat="46.58602" lon="0.60493">
        <ele>107.8</ele>
        <time>2023-03-19T07:56:34Z</time>
      </trkpt>
      <trkpt lat="46.5861" lon="0.60499">
        <ele>107.2</ele>
        <time>2023-03-19T07:56:39Z</time>
      </trkpt>
      <trkpt lat="46.58613" lon="0.60501">
        <ele>106.8</ele>
        <time>2023-03-19T07:56:40Z</time>
      </trkpt>
      <trkpt lat="46.58616" lon="0.60502">
        <ele>106.8</ele>
        <time>2023-03-19T07:56:42Z</time>
      </trkpt>
      <trkpt lat="46.5862" lon="0.60502">
        <ele>106.6</ele>
        <time>2023-03-19T07:56:43Z</time>
      </trkpt>
      <trkpt lat="46.58623" lon="0.60502">
        <ele>106.4</ele>
        <time>2023-03-19T07:56:44Z</time>
      </trkpt>
      <trkpt lat="46.58626" lon="0.60501">
        <ele>106.2</ele>
        <time>2023-03-19T07:56:45Z</time>
      </trkpt>
      <trkpt lat="46.58631" lon="0.605">
        <ele>106</ele>
        <time>2023-03-19T07:56:47Z</time>
      </trkpt>
      <trkpt lat="46.58633" lon="0.60502">
        <ele>105.8</ele>
        <time>2023-03-19T07:56:48Z</time>
      </trkpt>
      <trkpt lat="46.58637" lon="0.60502">
        <ele>105.8</ele>
        <time>2023-03-19T07:56:49Z</time>
      </trkpt>
      <trkpt lat="46.5864" lon="0.60503">
        <ele>105.8</ele>
        <time>2023-03-19T07:56:50Z</time>
      </trkpt>
      <trkpt lat="46.58646" lon="0.60505">
        <ele>106</ele>
        <time>2023-03-19T07:56:52Z</time>
      </trkpt>
      <trkpt lat="46.58654" lon="0.60506">
        <ele>106.4</ele>
        <time>2023-03-19T07:56:55Z</time>
      </trkpt>
      <trkpt lat="46.58661" lon="0.60503">
        <ele>106.6</ele>
        <time>2023-03-19T07:56:57Z</time>
      </trkpt>
      <trkpt lat="46.58669" lon="0.60501">
        <ele>106.6</ele>
        <time>2023-03-19T07:56:59Z</time>
      </trkpt>
      <trkpt lat="46.58673" lon="0.60501">
        <ele>106.8</ele>
        <time>2023-03-19T07:57:00Z</time>
      </trkpt>
      <trkpt lat="46.58677" lon="0.60501">
        <ele>106.8</ele>
        <time>2023-03-19T07:57:01Z</time>
      </trkpt>
      <trkpt lat="46.58687" lon="0.60503">
        <ele>107.2</ele>
        <time>2023-03-19T07:57:04Z</time>
      </trkpt>
      <trkpt lat="46.5869" lon="0.60502">
        <ele>107.2</ele>
        <time>2023-03-19T07:57:05Z</time>
      </trkpt>
      <trkpt lat="46.58696" lon="0.60503">
        <ele>107.6</ele>
        <time>2023-03-19T07:57:07Z</time>
      </trkpt>
      <trkpt lat="46.58702" lon="0.60501">
        <ele>108</ele>
        <time>2023-03-19T07:57:09Z</time>
      </trkpt>
      <trkpt lat="46.58709" lon="0.60498">
        <ele>108.2</ele>
        <time>2023-03-19T07:57:11Z</time>
      </trkpt>
      <trkpt lat="46.58718" lon="0.60494">
        <ele>108.2</ele>
        <time>2023-03-19T07:57:13Z</time>
      </trkpt>
      <trkpt lat="46.58733" lon="0.60488">
        <ele>108.2</ele>
        <time>2023-03-19T07:57:16Z</time>
      </trkpt>
      <trkpt lat="46.58762" lon="0.60475">
        <ele>107.2</ele>
        <time>2023-03-19T07:57:21Z</time>
      </trkpt>
      <trkpt lat="46.58767" lon="0.60473">
        <ele>107</ele>
        <time>2023-03-19T07:57:22Z</time>
      </trkpt>
      <trkpt lat="46.58773" lon="0.6047">
        <ele>106.8</ele>
        <time>2023-03-19T07:57:23Z</time>
      </trkpt>
      <trkpt lat="46.58799" lon="0.6046">
        <ele>105.6</ele>
        <time>2023-03-19T07:57:28Z</time>
      </trkpt>
      <trkpt lat="46.58802" lon="0.60459">
        <ele>105.6</ele>
        <time>2023-03-19T07:57:29Z</time>
      </trkpt>
      <trkpt lat="46.58811" lon="0.6046">
        <ele>105.2</ele>
        <time>2023-03-19T07:57:32Z</time>
      </trkpt>
      <trkpt lat="46.58817" lon="0.60463">
        <ele>105</ele>
        <time>2023-03-19T07:57:34Z</time>
      </trkpt>
      <trkpt lat="46.58822" lon="0.60467">
        <ele>105.4</ele>
        <time>2023-03-19T07:57:36Z</time>
      </trkpt>
      <trkpt lat="46.58826" lon="0.6047">
        <ele>105.8</ele>
        <time>2023-03-19T07:57:38Z</time>
      </trkpt>
      <trkpt lat="46.58831" lon="0.60475">
        <ele>106</ele>
        <time>2023-03-19T07:57:40Z</time>
      </trkpt>
      <trkpt lat="46.58848" lon="0.60489">
        <ele>106.8</ele>
        <time>2023-03-19T07:57:45Z</time>
      </trkpt>
      <trkpt lat="46.58853" lon="0.60491">
        <ele>106.6</ele>
        <time>2023-03-19T07:57:46Z</time>
      </trkpt>
      <trkpt lat="46.5886" lon="0.60495">
        <ele>106.6</ele>
        <time>2023-03-19T07:57:47Z</time>
      </trkpt>
      <trkpt lat="46.58871" lon="0.60504">
        <ele>107</ele>
        <time>2023-03-19T07:57:50Z</time>
      </trkpt>
      <trkpt lat="46.58874" lon="0.60507">
        <ele>107</ele>
        <time>2023-03-19T07:57:51Z</time>
      </trkpt>
      <trkpt lat="46.58878" lon="0.60516">
        <ele>107.8</ele>
        <time>2023-03-19T07:57:54Z</time>
      </trkpt>
      <trkpt lat="46.58883" lon="0.60523">
        <ele>108.2</ele>
        <time>2023-03-19T07:57:56Z</time>
      </trkpt>
      <trkpt lat="46.58887" lon="0.60527">
        <ele>108.2</ele>
        <time>2023-03-19T07:57:57Z</time>
      </trkpt>
      <trkpt lat="46.58892" lon="0.60534">
        <ele>108.2</ele>
        <time>2023-03-19T07:57:59Z</time>
      </trkpt>
      <trkpt lat="46.58893" lon="0.60536">
        <ele>108.2</ele>
        <time>2023-03-19T07:58:00Z</time>
      </trkpt>
      <trkpt lat="46.58896" lon="0.60537">
        <ele>108.2</ele>
        <time>2023-03-19T07:58:01Z</time>
      </trkpt>
      <trkpt lat="46.589" lon="0.6054">
        <ele>108</ele>
        <time>2023-03-19T07:58:03Z</time>
      </trkpt>
      <trkpt lat="46.58905" lon="0.60544">
        <ele>107.8</ele>
        <time>2023-03-19T07:58:05Z</time>
      </trkpt>
      <trkpt lat="46.5892" lon="0.60557">
        <ele>107.8</ele>
        <time>2023-03-19T07:58:11Z</time>
      </trkpt>
      <trkpt lat="46.58924" lon="0.6056">
        <ele>107.4</ele>
        <time>2023-03-19T07:58:13Z</time>
      </trkpt>
      <trkpt lat="46.58933" lon="0.60568">
        <ele>106.8</ele>
        <time>2023-03-19T07:58:16Z</time>
      </trkpt>
      <trkpt lat="46.58934" lon="0.60571">
        <ele>106.8</ele>
        <time>2023-03-19T07:58:17Z</time>
      </trkpt>
      <trkpt lat="46.58935" lon="0.60585">
        <ele>106.8</ele>
        <time>2023-03-19T07:58:21Z</time>
      </trkpt>
      <trkpt lat="46.58927" lon="0.60604">
        <ele>107</ele>
        <time>2023-03-19T07:58:27Z</time>
      </trkpt>
      <trkpt lat="46.58919" lon="0.60617">
        <ele>107.6</ele>
        <time>2023-03-19T07:58:31Z</time>
      </trkpt>
      <trkpt lat="46.58916" lon="0.6062">
        <ele>107.8</ele>
        <time>2023-03-19T07:58:32Z</time>
      </trkpt>
      <trkpt lat="46.58913" lon="0.60623">
        <ele>107.8</ele>
        <time>2023-03-19T07:58:33Z</time>
      </trkpt>
      <trkpt lat="46.58904" lon="0.60635">
        <ele>108</ele>
        <time>2023-03-19T07:58:37Z</time>
      </trkpt>
      <trkpt lat="46.58899" lon="0.60643">
        <ele>108</ele>
        <time>2023-03-19T07:58:39Z</time>
      </trkpt>
      <trkpt lat="46.58896" lon="0.60646">
        <ele>108</ele>
        <time>2023-03-19T07:58:40Z</time>
      </trkpt>
      <trkpt lat="46.58885" lon="0.6066">
        <ele>108.8</ele>
        <time>2023-03-19T07:58:44Z</time>
      </trkpt>
      <trkpt lat="46.58878" lon="0.60666">
        <ele>108.8</ele>
        <time>2023-03-19T07:58:46Z</time>
      </trkpt>
      <trkpt lat="46.5886" lon="0.60688">
        <ele>109</ele>
        <time>2023-03-19T07:58:52Z</time>
      </trkpt>
      <trkpt lat="46.58843" lon="0.60708">
        <ele>109.2</ele>
        <time>2023-03-19T07:58:58Z</time>
      </trkpt>
      <trkpt lat="46.58828" lon="0.60724">
        <ele>109.2</ele>
        <time>2023-03-19T07:59:03Z</time>
      </trkpt>
      <trkpt lat="46.58807" lon="0.6074">
        <ele>109.6</ele>
        <time>2023-03-19T07:59:09Z</time>
      </trkpt>
      <trkpt lat="46.58799" lon="0.60753">
        <ele>109.4</ele>
        <time>2023-03-19T07:59:13Z</time>
      </trkpt>
      <trkpt lat="46.58796" lon="0.60757">
        <ele>109.2</ele>
        <time>2023-03-19T07:59:14Z</time>
      </trkpt>
      <trkpt lat="46.58792" lon="0.60761">
        <ele>109</ele>
        <time>2023-03-19T07:59:15Z</time>
      </trkpt>
      <trkpt lat="46.58785" lon="0.60767">
        <ele>108.8</ele>
        <time>2023-03-19T07:59:17Z</time>
      </trkpt>
      <trkpt lat="46.58783" lon="0.60771">
        <ele>108.8</ele>
        <time>2023-03-19T07:59:18Z</time>
      </trkpt>
      <trkpt lat="46.58779" lon="0.60776">
        <ele>108.6</ele>
        <time>2023-03-19T07:59:20Z</time>
      </trkpt>
      <trkpt lat="46.58771" lon="0.60784">
        <ele>108.4</ele>
        <time>2023-03-19T07:59:22Z</time>
      </trkpt>
      <trkpt lat="46.58767" lon="0.60787">
        <ele>108.4</ele>
        <time>2023-03-19T07:59:23Z</time>
      </trkpt>
      <trkpt lat="46.58762" lon="0.60789">
        <ele>108.4</ele>
        <time>2023-03-19T07:59:25Z</time>
      </trkpt>
      <trkpt lat="46.58758" lon="0.60796">
        <ele>108.4</ele>
        <time>2023-03-19T07:59:28Z</time>
      </trkpt>
      <trkpt lat="46.58752" lon="0.60811">
        <ele>107.6</ele>
        <time>2023-03-19T07:59:32Z</time>
      </trkpt>
      <trkpt lat="46.5875" lon="0.60813">
        <ele>107.2</ele>
        <time>2023-03-19T07:59:33Z</time>
      </trkpt>
      <trkpt lat="46.58734" lon="0.60832">
        <ele>106.6</ele>
        <time>2023-03-19T07:59:40Z</time>
      </trkpt>
      <trkpt lat="46.58723" lon="0.60845">
        <ele>107</ele>
        <time>2023-03-19T07:59:45Z</time>
      </trkpt>
      <trkpt lat="46.58711" lon="0.60855">
        <ele>108.4</ele>
        <time>2023-03-19T07:59:50Z</time>
      </trkpt>
      <trkpt lat="46.58708" lon="0.60857">
        <ele>108.8</ele>
        <time>2023-03-19T07:59:51Z</time>
      </trkpt>
      <trkpt lat="46.587" lon="0.60866">
        <ele>109.2</ele>
        <time>2023-03-19T07:59:56Z</time>
      </trkpt>
      <trkpt lat="46.58698" lon="0.6087">
        <ele>109.2</ele>
        <time>2023-03-19T07:59:58Z</time>
      </trkpt>
      <trkpt lat="46.58693" lon="0.6088">
        <ele>109</ele>
        <time>2023-03-19T08:00:01Z</time>
      </trkpt>
      <trkpt lat="46.58687" lon="0.60897">
        <ele>108.4</ele>
        <time>2023-03-19T08:00:06Z</time>
      </trkpt>
      <trkpt lat="46.58685" lon="0.60899">
        <ele>108.2</ele>
        <time>2023-03-19T08:00:07Z</time>
      </trkpt>
      <trkpt lat="46.58674" lon="0.60912">
        <ele>108.6</ele>
        <time>2023-03-19T08:00:13Z</time>
      </trkpt>
      <trkpt lat="46.58672" lon="0.60913">
        <ele>108.8</ele>
        <time>2023-03-19T08:00:14Z</time>
      </trkpt>
      <trkpt lat="46.58664" lon="0.60917">
        <ele>109</ele>
        <time>2023-03-19T08:00:17Z</time>
      </trkpt>
      <trkpt lat="46.58663" lon="0.60919">
        <ele>109</ele>
        <time>2023-03-19T08:00:18Z</time>
      </trkpt>
      <trkpt lat="46.58655" lon="0.60932">
        <ele>109.2</ele>
        <time>2023-03-19T08:00:23Z</time>
      </trkpt>
      <trkpt lat="46.58654" lon="0.60935">
        <ele>109.2</ele>
        <time>2023-03-19T08:00:24Z</time>
      </trkpt>
      <trkpt lat="46.58649" lon="0.60939">
        <ele>109.4</ele>
        <time>2023-03-19T08:00:27Z</time>
      </trkpt>
      <trkpt lat="46.58648" lon="0.60941">
        <ele>109.4</ele>
        <time>2023-03-19T08:00:28Z</time>
      </trkpt>
      <trkpt lat="46.58634" lon="0.60956">
        <ele>109.6</ele>
        <time>2023-03-19T08:00:35Z</time>
      </trkpt>
      <trkpt lat="46.58631" lon="0.60961">
        <ele>109.6</ele>
        <time>2023-03-19T08:00:38Z</time>
      </trkpt>
      <trkpt lat="46.58628" lon="0.60968">
        <ele>109</ele>
        <time>2023-03-19T08:00:41Z</time>
      </trkpt>
      <trkpt lat="46.58619" lon="0.60981">
        <ele>108.2</ele>
        <time>2023-03-19T08:00:46Z</time>
      </trkpt>
      <trkpt lat="46.58611" lon="0.6099">
        <ele>108</ele>
        <time>2023-03-19T08:00:51Z</time>
      </trkpt>
      <trkpt lat="46.58609" lon="0.60994">
        <ele>108</ele>
        <time>2023-03-19T08:00:53Z</time>
      </trkpt>
      <trkpt lat="46.58608" lon="0.60997">
        <ele>108.2</ele>
        <time>2023-03-19T08:00:55Z</time>
      </trkpt>
      <trkpt lat="46.58605" lon="0.61001">
        <ele>108.2</ele>
        <time>2023-03-19T08:00:57Z</time>
      </trkpt>
      <trkpt lat="46.58594" lon="0.61014">
        <ele>108</ele>
        <time>2023-03-19T08:01:05Z</time>
      </trkpt>
      <trkpt lat="46.58594" lon="0.61014">
        <ele>108</ele>
        <time>2023-03-19T08:01:06Z</time>
      </trkpt>
      <trkpt lat="46.58577" lon="0.61029">
        <ele>109.4</ele>
        <time>2023-03-19T08:01:18Z</time>
      </trkpt>
      <trkpt lat="46.58565" lon="0.61046">
        <ele>109.2</ele>
        <time>2023-03-19T08:01:27Z</time>
      </trkpt>
      <trkpt lat="46.58554" lon="0.61057">
        <ele>109.4</ele>
        <time>2023-03-19T08:01:34Z</time>
      </trkpt>
      <trkpt lat="46.58544" lon="0.61061">
        <ele>109.8</ele>
        <time>2023-03-19T08:01:38Z</time>
      </trkpt>
      <trkpt lat="46.5854" lon="0.61063">
        <ele>110.2</ele>
        <time>2023-03-19T08:01:40Z</time>
      </trkpt>
      <trkpt lat="46.58532" lon="0.61076">
        <ele>110.8</ele>
        <time>2023-03-19T08:01:45Z</time>
      </trkpt>
      <trkpt lat="46.58529" lon="0.61081">
        <ele>110.6</ele>
        <time>2023-03-19T08:01:47Z</time>
      </trkpt>
      <trkpt lat="46.5852" lon="0.61094">
        <ele>110.2</ele>
        <time>2023-03-19T08:01:53Z</time>
      </trkpt>
      <trkpt lat="46.58518" lon="0.61096">
        <ele>110</ele>
        <time>2023-03-19T08:01:54Z</time>
      </trkpt>
      <trkpt lat="46.58516" lon="0.61098">
        <ele>109.8</ele>
        <time>2023-03-19T08:01:55Z</time>
      </trkpt>
      <trkpt lat="46.58509" lon="0.61107">
        <ele>109.6</ele>
        <time>2023-03-19T08:01:58Z</time>
      </trkpt>
      <trkpt lat="46.58497" lon="0.61127">
        <ele>109.6</ele>
        <time>2023-03-19T08:02:04Z</time>
      </trkpt>
      <trkpt lat="46.58489" lon="0.61136">
        <ele>108.6</ele>
        <time>2023-03-19T08:02:08Z</time>
      </trkpt>
      <trkpt lat="46.58484" lon="0.61144">
        <ele>108</ele>
        <time>2023-03-19T08:02:11Z</time>
      </trkpt>
      <trkpt lat="46.58482" lon="0.61151">
        <ele>107.4</ele>
        <time>2023-03-19T08:02:14Z</time>
      </trkpt>
      <trkpt lat="46.58477" lon="0.61159">
        <ele>106.4</ele>
        <time>2023-03-19T08:02:17Z</time>
      </trkpt>
      <trkpt lat="46.58475" lon="0.61162">
        <ele>106.2</ele>
        <time>2023-03-19T08:02:18Z</time>
      </trkpt>
      <trkpt lat="46.58466" lon="0.61174">
        <ele>105.4</ele>
        <time>2023-03-19T08:02:23Z</time>
      </trkpt>
      <trkpt lat="46.58459" lon="0.61183">
        <ele>105.2</ele>
        <time>2023-03-19T08:02:26Z</time>
      </trkpt>
      <trkpt lat="46.58451" lon="0.61197">
        <ele>104.4</ele>
        <time>2023-03-19T08:02:30Z</time>
      </trkpt>
      <trkpt lat="46.58448" lon="0.612">
        <ele>104.2</ele>
        <time>2023-03-19T08:02:31Z</time>
      </trkpt>
      <trkpt lat="46.58445" lon="0.61203">
        <ele>104</ele>
        <time>2023-03-19T08:02:32Z</time>
      </trkpt>
      <trkpt lat="46.58435" lon="0.61217">
        <ele>103.8</ele>
        <time>2023-03-19T08:02:36Z</time>
      </trkpt>
      <trkpt lat="46.58421" lon="0.61237">
        <ele>103.6</ele>
        <time>2023-03-19T08:02:42Z</time>
      </trkpt>
      <trkpt lat="46.58416" lon="0.61245">
        <ele>102.6</ele>
        <time>2023-03-19T08:02:44Z</time>
      </trkpt>
      <trkpt lat="46.58407" lon="0.61258">
        <ele>101.8</ele>
        <time>2023-03-19T08:02:47Z</time>
      </trkpt>
      <trkpt lat="46.58399" lon="0.61268">
        <ele>101.4</ele>
        <time>2023-03-19T08:02:49Z</time>
      </trkpt>
      <trkpt lat="46.58384" lon="0.61287">
        <ele>100.8</ele>
        <time>2023-03-19T08:02:53Z</time>
      </trkpt>
      <trkpt lat="46.5838" lon="0.61294">
        <ele>100.6</ele>
        <time>2023-03-19T08:02:54Z</time>
      </trkpt>
      <trkpt lat="46.58376" lon="0.61302">
        <ele>100.4</ele>
        <time>2023-03-19T08:02:55Z</time>
      </trkpt>
      <trkpt lat="46.58358" lon="0.61333">
        <ele>99.8</ele>
        <time>2023-03-19T08:02:59Z</time>
      </trkpt>
      <trkpt lat="46.58341" lon="0.61359">
        <ele>99.4</ele>
        <time>2023-03-19T08:03:04Z</time>
      </trkpt>
      <trkpt lat="46.58338" lon="0.61363">
        <ele>99.4</ele>
        <time>2023-03-19T08:03:05Z</time>
      </trkpt>
      <trkpt lat="46.58327" lon="0.61378">
        <ele>98.2</ele>
        <time>2023-03-19T08:03:08Z</time>
      </trkpt>
      <trkpt lat="46.58318" lon="0.61387">
        <ele>97.8</ele>
        <time>2023-03-19T08:03:10Z</time>
      </trkpt>
      <trkpt lat="46.58308" lon="0.61401">
        <ele>97.6</ele>
        <time>2023-03-19T08:03:13Z</time>
      </trkpt>
      <trkpt lat="46.583" lon="0.6141">
        <ele>97.2</ele>
        <time>2023-03-19T08:03:15Z</time>
      </trkpt>
      <trkpt lat="46.58273" lon="0.61436">
        <ele>96.2</ele>
        <time>2023-03-19T08:03:22Z</time>
      </trkpt>
      <trkpt lat="46.58263" lon="0.61445">
        <ele>96</ele>
        <time>2023-03-19T08:03:24Z</time>
      </trkpt>
      <trkpt lat="46.58249" lon="0.61455">
        <ele>95.2</ele>
        <time>2023-03-19T08:03:27Z</time>
      </trkpt>
      <trkpt lat="46.58245" lon="0.61457">
        <ele>95</ele>
        <time>2023-03-19T08:03:28Z</time>
      </trkpt>
      <trkpt lat="46.58237" lon="0.61465">
        <ele>93.6</ele>
        <time>2023-03-19T08:03:31Z</time>
      </trkpt>
      <trkpt lat="46.58229" lon="0.61471">
        <ele>92.2</ele>
        <time>2023-03-19T08:03:34Z</time>
      </trkpt>
      <trkpt lat="46.58223" lon="0.61476">
        <ele>91.6</ele>
        <time>2023-03-19T08:03:36Z</time>
      </trkpt>
      <trkpt lat="46.58223" lon="0.61478">
        <ele>91</ele>
        <time>2023-03-19T08:03:37Z</time>
      </trkpt>
      <trkpt lat="46.58224" lon="0.61482">
        <ele>90</ele>
        <time>2023-03-19T08:03:39Z</time>
      </trkpt>
      <trkpt lat="46.58226" lon="0.61492">
        <ele>89.4</ele>
        <time>2023-03-19T08:03:42Z</time>
      </trkpt>
      <trkpt lat="46.58224" lon="0.61503">
        <ele>89</ele>
        <time>2023-03-19T08:03:44Z</time>
      </trkpt>
      <trkpt lat="46.5822" lon="0.61511">
        <ele>88.4</ele>
        <time>2023-03-19T08:03:45Z</time>
      </trkpt>
      <trkpt lat="46.58214" lon="0.61522">
        <ele>87.8</ele>
        <time>2023-03-19T08:03:47Z</time>
      </trkpt>
      <trkpt lat="46.5821" lon="0.61526">
        <ele>87.6</ele>
        <time>2023-03-19T08:03:48Z</time>
      </trkpt>
      <trkpt lat="46.58207" lon="0.61531">
        <ele>87.2</ele>
        <time>2023-03-19T08:03:49Z</time>
      </trkpt>
      <trkpt lat="46.58205" lon="0.61535">
        <ele>86.8</ele>
        <time>2023-03-19T08:03:50Z</time>
      </trkpt>
      <trkpt lat="46.58203" lon="0.61544">
        <ele>86.4</ele>
        <time>2023-03-19T08:03:52Z</time>
      </trkpt>
      <trkpt lat="46.58203" lon="0.61548">
        <ele>86.2</ele>
        <time>2023-03-19T08:03:53Z</time>
      </trkpt>
      <trkpt lat="46.58203" lon="0.61557">
        <ele>85.6</ele>
        <time>2023-03-19T08:03:55Z</time>
      </trkpt>
      <trkpt lat="46.58202" lon="0.61561">
        <ele>84.8</ele>
        <time>2023-03-19T08:03:56Z</time>
      </trkpt>
      <trkpt lat="46.58199" lon="0.61571">
        <ele>84.2</ele>
        <time>2023-03-19T08:03:58Z</time>
      </trkpt>
      <trkpt lat="46.58184" lon="0.6159">
        <ele>84.4</ele>
        <time>2023-03-19T08:04:05Z</time>
      </trkpt>
      <trkpt lat="46.58174" lon="0.61601">
        <ele>84.2</ele>
        <time>2023-03-19T08:04:10Z</time>
      </trkpt>
      <trkpt lat="46.58172" lon="0.61603">
        <ele>84.2</ele>
        <time>2023-03-19T08:04:11Z</time>
      </trkpt>
      <trkpt lat="46.58166" lon="0.61609">
        <ele>84.2</ele>
        <time>2023-03-19T08:04:13Z</time>
      </trkpt>
      <trkpt lat="46.58155" lon="0.61619">
        <ele>84.8</ele>
        <time>2023-03-19T08:04:17Z</time>
      </trkpt>
      <trkpt lat="46.58138" lon="0.61641">
        <ele>84.8</ele>
        <time>2023-03-19T08:04:22Z</time>
      </trkpt>
      <trkpt lat="46.58132" lon="0.61649">
        <ele>84.8</ele>
        <time>2023-03-19T08:04:24Z</time>
      </trkpt>
      <trkpt lat="46.5812" lon="0.61659">
        <ele>84.6</ele>
        <time>2023-03-19T08:04:27Z</time>
      </trkpt>
      <trkpt lat="46.58114" lon="0.61664">
        <ele>84.2</ele>
        <time>2023-03-19T08:04:29Z</time>
      </trkpt>
      <trkpt lat="46.5811" lon="0.6167">
        <ele>83.6</ele>
        <time>2023-03-19T08:04:31Z</time>
      </trkpt>
      <trkpt lat="46.58108" lon="0.61672">
        <ele>83.4</ele>
        <time>2023-03-19T08:04:32Z</time>
      </trkpt>
      <trkpt lat="46.58091" lon="0.61684">
        <ele>83.2</ele>
        <time>2023-03-19T08:04:38Z</time>
      </trkpt>
      <trkpt lat="46.58077" lon="0.61695">
        <ele>83.4</ele>
        <time>2023-03-19T08:04:43Z</time>
      </trkpt>
      <trkpt lat="46.58067" lon="0.61705">
        <ele>83.4</ele>
        <time>2023-03-19T08:04:46Z</time>
      </trkpt>
      <trkpt lat="46.58062" lon="0.61714">
        <ele>83</ele>
        <time>2023-03-19T08:04:48Z</time>
      </trkpt>
      <trkpt lat="46.58055" lon="0.61724">
        <ele>82.2</ele>
        <time>2023-03-19T08:04:50Z</time>
      </trkpt>
      <trkpt lat="46.58048" lon="0.61736">
        <ele>81.2</ele>
        <time>2023-03-19T08:04:53Z</time>
      </trkpt>
      <trkpt lat="46.58046" lon="0.6174">
        <ele>80.4</ele>
        <time>2023-03-19T08:04:54Z</time>
      </trkpt>
      <trkpt lat="46.58039" lon="0.61747">
        <ele>78.8</ele>
        <time>2023-03-19T08:04:57Z</time>
      </trkpt>
      <trkpt lat="46.58036" lon="0.61752">
        <ele>78.2</ele>
        <time>2023-03-19T08:04:58Z</time>
      </trkpt>
      <trkpt lat="46.58033" lon="0.61758">
        <ele>77.4</ele>
        <time>2023-03-19T08:05:01Z</time>
      </trkpt>
      <trkpt lat="46.58029" lon="0.61763">
        <ele>76.4</ele>
        <time>2023-03-19T08:05:03Z</time>
      </trkpt>
      <trkpt lat="46.58027" lon="0.61769">
        <ele>75.2</ele>
        <time>2023-03-19T08:05:05Z</time>
      </trkpt>
      <trkpt lat="46.58026" lon="0.61771">
        <ele>74.6</ele>
        <time>2023-03-19T08:05:06Z</time>
      </trkpt>
      <trkpt lat="46.58025" lon="0.61774">
        <ele>74</ele>
        <time>2023-03-19T08:05:07Z</time>
      </trkpt>
      <trkpt lat="46.58024" lon="0.61779">
        <ele>73</ele>
        <time>2023-03-19T08:05:09Z</time>
      </trkpt>
      <trkpt lat="46.58022" lon="0.61786">
        <ele>71.2</ele>
        <time>2023-03-19T08:05:11Z</time>
      </trkpt>
      <trkpt lat="46.58019" lon="0.61796">
        <ele>69.8</ele>
        <time>2023-03-19T08:05:13Z</time>
      </trkpt>
      <trkpt lat="46.58017" lon="0.61807">
        <ele>68</ele>
        <time>2023-03-19T08:05:15Z</time>
      </trkpt>
      <trkpt lat="46.58013" lon="0.61819">
        <ele>66</ele>
        <time>2023-03-19T08:05:17Z</time>
      </trkpt>
      <trkpt lat="46.58007" lon="0.61831">
        <ele>64.8</ele>
        <time>2023-03-19T08:05:19Z</time>
      </trkpt>
      <trkpt lat="46.58002" lon="0.6184">
        <ele>64.4</ele>
        <time>2023-03-19T08:05:21Z</time>
      </trkpt>
      <trkpt lat="46.57995" lon="0.61852">
        <ele>64.2</ele>
        <time>2023-03-19T08:05:23Z</time>
      </trkpt>
      <trkpt lat="46.57987" lon="0.61869">
        <ele>64.2</ele>
        <time>2023-03-19T08:05:28Z</time>
      </trkpt>
      <trkpt lat="46.57977" lon="0.61883">
        <ele>64.4</ele>
        <time>2023-03-19T08:05:34Z</time>
      </trkpt>
      <trkpt lat="46.5797" lon="0.61897">
        <ele>64.8</ele>
        <time>2023-03-19T08:05:39Z</time>
      </trkpt>
      <trkpt lat="46.57967" lon="0.61902">
        <ele>64.8</ele>
        <time>2023-03-19T08:05:40Z</time>
      </trkpt>
      <trkpt lat="46.57961" lon="0.61911">
        <ele>64.6</ele>
        <time>2023-03-19T08:05:43Z</time>
      </trkpt>
      <trkpt lat="46.57959" lon="0.61918">
        <ele>64.6</ele>
        <time>2023-03-19T08:05:45Z</time>
      </trkpt>
      <trkpt lat="46.57958" lon="0.61921">
        <ele>64.6</ele>
        <time>2023-03-19T08:05:46Z</time>
      </trkpt>
      <trkpt lat="46.57949" lon="0.61936">
        <ele>64.8</ele>
        <time>2023-03-19T08:05:50Z</time>
      </trkpt>
      <trkpt lat="46.57932" lon="0.61972">
        <ele>64.6</ele>
        <time>2023-03-19T08:05:57Z</time>
      </trkpt>
      <trkpt lat="46.5791" lon="0.62027">
        <ele>65</ele>
        <time>2023-03-19T08:06:06Z</time>
      </trkpt>
      <trkpt lat="46.57896" lon="0.62054">
        <ele>65</ele>
        <time>2023-03-19T08:06:12Z</time>
      </trkpt>
      <trkpt lat="46.57872" lon="0.62083">
        <ele>65.8</ele>
        <time>2023-03-19T08:06:19Z</time>
      </trkpt>
      <trkpt lat="46.5787" lon="0.62086">
        <ele>66</ele>
        <time>2023-03-19T08:06:20Z</time>
      </trkpt>
      <trkpt lat="46.57862" lon="0.62095">
        <ele>67</ele>
        <time>2023-03-19T08:06:24Z</time>
      </trkpt>
      <trkpt lat="46.57861" lon="0.62096">
        <ele>67.2</ele>
        <time>2023-03-19T08:06:28Z</time>
      </trkpt>
      <trkpt lat="46.5786" lon="0.62096">
        <ele>67.2</ele>
        <time>2023-03-19T08:06:32Z</time>
      </trkpt>
      <trkpt lat="46.5786" lon="0.62096">
        <ele>67</ele>
        <time>2023-03-19T08:06:40Z</time>
      </trkpt>
      <trkpt lat="46.5786" lon="0.62096">
        <ele>67.2</ele>
        <time>2023-03-19T08:06:52Z</time>
      </trkpt>
      <trkpt lat="46.57859" lon="0.62098">
        <ele>67</ele>
        <time>2023-03-19T08:07:01Z</time>
      </trkpt>
      <trkpt lat="46.57852" lon="0.62107">
        <ele>67.2</ele>
        <time>2023-03-19T08:07:05Z</time>
      </trkpt>
      <trkpt lat="46.57838" lon="0.62123">
        <ele>67.6</ele>
        <time>2023-03-19T08:07:10Z</time>
      </trkpt>
      <trkpt lat="46.57822" lon="0.62142">
        <ele>68</ele>
        <time>2023-03-19T08:07:15Z</time>
      </trkpt>
      <trkpt lat="46.57818" lon="0.62144">
        <ele>68</ele>
        <time>2023-03-19T08:07:16Z</time>
      </trkpt>
      <trkpt lat="46.57815" lon="0.62145">
        <ele>68.2</ele>
        <time>2023-03-19T08:07:17Z</time>
      </trkpt>
      <trkpt lat="46.57805" lon="0.62142">
        <ele>68.4</ele>
        <time>2023-03-19T08:07:20Z</time>
      </trkpt>
      <trkpt lat="46.57796" lon="0.6213">
        <ele>69</ele>
        <time>2023-03-19T08:07:24Z</time>
      </trkpt>
      <trkpt lat="46.57782" lon="0.62119">
        <ele>69</ele>
        <time>2023-03-19T08:07:28Z</time>
      </trkpt>
      <trkpt lat="46.5777" lon="0.62112">
        <ele>69.8</ele>
        <time>2023-03-19T08:07:31Z</time>
      </trkpt>
      <trkpt lat="46.57758" lon="0.62106">
        <ele>70.4</ele>
        <time>2023-03-19T08:07:34Z</time>
      </trkpt>
      <trkpt lat="46.5775" lon="0.62104">
        <ele>70.6</ele>
        <time>2023-03-19T08:07:36Z</time>
      </trkpt>
      <trkpt lat="46.57746" lon="0.62104">
        <ele>70.6</ele>
        <time>2023-03-19T08:07:37Z</time>
      </trkpt>
      <trkpt lat="46.57743" lon="0.62105">
        <ele>71</ele>
        <time>2023-03-19T08:07:38Z</time>
      </trkpt>
      <trkpt lat="46.57737" lon="0.62111">
        <ele>71.4</ele>
        <time>2023-03-19T08:07:40Z</time>
      </trkpt>
      <trkpt lat="46.57728" lon="0.62125">
        <ele>72</ele>
        <time>2023-03-19T08:07:43Z</time>
      </trkpt>
      <trkpt lat="46.57715" lon="0.62144">
        <ele>72</ele>
        <time>2023-03-19T08:07:47Z</time>
      </trkpt>
      <trkpt lat="46.57688" lon="0.62185">
        <ele>72.2</ele>
        <time>2023-03-19T08:07:55Z</time>
      </trkpt>
      <trkpt lat="46.57665" lon="0.62225">
        <ele>72</ele>
        <time>2023-03-19T08:08:02Z</time>
      </trkpt>
      <trkpt lat="46.57652" lon="0.62249">
        <ele>71.8</ele>
        <time>2023-03-19T08:08:06Z</time>
      </trkpt>
      <trkpt lat="46.57643" lon="0.62261">
        <ele>71.8</ele>
        <time>2023-03-19T08:08:08Z</time>
      </trkpt>
      <trkpt lat="46.57621" lon="0.62298">
        <ele>71.8</ele>
        <time>2023-03-19T08:08:14Z</time>
      </trkpt>
      <trkpt lat="46.57601" lon="0.62332">
        <ele>72.2</ele>
        <time>2023-03-19T08:08:19Z</time>
      </trkpt>
      <trkpt lat="46.57589" lon="0.62351">
        <ele>73</ele>
        <time>2023-03-19T08:08:22Z</time>
      </trkpt>
      <trkpt lat="46.57572" lon="0.62379">
        <ele>73.2</ele>
        <time>2023-03-19T08:08:26Z</time>
      </trkpt>
      <trkpt lat="46.57545" lon="0.62428">
        <ele>73.4</ele>
        <time>2023-03-19T08:08:33Z</time>
      </trkpt>
      <trkpt lat="46.57521" lon="0.62473">
        <ele>73.8</ele>
        <time>2023-03-19T08:08:40Z</time>
      </trkpt>
      <trkpt lat="46.57514" lon="0.62485">
        <ele>74</ele>
        <time>2023-03-19T08:08:42Z</time>
      </trkpt>
      <trkpt lat="46.57505" lon="0.62504">
        <ele>74.4</ele>
        <time>2023-03-19T08:08:45Z</time>
      </trkpt>
      <trkpt lat="46.57497" lon="0.62524">
        <ele>74.8</ele>
        <time>2023-03-19T08:08:48Z</time>
      </trkpt>
      <trkpt lat="46.57494" lon="0.6253">
        <ele>74.8</ele>
        <time>2023-03-19T08:08:49Z</time>
      </trkpt>
      <trkpt lat="46.57479" lon="0.62575">
        <ele>74.6</ele>
        <time>2023-03-19T08:08:55Z</time>
      </trkpt>
      <trkpt lat="46.57465" lon="0.62611">
        <ele>74.2</ele>
        <time>2023-03-19T08:09:00Z</time>
      </trkpt>
      <trkpt lat="46.57446" lon="0.62655">
        <ele>74</ele>
        <time>2023-03-19T08:09:06Z</time>
      </trkpt>
      <trkpt lat="46.57426" lon="0.627">
        <ele>73.8</ele>
        <time>2023-03-19T08:09:12Z</time>
      </trkpt>
      <trkpt lat="46.57403" lon="0.62758">
        <ele>73</ele>
        <time>2023-03-19T08:09:19Z</time>
      </trkpt>
      <trkpt lat="46.57396" lon="0.62775">
        <ele>73</ele>
        <time>2023-03-19T08:09:21Z</time>
      </trkpt>
      <trkpt lat="46.57385" lon="0.6281">
        <ele>72.8</ele>
        <time>2023-03-19T08:09:26Z</time>
      </trkpt>
      <trkpt lat="46.57384" lon="0.62816">
        <ele>72.6</ele>
        <time>2023-03-19T08:09:27Z</time>
      </trkpt>
      <trkpt lat="46.57381" lon="0.62828">
        <ele>72</ele>
        <time>2023-03-19T08:09:29Z</time>
      </trkpt>
      <trkpt lat="46.57378" lon="0.62831">
        <ele>71.6</ele>
        <time>2023-03-19T08:09:30Z</time>
      </trkpt>
      <trkpt lat="46.57375" lon="0.62833">
        <ele>71.6</ele>
        <time>2023-03-19T08:09:31Z</time>
      </trkpt>
      <trkpt lat="46.57368" lon="0.62831">
        <ele>71.6</ele>
        <time>2023-03-19T08:09:33Z</time>
      </trkpt>
      <trkpt lat="46.57353" lon="0.62821">
        <ele>72.6</ele>
        <time>2023-03-19T08:09:38Z</time>
      </trkpt>
      <trkpt lat="46.57348" lon="0.62809">
        <ele>73.2</ele>
        <time>2023-03-19T08:09:41Z</time>
      </trkpt>
      <trkpt lat="46.57348" lon="0.62804">
        <ele>73.4</ele>
        <time>2023-03-19T08:09:42Z</time>
      </trkpt>
      <trkpt lat="46.57353" lon="0.62791">
        <ele>74.2</ele>
        <time>2023-03-19T08:09:45Z</time>
      </trkpt>
      <trkpt lat="46.57357" lon="0.62784">
        <ele>74.6</ele>
        <time>2023-03-19T08:09:47Z</time>
      </trkpt>
      <trkpt lat="46.57361" lon="0.62776">
        <ele>75.2</ele>
        <time>2023-03-19T08:09:49Z</time>
      </trkpt>
      <trkpt lat="46.57368" lon="0.62764">
        <ele>75.6</ele>
        <time>2023-03-19T08:09:53Z</time>
      </trkpt>
      <trkpt lat="46.57374" lon="0.6275">
        <ele>76.6</ele>
        <time>2023-03-19T08:09:57Z</time>
      </trkpt>
      <trkpt lat="46.57375" lon="0.62745">
        <ele>76.8</ele>
        <time>2023-03-19T08:09:59Z</time>
      </trkpt>
      <trkpt lat="46.57382" lon="0.62729">
        <ele>77.6</ele>
        <time>2023-03-19T08:10:04Z</time>
      </trkpt>
      <trkpt lat="46.57385" lon="0.62722">
        <ele>78.2</ele>
        <time>2023-03-19T08:10:06Z</time>
      </trkpt>
      <trkpt lat="46.57391" lon="0.6271">
        <ele>78.8</ele>
        <time>2023-03-19T08:10:09Z</time>
      </trkpt>
      <trkpt lat="46.57398" lon="0.62692">
        <ele>79.2</ele>
        <time>2023-03-19T08:10:13Z</time>
      </trkpt>
      <trkpt lat="46.57403" lon="0.62679">
        <ele>79.8</ele>
        <time>2023-03-19T08:10:16Z</time>
      </trkpt>
      <trkpt lat="46.57406" lon="0.62666">
        <ele>80.4</ele>
        <time>2023-03-19T08:10:19Z</time>
      </trkpt>
      <trkpt lat="46.5741" lon="0.62665">
        <ele>80.6</ele>
        <time>2023-03-19T08:10:21Z</time>
      </trkpt>
      <trkpt lat="46.57411" lon="0.62667">
        <ele>80.6</ele>
        <time>2023-03-19T08:10:22Z</time>
      </trkpt>
      <trkpt lat="46.57411" lon="0.6267">
        <ele>80.6</ele>
        <time>2023-03-19T08:10:23Z</time>
      </trkpt>
      <trkpt lat="46.57409" lon="0.6268">
        <ele>80.6</ele>
        <time>2023-03-19T08:10:26Z</time>
      </trkpt>
      <trkpt lat="46.57402" lon="0.62706">
        <ele>80.2</ele>
        <time>2023-03-19T08:10:32Z</time>
      </trkpt>
      <trkpt lat="46.574" lon="0.62712">
        <ele>80.2</ele>
        <time>2023-03-19T08:10:33Z</time>
      </trkpt>
      <trkpt lat="46.57392" lon="0.62747">
        <ele>80</ele>
        <time>2023-03-19T08:10:39Z</time>
      </trkpt>
      <trkpt lat="46.57381" lon="0.6278">
        <ele>79.6</ele>
        <time>2023-03-19T08:10:44Z</time>
      </trkpt>
      <trkpt lat="46.57378" lon="0.62788">
        <ele>79.6</ele>
        <time>2023-03-19T08:10:45Z</time>
      </trkpt>
      <trkpt lat="46.57357" lon="0.62844">
        <ele>79</ele>
        <time>2023-03-19T08:10:52Z</time>
      </trkpt>
      <trkpt lat="46.57352" lon="0.62859">
        <ele>78.8</ele>
        <time>2023-03-19T08:10:54Z</time>
      </trkpt>
      <trkpt lat="46.57342" lon="0.62886">
        <ele>78.2</ele>
        <time>2023-03-19T08:10:58Z</time>
      </trkpt>
      <trkpt lat="46.57317" lon="0.62945">
        <ele>77.6</ele>
        <time>2023-03-19T08:11:06Z</time>
      </trkpt>
      <trkpt lat="46.57306" lon="0.6297">
        <ele>77.6</ele>
        <time>2023-03-19T08:11:10Z</time>
      </trkpt>
      <trkpt lat="46.57304" lon="0.62977">
        <ele>77.4</ele>
        <time>2023-03-19T08:11:11Z</time>
      </trkpt>
      <trkpt lat="46.57291" lon="0.63008">
        <ele>77.4</ele>
        <time>2023-03-19T08:11:16Z</time>
      </trkpt>
      <trkpt lat="46.57287" lon="0.63015">
        <ele>77.4</ele>
        <time>2023-03-19T08:11:17Z</time>
      </trkpt>
      <trkpt lat="46.57275" lon="0.63034">
        <ele>77.6</ele>
        <time>2023-03-19T08:11:20Z</time>
      </trkpt>
      <trkpt lat="46.57267" lon="0.63048">
        <ele>77.6</ele>
        <time>2023-03-19T08:11:22Z</time>
      </trkpt>
      <trkpt lat="46.57239" lon="0.63097">
        <ele>77.6</ele>
        <time>2023-03-19T08:11:29Z</time>
      </trkpt>
      <trkpt lat="46.57222" lon="0.63123">
        <ele>77.6</ele>
        <time>2023-03-19T08:11:33Z</time>
      </trkpt>
      <trkpt lat="46.57214" lon="0.63134">
        <ele>77.6</ele>
        <time>2023-03-19T08:11:35Z</time>
      </trkpt>
      <trkpt lat="46.57204" lon="0.63149">
        <ele>77.4</ele>
        <time>2023-03-19T08:11:38Z</time>
      </trkpt>
      <trkpt lat="46.57197" lon="0.63157">
        <ele>77.4</ele>
        <time>2023-03-19T08:11:40Z</time>
      </trkpt>
      <trkpt lat="46.57178" lon="0.63183">
        <ele>77.4</ele>
        <time>2023-03-19T08:11:46Z</time>
      </trkpt>
      <trkpt lat="46.57175" lon="0.63187">
        <ele>77.4</ele>
        <time>2023-03-19T08:11:47Z</time>
      </trkpt>
      <trkpt lat="46.57171" lon="0.63202">
        <ele>77</ele>
        <time>2023-03-19T08:11:51Z</time>
      </trkpt>
      <trkpt lat="46.57161" lon="0.63227">
        <ele>77.2</ele>
        <time>2023-03-19T08:11:56Z</time>
      </trkpt>
      <trkpt lat="46.57151" lon="0.63248">
        <ele>77.6</ele>
        <time>2023-03-19T08:12:01Z</time>
      </trkpt>
      <trkpt lat="46.57135" lon="0.63278">
        <ele>77.2</ele>
        <time>2023-03-19T08:12:07Z</time>
      </trkpt>
      <trkpt lat="46.57113" lon="0.63333">
        <ele>77.6</ele>
        <time>2023-03-19T08:12:15Z</time>
      </trkpt>
      <trkpt lat="46.571" lon="0.63368">
        <ele>77.6</ele>
        <time>2023-03-19T08:12:20Z</time>
      </trkpt>
      <trkpt lat="46.57091" lon="0.63387">
        <ele>77.6</ele>
        <time>2023-03-19T08:12:23Z</time>
      </trkpt>
      <trkpt lat="46.57087" lon="0.63404">
        <ele>77.2</ele>
        <time>2023-03-19T08:12:25Z</time>
      </trkpt>
      <trkpt lat="46.57085" lon="0.63413">
        <ele>77.2</ele>
        <time>2023-03-19T08:12:26Z</time>
      </trkpt>
      <trkpt lat="46.57074" lon="0.63458">
        <ele>77.2</ele>
        <time>2023-03-19T08:12:31Z</time>
      </trkpt>
      <trkpt lat="46.57058" lon="0.63511">
        <ele>77.4</ele>
        <time>2023-03-19T08:12:38Z</time>
      </trkpt>
      <trkpt lat="46.57053" lon="0.63526">
        <ele>77.4</ele>
        <time>2023-03-19T08:12:40Z</time>
      </trkpt>
      <trkpt lat="46.57046" lon="0.6354">
        <ele>77.6</ele>
        <time>2023-03-19T08:12:42Z</time>
      </trkpt>
      <trkpt lat="46.57042" lon="0.63545">
        <ele>77.6</ele>
        <time>2023-03-19T08:12:43Z</time>
      </trkpt>
      <trkpt lat="46.57018" lon="0.63579">
        <ele>78</ele>
        <time>2023-03-19T08:12:49Z</time>
      </trkpt>
      <trkpt lat="46.5701" lon="0.63588">
        <ele>78</ele>
        <time>2023-03-19T08:12:51Z</time>
      </trkpt>
      <trkpt lat="46.57005" lon="0.63594">
        <ele>78</ele>
        <time>2023-03-19T08:12:53Z</time>
      </trkpt>
      <trkpt lat="46.56998" lon="0.6361">
        <ele>78.2</ele>
        <time>2023-03-19T08:12:57Z</time>
      </trkpt>
      <trkpt lat="46.56995" lon="0.63614">
        <ele>78</ele>
        <time>2023-03-19T08:12:58Z</time>
      </trkpt>
      <trkpt lat="46.56981" lon="0.63627">
        <ele>77.6</ele>
        <time>2023-03-19T08:13:01Z</time>
      </trkpt>
      <trkpt lat="46.56955" lon="0.63646">
        <ele>77.2</ele>
        <time>2023-03-19T08:13:06Z</time>
      </trkpt>
      <trkpt lat="46.56949" lon="0.63648">
        <ele>77.2</ele>
        <time>2023-03-19T08:13:07Z</time>
      </trkpt>
      <trkpt lat="46.56919" lon="0.63659">
        <ele>76.6</ele>
        <time>2023-03-19T08:13:12Z</time>
      </trkpt>
      <trkpt lat="46.56907" lon="0.63662">
        <ele>76.2</ele>
        <time>2023-03-19T08:13:14Z</time>
      </trkpt>
      <trkpt lat="46.56884" lon="0.63667">
        <ele>75.6</ele>
        <time>2023-03-19T08:13:18Z</time>
      </trkpt>
      <trkpt lat="46.56862" lon="0.63671">
        <ele>75.8</ele>
        <time>2023-03-19T08:13:22Z</time>
      </trkpt>
      <trkpt lat="46.56831" lon="0.63672">
        <ele>76.2</ele>
        <time>2023-03-19T08:13:28Z</time>
      </trkpt>
      <trkpt lat="46.56802" lon="0.63674">
        <ele>76.2</ele>
        <time>2023-03-19T08:13:34Z</time>
      </trkpt>
      <trkpt lat="46.56792" lon="0.63675">
        <ele>76.4</ele>
        <time>2023-03-19T08:13:36Z</time>
      </trkpt>
      <trkpt lat="46.56778" lon="0.63677">
        <ele>76.2</ele>
        <time>2023-03-19T08:13:39Z</time>
      </trkpt>
      <trkpt lat="46.56764" lon="0.6368">
        <ele>76.4</ele>
        <time>2023-03-19T08:13:42Z</time>
      </trkpt>
      <trkpt lat="46.56746" lon="0.63684">
        <ele>76.6</ele>
        <time>2023-03-19T08:13:46Z</time>
      </trkpt>
      <trkpt lat="46.56714" lon="0.6369">
        <ele>76.4</ele>
        <time>2023-03-19T08:13:53Z</time>
      </trkpt>
      <trkpt lat="46.56698" lon="0.63695">
        <ele>76.6</ele>
        <time>2023-03-19T08:13:57Z</time>
      </trkpt>
      <trkpt lat="46.56687" lon="0.63701">
        <ele>76.4</ele>
        <time>2023-03-19T08:14:00Z</time>
      </trkpt>
      <trkpt lat="46.56665" lon="0.63716">
        <ele>76.8</ele>
        <time>2023-03-19T08:14:06Z</time>
      </trkpt>
      <trkpt lat="46.56661" lon="0.6372">
        <ele>76.8</ele>
        <time>2023-03-19T08:14:07Z</time>
      </trkpt>
      <trkpt lat="46.56644" lon="0.63731">
        <ele>76.6</ele>
        <time>2023-03-19T08:14:10Z</time>
      </trkpt>
      <trkpt lat="46.56634" lon="0.63738">
        <ele>76.6</ele>
        <time>2023-03-19T08:14:12Z</time>
      </trkpt>
      <trkpt lat="46.56628" lon="0.63742">
        <ele>76.4</ele>
        <time>2023-03-19T08:14:13Z</time>
      </trkpt>
      <trkpt lat="46.56596" lon="0.63764">
        <ele>76.4</ele>
        <time>2023-03-19T08:14:20Z</time>
      </trkpt>
      <trkpt lat="46.56561" lon="0.63792">
        <ele>76.6</ele>
        <time>2023-03-19T08:14:27Z</time>
      </trkpt>
      <trkpt lat="46.56538" lon="0.63828">
        <ele>76.6</ele>
        <time>2023-03-19T08:14:31Z</time>
      </trkpt>
      <trkpt lat="46.56529" lon="0.63841">
        <ele>76.6</ele>
        <time>2023-03-19T08:14:33Z</time>
      </trkpt>
      <trkpt lat="46.56498" lon="0.63888">
        <ele>76.8</ele>
        <time>2023-03-19T08:14:39Z</time>
      </trkpt>
      <trkpt lat="46.56462" lon="0.63952">
        <ele>76.8</ele>
        <time>2023-03-19T08:14:48Z</time>
      </trkpt>
      <trkpt lat="46.56437" lon="0.64009">
        <ele>76.6</ele>
        <time>2023-03-19T08:14:57Z</time>
      </trkpt>
      <trkpt lat="46.56415" lon="0.64072">
        <ele>76.2</ele>
        <time>2023-03-19T08:15:07Z</time>
      </trkpt>
      <trkpt lat="46.56407" lon="0.64099">
        <ele>76.2</ele>
        <time>2023-03-19T08:15:13Z</time>
      </trkpt>
      <trkpt lat="46.56403" lon="0.64122">
        <ele>76.2</ele>
        <time>2023-03-19T08:15:20Z</time>
      </trkpt>
      <trkpt lat="46.56401" lon="0.64132">
        <ele>76.2</ele>
        <time>2023-03-19T08:15:22Z</time>
      </trkpt>
      <trkpt lat="46.56398" lon="0.64151">
        <ele>76.6</ele>
        <time>2023-03-19T08:15:25Z</time>
      </trkpt>
      <trkpt lat="46.56389" lon="0.64202">
        <ele>77.4</ele>
        <time>2023-03-19T08:15:32Z</time>
      </trkpt>
      <trkpt lat="46.56387" lon="0.64216">
        <ele>77.8</ele>
        <time>2023-03-19T08:15:34Z</time>
      </trkpt>
      <trkpt lat="46.56383" lon="0.64241">
        <ele>78</ele>
        <time>2023-03-19T08:15:38Z</time>
      </trkpt>
      <trkpt lat="46.56379" lon="0.64251">
        <ele>77.2</ele>
        <time>2023-03-19T08:15:40Z</time>
      </trkpt>
      <trkpt lat="46.56376" lon="0.64263">
        <ele>76.8</ele>
        <time>2023-03-19T08:15:42Z</time>
      </trkpt>
      <trkpt lat="46.56373" lon="0.64275">
        <ele>75.4</ele>
        <time>2023-03-19T08:15:44Z</time>
      </trkpt>
      <trkpt lat="46.56371" lon="0.64281">
        <ele>74</ele>
        <time>2023-03-19T08:15:45Z</time>
      </trkpt>
      <trkpt lat="46.56369" lon="0.64294">
        <ele>72.8</ele>
        <time>2023-03-19T08:15:47Z</time>
      </trkpt>
      <trkpt lat="46.56367" lon="0.643">
        <ele>72.4</ele>
        <time>2023-03-19T08:15:48Z</time>
      </trkpt>
      <trkpt lat="46.56365" lon="0.64303">
        <ele>72.2</ele>
        <time>2023-03-19T08:15:49Z</time>
      </trkpt>
      <trkpt lat="46.56363" lon="0.64305">
        <ele>71.6</ele>
        <time>2023-03-19T08:15:50Z</time>
      </trkpt>
      <trkpt lat="46.56361" lon="0.64304">
        <ele>70.6</ele>
        <time>2023-03-19T08:15:51Z</time>
      </trkpt>
      <trkpt lat="46.5636" lon="0.64302">
        <ele>69.8</ele>
        <time>2023-03-19T08:15:52Z</time>
      </trkpt>
      <trkpt lat="46.5636" lon="0.64299">
        <ele>69.4</ele>
        <time>2023-03-19T08:15:53Z</time>
      </trkpt>
      <trkpt lat="46.56362" lon="0.64282">
        <ele>68.8</ele>
        <time>2023-03-19T08:15:56Z</time>
      </trkpt>
      <trkpt lat="46.56363" lon="0.64268">
        <ele>68.4</ele>
        <time>2023-03-19T08:15:58Z</time>
      </trkpt>
      <trkpt lat="46.56365" lon="0.64244">
        <ele>68</ele>
        <time>2023-03-19T08:16:01Z</time>
      </trkpt>
      <trkpt lat="46.56368" lon="0.64208">
        <ele>67.4</ele>
        <time>2023-03-19T08:16:06Z</time>
      </trkpt>
      <trkpt lat="46.56368" lon="0.64201">
        <ele>67.4</ele>
        <time>2023-03-19T08:16:07Z</time>
      </trkpt>
      <trkpt lat="46.56368" lon="0.64193">
        <ele>67.2</ele>
        <time>2023-03-19T08:16:08Z</time>
      </trkpt>
      <trkpt lat="46.56373" lon="0.6415">
        <ele>66.4</ele>
        <time>2023-03-19T08:16:13Z</time>
      </trkpt>
      <trkpt lat="46.56376" lon="0.64135">
        <ele>66.2</ele>
        <time>2023-03-19T08:16:15Z</time>
      </trkpt>
      <trkpt lat="46.56377" lon="0.64129">
        <ele>66</ele>
        <time>2023-03-19T08:16:16Z</time>
      </trkpt>
      <trkpt lat="46.56378" lon="0.64124">
        <ele>65.4</ele>
        <time>2023-03-19T08:16:17Z</time>
      </trkpt>
      <trkpt lat="46.56379" lon="0.64118">
        <ele>65</ele>
        <time>2023-03-19T08:16:18Z</time>
      </trkpt>
      <trkpt lat="46.56381" lon="0.64114">
        <ele>64.8</ele>
        <time>2023-03-19T08:16:19Z</time>
      </trkpt>
      <trkpt lat="46.56382" lon="0.64103">
        <ele>64.6</ele>
        <time>2023-03-19T08:16:21Z</time>
      </trkpt>
      <trkpt lat="46.56383" lon="0.64099">
        <ele>64.6</ele>
        <time>2023-03-19T08:16:22Z</time>
      </trkpt>
      <trkpt lat="46.56383" lon="0.64094">
        <ele>64.4</ele>
        <time>2023-03-19T08:16:24Z</time>
      </trkpt>
      <trkpt lat="46.5638" lon="0.64091">
        <ele>64.2</ele>
        <time>2023-03-19T08:16:26Z</time>
      </trkpt>
      <trkpt lat="46.56365" lon="0.64082">
        <ele>64.2</ele>
        <time>2023-03-19T08:16:30Z</time>
      </trkpt>
      <trkpt lat="46.56356" lon="0.64079">
        <ele>64.2</ele>
        <time>2023-03-19T08:16:32Z</time>
      </trkpt>
      <trkpt lat="46.56347" lon="0.64079">
        <ele>64</ele>
        <time>2023-03-19T08:16:34Z</time>
      </trkpt>
      <trkpt lat="46.56343" lon="0.6408">
        <ele>63.8</ele>
        <time>2023-03-19T08:16:35Z</time>
      </trkpt>
      <trkpt lat="46.56336" lon="0.64082">
        <ele>63.4</ele>
        <time>2023-03-19T08:16:37Z</time>
      </trkpt>
      <trkpt lat="46.56331" lon="0.64081">
        <ele>62.8</ele>
        <time>2023-03-19T08:16:39Z</time>
      </trkpt>
      <trkpt lat="46.56324" lon="0.64072">
        <ele>62.6</ele>
        <time>2023-03-19T08:16:43Z</time>
      </trkpt>
      <trkpt lat="46.56324" lon="0.6407">
        <ele>62.6</ele>
        <time>2023-03-19T08:16:44Z</time>
      </trkpt>
      <trkpt lat="46.56322" lon="0.64065">
        <ele>63.2</ele>
        <time>2023-03-19T08:16:46Z</time>
      </trkpt>
      <trkpt lat="46.56315" lon="0.64058">
        <ele>64</ele>
        <time>2023-03-19T08:16:49Z</time>
      </trkpt>
      <trkpt lat="46.56302" lon="0.64051">
        <ele>64.8</ele>
        <time>2023-03-19T08:16:53Z</time>
      </trkpt>
      <trkpt lat="46.56296" lon="0.64047">
        <ele>65</ele>
        <time>2023-03-19T08:16:55Z</time>
      </trkpt>
      <trkpt lat="46.56292" lon="0.64045">
        <ele>65</ele>
        <time>2023-03-19T08:16:56Z</time>
      </trkpt>
      <trkpt lat="46.56277" lon="0.64038">
        <ele>65.2</ele>
        <time>2023-03-19T08:17:00Z</time>
      </trkpt>
      <trkpt lat="46.56273" lon="0.64036">
        <ele>65.2</ele>
        <time>2023-03-19T08:17:01Z</time>
      </trkpt>
      <trkpt lat="46.56263" lon="0.64028">
        <ele>65.2</ele>
        <time>2023-03-19T08:17:03Z</time>
      </trkpt>
      <trkpt lat="46.56258" lon="0.64023">
        <ele>65.2</ele>
        <time>2023-03-19T08:17:04Z</time>
      </trkpt>
      <trkpt lat="46.56239" lon="0.63997">
        <ele>65</ele>
        <time>2023-03-19T08:17:09Z</time>
      </trkpt>
      <trkpt lat="46.56212" lon="0.63964">
        <ele>65.2</ele>
        <time>2023-03-19T08:17:16Z</time>
      </trkpt>
      <trkpt lat="46.56208" lon="0.6396">
        <ele>65.2</ele>
        <time>2023-03-19T08:17:17Z</time>
      </trkpt>
      <trkpt lat="46.56188" lon="0.63948">
        <ele>65.2</ele>
        <time>2023-03-19T08:17:21Z</time>
      </trkpt>
      <trkpt lat="46.56157" lon="0.63931">
        <ele>65.2</ele>
        <time>2023-03-19T08:17:27Z</time>
      </trkpt>
      <trkpt lat="46.56147" lon="0.63922">
        <ele>65.2</ele>
        <time>2023-03-19T08:17:29Z</time>
      </trkpt>
      <trkpt lat="46.56134" lon="0.63908">
        <ele>65.2</ele>
        <time>2023-03-19T08:17:32Z</time>
      </trkpt>
      <trkpt lat="46.56118" lon="0.63896">
        <ele>65.2</ele>
        <time>2023-03-19T08:17:36Z</time>
      </trkpt>
      <trkpt lat="46.56112" lon="0.63892">
        <ele>65</ele>
        <time>2023-03-19T08:17:38Z</time>
      </trkpt>
      <trkpt lat="46.56105" lon="0.63894">
        <ele>64.6</ele>
        <time>2023-03-19T08:17:42Z</time>
      </trkpt>
      <trkpt lat="46.56097" lon="0.63884">
        <ele>64.8</ele>
        <time>2023-03-19T08:17:47Z</time>
      </trkpt>
      <trkpt lat="46.56078" lon="0.63877">
        <ele>65</ele>
        <time>2023-03-19T08:17:52Z</time>
      </trkpt>
      <trkpt lat="46.56069" lon="0.63874">
        <ele>64.8</ele>
        <time>2023-03-19T08:17:54Z</time>
      </trkpt>
      <trkpt lat="46.5605" lon="0.63872">
        <ele>64.8</ele>
        <time>2023-03-19T08:17:58Z</time>
      </trkpt>
      <trkpt lat="46.56039" lon="0.63872">
        <ele>64.8</ele>
        <time>2023-03-19T08:18:01Z</time>
      </trkpt>
      <trkpt lat="46.56033" lon="0.63867">
        <ele>64.8</ele>
        <time>2023-03-19T08:18:03Z</time>
      </trkpt>
      <trkpt lat="46.56026" lon="0.63856">
        <ele>64.8</ele>
        <time>2023-03-19T08:18:07Z</time>
      </trkpt>
      <trkpt lat="46.56027" lon="0.63853">
        <ele>64.6</ele>
        <time>2023-03-19T08:18:09Z</time>
      </trkpt>
      <trkpt lat="46.56026" lon="0.6385">
        <ele>64.4</ele>
        <time>2023-03-19T08:18:10Z</time>
      </trkpt>
      <trkpt lat="46.56023" lon="0.63836">
        <ele>64.4</ele>
        <time>2023-03-19T08:18:15Z</time>
      </trkpt>
      <trkpt lat="46.56017" lon="0.63819">
        <ele>64.2</ele>
        <time>2023-03-19T08:18:19Z</time>
      </trkpt>
      <trkpt lat="46.56013" lon="0.63807">
        <ele>64</ele>
        <time>2023-03-19T08:18:22Z</time>
      </trkpt>
      <trkpt lat="46.56012" lon="0.63802">
        <ele>64</ele>
        <time>2023-03-19T08:18:23Z</time>
      </trkpt>
      <trkpt lat="46.56009" lon="0.63799">
        <ele>63.8</ele>
        <time>2023-03-19T08:18:24Z</time>
      </trkpt>
      <trkpt lat="46.56005" lon="0.63796">
        <ele>63.8</ele>
        <time>2023-03-19T08:18:26Z</time>
      </trkpt>
      <trkpt lat="46.55991" lon="0.63788">
        <ele>63.6</ele>
        <time>2023-03-19T08:18:31Z</time>
      </trkpt>
      <trkpt lat="46.55974" lon="0.63775">
        <ele>63.6</ele>
        <time>2023-03-19T08:18:36Z</time>
      </trkpt>
      <trkpt lat="46.55968" lon="0.6377">
        <ele>64</ele>
        <time>2023-03-19T08:18:38Z</time>
      </trkpt>
      <trkpt lat="46.55963" lon="0.63763">
        <ele>64.2</ele>
        <time>2023-03-19T08:18:40Z</time>
      </trkpt>
      <trkpt lat="46.55957" lon="0.63755">
        <ele>64.4</ele>
        <time>2023-03-19T08:18:42Z</time>
      </trkpt>
      <trkpt lat="46.55949" lon="0.63749">
        <ele>64.6</ele>
        <time>2023-03-19T08:18:44Z</time>
      </trkpt>
      <trkpt lat="46.5593" lon="0.63743">
        <ele>64.6</ele>
        <time>2023-03-19T08:18:48Z</time>
      </trkpt>
      <trkpt lat="46.55921" lon="0.63748">
        <ele>64.6</ele>
        <time>2023-03-19T08:18:50Z</time>
      </trkpt>
      <trkpt lat="46.55918" lon="0.63752">
        <ele>64.6</ele>
        <time>2023-03-19T08:18:51Z</time>
      </trkpt>
      <trkpt lat="46.55914" lon="0.63757">
        <ele>64.8</ele>
        <time>2023-03-19T08:18:52Z</time>
      </trkpt>
      <trkpt lat="46.55903" lon="0.63782">
        <ele>65</ele>
        <time>2023-03-19T08:18:56Z</time>
      </trkpt>
      <trkpt lat="46.55888" lon="0.63821">
        <ele>65</ele>
        <time>2023-03-19T08:19:02Z</time>
      </trkpt>
      <trkpt lat="46.55884" lon="0.63825">
        <ele>65</ele>
        <time>2023-03-19T08:19:03Z</time>
      </trkpt>
      <trkpt lat="46.55879" lon="0.63828">
        <ele>65</ele>
        <time>2023-03-19T08:19:04Z</time>
      </trkpt>
      <trkpt lat="46.5587" lon="0.63827">
        <ele>65.2</ele>
        <time>2023-03-19T08:19:06Z</time>
      </trkpt>
      <trkpt lat="46.55847" lon="0.63809">
        <ele>65.6</ele>
        <time>2023-03-19T08:19:11Z</time>
      </trkpt>
      <trkpt lat="46.55821" lon="0.63786">
        <ele>65.6</ele>
        <time>2023-03-19T08:19:16Z</time>
      </trkpt>
      <trkpt lat="46.55815" lon="0.63781">
        <ele>65.6</ele>
        <time>2023-03-19T08:19:17Z</time>
      </trkpt>
      <trkpt lat="46.55769" lon="0.63745">
        <ele>65.2</ele>
        <time>2023-03-19T08:19:25Z</time>
      </trkpt>
      <trkpt lat="46.5573" lon="0.63709">
        <ele>64.8</ele>
        <time>2023-03-19T08:19:33Z</time>
      </trkpt>
      <trkpt lat="46.55691" lon="0.6368">
        <ele>64.8</ele>
        <time>2023-03-19T08:19:41Z</time>
      </trkpt>
      <trkpt lat="46.55643" lon="0.6365">
        <ele>65.2</ele>
        <time>2023-03-19T08:19:51Z</time>
      </trkpt>
      <trkpt lat="46.55604" lon="0.63622">
        <ele>65.2</ele>
        <time>2023-03-19T08:19:59Z</time>
      </trkpt>
      <trkpt lat="46.5559" lon="0.63613">
        <ele>65.4</ele>
        <time>2023-03-19T08:20:02Z</time>
      </trkpt>
      <trkpt lat="46.55577" lon="0.63603">
        <ele>65.4</ele>
        <time>2023-03-19T08:20:05Z</time>
      </trkpt>
      <trkpt lat="46.55544" lon="0.63579">
        <ele>65.8</ele>
        <time>2023-03-19T08:20:13Z</time>
      </trkpt>
      <trkpt lat="46.55515" lon="0.63562">
        <ele>65.4</ele>
        <time>2023-03-19T08:20:20Z</time>
      </trkpt>
      <trkpt lat="46.55491" lon="0.63546">
        <ele>65.4</ele>
        <time>2023-03-19T08:20:26Z</time>
      </trkpt>
      <trkpt lat="46.55463" lon="0.63537">
        <ele>65.4</ele>
        <time>2023-03-19T08:20:32Z</time>
      </trkpt>
      <trkpt lat="46.55454" lon="0.63538">
        <ele>65.6</ele>
        <time>2023-03-19T08:20:34Z</time>
      </trkpt>
      <trkpt lat="46.55446" lon="0.63543">
        <ele>65.6</ele>
        <time>2023-03-19T08:20:36Z</time>
      </trkpt>
      <trkpt lat="46.55424" lon="0.63558">
        <ele>65.6</ele>
        <time>2023-03-19T08:20:41Z</time>
      </trkpt>
      <trkpt lat="46.55417" lon="0.63566">
        <ele>65.6</ele>
        <time>2023-03-19T08:20:43Z</time>
      </trkpt>
      <trkpt lat="46.55414" lon="0.63571">
        <ele>65.6</ele>
        <time>2023-03-19T08:20:44Z</time>
      </trkpt>
      <trkpt lat="46.5541" lon="0.63582">
        <ele>65.6</ele>
        <time>2023-03-19T08:20:46Z</time>
      </trkpt>
      <trkpt lat="46.55408" lon="0.63589">
        <ele>65.8</ele>
        <time>2023-03-19T08:20:47Z</time>
      </trkpt>
      <trkpt lat="46.55406" lon="0.63604">
        <ele>66</ele>
        <time>2023-03-19T08:20:49Z</time>
      </trkpt>
      <trkpt lat="46.55404" lon="0.63629">
        <ele>66.2</ele>
        <time>2023-03-19T08:20:52Z</time>
      </trkpt>
      <trkpt lat="46.55405" lon="0.63638">
        <ele>66.2</ele>
        <time>2023-03-19T08:20:53Z</time>
      </trkpt>
      <trkpt lat="46.55407" lon="0.63661">
        <ele>66.2</ele>
        <time>2023-03-19T08:20:56Z</time>
      </trkpt>
      <trkpt lat="46.55408" lon="0.63667">
        <ele>66.4</ele>
        <time>2023-03-19T08:20:57Z</time>
      </trkpt>
      <trkpt lat="46.55409" lon="0.63674">
        <ele>66.4</ele>
        <time>2023-03-19T08:20:58Z</time>
      </trkpt>
      <trkpt lat="46.55405" lon="0.63685">
        <ele>67.4</ele>
        <time>2023-03-19T08:21:00Z</time>
      </trkpt>
      <trkpt lat="46.55396" lon="0.63699">
        <ele>68.6</ele>
        <time>2023-03-19T08:21:04Z</time>
      </trkpt>
      <trkpt lat="46.55393" lon="0.63707">
        <ele>69</ele>
        <time>2023-03-19T08:21:05Z</time>
      </trkpt>
      <trkpt lat="46.55391" lon="0.63711">
        <ele>69.8</ele>
        <time>2023-03-19T08:21:07Z</time>
      </trkpt>
      <trkpt lat="46.55385" lon="0.63723">
        <ele>71</ele>
        <time>2023-03-19T08:21:10Z</time>
      </trkpt>
      <trkpt lat="46.5538" lon="0.63734">
        <ele>72.4</ele>
        <time>2023-03-19T08:21:13Z</time>
      </trkpt>
      <trkpt lat="46.55374" lon="0.63746">
        <ele>73.6</ele>
        <time>2023-03-19T08:21:17Z</time>
      </trkpt>
      <trkpt lat="46.55372" lon="0.63756">
        <ele>74.8</ele>
        <time>2023-03-19T08:21:20Z</time>
      </trkpt>
      <trkpt lat="46.55372" lon="0.6376">
        <ele>75</ele>
        <time>2023-03-19T08:21:21Z</time>
      </trkpt>
      <trkpt lat="46.55369" lon="0.63766">
        <ele>76</ele>
        <time>2023-03-19T08:21:23Z</time>
      </trkpt>
      <trkpt lat="46.55366" lon="0.63775">
        <ele>77</ele>
        <time>2023-03-19T08:21:26Z</time>
      </trkpt>
      <trkpt lat="46.55365" lon="0.6378">
        <ele>77.8</ele>
        <time>2023-03-19T08:21:28Z</time>
      </trkpt>
      <trkpt lat="46.55365" lon="0.63781">
        <ele>78.2</ele>
        <time>2023-03-19T08:21:29Z</time>
      </trkpt>
      <trkpt lat="46.55365" lon="0.63787">
        <ele>79.4</ele>
        <time>2023-03-19T08:21:32Z</time>
      </trkpt>
      <trkpt lat="46.55362" lon="0.63798">
        <ele>80.6</ele>
        <time>2023-03-19T08:21:37Z</time>
      </trkpt>
      <trkpt lat="46.55357" lon="0.63808">
        <ele>81.6</ele>
        <time>2023-03-19T08:21:41Z</time>
      </trkpt>
      <trkpt lat="46.55355" lon="0.63808">
        <ele>81.8</ele>
        <time>2023-03-19T08:21:42Z</time>
      </trkpt>
      <trkpt lat="46.55343" lon="0.63801">
        <ele>81.8</ele>
        <time>2023-03-19T08:21:47Z</time>
      </trkpt>
      <trkpt lat="46.55327" lon="0.63791">
        <ele>81.6</ele>
        <time>2023-03-19T08:21:52Z</time>
      </trkpt>
      <trkpt lat="46.55305" lon="0.63778">
        <ele>81.8</ele>
        <time>2023-03-19T08:21:58Z</time>
      </trkpt>
      <trkpt lat="46.55301" lon="0.63776">
        <ele>82</ele>
        <time>2023-03-19T08:21:59Z</time>
      </trkpt>
      <trkpt lat="46.5529" lon="0.63769">
        <ele>82.2</ele>
        <time>2023-03-19T08:22:02Z</time>
      </trkpt>
      <trkpt lat="46.55277" lon="0.6376">
        <ele>82.8</ele>
        <time>2023-03-19T08:22:06Z</time>
      </trkpt>
      <trkpt lat="46.55275" lon="0.63759">
        <ele>82.8</ele>
        <time>2023-03-19T08:22:07Z</time>
      </trkpt>
      <trkpt lat="46.55265" lon="0.63756">
        <ele>84.2</ele>
        <time>2023-03-19T08:22:11Z</time>
      </trkpt>
      <trkpt lat="46.55263" lon="0.63755">
        <ele>84.6</ele>
        <time>2023-03-19T08:22:12Z</time>
      </trkpt>
      <trkpt lat="46.5526" lon="0.63752">
        <ele>85.2</ele>
        <time>2023-03-19T08:22:14Z</time>
      </trkpt>
      <trkpt lat="46.55249" lon="0.63745">
        <ele>86.2</ele>
        <time>2023-03-19T08:22:19Z</time>
      </trkpt>
      <trkpt lat="46.55241" lon="0.6373">
        <ele>86.6</ele>
        <time>2023-03-19T08:22:24Z</time>
      </trkpt>
      <trkpt lat="46.55243" lon="0.63711">
        <ele>86.4</ele>
        <time>2023-03-19T08:22:28Z</time>
      </trkpt>
      <trkpt lat="46.55245" lon="0.637">
        <ele>85.2</ele>
        <time>2023-03-19T08:22:30Z</time>
      </trkpt>
      <trkpt lat="46.55244" lon="0.63691">
        <ele>83.8</ele>
        <time>2023-03-19T08:22:32Z</time>
      </trkpt>
      <trkpt lat="46.5524" lon="0.63684">
        <ele>83.4</ele>
        <time>2023-03-19T08:22:34Z</time>
      </trkpt>
      <trkpt lat="46.55235" lon="0.63678">
        <ele>83.6</ele>
        <time>2023-03-19T08:22:36Z</time>
      </trkpt>
      <trkpt lat="46.55216" lon="0.63651">
        <ele>84</ele>
        <time>2023-03-19T08:22:43Z</time>
      </trkpt>
      <trkpt lat="46.5521" lon="0.63647">
        <ele>84</ele>
        <time>2023-03-19T08:22:45Z</time>
      </trkpt>
      <trkpt lat="46.55204" lon="0.63643">
        <ele>84.2</ele>
        <time>2023-03-19T08:22:47Z</time>
      </trkpt>
      <trkpt lat="46.5519" lon="0.6363">
        <ele>84.8</ele>
        <time>2023-03-19T08:22:51Z</time>
      </trkpt>
      <trkpt lat="46.55187" lon="0.63628">
        <ele>84.6</ele>
        <time>2023-03-19T08:22:52Z</time>
      </trkpt>
      <trkpt lat="46.55184" lon="0.63627">
        <ele>84.6</ele>
        <time>2023-03-19T08:22:53Z</time>
      </trkpt>
      <trkpt lat="46.55178" lon="0.63628">
        <ele>84.6</ele>
        <time>2023-03-19T08:22:56Z</time>
      </trkpt>
      <trkpt lat="46.55176" lon="0.63628">
        <ele>85</ele>
        <time>2023-03-19T08:22:57Z</time>
      </trkpt>
      <trkpt lat="46.55169" lon="0.63625">
        <ele>86.2</ele>
        <time>2023-03-19T08:23:00Z</time>
      </trkpt>
      <trkpt lat="46.55164" lon="0.63621">
        <ele>87</ele>
        <time>2023-03-19T08:23:02Z</time>
      </trkpt>
      <trkpt lat="46.55158" lon="0.63617">
        <ele>87.2</ele>
        <time>2023-03-19T08:23:04Z</time>
      </trkpt>
      <trkpt lat="46.55144" lon="0.63613">
        <ele>88.2</ele>
        <time>2023-03-19T08:23:09Z</time>
      </trkpt>
      <trkpt lat="46.55138" lon="0.6361">
        <ele>88.4</ele>
        <time>2023-03-19T08:23:11Z</time>
      </trkpt>
      <trkpt lat="46.55128" lon="0.63605">
        <ele>88.8</ele>
        <time>2023-03-19T08:23:15Z</time>
      </trkpt>
      <trkpt lat="46.55118" lon="0.63598">
        <ele>89.4</ele>
        <time>2023-03-19T08:23:19Z</time>
      </trkpt>
      <trkpt lat="46.55108" lon="0.63593">
        <ele>90</ele>
        <time>2023-03-19T08:23:22Z</time>
      </trkpt>
      <trkpt lat="46.55099" lon="0.6359">
        <ele>90.4</ele>
        <time>2023-03-19T08:23:25Z</time>
      </trkpt>
      <trkpt lat="46.55087" lon="0.63585">
        <ele>91.4</ele>
        <time>2023-03-19T08:23:29Z</time>
      </trkpt>
      <trkpt lat="46.5508" lon="0.63583">
        <ele>91.8</ele>
        <time>2023-03-19T08:23:31Z</time>
      </trkpt>
      <trkpt lat="46.5506" lon="0.63578">
        <ele>92.6</ele>
        <time>2023-03-19T08:23:37Z</time>
      </trkpt>
      <trkpt lat="46.55053" lon="0.63577">
        <ele>92.6</ele>
        <time>2023-03-19T08:23:39Z</time>
      </trkpt>
      <trkpt lat="46.55025" lon="0.6357">
        <ele>92.2</ele>
        <time>2023-03-19T08:23:46Z</time>
      </trkpt>
      <trkpt lat="46.55006" lon="0.63566">
        <ele>91.4</ele>
        <time>2023-03-19T08:23:50Z</time>
      </trkpt>
      <trkpt lat="46.54997" lon="0.63564">
        <ele>90.6</ele>
        <time>2023-03-19T08:23:52Z</time>
      </trkpt>
      <trkpt lat="46.54992" lon="0.63562">
        <ele>90.2</ele>
        <time>2023-03-19T08:23:53Z</time>
      </trkpt>
      <trkpt lat="46.54966" lon="0.63557">
        <ele>90</ele>
        <time>2023-03-19T08:23:58Z</time>
      </trkpt>
      <trkpt lat="46.54943" lon="0.63556">
        <ele>90.2</ele>
        <time>2023-03-19T08:24:03Z</time>
      </trkpt>
      <trkpt lat="46.54935" lon="0.63557">
        <ele>90.2</ele>
        <time>2023-03-19T08:24:05Z</time>
      </trkpt>
      <trkpt lat="46.54918" lon="0.63561">
        <ele>91.4</ele>
        <time>2023-03-19T08:24:10Z</time>
      </trkpt>
      <trkpt lat="46.54912" lon="0.63563">
        <ele>91.6</ele>
        <time>2023-03-19T08:24:12Z</time>
      </trkpt>
      <trkpt lat="46.54905" lon="0.63566">
        <ele>92.4</ele>
        <time>2023-03-19T08:24:16Z</time>
      </trkpt>
      <trkpt lat="46.54901" lon="0.63568">
        <ele>93.4</ele>
        <time>2023-03-19T08:24:18Z</time>
      </trkpt>
      <trkpt lat="46.54899" lon="0.63568">
        <ele>93.6</ele>
        <time>2023-03-19T08:24:19Z</time>
      </trkpt>
      <trkpt lat="46.54892" lon="0.6357">
        <ele>94.6</ele>
        <time>2023-03-19T08:24:22Z</time>
      </trkpt>
      <trkpt lat="46.54883" lon="0.63571">
        <ele>95.2</ele>
        <time>2023-03-19T08:24:26Z</time>
      </trkpt>
      <trkpt lat="46.54876" lon="0.63572">
        <ele>95.8</ele>
        <time>2023-03-19T08:24:29Z</time>
      </trkpt>
      <trkpt lat="46.5487" lon="0.63573">
        <ele>96.8</ele>
        <time>2023-03-19T08:24:32Z</time>
      </trkpt>
      <trkpt lat="46.54857" lon="0.63574">
        <ele>97.8</ele>
        <time>2023-03-19T08:24:37Z</time>
      </trkpt>
      <trkpt lat="46.54855" lon="0.63574">
        <ele>98</ele>
        <time>2023-03-19T08:24:38Z</time>
      </trkpt>
      <trkpt lat="46.54842" lon="0.63575">
        <ele>99.2</ele>
        <time>2023-03-19T08:24:43Z</time>
      </trkpt>
      <trkpt lat="46.5484" lon="0.63576">
        <ele>99.4</ele>
        <time>2023-03-19T08:24:44Z</time>
      </trkpt>
      <trkpt lat="46.54819" lon="0.63581">
        <ele>100.2</ele>
        <time>2023-03-19T08:24:51Z</time>
      </trkpt>
      <trkpt lat="46.54816" lon="0.63581">
        <ele>100.4</ele>
        <time>2023-03-19T08:24:52Z</time>
      </trkpt>
      <trkpt lat="46.54797" lon="0.63587">
        <ele>101.2</ele>
        <time>2023-03-19T08:24:59Z</time>
      </trkpt>
      <trkpt lat="46.54794" lon="0.63588">
        <ele>101.2</ele>
        <time>2023-03-19T08:25:00Z</time>
      </trkpt>
      <trkpt lat="46.54777" lon="0.63591">
        <ele>101.8</ele>
        <time>2023-03-19T08:25:06Z</time>
      </trkpt>
      <trkpt lat="46.54761" lon="0.63588">
        <ele>102.4</ele>
        <time>2023-03-19T08:25:11Z</time>
      </trkpt>
      <trkpt lat="46.54757" lon="0.63587">
        <ele>102.4</ele>
        <time>2023-03-19T08:25:12Z</time>
      </trkpt>
      <trkpt lat="46.54733" lon="0.63586">
        <ele>102.8</ele>
        <time>2023-03-19T08:25:19Z</time>
      </trkpt>
      <trkpt lat="46.54718" lon="0.63591">
        <ele>103</ele>
        <time>2023-03-19T08:25:24Z</time>
      </trkpt>
      <trkpt lat="46.54698" lon="0.63605">
        <ele>103</ele>
        <time>2023-03-19T08:25:30Z</time>
      </trkpt>
      <trkpt lat="46.54688" lon="0.63613">
        <ele>103.2</ele>
        <time>2023-03-19T08:25:33Z</time>
      </trkpt>
      <trkpt lat="46.54676" lon="0.6362">
        <ele>103.4</ele>
        <time>2023-03-19T08:25:36Z</time>
      </trkpt>
      <trkpt lat="46.54672" lon="0.63622">
        <ele>103.4</ele>
        <time>2023-03-19T08:25:37Z</time>
      </trkpt>
      <trkpt lat="46.54645" lon="0.63634">
        <ele>103.6</ele>
        <time>2023-03-19T08:25:43Z</time>
      </trkpt>
      <trkpt lat="46.54613" lon="0.63645">
        <ele>103.6</ele>
        <time>2023-03-19T08:25:49Z</time>
      </trkpt>
      <trkpt lat="46.54598" lon="0.63649">
        <ele>103.4</ele>
        <time>2023-03-19T08:25:52Z</time>
      </trkpt>
      <trkpt lat="46.54589" lon="0.63654">
        <ele>103.4</ele>
        <time>2023-03-19T08:25:54Z</time>
      </trkpt>
      <trkpt lat="46.54585" lon="0.63657">
        <ele>103.6</ele>
        <time>2023-03-19T08:25:55Z</time>
      </trkpt>
      <trkpt lat="46.54567" lon="0.63674">
        <ele>103.8</ele>
        <time>2023-03-19T08:26:00Z</time>
      </trkpt>
      <trkpt lat="46.54564" lon="0.63677">
        <ele>103.8</ele>
        <time>2023-03-19T08:26:01Z</time>
      </trkpt>
      <trkpt lat="46.54557" lon="0.63682">
        <ele>103.8</ele>
        <time>2023-03-19T08:26:03Z</time>
      </trkpt>
      <trkpt lat="46.54546" lon="0.63688">
        <ele>104.4</ele>
        <time>2023-03-19T08:26:06Z</time>
      </trkpt>
      <trkpt lat="46.54542" lon="0.63689">
        <ele>104.6</ele>
        <time>2023-03-19T08:26:07Z</time>
      </trkpt>
      <trkpt lat="46.54524" lon="0.63691">
        <ele>104.6</ele>
        <time>2023-03-19T08:26:12Z</time>
      </trkpt>
      <trkpt lat="46.54499" lon="0.63694">
        <ele>104.2</ele>
        <time>2023-03-19T08:26:18Z</time>
      </trkpt>
      <trkpt lat="46.54471" lon="0.63693">
        <ele>104.2</ele>
        <time>2023-03-19T08:26:24Z</time>
      </trkpt>
      <trkpt lat="46.54456" lon="0.63695">
        <ele>104.6</ele>
        <time>2023-03-19T08:26:27Z</time>
      </trkpt>
      <trkpt lat="46.54442" lon="0.63701">
        <ele>105.2</ele>
        <time>2023-03-19T08:26:30Z</time>
      </trkpt>
      <trkpt lat="46.54428" lon="0.63708">
        <ele>105.6</ele>
        <time>2023-03-19T08:26:33Z</time>
      </trkpt>
      <trkpt lat="46.54423" lon="0.63709">
        <ele>105.6</ele>
        <time>2023-03-19T08:26:34Z</time>
      </trkpt>
      <trkpt lat="46.54414" lon="0.6371">
        <ele>105.2</ele>
        <time>2023-03-19T08:26:36Z</time>
      </trkpt>
      <trkpt lat="46.54409" lon="0.6371">
        <ele>105.4</ele>
        <time>2023-03-19T08:26:37Z</time>
      </trkpt>
      <trkpt lat="46.5439" lon="0.63709">
        <ele>105.6</ele>
        <time>2023-03-19T08:26:41Z</time>
      </trkpt>
      <trkpt lat="46.54386" lon="0.6371">
        <ele>105.6</ele>
        <time>2023-03-19T08:26:42Z</time>
      </trkpt>
      <trkpt lat="46.54376" lon="0.63714">
        <ele>105.8</ele>
        <time>2023-03-19T08:26:44Z</time>
      </trkpt>
      <trkpt lat="46.54369" lon="0.63718">
        <ele>105.8</ele>
        <time>2023-03-19T08:26:46Z</time>
      </trkpt>
      <trkpt lat="46.54347" lon="0.63737">
        <ele>106.6</ele>
        <time>2023-03-19T08:26:53Z</time>
      </trkpt>
      <trkpt lat="46.5432" lon="0.6376">
        <ele>106.4</ele>
        <time>2023-03-19T08:27:00Z</time>
      </trkpt>
      <trkpt lat="46.54293" lon="0.63792">
        <ele>106</ele>
        <time>2023-03-19T08:27:07Z</time>
      </trkpt>
      <trkpt lat="46.54261" lon="0.63831">
        <ele>105.4</ele>
        <time>2023-03-19T08:27:15Z</time>
      </trkpt>
      <trkpt lat="46.54237" lon="0.63862">
        <ele>105.2</ele>
        <time>2023-03-19T08:27:21Z</time>
      </trkpt>
      <trkpt lat="46.54223" lon="0.6388">
        <ele>104.6</ele>
        <time>2023-03-19T08:27:24Z</time>
      </trkpt>
      <trkpt lat="46.54205" lon="0.63905">
        <ele>104.4</ele>
        <time>2023-03-19T08:27:28Z</time>
      </trkpt>
      <trkpt lat="46.54177" lon="0.63946">
        <ele>103.6</ele>
        <time>2023-03-19T08:27:35Z</time>
      </trkpt>
      <trkpt lat="46.54173" lon="0.63951">
        <ele>103.2</ele>
        <time>2023-03-19T08:27:36Z</time>
      </trkpt>
      <trkpt lat="46.54163" lon="0.63962">
        <ele>102.8</ele>
        <time>2023-03-19T08:27:38Z</time>
      </trkpt>
      <trkpt lat="46.54147" lon="0.63976">
        <ele>102.4</ele>
        <time>2023-03-19T08:27:41Z</time>
      </trkpt>
      <trkpt lat="46.54141" lon="0.63981">
        <ele>101.8</ele>
        <time>2023-03-19T08:27:42Z</time>
      </trkpt>
      <trkpt lat="46.54124" lon="0.63995">
        <ele>100.8</ele>
        <time>2023-03-19T08:27:45Z</time>
      </trkpt>
      <trkpt lat="46.54119" lon="0.64002">
        <ele>100.6</ele>
        <time>2023-03-19T08:27:46Z</time>
      </trkpt>
      <trkpt lat="46.54114" lon="0.64008">
        <ele>100.4</ele>
        <time>2023-03-19T08:27:47Z</time>
      </trkpt>
      <trkpt lat="46.54103" lon="0.64019">
        <ele>99.4</ele>
        <time>2023-03-19T08:27:49Z</time>
      </trkpt>
      <trkpt lat="46.54092" lon="0.64023">
        <ele>98.4</ele>
        <time>2023-03-19T08:27:51Z</time>
      </trkpt>
      <trkpt lat="46.54086" lon="0.64021">
        <ele>98</ele>
        <time>2023-03-19T08:27:52Z</time>
      </trkpt>
      <trkpt lat="46.54081" lon="0.64018">
        <ele>98</ele>
        <time>2023-03-19T08:27:53Z</time>
      </trkpt>
      <trkpt lat="46.54073" lon="0.64014">
        <ele>98</ele>
        <time>2023-03-19T08:27:55Z</time>
      </trkpt>
      <trkpt lat="46.54047" lon="0.64012">
        <ele>98.8</ele>
        <time>2023-03-19T08:28:01Z</time>
      </trkpt>
      <trkpt lat="46.54034" lon="0.64016">
        <ele>99.2</ele>
        <time>2023-03-19T08:28:04Z</time>
      </trkpt>
      <trkpt lat="46.54025" lon="0.64022">
        <ele>99.8</ele>
        <time>2023-03-19T08:28:07Z</time>
      </trkpt>
      <trkpt lat="46.54022" lon="0.64024">
        <ele>100.2</ele>
        <time>2023-03-19T08:28:08Z</time>
      </trkpt>
      <trkpt lat="46.54012" lon="0.64037">
        <ele>101.2</ele>
        <time>2023-03-19T08:28:12Z</time>
      </trkpt>
      <trkpt lat="46.54005" lon="0.64063">
        <ele>102.2</ele>
        <time>2023-03-19T08:28:18Z</time>
      </trkpt>
      <trkpt lat="46.54001" lon="0.64071">
        <ele>102.4</ele>
        <time>2023-03-19T08:28:20Z</time>
      </trkpt>
      <trkpt lat="46.53993" lon="0.64079">
        <ele>103</ele>
        <time>2023-03-19T08:28:23Z</time>
      </trkpt>
      <trkpt lat="46.5397" lon="0.6409">
        <ele>103.4</ele>
        <time>2023-03-19T08:28:30Z</time>
      </trkpt>
      <trkpt lat="46.53954" lon="0.64104">
        <ele>104.4</ele>
        <time>2023-03-19T08:28:36Z</time>
      </trkpt>
      <trkpt lat="46.53955" lon="0.64113">
        <ele>104.6</ele>
        <time>2023-03-19T08:28:38Z</time>
      </trkpt>
      <trkpt lat="46.53957" lon="0.64123">
        <ele>104.8</ele>
        <time>2023-03-19T08:28:40Z</time>
      </trkpt>
      <trkpt lat="46.53965" lon="0.64165">
        <ele>104.6</ele>
        <time>2023-03-19T08:28:47Z</time>
      </trkpt>
      <trkpt lat="46.53971" lon="0.6419">
        <ele>104.8</ele>
        <time>2023-03-19T08:28:51Z</time>
      </trkpt>
      <trkpt lat="46.53973" lon="0.64204">
        <ele>104.8</ele>
        <time>2023-03-19T08:28:53Z</time>
      </trkpt>
      <trkpt lat="46.53979" lon="0.64232">
        <ele>105</ele>
        <time>2023-03-19T08:28:57Z</time>
      </trkpt>
      <trkpt lat="46.53983" lon="0.64247">
        <ele>105</ele>
        <time>2023-03-19T08:28:59Z</time>
      </trkpt>
      <trkpt lat="46.53997" lon="0.64303">
        <ele>105</ele>
        <time>2023-03-19T08:29:06Z</time>
      </trkpt>
      <trkpt lat="46.5401" lon="0.64356">
        <ele>104.8</ele>
        <time>2023-03-19T08:29:13Z</time>
      </trkpt>
      <trkpt lat="46.54022" lon="0.64398">
        <ele>104.6</ele>
        <time>2023-03-19T08:29:19Z</time>
      </trkpt>
      <trkpt lat="46.54023" lon="0.64402">
        <ele>104.4</ele>
        <time>2023-03-19T08:29:20Z</time>
      </trkpt>
      <trkpt lat="46.54026" lon="0.6441">
        <ele>104</ele>
        <time>2023-03-19T08:29:23Z</time>
      </trkpt>
      <trkpt lat="46.54036" lon="0.64415">
        <ele>104</ele>
        <time>2023-03-19T08:29:26Z</time>
      </trkpt>
      <trkpt lat="46.5404" lon="0.64426">
        <ele>104</ele>
        <time>2023-03-19T08:29:28Z</time>
      </trkpt>
      <trkpt lat="46.54041" lon="0.64433">
        <ele>104.2</ele>
        <time>2023-03-19T08:29:29Z</time>
      </trkpt>
      <trkpt lat="46.54041" lon="0.6446">
        <ele>104.2</ele>
        <time>2023-03-19T08:29:32Z</time>
      </trkpt>
      <trkpt lat="46.54041" lon="0.6447">
        <ele>103.8</ele>
        <time>2023-03-19T08:29:33Z</time>
      </trkpt>
      <trkpt lat="46.54042" lon="0.64499">
        <ele>103.6</ele>
        <time>2023-03-19T08:29:36Z</time>
      </trkpt>
      <trkpt lat="46.54044" lon="0.64538">
        <ele>104.2</ele>
        <time>2023-03-19T08:29:40Z</time>
      </trkpt>
      <trkpt lat="46.54047" lon="0.6462">
        <ele>103.6</ele>
        <time>2023-03-19T08:29:48Z</time>
      </trkpt>
      <trkpt lat="46.54048" lon="0.6463">
        <ele>103.4</ele>
        <time>2023-03-19T08:29:49Z</time>
      </trkpt>
      <trkpt lat="46.54051" lon="0.64704">
        <ele>103.8</ele>
        <time>2023-03-19T08:29:57Z</time>
      </trkpt>
      <trkpt lat="46.54054" lon="0.64773">
        <ele>104.2</ele>
        <time>2023-03-19T08:30:05Z</time>
      </trkpt>
      <trkpt lat="46.54056" lon="0.64782">
        <ele>104.2</ele>
        <time>2023-03-19T08:30:06Z</time>
      </trkpt>
      <trkpt lat="46.54056" lon="0.6479">
        <ele>104.2</ele>
        <time>2023-03-19T08:30:07Z</time>
      </trkpt>
      <trkpt lat="46.54057" lon="0.64823">
        <ele>104.4</ele>
        <time>2023-03-19T08:30:11Z</time>
      </trkpt>
      <trkpt lat="46.54062" lon="0.64881">
        <ele>103.8</ele>
        <time>2023-03-19T08:30:18Z</time>
      </trkpt>
      <trkpt lat="46.54066" lon="0.64914">
        <ele>104.6</ele>
        <time>2023-03-19T08:30:22Z</time>
      </trkpt>
      <trkpt lat="46.54072" lon="0.64961">
        <ele>104.8</ele>
        <time>2023-03-19T08:30:28Z</time>
      </trkpt>
      <trkpt lat="46.5408" lon="0.65046">
        <ele>104.4</ele>
        <time>2023-03-19T08:30:38Z</time>
      </trkpt>
      <trkpt lat="46.54089" lon="0.65102">
        <ele>104.4</ele>
        <time>2023-03-19T08:30:44Z</time>
      </trkpt>
      <trkpt lat="46.54109" lon="0.65155">
        <ele>103.4</ele>
        <time>2023-03-19T08:30:51Z</time>
      </trkpt>
      <trkpt lat="46.54123" lon="0.65193">
        <ele>102.6</ele>
        <time>2023-03-19T08:30:57Z</time>
      </trkpt>
      <trkpt lat="46.54124" lon="0.65199">
        <ele>102.4</ele>
        <time>2023-03-19T08:30:58Z</time>
      </trkpt>
      <trkpt lat="46.54123" lon="0.65205">
        <ele>102.4</ele>
        <time>2023-03-19T08:30:59Z</time>
      </trkpt>
      <trkpt lat="46.54122" lon="0.65222">
        <ele>102.6</ele>
        <time>2023-03-19T08:31:02Z</time>
      </trkpt>
      <trkpt lat="46.54131" lon="0.65233">
        <ele>102.6</ele>
        <time>2023-03-19T08:31:05Z</time>
      </trkpt>
      <trkpt lat="46.54136" lon="0.65234">
        <ele>102.6</ele>
        <time>2023-03-19T08:31:06Z</time>
      </trkpt>
      <trkpt lat="46.54166" lon="0.65239">
        <ele>102.6</ele>
        <time>2023-03-19T08:31:11Z</time>
      </trkpt>
      <trkpt lat="46.54205" lon="0.6525">
        <ele>103.2</ele>
        <time>2023-03-19T08:31:17Z</time>
      </trkpt>
      <trkpt lat="46.54258" lon="0.65271">
        <ele>102.8</ele>
        <time>2023-03-19T08:31:25Z</time>
      </trkpt>
      <trkpt lat="46.54264" lon="0.65274">
        <ele>102.6</ele>
        <time>2023-03-19T08:31:26Z</time>
      </trkpt>
      <trkpt lat="46.54319" lon="0.65292">
        <ele>101.8</ele>
        <time>2023-03-19T08:31:34Z</time>
      </trkpt>
      <trkpt lat="46.54346" lon="0.65295">
        <ele>101.6</ele>
        <time>2023-03-19T08:31:38Z</time>
      </trkpt>
      <trkpt lat="46.54352" lon="0.65294">
        <ele>101.6</ele>
        <time>2023-03-19T08:31:39Z</time>
      </trkpt>
      <trkpt lat="46.54378" lon="0.65287">
        <ele>101.2</ele>
        <time>2023-03-19T08:31:43Z</time>
      </trkpt>
      <trkpt lat="46.54395" lon="0.65282">
        <ele>101</ele>
        <time>2023-03-19T08:31:46Z</time>
      </trkpt>
      <trkpt lat="46.54416" lon="0.65277">
        <ele>101.2</ele>
        <time>2023-03-19T08:31:50Z</time>
      </trkpt>
      <trkpt lat="46.54424" lon="0.6528">
        <ele>100.8</ele>
        <time>2023-03-19T08:31:52Z</time>
      </trkpt>
      <trkpt lat="46.5443" lon="0.6529">
        <ele>100.6</ele>
        <time>2023-03-19T08:31:54Z</time>
      </trkpt>
      <trkpt lat="46.54432" lon="0.65296">
        <ele>100.6</ele>
        <time>2023-03-19T08:31:55Z</time>
      </trkpt>
      <trkpt lat="46.54439" lon="0.65342">
        <ele>100.8</ele>
        <time>2023-03-19T08:32:01Z</time>
      </trkpt>
      <trkpt lat="46.54443" lon="0.65399">
        <ele>100.4</ele>
        <time>2023-03-19T08:32:07Z</time>
      </trkpt>
      <trkpt lat="46.54443" lon="0.65409">
        <ele>100.2</ele>
        <time>2023-03-19T08:32:08Z</time>
      </trkpt>
      <trkpt lat="46.5444" lon="0.65459">
        <ele>99.6</ele>
        <time>2023-03-19T08:32:13Z</time>
      </trkpt>
      <trkpt lat="46.54439" lon="0.65482">
        <ele>99</ele>
        <time>2023-03-19T08:32:15Z</time>
      </trkpt>
      <trkpt lat="46.54439" lon="0.65507">
        <ele>98</ele>
        <time>2023-03-19T08:32:17Z</time>
      </trkpt>
      <trkpt lat="46.54441" lon="0.65519">
        <ele>97.4</ele>
        <time>2023-03-19T08:32:18Z</time>
      </trkpt>
      <trkpt lat="46.54447" lon="0.65558">
        <ele>96.4</ele>
        <time>2023-03-19T08:32:21Z</time>
      </trkpt>
      <trkpt lat="46.54448" lon="0.65573">
        <ele>96</ele>
        <time>2023-03-19T08:32:22Z</time>
      </trkpt>
      <trkpt lat="46.54448" lon="0.65587">
        <ele>94.8</ele>
        <time>2023-03-19T08:32:23Z</time>
      </trkpt>
      <trkpt lat="46.54447" lon="0.65602">
        <ele>94.2</ele>
        <time>2023-03-19T08:32:24Z</time>
      </trkpt>
      <trkpt lat="46.54445" lon="0.65616">
        <ele>93.2</ele>
        <time>2023-03-19T08:32:25Z</time>
      </trkpt>
      <trkpt lat="46.54443" lon="0.65644">
        <ele>92</ele>
        <time>2023-03-19T08:32:27Z</time>
      </trkpt>
      <trkpt lat="46.54443" lon="0.65657">
        <ele>91.6</ele>
        <time>2023-03-19T08:32:28Z</time>
      </trkpt>
      <trkpt lat="46.54445" lon="0.6567">
        <ele>91.2</ele>
        <time>2023-03-19T08:32:29Z</time>
      </trkpt>
      <trkpt lat="46.54448" lon="0.65683">
        <ele>90.8</ele>
        <time>2023-03-19T08:32:30Z</time>
      </trkpt>
      <trkpt lat="46.54456" lon="0.65707">
        <ele>89.4</ele>
        <time>2023-03-19T08:32:32Z</time>
      </trkpt>
      <trkpt lat="46.5447" lon="0.65757">
        <ele>88.2</ele>
        <time>2023-03-19T08:32:36Z</time>
      </trkpt>
      <trkpt lat="46.5447" lon="0.65769">
        <ele>87.6</ele>
        <time>2023-03-19T08:32:37Z</time>
      </trkpt>
      <trkpt lat="46.54469" lon="0.65779">
        <ele>86.4</ele>
        <time>2023-03-19T08:32:38Z</time>
      </trkpt>
      <trkpt lat="46.54461" lon="0.65795">
        <ele>85.6</ele>
        <time>2023-03-19T08:32:40Z</time>
      </trkpt>
      <trkpt lat="46.54449" lon="0.65807">
        <ele>85.4</ele>
        <time>2023-03-19T08:32:42Z</time>
      </trkpt>
      <trkpt lat="46.54435" lon="0.65825">
        <ele>85.8</ele>
        <time>2023-03-19T08:32:45Z</time>
      </trkpt>
      <trkpt lat="46.54432" lon="0.65836">
        <ele>86.2</ele>
        <time>2023-03-19T08:32:47Z</time>
      </trkpt>
      <trkpt lat="46.54432" lon="0.65841">
        <ele>86.2</ele>
        <time>2023-03-19T08:32:48Z</time>
      </trkpt>
      <trkpt lat="46.54434" lon="0.65845">
        <ele>86.4</ele>
        <time>2023-03-19T08:32:49Z</time>
      </trkpt>
      <trkpt lat="46.54439" lon="0.65851">
        <ele>87.2</ele>
        <time>2023-03-19T08:32:51Z</time>
      </trkpt>
      <trkpt lat="46.54445" lon="0.65856">
        <ele>87.8</ele>
        <time>2023-03-19T08:32:53Z</time>
      </trkpt>
      <trkpt lat="46.54455" lon="0.65862">
        <ele>89</ele>
        <time>2023-03-19T08:32:57Z</time>
      </trkpt>
      <trkpt lat="46.54465" lon="0.65871">
        <ele>90</ele>
        <time>2023-03-19T08:33:02Z</time>
      </trkpt>
      <trkpt lat="46.54471" lon="0.65876">
        <ele>90.6</ele>
        <time>2023-03-19T08:33:05Z</time>
      </trkpt>
      <trkpt lat="46.54471" lon="0.65876">
        <ele>91.2</ele>
        <time>2023-03-19T08:33:06Z</time>
      </trkpt>
      <trkpt lat="46.54475" lon="0.65887">
        <ele>92.2</ele>
        <time>2023-03-19T08:33:11Z</time>
      </trkpt>
      <trkpt lat="46.54476" lon="0.65889">
        <ele>92.4</ele>
        <time>2023-03-19T08:33:12Z</time>
      </trkpt>
      <trkpt lat="46.54478" lon="0.65896">
        <ele>93.4</ele>
        <time>2023-03-19T08:33:15Z</time>
      </trkpt>
      <trkpt lat="46.54481" lon="0.65909">
        <ele>94.4</ele>
        <time>2023-03-19T08:33:19Z</time>
      </trkpt>
      <trkpt lat="46.54482" lon="0.65912">
        <ele>94.6</ele>
        <time>2023-03-19T08:33:20Z</time>
      </trkpt>
      <trkpt lat="46.54485" lon="0.65926">
        <ele>95.4</ele>
        <time>2023-03-19T08:33:24Z</time>
      </trkpt>
      <trkpt lat="46.54486" lon="0.65929">
        <ele>95.6</ele>
        <time>2023-03-19T08:33:25Z</time>
      </trkpt>
      <trkpt lat="46.54494" lon="0.65945">
        <ele>96.8</ele>
        <time>2023-03-19T08:33:30Z</time>
      </trkpt>
      <trkpt lat="46.54495" lon="0.65948">
        <ele>97</ele>
        <time>2023-03-19T08:33:31Z</time>
      </trkpt>
      <trkpt lat="46.545" lon="0.65957">
        <ele>97.4</ele>
        <time>2023-03-19T08:33:34Z</time>
      </trkpt>
      <trkpt lat="46.54506" lon="0.65964">
        <ele>97.6</ele>
        <time>2023-03-19T08:33:37Z</time>
      </trkpt>
      <trkpt lat="46.54508" lon="0.65966">
        <ele>97.8</ele>
        <time>2023-03-19T08:33:38Z</time>
      </trkpt>
      <trkpt lat="46.54524" lon="0.6599">
        <ele>98.6</ele>
        <time>2023-03-19T08:33:46Z</time>
      </trkpt>
      <trkpt lat="46.54536" lon="0.66008">
        <ele>98.8</ele>
        <time>2023-03-19T08:33:52Z</time>
      </trkpt>
      <trkpt lat="46.5454" lon="0.66015">
        <ele>98.8</ele>
        <time>2023-03-19T08:33:54Z</time>
      </trkpt>
      <trkpt lat="46.54551" lon="0.66029">
        <ele>99</ele>
        <time>2023-03-19T08:33:59Z</time>
      </trkpt>
      <trkpt lat="46.54563" lon="0.66044">
        <ele>99.8</ele>
        <time>2023-03-19T08:34:05Z</time>
      </trkpt>
      <trkpt lat="46.54576" lon="0.66063">
        <ele>100.6</ele>
        <time>2023-03-19T08:34:12Z</time>
      </trkpt>
      <trkpt lat="46.54578" lon="0.66065">
        <ele>100.8</ele>
        <time>2023-03-19T08:34:13Z</time>
      </trkpt>
      <trkpt lat="46.54586" lon="0.66075">
        <ele>102</ele>
        <time>2023-03-19T08:34:17Z</time>
      </trkpt>
      <trkpt lat="46.54588" lon="0.66077">
        <ele>102.2</ele>
        <time>2023-03-19T08:34:18Z</time>
      </trkpt>
      <trkpt lat="46.54598" lon="0.66089">
        <ele>103.4</ele>
        <time>2023-03-19T08:34:23Z</time>
      </trkpt>
      <trkpt lat="46.54602" lon="0.66094">
        <ele>104</ele>
        <time>2023-03-19T08:34:25Z</time>
      </trkpt>
      <trkpt lat="46.54603" lon="0.66096">
        <ele>104.4</ele>
        <time>2023-03-19T08:34:26Z</time>
      </trkpt>
      <trkpt lat="46.54616" lon="0.66115">
        <ele>105.6</ele>
        <time>2023-03-19T08:34:33Z</time>
      </trkpt>
      <trkpt lat="46.54625" lon="0.66125">
        <ele>106.8</ele>
        <time>2023-03-19T08:34:37Z</time>
      </trkpt>
      <trkpt lat="46.54629" lon="0.6613">
        <ele>107.4</ele>
        <time>2023-03-19T08:34:39Z</time>
      </trkpt>
      <trkpt lat="46.54635" lon="0.66138">
        <ele>107.8</ele>
        <time>2023-03-19T08:34:42Z</time>
      </trkpt>
      <trkpt lat="46.54644" lon="0.66146">
        <ele>108.2</ele>
        <time>2023-03-19T08:34:46Z</time>
      </trkpt>
      <trkpt lat="46.54656" lon="0.66161">
        <ele>108.8</ele>
        <time>2023-03-19T08:34:51Z</time>
      </trkpt>
      <trkpt lat="46.54658" lon="0.66165">
        <ele>108.8</ele>
        <time>2023-03-19T08:34:52Z</time>
      </trkpt>
      <trkpt lat="46.54673" lon="0.66189">
        <ele>108.8</ele>
        <time>2023-03-19T08:34:58Z</time>
      </trkpt>
      <trkpt lat="46.54693" lon="0.66211">
        <ele>109</ele>
        <time>2023-03-19T08:35:04Z</time>
      </trkpt>
      <trkpt lat="46.54722" lon="0.66233">
        <ele>109</ele>
        <time>2023-03-19T08:35:10Z</time>
      </trkpt>
      <trkpt lat="46.54727" lon="0.66237">
        <ele>108.8</ele>
        <time>2023-03-19T08:35:11Z</time>
      </trkpt>
      <trkpt lat="46.54734" lon="0.66242">
        <ele>108.6</ele>
        <time>2023-03-19T08:35:13Z</time>
      </trkpt>
      <trkpt lat="46.5474" lon="0.66243">
        <ele>108.6</ele>
        <time>2023-03-19T08:35:15Z</time>
      </trkpt>
      <trkpt lat="46.54741" lon="0.66234">
        <ele>108.4</ele>
        <time>2023-03-19T08:35:19Z</time>
      </trkpt>
      <trkpt lat="46.54739" lon="0.66218">
        <ele>107.8</ele>
        <time>2023-03-19T08:35:23Z</time>
      </trkpt>
      <trkpt lat="46.54738" lon="0.66215">
        <ele>107.8</ele>
        <time>2023-03-19T08:35:24Z</time>
      </trkpt>
      <trkpt lat="46.54738" lon="0.66211">
        <ele>107.4</ele>
        <time>2023-03-19T08:35:25Z</time>
      </trkpt>
      <trkpt lat="46.54737" lon="0.66203">
        <ele>107.4</ele>
        <time>2023-03-19T08:35:27Z</time>
      </trkpt>
      <trkpt lat="46.54738" lon="0.66192">
        <ele>106.4</ele>
        <time>2023-03-19T08:35:29Z</time>
      </trkpt>
      <trkpt lat="46.54738" lon="0.66186">
        <ele>106.2</ele>
        <time>2023-03-19T08:35:30Z</time>
      </trkpt>
      <trkpt lat="46.54738" lon="0.66166">
        <ele>104.8</ele>
        <time>2023-03-19T08:35:33Z</time>
      </trkpt>
      <trkpt lat="46.54738" lon="0.66155">
        <ele>104</ele>
        <time>2023-03-19T08:35:35Z</time>
      </trkpt>
      <trkpt lat="46.5474" lon="0.66146">
        <ele>104.4</ele>
        <time>2023-03-19T08:35:37Z</time>
      </trkpt>
      <trkpt lat="46.54741" lon="0.66133">
        <ele>104.4</ele>
        <time>2023-03-19T08:35:40Z</time>
      </trkpt>
      <trkpt lat="46.54741" lon="0.66119">
        <ele>103.8</ele>
        <time>2023-03-19T08:35:43Z</time>
      </trkpt>
      <trkpt lat="46.54742" lon="0.66114">
        <ele>103.4</ele>
        <time>2023-03-19T08:35:44Z</time>
      </trkpt>
      <trkpt lat="46.54743" lon="0.66109">
        <ele>103</ele>
        <time>2023-03-19T08:35:45Z</time>
      </trkpt>
      <trkpt lat="46.54748" lon="0.66088">
        <ele>102.4</ele>
        <time>2023-03-19T08:35:50Z</time>
      </trkpt>
      <trkpt lat="46.5475" lon="0.66083">
        <ele>102.2</ele>
        <time>2023-03-19T08:35:51Z</time>
      </trkpt>
      <trkpt lat="46.54754" lon="0.66066">
        <ele>101.4</ele>
        <time>2023-03-19T08:35:55Z</time>
      </trkpt>
      <trkpt lat="46.54756" lon="0.66055">
        <ele>100.4</ele>
        <time>2023-03-19T08:35:58Z</time>
      </trkpt>
      <trkpt lat="46.54756" lon="0.66052">
        <ele>100.2</ele>
        <time>2023-03-19T08:35:59Z</time>
      </trkpt>
      <trkpt lat="46.54758" lon="0.66028">
        <ele>99.4</ele>
        <time>2023-03-19T08:36:06Z</time>
      </trkpt>
      <trkpt lat="46.54758" lon="0.66018">
        <ele>99.8</ele>
        <time>2023-03-19T08:36:10Z</time>
      </trkpt>
      <trkpt lat="46.54758" lon="0.66012">
        <ele>100</ele>
        <time>2023-03-19T08:36:12Z</time>
      </trkpt>
      <trkpt lat="46.54761" lon="0.65997">
        <ele>100.6</ele>
        <time>2023-03-19T08:36:18Z</time>
      </trkpt>
      <trkpt lat="46.54763" lon="0.65975">
        <ele>100.4</ele>
        <time>2023-03-19T08:36:26Z</time>
      </trkpt>
      <trkpt lat="46.54766" lon="0.65955">
        <ele>100.6</ele>
        <time>2023-03-19T08:36:32Z</time>
      </trkpt>
      <trkpt lat="46.54767" lon="0.65945">
        <ele>101.2</ele>
        <time>2023-03-19T08:36:35Z</time>
      </trkpt>
      <trkpt lat="46.54767" lon="0.65943">
        <ele>101.2</ele>
        <time>2023-03-19T08:36:36Z</time>
      </trkpt>
      <trkpt lat="46.54766" lon="0.65941">
        <ele>101.2</ele>
        <time>2023-03-19T08:36:37Z</time>
      </trkpt>
      <trkpt lat="46.54766" lon="0.65939">
        <ele>100.8</ele>
        <time>2023-03-19T08:36:38Z</time>
      </trkpt>
      <trkpt lat="46.54764" lon="0.65926">
        <ele>99.8</ele>
        <time>2023-03-19T08:36:42Z</time>
      </trkpt>
      <trkpt lat="46.54763" lon="0.65916">
        <ele>98.6</ele>
        <time>2023-03-19T08:36:45Z</time>
      </trkpt>
      <trkpt lat="46.54763" lon="0.65907">
        <ele>98</ele>
        <time>2023-03-19T08:36:48Z</time>
      </trkpt>
      <trkpt lat="46.54761" lon="0.65887">
        <ele>97.4</ele>
        <time>2023-03-19T08:36:53Z</time>
      </trkpt>
      <trkpt lat="46.5476" lon="0.65883">
        <ele>96.8</ele>
        <time>2023-03-19T08:36:54Z</time>
      </trkpt>
      <trkpt lat="46.54759" lon="0.65874">
        <ele>96.2</ele>
        <time>2023-03-19T08:36:56Z</time>
      </trkpt>
      <trkpt lat="46.5476" lon="0.65854">
        <ele>95.4</ele>
        <time>2023-03-19T08:37:00Z</time>
      </trkpt>
      <trkpt lat="46.54761" lon="0.6585">
        <ele>95</ele>
        <time>2023-03-19T08:37:01Z</time>
      </trkpt>
      <trkpt lat="46.5476" lon="0.65837">
        <ele>95</ele>
        <time>2023-03-19T08:37:05Z</time>
      </trkpt>
      <trkpt lat="46.5476" lon="0.65819">
        <ele>95.6</ele>
        <time>2023-03-19T08:37:11Z</time>
      </trkpt>
      <trkpt lat="46.54765" lon="0.65792">
        <ele>95.6</ele>
        <time>2023-03-19T08:37:17Z</time>
      </trkpt>
      <trkpt lat="46.54768" lon="0.65779">
        <ele>96.2</ele>
        <time>2023-03-19T08:37:23Z</time>
      </trkpt>
      <trkpt lat="46.54773" lon="0.65771">
        <ele>97.4</ele>
        <time>2023-03-19T08:37:27Z</time>
      </trkpt>
      <trkpt lat="46.54775" lon="0.65762">
        <ele>98.8</ele>
        <time>2023-03-19T08:37:31Z</time>
      </trkpt>
      <trkpt lat="46.54777" lon="0.65758">
        <ele>100</ele>
        <time>2023-03-19T08:37:34Z</time>
      </trkpt>
      <trkpt lat="46.54781" lon="0.65748">
        <ele>101</ele>
        <time>2023-03-19T08:37:38Z</time>
      </trkpt>
      <trkpt lat="46.54784" lon="0.65741">
        <ele>102</ele>
        <time>2023-03-19T08:37:42Z</time>
      </trkpt>
      <trkpt lat="46.54786" lon="0.65738">
        <ele>102.4</ele>
        <time>2023-03-19T08:37:44Z</time>
      </trkpt>
      <trkpt lat="46.54788" lon="0.65736">
        <ele>102.6</ele>
        <time>2023-03-19T08:37:46Z</time>
      </trkpt>
      <trkpt lat="46.54788" lon="0.65735">
        <ele>102.6</ele>
        <time>2023-03-19T08:37:47Z</time>
      </trkpt>
      <trkpt lat="46.54792" lon="0.65726">
        <ele>102.8</ele>
        <time>2023-03-19T08:37:53Z</time>
      </trkpt>
      <trkpt lat="46.54794" lon="0.65717">
        <ele>103</ele>
        <time>2023-03-19T08:37:57Z</time>
      </trkpt>
      <trkpt lat="46.54792" lon="0.65693">
        <ele>102.4</ele>
        <time>2023-03-19T08:38:07Z</time>
      </trkpt>
      <trkpt lat="46.54793" lon="0.65689">
        <ele>103.2</ele>
        <time>2023-03-19T08:38:09Z</time>
      </trkpt>
      <trkpt lat="46.54794" lon="0.6568">
        <ele>104.2</ele>
        <time>2023-03-19T08:38:12Z</time>
      </trkpt>
      <trkpt lat="46.54794" lon="0.6567">
        <ele>104.4</ele>
        <time>2023-03-19T08:38:15Z</time>
      </trkpt>
      <trkpt lat="46.54793" lon="0.6565">
        <ele>104.2</ele>
        <time>2023-03-19T08:38:21Z</time>
      </trkpt>
      <trkpt lat="46.54789" lon="0.65627">
        <ele>104</ele>
        <time>2023-03-19T08:38:27Z</time>
      </trkpt>
      <trkpt lat="46.54785" lon="0.65603">
        <ele>103.6</ele>
        <time>2023-03-19T08:38:33Z</time>
      </trkpt>
      <trkpt lat="46.54783" lon="0.65578">
        <ele>104.4</ele>
        <time>2023-03-19T08:38:39Z</time>
      </trkpt>
      <trkpt lat="46.54783" lon="0.65575">
        <ele>104.6</ele>
        <time>2023-03-19T08:38:40Z</time>
      </trkpt>
      <trkpt lat="46.54783" lon="0.65565">
        <ele>104.8</ele>
        <time>2023-03-19T08:38:43Z</time>
      </trkpt>
      <trkpt lat="46.54783" lon="0.65562">
        <ele>104.2</ele>
        <time>2023-03-19T08:38:44Z</time>
      </trkpt>
      <trkpt lat="46.54783" lon="0.65545">
        <ele>103.2</ele>
        <time>2023-03-19T08:38:50Z</time>
      </trkpt>
      <trkpt lat="46.54791" lon="0.65531">
        <ele>103.8</ele>
        <time>2023-03-19T08:38:56Z</time>
      </trkpt>
      <trkpt lat="46.54805" lon="0.65525">
        <ele>104.2</ele>
        <time>2023-03-19T08:39:02Z</time>
      </trkpt>
      <trkpt lat="46.54814" lon="0.6552">
        <ele>104.4</ele>
        <time>2023-03-19T08:39:06Z</time>
      </trkpt>
      <trkpt lat="46.54821" lon="0.65515">
        <ele>104.4</ele>
        <time>2023-03-19T08:39:09Z</time>
      </trkpt>
      <trkpt lat="46.54838" lon="0.65505">
        <ele>104.8</ele>
        <time>2023-03-19T08:39:15Z</time>
      </trkpt>
      <trkpt lat="46.54856" lon="0.655">
        <ele>104.8</ele>
        <time>2023-03-19T08:39:21Z</time>
      </trkpt>
      <trkpt lat="46.54871" lon="0.65497">
        <ele>105.2</ele>
        <time>2023-03-19T08:39:27Z</time>
      </trkpt>
      <trkpt lat="46.54878" lon="0.65497">
        <ele>105.2</ele>
        <time>2023-03-19T08:39:30Z</time>
      </trkpt>
      <trkpt lat="46.54883" lon="0.65496">
        <ele>105</ele>
        <time>2023-03-19T08:39:33Z</time>
      </trkpt>
      <trkpt lat="46.54888" lon="0.65496">
        <ele>105</ele>
        <time>2023-03-19T08:39:36Z</time>
      </trkpt>
      <trkpt lat="46.549" lon="0.6549">
        <ele>104.6</ele>
        <time>2023-03-19T08:39:40Z</time>
      </trkpt>
      <trkpt lat="46.54908" lon="0.65484">
        <ele>104.2</ele>
        <time>2023-03-19T08:39:42Z</time>
      </trkpt>
      <trkpt lat="46.54918" lon="0.65478">
        <ele>103.2</ele>
        <time>2023-03-19T08:39:44Z</time>
      </trkpt>
      <trkpt lat="46.54921" lon="0.65477">
        <ele>102.4</ele>
        <time>2023-03-19T08:39:45Z</time>
      </trkpt>
      <trkpt lat="46.54924" lon="0.65477">
        <ele>102</ele>
        <time>2023-03-19T08:39:46Z</time>
      </trkpt>
      <trkpt lat="46.54934" lon="0.65477">
        <ele>101</ele>
        <time>2023-03-19T08:39:49Z</time>
      </trkpt>
      <trkpt lat="46.54937" lon="0.65476">
        <ele>100.8</ele>
        <time>2023-03-19T08:39:50Z</time>
      </trkpt>
      <trkpt lat="46.54944" lon="0.65476">
        <ele>100.6</ele>
        <time>2023-03-19T08:39:52Z</time>
      </trkpt>
      <trkpt lat="46.54949" lon="0.65478">
        <ele>100.4</ele>
        <time>2023-03-19T08:39:54Z</time>
      </trkpt>
      <trkpt lat="46.54961" lon="0.65475">
        <ele>100.4</ele>
        <time>2023-03-19T08:39:58Z</time>
      </trkpt>
      <trkpt lat="46.54977" lon="0.65481">
        <ele>101.6</ele>
        <time>2023-03-19T08:40:03Z</time>
      </trkpt>
      <trkpt lat="46.54981" lon="0.65486">
        <ele>101.8</ele>
        <time>2023-03-19T08:40:05Z</time>
      </trkpt>
      <trkpt lat="46.54993" lon="0.65499">
        <ele>102.8</ele>
        <time>2023-03-19T08:40:10Z</time>
      </trkpt>
      <trkpt lat="46.54995" lon="0.65501">
        <ele>103</ele>
        <time>2023-03-19T08:40:11Z</time>
      </trkpt>
      <trkpt lat="46.55001" lon="0.65512">
        <ele>103.2</ele>
        <time>2023-03-19T08:40:14Z</time>
      </trkpt>
      <trkpt lat="46.55014" lon="0.65522">
        <ele>103</ele>
        <time>2023-03-19T08:40:19Z</time>
      </trkpt>
      <trkpt lat="46.55023" lon="0.65524">
        <ele>103</ele>
        <time>2023-03-19T08:40:22Z</time>
      </trkpt>
      <trkpt lat="46.55031" lon="0.6553">
        <ele>103</ele>
        <time>2023-03-19T08:40:24Z</time>
      </trkpt>
      <trkpt lat="46.55037" lon="0.65538">
        <ele>102.4</ele>
        <time>2023-03-19T08:40:26Z</time>
      </trkpt>
      <trkpt lat="46.55042" lon="0.65544">
        <ele>102.2</ele>
        <time>2023-03-19T08:40:28Z</time>
      </trkpt>
      <trkpt lat="46.55044" lon="0.65547">
        <ele>102</ele>
        <time>2023-03-19T08:40:29Z</time>
      </trkpt>
      <trkpt lat="46.55048" lon="0.65551">
        <ele>101.6</ele>
        <time>2023-03-19T08:40:31Z</time>
      </trkpt>
      <trkpt lat="46.5505" lon="0.65553">
        <ele>101.4</ele>
        <time>2023-03-19T08:40:32Z</time>
      </trkpt>
      <trkpt lat="46.55051" lon="0.65554">
        <ele>101.2</ele>
        <time>2023-03-19T08:40:33Z</time>
      </trkpt>
      <trkpt lat="46.55052" lon="0.65556">
        <ele>101</ele>
        <time>2023-03-19T08:40:34Z</time>
      </trkpt>
      <trkpt lat="46.5506" lon="0.65562">
        <ele>100.2</ele>
        <time>2023-03-19T08:40:42Z</time>
      </trkpt>
      <trkpt lat="46.55063" lon="0.65565">
        <ele>99.2</ele>
        <time>2023-03-19T08:40:45Z</time>
      </trkpt>
      <trkpt lat="46.55064" lon="0.65566">
        <ele>99</ele>
        <time>2023-03-19T08:40:46Z</time>
      </trkpt>
      <trkpt lat="46.55069" lon="0.65569">
        <ele>98</ele>
        <time>2023-03-19T08:40:50Z</time>
      </trkpt>
      <trkpt lat="46.55078" lon="0.65573">
        <ele>96.8</ele>
        <time>2023-03-19T08:40:56Z</time>
      </trkpt>
      <trkpt lat="46.55079" lon="0.65571">
        <ele>96.6</ele>
        <time>2023-03-19T08:40:57Z</time>
      </trkpt>
      <trkpt lat="46.55083" lon="0.65564">
        <ele>96.2</ele>
        <time>2023-03-19T08:40:59Z</time>
      </trkpt>
      <trkpt lat="46.55084" lon="0.6556">
        <ele>96</ele>
        <time>2023-03-19T08:41:00Z</time>
      </trkpt>
      <trkpt lat="46.55086" lon="0.65556">
        <ele>95.6</ele>
        <time>2023-03-19T08:41:01Z</time>
      </trkpt>
      <trkpt lat="46.55089" lon="0.65548">
        <ele>94.6</ele>
        <time>2023-03-19T08:41:03Z</time>
      </trkpt>
      <trkpt lat="46.55091" lon="0.65538">
        <ele>93.8</ele>
        <time>2023-03-19T08:41:05Z</time>
      </trkpt>
      <trkpt lat="46.55093" lon="0.65528">
        <ele>93.4</ele>
        <time>2023-03-19T08:41:07Z</time>
      </trkpt>
      <trkpt lat="46.55095" lon="0.65515">
        <ele>92.2</ele>
        <time>2023-03-19T08:41:10Z</time>
      </trkpt>
      <trkpt lat="46.55096" lon="0.65509">
        <ele>91.2</ele>
        <time>2023-03-19T08:41:12Z</time>
      </trkpt>
      <trkpt lat="46.55097" lon="0.65507">
        <ele>90.6</ele>
        <time>2023-03-19T08:41:13Z</time>
      </trkpt>
      <trkpt lat="46.55099" lon="0.65498">
        <ele>89.6</ele>
        <time>2023-03-19T08:41:16Z</time>
      </trkpt>
      <trkpt lat="46.55099" lon="0.65491">
        <ele>89.2</ele>
        <time>2023-03-19T08:41:19Z</time>
      </trkpt>
      <trkpt lat="46.551" lon="0.6548">
        <ele>88.8</ele>
        <time>2023-03-19T08:41:23Z</time>
      </trkpt>
      <trkpt lat="46.55099" lon="0.65473">
        <ele>88.4</ele>
        <time>2023-03-19T08:41:25Z</time>
      </trkpt>
      <trkpt lat="46.55096" lon="0.65461">
        <ele>87.4</ele>
        <time>2023-03-19T08:41:29Z</time>
      </trkpt>
      <trkpt lat="46.55094" lon="0.6545">
        <ele>85.6</ele>
        <time>2023-03-19T08:41:32Z</time>
      </trkpt>
      <trkpt lat="46.5509" lon="0.65442">
        <ele>84.6</ele>
        <time>2023-03-19T08:41:34Z</time>
      </trkpt>
      <trkpt lat="46.55088" lon="0.65432">
        <ele>83.4</ele>
        <time>2023-03-19T08:41:36Z</time>
      </trkpt>
      <trkpt lat="46.55086" lon="0.65414">
        <ele>82.4</ele>
        <time>2023-03-19T08:41:39Z</time>
      </trkpt>
      <trkpt lat="46.55084" lon="0.65396">
        <ele>80.4</ele>
        <time>2023-03-19T08:41:42Z</time>
      </trkpt>
      <trkpt lat="46.55084" lon="0.65381">
        <ele>79.2</ele>
        <time>2023-03-19T08:41:44Z</time>
      </trkpt>
      <trkpt lat="46.55076" lon="0.65363">
        <ele>78.2</ele>
        <time>2023-03-19T08:41:47Z</time>
      </trkpt>
      <trkpt lat="46.55073" lon="0.65362">
        <ele>77.8</ele>
        <time>2023-03-19T08:41:48Z</time>
      </trkpt>
      <trkpt lat="46.55058" lon="0.65365">
        <ele>77.6</ele>
        <time>2023-03-19T08:41:53Z</time>
      </trkpt>
      <trkpt lat="46.55041" lon="0.65366">
        <ele>77.6</ele>
        <time>2023-03-19T08:41:59Z</time>
      </trkpt>
      <trkpt lat="46.55037" lon="0.65366">
        <ele>77.4</ele>
        <time>2023-03-19T08:42:01Z</time>
      </trkpt>
      <trkpt lat="46.55032" lon="0.65367">
        <ele>77.2</ele>
        <time>2023-03-19T08:42:04Z</time>
      </trkpt>
      <trkpt lat="46.55031" lon="0.65366">
        <ele>77</ele>
        <time>2023-03-19T08:42:05Z</time>
      </trkpt>
      <trkpt lat="46.55021" lon="0.65364">
        <ele>77.2</ele>
        <time>2023-03-19T08:42:11Z</time>
      </trkpt>
      <trkpt lat="46.55021" lon="0.65364">
        <ele>77.2</ele>
        <time>2023-03-19T08:42:12Z</time>
      </trkpt>
      <trkpt lat="46.55019" lon="0.65364">
        <ele>77.4</ele>
        <time>2023-03-19T08:42:14Z</time>
      </trkpt>
      <trkpt lat="46.55018" lon="0.65365">
        <ele>77.8</ele>
        <time>2023-03-19T08:42:16Z</time>
      </trkpt>
      <trkpt lat="46.5501" lon="0.6537">
        <ele>78.4</ele>
        <time>2023-03-19T08:42:18Z</time>
      </trkpt>
      <trkpt lat="46.55005" lon="0.65373">
        <ele>78.8</ele>
        <time>2023-03-19T08:42:19Z</time>
      </trkpt>
      <trkpt lat="46.54992" lon="0.65378">
        <ele>79.2</ele>
        <time>2023-03-19T08:42:22Z</time>
      </trkpt>
      <trkpt lat="46.5499" lon="0.65378">
        <ele>79.2</ele>
        <time>2023-03-19T08:42:23Z</time>
      </trkpt>
      <trkpt lat="46.54975" lon="0.65369">
        <ele>78.4</ele>
        <time>2023-03-19T08:42:29Z</time>
      </trkpt>
      <trkpt lat="46.5497" lon="0.65366">
        <ele>78.2</ele>
        <time>2023-03-19T08:42:31Z</time>
      </trkpt>
      <trkpt lat="46.5496" lon="0.65363">
        <ele>78</ele>
        <time>2023-03-19T08:42:34Z</time>
      </trkpt>
      <trkpt lat="46.54958" lon="0.6536">
        <ele>78</ele>
        <time>2023-03-19T08:42:35Z</time>
      </trkpt>
      <trkpt lat="46.54946" lon="0.65352">
        <ele>78</ele>
        <time>2023-03-19T08:42:40Z</time>
      </trkpt>
      <trkpt lat="46.54939" lon="0.65349">
        <ele>78.4</ele>
        <time>2023-03-19T08:42:44Z</time>
      </trkpt>
      <trkpt lat="46.54934" lon="0.65346">
        <ele>78.4</ele>
        <time>2023-03-19T08:42:47Z</time>
      </trkpt>
      <trkpt lat="46.54925" lon="0.65345">
        <ele>78.6</ele>
        <time>2023-03-19T08:42:51Z</time>
      </trkpt>
      <trkpt lat="46.5492" lon="0.65344">
        <ele>78.8</ele>
        <time>2023-03-19T08:42:54Z</time>
      </trkpt>
      <trkpt lat="46.54915" lon="0.65344">
        <ele>78.8</ele>
        <time>2023-03-19T08:42:57Z</time>
      </trkpt>
      <trkpt lat="46.54909" lon="0.65344">
        <ele>78.6</ele>
        <time>2023-03-19T08:43:00Z</time>
      </trkpt>
      <trkpt lat="46.54906" lon="0.65344">
        <ele>78.6</ele>
        <time>2023-03-19T08:43:02Z</time>
      </trkpt>
      <trkpt lat="46.54904" lon="0.65343">
        <ele>78.6</ele>
        <time>2023-03-19T08:43:04Z</time>
      </trkpt>
      <trkpt lat="46.54901" lon="0.65343">
        <ele>78.4</ele>
        <time>2023-03-19T08:43:06Z</time>
      </trkpt>
      <trkpt lat="46.54894" lon="0.65342">
        <ele>78.6</ele>
        <time>2023-03-19T08:43:10Z</time>
      </trkpt>
      <trkpt lat="46.54887" lon="0.65341">
        <ele>79</ele>
        <time>2023-03-19T08:43:13Z</time>
      </trkpt>
      <trkpt lat="46.54886" lon="0.65341">
        <ele>79.2</ele>
        <time>2023-03-19T08:43:14Z</time>
      </trkpt>
      <trkpt lat="46.54885" lon="0.6534">
        <ele>79.6</ele>
        <time>2023-03-19T08:43:15Z</time>
      </trkpt>
      <trkpt lat="46.54881" lon="0.65341">
        <ele>80</ele>
        <time>2023-03-19T08:43:18Z</time>
      </trkpt>
      <trkpt lat="46.5488" lon="0.65341">
        <ele>80</ele>
        <time>2023-03-19T08:43:19Z</time>
      </trkpt>
      <trkpt lat="46.54877" lon="0.65341">
        <ele>79.8</ele>
        <time>2023-03-19T08:43:21Z</time>
      </trkpt>
      <trkpt lat="46.54873" lon="0.65339">
        <ele>79.6</ele>
        <time>2023-03-19T08:43:23Z</time>
      </trkpt>
      <trkpt lat="46.5486" lon="0.65342">
        <ele>80.4</ele>
        <time>2023-03-19T08:43:29Z</time>
      </trkpt>
      <trkpt lat="46.54856" lon="0.65341">
        <ele>81</ele>
        <time>2023-03-19T08:43:31Z</time>
      </trkpt>
      <trkpt lat="46.5485" lon="0.6534">
        <ele>81.4</ele>
        <time>2023-03-19T08:43:34Z</time>
      </trkpt>
      <trkpt lat="46.54833" lon="0.65332">
        <ele>81.8</ele>
        <time>2023-03-19T08:43:40Z</time>
      </trkpt>
      <trkpt lat="46.54826" lon="0.65328">
        <ele>82</ele>
        <time>2023-03-19T08:43:42Z</time>
      </trkpt>
      <trkpt lat="46.54814" lon="0.65323">
        <ele>82.6</ele>
        <time>2023-03-19T08:43:46Z</time>
      </trkpt>
      <trkpt lat="46.548" lon="0.65315">
        <ele>83</ele>
        <time>2023-03-19T08:43:52Z</time>
      </trkpt>
      <trkpt lat="46.54799" lon="0.65315">
        <ele>83.2</ele>
        <time>2023-03-19T08:43:53Z</time>
      </trkpt>
      <trkpt lat="46.54787" lon="0.65306">
        <ele>84</ele>
        <time>2023-03-19T08:43:59Z</time>
      </trkpt>
      <trkpt lat="46.54771" lon="0.65304">
        <ele>84.4</ele>
        <time>2023-03-19T08:44:05Z</time>
      </trkpt>
      <trkpt lat="46.54769" lon="0.65303">
        <ele>84.6</ele>
        <time>2023-03-19T08:44:06Z</time>
      </trkpt>
      <trkpt lat="46.54758" lon="0.65303">
        <ele>85.6</ele>
        <time>2023-03-19T08:44:10Z</time>
      </trkpt>
      <trkpt lat="46.54749" lon="0.65304">
        <ele>86.6</ele>
        <time>2023-03-19T08:44:13Z</time>
      </trkpt>
      <trkpt lat="46.54747" lon="0.65303">
        <ele>86.8</ele>
        <time>2023-03-19T08:44:14Z</time>
      </trkpt>
      <trkpt lat="46.54732" lon="0.65303">
        <ele>87.6</ele>
        <time>2023-03-19T08:44:19Z</time>
      </trkpt>
      <trkpt lat="46.54728" lon="0.65302">
        <ele>88</ele>
        <time>2023-03-19T08:44:20Z</time>
      </trkpt>
      <trkpt lat="46.54713" lon="0.65303">
        <ele>89</ele>
        <time>2023-03-19T08:44:25Z</time>
      </trkpt>
      <trkpt lat="46.54711" lon="0.65302">
        <ele>89.4</ele>
        <time>2023-03-19T08:44:26Z</time>
      </trkpt>
      <trkpt lat="46.54701" lon="0.65297">
        <ele>90</ele>
        <time>2023-03-19T08:44:30Z</time>
      </trkpt>
      <trkpt lat="46.54698" lon="0.65296">
        <ele>90</ele>
        <time>2023-03-19T08:44:31Z</time>
      </trkpt>
      <trkpt lat="46.54697" lon="0.65291">
        <ele>90.2</ele>
        <time>2023-03-19T08:44:34Z</time>
      </trkpt>
      <trkpt lat="46.54697" lon="0.65287">
        <ele>90.4</ele>
        <time>2023-03-19T08:44:36Z</time>
      </trkpt>
      <trkpt lat="46.54698" lon="0.65284">
        <ele>91</ele>
        <time>2023-03-19T08:44:38Z</time>
      </trkpt>
      <trkpt lat="46.54699" lon="0.6528">
        <ele>91.6</ele>
        <time>2023-03-19T08:44:40Z</time>
      </trkpt>
      <trkpt lat="46.54701" lon="0.65277">
        <ele>92.2</ele>
        <time>2023-03-19T08:44:43Z</time>
      </trkpt>
      <trkpt lat="46.54704" lon="0.65273">
        <ele>92.4</ele>
        <time>2023-03-19T08:44:46Z</time>
      </trkpt>
      <trkpt lat="46.54718" lon="0.65266">
        <ele>92.4</ele>
        <time>2023-03-19T08:44:52Z</time>
      </trkpt>
      <trkpt lat="46.54739" lon="0.6526">
        <ele>91.4</ele>
        <time>2023-03-19T08:44:59Z</time>
      </trkpt>
      <trkpt lat="46.54742" lon="0.65259">
        <ele>91.2</ele>
        <time>2023-03-19T08:45:00Z</time>
      </trkpt>
      <trkpt lat="46.54755" lon="0.6526">
        <ele>91.4</ele>
        <time>2023-03-19T08:45:05Z</time>
      </trkpt>
      <trkpt lat="46.54772" lon="0.6526">
        <ele>93.4</ele>
        <time>2023-03-19T08:45:12Z</time>
      </trkpt>
      <trkpt lat="46.54781" lon="0.6526">
        <ele>94.4</ele>
        <time>2023-03-19T08:45:16Z</time>
      </trkpt>
      <trkpt lat="46.54788" lon="0.65258">
        <ele>95.4</ele>
        <time>2023-03-19T08:45:19Z</time>
      </trkpt>
      <trkpt lat="46.548" lon="0.65255">
        <ele>96.4</ele>
        <time>2023-03-19T08:45:24Z</time>
      </trkpt>
      <trkpt lat="46.54805" lon="0.65254">
        <ele>96.8</ele>
        <time>2023-03-19T08:45:26Z</time>
      </trkpt>
      <trkpt lat="46.54815" lon="0.65253">
        <ele>97.4</ele>
        <time>2023-03-19T08:45:30Z</time>
      </trkpt>
      <trkpt lat="46.54822" lon="0.65254">
        <ele>97.6</ele>
        <time>2023-03-19T08:45:32Z</time>
      </trkpt>
      <trkpt lat="46.54835" lon="0.65254">
        <ele>97.6</ele>
        <time>2023-03-19T08:45:38Z</time>
      </trkpt>
      <trkpt lat="46.54851" lon="0.65253">
        <ele>98</ele>
        <time>2023-03-19T08:45:44Z</time>
      </trkpt>
      <trkpt lat="46.54854" lon="0.65252">
        <ele>98</ele>
        <time>2023-03-19T08:45:45Z</time>
      </trkpt>
      <trkpt lat="46.54867" lon="0.65248">
        <ele>98</ele>
        <time>2023-03-19T08:45:48Z</time>
      </trkpt>
      <trkpt lat="46.54877" lon="0.65246">
        <ele>98.2</ele>
        <time>2023-03-19T08:45:50Z</time>
      </trkpt>
      <trkpt lat="46.54888" lon="0.65243">
        <ele>98.6</ele>
        <time>2023-03-19T08:45:53Z</time>
      </trkpt>
      <trkpt lat="46.54903" lon="0.6524">
        <ele>98.6</ele>
        <time>2023-03-19T08:45:58Z</time>
      </trkpt>
      <trkpt lat="46.54916" lon="0.65226">
        <ele>98.8</ele>
        <time>2023-03-19T08:46:03Z</time>
      </trkpt>
      <trkpt lat="46.54927" lon="0.65215">
        <ele>98.6</ele>
        <time>2023-03-19T08:46:07Z</time>
      </trkpt>
      <trkpt lat="46.54933" lon="0.65209">
        <ele>98.8</ele>
        <time>2023-03-19T08:46:09Z</time>
      </trkpt>
      <trkpt lat="46.54951" lon="0.6519">
        <ele>99.2</ele>
        <time>2023-03-19T08:46:15Z</time>
      </trkpt>
      <trkpt lat="46.54972" lon="0.65152">
        <ele>98.8</ele>
        <time>2023-03-19T08:46:21Z</time>
      </trkpt>
      <trkpt lat="46.54975" lon="0.65146">
        <ele>98.6</ele>
        <time>2023-03-19T08:46:22Z</time>
      </trkpt>
      <trkpt lat="46.54981" lon="0.65134">
        <ele>98.6</ele>
        <time>2023-03-19T08:46:24Z</time>
      </trkpt>
      <trkpt lat="46.54986" lon="0.65123">
        <ele>98.2</ele>
        <time>2023-03-19T08:46:26Z</time>
      </trkpt>
      <trkpt lat="46.5499" lon="0.6511">
        <ele>97.4</ele>
        <time>2023-03-19T08:46:29Z</time>
      </trkpt>
      <trkpt lat="46.54992" lon="0.65108">
        <ele>97.2</ele>
        <time>2023-03-19T08:46:30Z</time>
      </trkpt>
      <trkpt lat="46.54998" lon="0.65097">
        <ele>96</ele>
        <time>2023-03-19T08:46:34Z</time>
      </trkpt>
      <trkpt lat="46.55001" lon="0.65088">
        <ele>95.4</ele>
        <time>2023-03-19T08:46:36Z</time>
      </trkpt>
      <trkpt lat="46.55001" lon="0.65083">
        <ele>95.2</ele>
        <time>2023-03-19T08:46:37Z</time>
      </trkpt>
      <trkpt lat="46.55002" lon="0.65078">
        <ele>94.8</ele>
        <time>2023-03-19T08:46:38Z</time>
      </trkpt>
      <trkpt lat="46.55002" lon="0.65073">
        <ele>94.6</ele>
        <time>2023-03-19T08:46:39Z</time>
      </trkpt>
      <trkpt lat="46.55005" lon="0.65061">
        <ele>93.4</ele>
        <time>2023-03-19T08:46:41Z</time>
      </trkpt>
      <trkpt lat="46.55006" lon="0.65052">
        <ele>92.4</ele>
        <time>2023-03-19T08:46:43Z</time>
      </trkpt>
      <trkpt lat="46.55009" lon="0.65046">
        <ele>91.4</ele>
        <time>2023-03-19T08:46:45Z</time>
      </trkpt>
      <trkpt lat="46.55013" lon="0.65029">
        <ele>90.6</ele>
        <time>2023-03-19T08:46:48Z</time>
      </trkpt>
      <trkpt lat="46.55015" lon="0.65024">
        <ele>90.2</ele>
        <time>2023-03-19T08:46:49Z</time>
      </trkpt>
      <trkpt lat="46.55022" lon="0.65008">
        <ele>89</ele>
        <time>2023-03-19T08:46:51Z</time>
      </trkpt>
      <trkpt lat="46.5503" lon="0.64991">
        <ele>87.2</ele>
        <time>2023-03-19T08:46:53Z</time>
      </trkpt>
      <trkpt lat="46.55035" lon="0.64975">
        <ele>86.2</ele>
        <time>2023-03-19T08:46:55Z</time>
      </trkpt>
      <trkpt lat="46.55041" lon="0.64961">
        <ele>84.6</ele>
        <time>2023-03-19T08:46:57Z</time>
      </trkpt>
      <trkpt lat="46.55043" lon="0.64955">
        <ele>83.8</ele>
        <time>2023-03-19T08:46:58Z</time>
      </trkpt>
      <trkpt lat="46.55045" lon="0.6495">
        <ele>83.2</ele>
        <time>2023-03-19T08:46:59Z</time>
      </trkpt>
      <trkpt lat="46.55048" lon="0.64943">
        <ele>82</ele>
        <time>2023-03-19T08:47:01Z</time>
      </trkpt>
      <trkpt lat="46.55049" lon="0.6494">
        <ele>81.6</ele>
        <time>2023-03-19T08:47:02Z</time>
      </trkpt>
      <trkpt lat="46.55055" lon="0.64935">
        <ele>80.8</ele>
        <time>2023-03-19T08:47:04Z</time>
      </trkpt>
      <trkpt lat="46.55063" lon="0.64926">
        <ele>80.2</ele>
        <time>2023-03-19T08:47:06Z</time>
      </trkpt>
      <trkpt lat="46.55073" lon="0.64916">
        <ele>79.4</ele>
        <time>2023-03-19T08:47:08Z</time>
      </trkpt>
      <trkpt lat="46.55084" lon="0.64906">
        <ele>78.4</ele>
        <time>2023-03-19T08:47:10Z</time>
      </trkpt>
      <trkpt lat="46.55094" lon="0.64897">
        <ele>77.2</ele>
        <time>2023-03-19T08:47:12Z</time>
      </trkpt>
      <trkpt lat="46.55098" lon="0.64894">
        <ele>76.4</ele>
        <time>2023-03-19T08:47:13Z</time>
      </trkpt>
      <trkpt lat="46.55102" lon="0.64891">
        <ele>76</ele>
        <time>2023-03-19T08:47:14Z</time>
      </trkpt>
      <trkpt lat="46.55109" lon="0.64888">
        <ele>75.4</ele>
        <time>2023-03-19T08:47:16Z</time>
      </trkpt>
      <trkpt lat="46.55115" lon="0.64885">
        <ele>74.8</ele>
        <time>2023-03-19T08:47:18Z</time>
      </trkpt>
      <trkpt lat="46.55126" lon="0.6488">
        <ele>74.2</ele>
        <time>2023-03-19T08:47:22Z</time>
      </trkpt>
      <trkpt lat="46.55143" lon="0.64874">
        <ele>74.2</ele>
        <time>2023-03-19T08:47:28Z</time>
      </trkpt>
      <trkpt lat="46.5516" lon="0.64867">
        <ele>75.4</ele>
        <time>2023-03-19T08:47:35Z</time>
      </trkpt>
      <trkpt lat="46.55168" lon="0.64863">
        <ele>76</ele>
        <time>2023-03-19T08:47:38Z</time>
      </trkpt>
      <trkpt lat="46.55179" lon="0.64855">
        <ele>77</ele>
        <time>2023-03-19T08:47:43Z</time>
      </trkpt>
      <trkpt lat="46.55181" lon="0.64853">
        <ele>77.2</ele>
        <time>2023-03-19T08:47:44Z</time>
      </trkpt>
      <trkpt lat="46.55189" lon="0.64844">
        <ele>78.6</ele>
        <time>2023-03-19T08:47:48Z</time>
      </trkpt>
      <trkpt lat="46.55194" lon="0.6484">
        <ele>79.2</ele>
        <time>2023-03-19T08:47:50Z</time>
      </trkpt>
      <trkpt lat="46.55199" lon="0.64837">
        <ele>79.6</ele>
        <time>2023-03-19T08:47:53Z</time>
      </trkpt>
      <trkpt lat="46.55208" lon="0.64832">
        <ele>80.6</ele>
        <time>2023-03-19T08:47:57Z</time>
      </trkpt>
      <trkpt lat="46.5521" lon="0.64831">
        <ele>80.8</ele>
        <time>2023-03-19T08:47:58Z</time>
      </trkpt>
      <trkpt lat="46.55224" lon="0.64827">
        <ele>81.8</ele>
        <time>2023-03-19T08:48:04Z</time>
      </trkpt>
      <trkpt lat="46.55226" lon="0.64826">
        <ele>82</ele>
        <time>2023-03-19T08:48:05Z</time>
      </trkpt>
      <trkpt lat="46.55239" lon="0.64819">
        <ele>83</ele>
        <time>2023-03-19T08:48:12Z</time>
      </trkpt>
      <trkpt lat="46.55241" lon="0.64819">
        <ele>83</ele>
        <time>2023-03-19T08:48:13Z</time>
      </trkpt>
      <trkpt lat="46.55253" lon="0.64816">
        <ele>84</ele>
        <time>2023-03-19T08:48:19Z</time>
      </trkpt>
      <trkpt lat="46.55257" lon="0.64815">
        <ele>84.4</ele>
        <time>2023-03-19T08:48:21Z</time>
      </trkpt>
      <trkpt lat="46.55263" lon="0.64814">
        <ele>85.2</ele>
        <time>2023-03-19T08:48:24Z</time>
      </trkpt>
      <trkpt lat="46.55275" lon="0.64812">
        <ele>86.2</ele>
        <time>2023-03-19T08:48:30Z</time>
      </trkpt>
      <trkpt lat="46.55287" lon="0.64812">
        <ele>87.4</ele>
        <time>2023-03-19T08:48:37Z</time>
      </trkpt>
      <trkpt lat="46.55305" lon="0.64812">
        <ele>88.2</ele>
        <time>2023-03-19T08:48:44Z</time>
      </trkpt>
      <trkpt lat="46.55311" lon="0.64813">
        <ele>88.4</ele>
        <time>2023-03-19T08:48:46Z</time>
      </trkpt>
      <trkpt lat="46.55327" lon="0.64815">
        <ele>88.6</ele>
        <time>2023-03-19T08:48:51Z</time>
      </trkpt>
      <trkpt lat="46.55348" lon="0.6482">
        <ele>89</ele>
        <time>2023-03-19T08:48:59Z</time>
      </trkpt>
      <trkpt lat="46.55359" lon="0.64821">
        <ele>89.4</ele>
        <time>2023-03-19T08:49:03Z</time>
      </trkpt>
      <trkpt lat="46.55367" lon="0.64823">
        <ele>89.8</ele>
        <time>2023-03-19T08:49:06Z</time>
      </trkpt>
      <trkpt lat="46.5538" lon="0.64824">
        <ele>90.8</ele>
        <time>2023-03-19T08:49:10Z</time>
      </trkpt>
      <trkpt lat="46.55389" lon="0.64823">
        <ele>91.4</ele>
        <time>2023-03-19T08:49:13Z</time>
      </trkpt>
      <trkpt lat="46.55396" lon="0.64825">
        <ele>91.8</ele>
        <time>2023-03-19T08:49:16Z</time>
      </trkpt>
      <trkpt lat="46.55405" lon="0.64826">
        <ele>92.8</ele>
        <time>2023-03-19T08:49:20Z</time>
      </trkpt>
      <trkpt lat="46.55407" lon="0.64827">
        <ele>93.2</ele>
        <time>2023-03-19T08:49:21Z</time>
      </trkpt>
      <trkpt lat="46.55416" lon="0.64828">
        <ele>94.2</ele>
        <time>2023-03-19T08:49:25Z</time>
      </trkpt>
      <trkpt lat="46.55421" lon="0.64829">
        <ele>95</ele>
        <time>2023-03-19T08:49:28Z</time>
      </trkpt>
      <trkpt lat="46.55426" lon="0.6483">
        <ele>95.4</ele>
        <time>2023-03-19T08:49:30Z</time>
      </trkpt>
      <trkpt lat="46.55436" lon="0.64835">
        <ele>96</ele>
        <time>2023-03-19T08:49:34Z</time>
      </trkpt>
      <trkpt lat="46.55444" lon="0.64838">
        <ele>96.4</ele>
        <time>2023-03-19T08:49:37Z</time>
      </trkpt>
      <trkpt lat="46.55456" lon="0.64845">
        <ele>97.2</ele>
        <time>2023-03-19T08:49:42Z</time>
      </trkpt>
      <trkpt lat="46.5546" lon="0.64848">
        <ele>97.4</ele>
        <time>2023-03-19T08:49:44Z</time>
      </trkpt>
      <trkpt lat="46.55474" lon="0.64857">
        <ele>98.4</ele>
        <time>2023-03-19T08:49:50Z</time>
      </trkpt>
      <trkpt lat="46.5549" lon="0.64869">
        <ele>99</ele>
        <time>2023-03-19T08:49:56Z</time>
      </trkpt>
      <trkpt lat="46.5549" lon="0.64869">
        <ele>99.6</ele>
        <time>2023-03-19T08:49:58Z</time>
      </trkpt>
      <trkpt lat="46.55497" lon="0.64876">
        <ele>99.8</ele>
        <time>2023-03-19T08:49:59Z</time>
      </trkpt>
      <trkpt lat="46.55517" lon="0.64887">
        <ele>100</ele>
        <time>2023-03-19T08:50:06Z</time>
      </trkpt>
      <trkpt lat="46.55538" lon="0.64888">
        <ele>100.4</ele>
        <time>2023-03-19T08:50:12Z</time>
      </trkpt>
      <trkpt lat="46.55574" lon="0.64879">
        <ele>100.4</ele>
        <time>2023-03-19T08:50:21Z</time>
      </trkpt>
      <trkpt lat="46.55598" lon="0.64869">
        <ele>100.4</ele>
        <time>2023-03-19T08:50:27Z</time>
      </trkpt>
      <trkpt lat="46.55606" lon="0.64866">
        <ele>100</ele>
        <time>2023-03-19T08:50:29Z</time>
      </trkpt>
      <trkpt lat="46.55611" lon="0.64867">
        <ele>99.6</ele>
        <time>2023-03-19T08:50:31Z</time>
      </trkpt>
      <trkpt lat="46.5561" lon="0.64876">
        <ele>99.6</ele>
        <time>2023-03-19T08:50:34Z</time>
      </trkpt>
      <trkpt lat="46.55603" lon="0.64895">
        <ele>100</ele>
        <time>2023-03-19T08:50:38Z</time>
      </trkpt>
      <trkpt lat="46.55598" lon="0.64911">
        <ele>100.6</ele>
        <time>2023-03-19T08:50:41Z</time>
      </trkpt>
      <trkpt lat="46.55594" lon="0.64927">
        <ele>101</ele>
        <time>2023-03-19T08:50:44Z</time>
      </trkpt>
      <trkpt lat="46.55592" lon="0.64931">
        <ele>101</ele>
        <time>2023-03-19T08:50:45Z</time>
      </trkpt>
      <trkpt lat="46.55581" lon="0.64958">
        <ele>101.8</ele>
        <time>2023-03-19T08:50:52Z</time>
      </trkpt>
      <trkpt lat="46.55567" lon="0.64987">
        <ele>102.6</ele>
        <time>2023-03-19T08:51:00Z</time>
      </trkpt>
      <trkpt lat="46.55565" lon="0.64991">
        <ele>103</ele>
        <time>2023-03-19T08:51:01Z</time>
      </trkpt>
      <trkpt lat="46.55553" lon="0.6501">
        <ele>103.4</ele>
        <time>2023-03-19T08:51:06Z</time>
      </trkpt>
      <trkpt lat="46.55543" lon="0.65033">
        <ele>104</ele>
        <time>2023-03-19T08:51:11Z</time>
      </trkpt>
      <trkpt lat="46.55541" lon="0.65038">
        <ele>104.2</ele>
        <time>2023-03-19T08:51:12Z</time>
      </trkpt>
      <trkpt lat="46.55524" lon="0.65075">
        <ele>104.4</ele>
        <time>2023-03-19T08:51:19Z</time>
      </trkpt>
      <trkpt lat="46.5551" lon="0.65111">
        <ele>105</ele>
        <time>2023-03-19T08:51:27Z</time>
      </trkpt>
      <trkpt lat="46.55508" lon="0.65115">
        <ele>105.2</ele>
        <time>2023-03-19T08:51:28Z</time>
      </trkpt>
      <trkpt lat="46.55492" lon="0.65153">
        <ele>106</ele>
        <time>2023-03-19T08:51:35Z</time>
      </trkpt>
      <trkpt lat="46.55485" lon="0.6517">
        <ele>106.4</ele>
        <time>2023-03-19T08:51:38Z</time>
      </trkpt>
      <trkpt lat="46.55478" lon="0.65186">
        <ele>106.8</ele>
        <time>2023-03-19T08:51:41Z</time>
      </trkpt>
      <trkpt lat="46.55473" lon="0.65196">
        <ele>107</ele>
        <time>2023-03-19T08:51:43Z</time>
      </trkpt>
      <trkpt lat="46.55461" lon="0.65223">
        <ele>107.4</ele>
        <time>2023-03-19T08:51:49Z</time>
      </trkpt>
      <trkpt lat="46.55459" lon="0.65232">
        <ele>107.4</ele>
        <time>2023-03-19T08:51:51Z</time>
      </trkpt>
      <trkpt lat="46.55453" lon="0.65246">
        <ele>107.6</ele>
        <time>2023-03-19T08:51:54Z</time>
      </trkpt>
      <trkpt lat="46.55434" lon="0.65281">
        <ele>108</ele>
        <time>2023-03-19T08:52:02Z</time>
      </trkpt>
      <trkpt lat="46.55429" lon="0.65297">
        <ele>108.4</ele>
        <time>2023-03-19T08:52:05Z</time>
      </trkpt>
      <trkpt lat="46.55421" lon="0.65315">
        <ele>109.2</ele>
        <time>2023-03-19T08:52:09Z</time>
      </trkpt>
      <trkpt lat="46.55418" lon="0.65325">
        <ele>109.4</ele>
        <time>2023-03-19T08:52:11Z</time>
      </trkpt>
      <trkpt lat="46.55416" lon="0.6533">
        <ele>109.6</ele>
        <time>2023-03-19T08:52:12Z</time>
      </trkpt>
      <trkpt lat="46.55409" lon="0.6535">
        <ele>109.8</ele>
        <time>2023-03-19T08:52:16Z</time>
      </trkpt>
      <trkpt lat="46.55405" lon="0.65363">
        <ele>110</ele>
        <time>2023-03-19T08:52:19Z</time>
      </trkpt>
      <trkpt lat="46.55401" lon="0.65374">
        <ele>110.2</ele>
        <time>2023-03-19T08:52:21Z</time>
      </trkpt>
      <trkpt lat="46.55397" lon="0.65383">
        <ele>110.6</ele>
        <time>2023-03-19T08:52:23Z</time>
      </trkpt>
      <trkpt lat="46.55379" lon="0.65422">
        <ele>111</ele>
        <time>2023-03-19T08:52:30Z</time>
      </trkpt>
      <trkpt lat="46.5537" lon="0.65443">
        <ele>111.8</ele>
        <time>2023-03-19T08:52:34Z</time>
      </trkpt>
      <trkpt lat="46.55363" lon="0.6546">
        <ele>112</ele>
        <time>2023-03-19T08:52:37Z</time>
      </trkpt>
      <trkpt lat="46.55352" lon="0.6549">
        <ele>112.6</ele>
        <time>2023-03-19T08:52:43Z</time>
      </trkpt>
      <trkpt lat="46.55348" lon="0.65504">
        <ele>112.8</ele>
        <time>2023-03-19T08:52:46Z</time>
      </trkpt>
      <trkpt lat="46.55341" lon="0.65526">
        <ele>112.8</ele>
        <time>2023-03-19T08:52:50Z</time>
      </trkpt>
      <trkpt lat="46.55324" lon="0.65565">
        <ele>112.4</ele>
        <time>2023-03-19T08:52:56Z</time>
      </trkpt>
      <trkpt lat="46.55301" lon="0.65616">
        <ele>112</ele>
        <time>2023-03-19T08:53:03Z</time>
      </trkpt>
      <trkpt lat="46.55298" lon="0.65623">
        <ele>111.8</ele>
        <time>2023-03-19T08:53:04Z</time>
      </trkpt>
      <trkpt lat="46.55277" lon="0.65677">
        <ele>112</ele>
        <time>2023-03-19T08:53:11Z</time>
      </trkpt>
      <trkpt lat="46.55251" lon="0.65739">
        <ele>110.6</ele>
        <time>2023-03-19T08:53:19Z</time>
      </trkpt>
      <trkpt lat="46.55233" lon="0.65786">
        <ele>109.8</ele>
        <time>2023-03-19T08:53:26Z</time>
      </trkpt>
      <trkpt lat="46.55231" lon="0.65792">
        <ele>109.6</ele>
        <time>2023-03-19T08:53:27Z</time>
      </trkpt>
      <trkpt lat="46.55231" lon="0.65797">
        <ele>109.4</ele>
        <time>2023-03-19T08:53:28Z</time>
      </trkpt>
      <trkpt lat="46.55233" lon="0.65807">
        <ele>109</ele>
        <time>2023-03-19T08:53:30Z</time>
      </trkpt>
      <trkpt lat="46.55239" lon="0.65815">
        <ele>109</ele>
        <time>2023-03-19T08:53:32Z</time>
      </trkpt>
      <trkpt lat="46.55248" lon="0.65824">
        <ele>109</ele>
        <time>2023-03-19T08:53:34Z</time>
      </trkpt>
      <trkpt lat="46.55283" lon="0.65854">
        <ele>109.4</ele>
        <time>2023-03-19T08:53:42Z</time>
      </trkpt>
      <trkpt lat="46.55289" lon="0.6586">
        <ele>109.6</ele>
        <time>2023-03-19T08:53:44Z</time>
      </trkpt>
      <trkpt lat="46.55297" lon="0.6587">
        <ele>109.8</ele>
        <time>2023-03-19T08:53:47Z</time>
      </trkpt>
      <trkpt lat="46.55305" lon="0.65879">
        <ele>110</ele>
        <time>2023-03-19T08:53:50Z</time>
      </trkpt>
      <trkpt lat="46.55313" lon="0.65887">
        <ele>110.2</ele>
        <time>2023-03-19T08:53:53Z</time>
      </trkpt>
      <trkpt lat="46.55323" lon="0.65897">
        <ele>110.8</ele>
        <time>2023-03-19T08:53:57Z</time>
      </trkpt>
      <trkpt lat="46.55327" lon="0.65901">
        <ele>111.2</ele>
        <time>2023-03-19T08:53:59Z</time>
      </trkpt>
      <trkpt lat="46.55345" lon="0.65913">
        <ele>111.8</ele>
        <time>2023-03-19T08:54:03Z</time>
      </trkpt>
      <trkpt lat="46.55348" lon="0.65916">
        <ele>112</ele>
        <time>2023-03-19T08:54:04Z</time>
      </trkpt>
      <trkpt lat="46.55371" lon="0.65938">
        <ele>112.6</ele>
        <time>2023-03-19T08:54:11Z</time>
      </trkpt>
      <trkpt lat="46.55379" lon="0.65947">
        <ele>113</ele>
        <time>2023-03-19T08:54:16Z</time>
      </trkpt>
      <trkpt lat="46.55381" lon="0.65948">
        <ele>113</ele>
        <time>2023-03-19T08:54:18Z</time>
      </trkpt>
      <trkpt lat="46.55381" lon="0.6595">
        <ele>112.8</ele>
        <time>2023-03-19T08:54:21Z</time>
      </trkpt>
      <trkpt lat="46.55381" lon="0.65951">
        <ele>112.2</ele>
        <time>2023-03-19T08:54:36Z</time>
      </trkpt>
      <trkpt lat="46.55381" lon="0.65951">
        <ele>112.2</ele>
        <time>2023-03-19T08:54:40Z</time>
      </trkpt>
      <trkpt lat="46.55381" lon="0.65951">
        <ele>112</ele>
        <time>2023-03-19T08:54:57Z</time>
      </trkpt>
      <trkpt lat="46.55381" lon="0.65952">
        <ele>112</ele>
        <time>2023-03-19T08:55:14Z</time>
      </trkpt>
      <trkpt lat="46.55381" lon="0.65952">
        <ele>112</ele>
        <time>2023-03-19T08:55:31Z</time>
      </trkpt>
      <trkpt lat="46.55381" lon="0.65951">
        <ele>112</ele>
        <time>2023-03-19T08:55:47Z</time>
      </trkpt>
      <trkpt lat="46.55382" lon="0.65953">
        <ele>112</ele>
        <time>2023-03-19T08:56:03Z</time>
      </trkpt>
      <trkpt lat="46.55382" lon="0.65955">
        <ele>112</ele>
        <time>2023-03-19T08:56:20Z</time>
      </trkpt>
      <trkpt lat="46.55382" lon="0.65957">
        <ele>112</ele>
        <time>2023-03-19T08:56:37Z</time>
      </trkpt>
      <trkpt lat="46.55382" lon="0.65959">
        <ele>112</ele>
        <time>2023-03-19T08:56:53Z</time>
      </trkpt>
      <trkpt lat="46.55382" lon="0.65959">
        <ele>112</ele>
        <time>2023-03-19T08:57:09Z</time>
      </trkpt>
      <trkpt lat="46.55383" lon="0.65959">
        <ele>112</ele>
        <time>2023-03-19T08:57:26Z</time>
      </trkpt>
      <trkpt lat="46.55383" lon="0.65959">
        <ele>112</ele>
        <time>2023-03-19T08:57:29Z</time>
      </trkpt>
      <trkpt lat="46.55384" lon="0.65962">
        <ele>112</ele>
        <time>2023-03-19T08:57:45Z</time>
      </trkpt>
      <trkpt lat="46.55385" lon="0.65967">
        <ele>112</ele>
        <time>2023-03-19T08:57:52Z</time>
      </trkpt>
      <trkpt lat="46.55387" lon="0.65971">
        <ele>114.4</ele>
        <time>2023-03-19T08:57:54Z</time>
      </trkpt>
      <trkpt lat="46.55389" lon="0.6599">
        <ele>114.2</ele>
        <time>2023-03-19T08:58:00Z</time>
      </trkpt>
      <trkpt lat="46.55393" lon="0.66018">
        <ele>114.8</ele>
        <time>2023-03-19T08:58:07Z</time>
      </trkpt>
      <trkpt lat="46.55399" lon="0.66045">
        <ele>115</ele>
        <time>2023-03-19T08:58:12Z</time>
      </trkpt>
      <trkpt lat="46.55401" lon="0.6605">
        <ele>115.2</ele>
        <time>2023-03-19T08:58:13Z</time>
      </trkpt>
      <trkpt lat="46.55403" lon="0.66055">
        <ele>115.4</ele>
        <time>2023-03-19T08:58:14Z</time>
      </trkpt>
      <trkpt lat="46.55406" lon="0.66061">
        <ele>115.4</ele>
        <time>2023-03-19T08:58:15Z</time>
      </trkpt>
      <trkpt lat="46.55411" lon="0.66074">
        <ele>115.8</ele>
        <time>2023-03-19T08:58:17Z</time>
      </trkpt>
      <trkpt lat="46.55419" lon="0.66085">
        <ele>116.2</ele>
        <time>2023-03-19T08:58:19Z</time>
      </trkpt>
      <trkpt lat="46.55429" lon="0.66096">
        <ele>116.4</ele>
        <time>2023-03-19T08:58:21Z</time>
      </trkpt>
      <trkpt lat="46.55434" lon="0.661">
        <ele>116.6</ele>
        <time>2023-03-19T08:58:22Z</time>
      </trkpt>
      <trkpt lat="46.55439" lon="0.66103">
        <ele>117</ele>
        <time>2023-03-19T08:58:23Z</time>
      </trkpt>
      <trkpt lat="46.55462" lon="0.66118">
        <ele>117.6</ele>
        <time>2023-03-19T08:58:28Z</time>
      </trkpt>
      <trkpt lat="46.55476" lon="0.66126">
        <ele>117.8</ele>
        <time>2023-03-19T08:58:31Z</time>
      </trkpt>
      <trkpt lat="46.55494" lon="0.66135">
        <ele>118.8</ele>
        <time>2023-03-19T08:58:35Z</time>
      </trkpt>
      <trkpt lat="46.55511" lon="0.66147">
        <ele>119.2</ele>
        <time>2023-03-19T08:58:39Z</time>
      </trkpt>
      <trkpt lat="46.55517" lon="0.66157">
        <ele>119.4</ele>
        <time>2023-03-19T08:58:41Z</time>
      </trkpt>
      <trkpt lat="46.55518" lon="0.66164">
        <ele>119.4</ele>
        <time>2023-03-19T08:58:42Z</time>
      </trkpt>
      <trkpt lat="46.55517" lon="0.66171">
        <ele>119.4</ele>
        <time>2023-03-19T08:58:43Z</time>
      </trkpt>
      <trkpt lat="46.55516" lon="0.66193">
        <ele>119.4</ele>
        <time>2023-03-19T08:58:46Z</time>
      </trkpt>
      <trkpt lat="46.55517" lon="0.662">
        <ele>119.4</ele>
        <time>2023-03-19T08:58:47Z</time>
      </trkpt>
      <trkpt lat="46.55519" lon="0.66206">
        <ele>119.6</ele>
        <time>2023-03-19T08:58:48Z</time>
      </trkpt>
      <trkpt lat="46.55521" lon="0.66213">
        <ele>120</ele>
        <time>2023-03-19T08:58:49Z</time>
      </trkpt>
      <trkpt lat="46.55527" lon="0.66225">
        <ele>120.4</ele>
        <time>2023-03-19T08:58:51Z</time>
      </trkpt>
      <trkpt lat="46.55542" lon="0.66245">
        <ele>121</ele>
        <time>2023-03-19T08:58:55Z</time>
      </trkpt>
      <trkpt lat="46.55549" lon="0.66255">
        <ele>121.2</ele>
        <time>2023-03-19T08:58:57Z</time>
      </trkpt>
      <trkpt lat="46.55567" lon="0.6628">
        <ele>121.6</ele>
        <time>2023-03-19T08:59:02Z</time>
      </trkpt>
      <trkpt lat="46.55573" lon="0.66292">
        <ele>122</ele>
        <time>2023-03-19T08:59:04Z</time>
      </trkpt>
      <trkpt lat="46.55576" lon="0.66299">
        <ele>122.2</ele>
        <time>2023-03-19T08:59:05Z</time>
      </trkpt>
      <trkpt lat="46.55586" lon="0.66342">
        <ele>122.4</ele>
        <time>2023-03-19T08:59:11Z</time>
      </trkpt>
      <trkpt lat="46.55591" lon="0.66387">
        <ele>122.8</ele>
        <time>2023-03-19T08:59:17Z</time>
      </trkpt>
      <trkpt lat="46.55595" lon="0.6641">
        <ele>123</ele>
        <time>2023-03-19T08:59:20Z</time>
      </trkpt>
      <trkpt lat="46.556" lon="0.66424">
        <ele>123.2</ele>
        <time>2023-03-19T08:59:22Z</time>
      </trkpt>
      <trkpt lat="46.55604" lon="0.6643">
        <ele>123.2</ele>
        <time>2023-03-19T08:59:23Z</time>
      </trkpt>
      <trkpt lat="46.55619" lon="0.66452">
        <ele>123.2</ele>
        <time>2023-03-19T08:59:27Z</time>
      </trkpt>
      <trkpt lat="46.55636" lon="0.66475">
        <ele>124.2</ele>
        <time>2023-03-19T08:59:32Z</time>
      </trkpt>
      <trkpt lat="46.5564" lon="0.66478">
        <ele>124.4</ele>
        <time>2023-03-19T08:59:33Z</time>
      </trkpt>
      <trkpt lat="46.55644" lon="0.66478">
        <ele>124.4</ele>
        <time>2023-03-19T08:59:34Z</time>
      </trkpt>
      <trkpt lat="46.55652" lon="0.66474">
        <ele>124.6</ele>
        <time>2023-03-19T08:59:36Z</time>
      </trkpt>
      <trkpt lat="46.55669" lon="0.66457">
        <ele>125.4</ele>
        <time>2023-03-19T08:59:40Z</time>
      </trkpt>
      <trkpt lat="46.55673" lon="0.66452">
        <ele>125.4</ele>
        <time>2023-03-19T08:59:41Z</time>
      </trkpt>
      <trkpt lat="46.55708" lon="0.66407">
        <ele>125</ele>
        <time>2023-03-19T08:59:49Z</time>
      </trkpt>
      <trkpt lat="46.55736" lon="0.66373">
        <ele>124.2</ele>
        <time>2023-03-19T08:59:56Z</time>
      </trkpt>
      <trkpt lat="46.55741" lon="0.66369">
        <ele>124</ele>
        <time>2023-03-19T08:59:57Z</time>
      </trkpt>
      <trkpt lat="46.55745" lon="0.66365">
        <ele>124.2</ele>
        <time>2023-03-19T08:59:58Z</time>
      </trkpt>
      <trkpt lat="46.55756" lon="0.66355">
        <ele>123.8</ele>
        <time>2023-03-19T09:00:01Z</time>
      </trkpt>
      <trkpt lat="46.55765" lon="0.66356">
        <ele>123.6</ele>
        <time>2023-03-19T09:00:03Z</time>
      </trkpt>
      <trkpt lat="46.55767" lon="0.6636">
        <ele>123.2</ele>
        <time>2023-03-19T09:00:04Z</time>
      </trkpt>
      <trkpt lat="46.55769" lon="0.66365">
        <ele>122.6</ele>
        <time>2023-03-19T09:00:05Z</time>
      </trkpt>
      <trkpt lat="46.55777" lon="0.66386">
        <ele>121.6</ele>
        <time>2023-03-19T09:00:09Z</time>
      </trkpt>
      <trkpt lat="46.55784" lon="0.66405">
        <ele>121.6</ele>
        <time>2023-03-19T09:00:12Z</time>
      </trkpt>
      <trkpt lat="46.55796" lon="0.66439">
        <ele>121.2</ele>
        <time>2023-03-19T09:00:17Z</time>
      </trkpt>
      <trkpt lat="46.55814" lon="0.66485">
        <ele>121.6</ele>
        <time>2023-03-19T09:00:24Z</time>
      </trkpt>
      <trkpt lat="46.55816" lon="0.66492">
        <ele>121.6</ele>
        <time>2023-03-19T09:00:25Z</time>
      </trkpt>
      <trkpt lat="46.55826" lon="0.66524">
        <ele>121.2</ele>
        <time>2023-03-19T09:00:29Z</time>
      </trkpt>
      <trkpt lat="46.55828" lon="0.66533">
        <ele>120.8</ele>
        <time>2023-03-19T09:00:30Z</time>
      </trkpt>
      <trkpt lat="46.55832" lon="0.6655">
        <ele>120.4</ele>
        <time>2023-03-19T09:00:32Z</time>
      </trkpt>
      <trkpt lat="46.55836" lon="0.66568">
        <ele>120.4</ele>
        <time>2023-03-19T09:00:34Z</time>
      </trkpt>
      <trkpt lat="46.55843" lon="0.66604">
        <ele>120</ele>
        <time>2023-03-19T09:00:38Z</time>
      </trkpt>
      <trkpt lat="46.55845" lon="0.66622">
        <ele>119.4</ele>
        <time>2023-03-19T09:00:40Z</time>
      </trkpt>
      <trkpt lat="46.55849" lon="0.66681">
        <ele>118.6</ele>
        <time>2023-03-19T09:00:46Z</time>
      </trkpt>
      <trkpt lat="46.55849" lon="0.66691">
        <ele>118.4</ele>
        <time>2023-03-19T09:00:47Z</time>
      </trkpt>
      <trkpt lat="46.55849" lon="0.66725">
        <ele>117.2</ele>
        <time>2023-03-19T09:00:50Z</time>
      </trkpt>
      <trkpt lat="46.5585" lon="0.6676">
        <ele>116.2</ele>
        <time>2023-03-19T09:00:53Z</time>
      </trkpt>
      <trkpt lat="46.55857" lon="0.66803">
        <ele>115.2</ele>
        <time>2023-03-19T09:00:57Z</time>
      </trkpt>
      <trkpt lat="46.5586" lon="0.66813">
        <ele>115</ele>
        <time>2023-03-19T09:00:58Z</time>
      </trkpt>
      <trkpt lat="46.55876" lon="0.66875">
        <ele>114.2</ele>
        <time>2023-03-19T09:01:04Z</time>
      </trkpt>
      <trkpt lat="46.55879" lon="0.66886">
        <ele>114</ele>
        <time>2023-03-19T09:01:05Z</time>
      </trkpt>
      <trkpt lat="46.55892" lon="0.66951">
        <ele>114</ele>
        <time>2023-03-19T09:01:11Z</time>
      </trkpt>
      <trkpt lat="46.55898" lon="0.67006">
        <ele>115</ele>
        <time>2023-03-19T09:01:17Z</time>
      </trkpt>
      <trkpt lat="46.55899" lon="0.67028">
        <ele>115.2</ele>
        <time>2023-03-19T09:01:20Z</time>
      </trkpt>
      <trkpt lat="46.559" lon="0.6704">
        <ele>115.4</ele>
        <time>2023-03-19T09:01:22Z</time>
      </trkpt>
      <trkpt lat="46.55901" lon="0.67047">
        <ele>115.6</ele>
        <time>2023-03-19T09:01:23Z</time>
      </trkpt>
      <trkpt lat="46.55906" lon="0.67073">
        <ele>116.2</ele>
        <time>2023-03-19T09:01:27Z</time>
      </trkpt>
      <trkpt lat="46.55907" lon="0.6708">
        <ele>116.2</ele>
        <time>2023-03-19T09:01:28Z</time>
      </trkpt>
      <trkpt lat="46.55914" lon="0.67139">
        <ele>116.6</ele>
        <time>2023-03-19T09:01:36Z</time>
      </trkpt>
      <trkpt lat="46.55923" lon="0.6719">
        <ele>116.8</ele>
        <time>2023-03-19T09:01:43Z</time>
      </trkpt>
      <trkpt lat="46.55939" lon="0.67273">
        <ele>117.2</ele>
        <time>2023-03-19T09:01:53Z</time>
      </trkpt>
      <trkpt lat="46.55954" lon="0.67348">
        <ele>116.4</ele>
        <time>2023-03-19T09:02:01Z</time>
      </trkpt>
      <trkpt lat="46.55962" lon="0.67382">
        <ele>115.4</ele>
        <time>2023-03-19T09:02:05Z</time>
      </trkpt>
      <trkpt lat="46.55965" lon="0.67386">
        <ele>115.2</ele>
        <time>2023-03-19T09:02:06Z</time>
      </trkpt>
      <trkpt lat="46.55968" lon="0.67388">
        <ele>115.2</ele>
        <time>2023-03-19T09:02:07Z</time>
      </trkpt>
      <trkpt lat="46.55975" lon="0.67382">
        <ele>114.8</ele>
        <time>2023-03-19T09:02:09Z</time>
      </trkpt>
      <trkpt lat="46.55996" lon="0.67358">
        <ele>115</ele>
        <time>2023-03-19T09:02:14Z</time>
      </trkpt>
      <trkpt lat="46.56014" lon="0.6733">
        <ele>114.6</ele>
        <time>2023-03-19T09:02:19Z</time>
      </trkpt>
      <trkpt lat="46.56017" lon="0.67323">
        <ele>114.4</ele>
        <time>2023-03-19T09:02:20Z</time>
      </trkpt>
      <trkpt lat="46.56031" lon="0.67298">
        <ele>114</ele>
        <time>2023-03-19T09:02:24Z</time>
      </trkpt>
      <trkpt lat="46.56041" lon="0.67293">
        <ele>112.6</ele>
        <time>2023-03-19T09:02:26Z</time>
      </trkpt>
      <trkpt lat="46.56052" lon="0.67292">
        <ele>111.8</ele>
        <time>2023-03-19T09:02:28Z</time>
      </trkpt>
      <trkpt lat="46.56057" lon="0.67293">
        <ele>111</ele>
        <time>2023-03-19T09:02:29Z</time>
      </trkpt>
      <trkpt lat="46.56063" lon="0.67295">
        <ele>110.6</ele>
        <time>2023-03-19T09:02:30Z</time>
      </trkpt>
      <trkpt lat="46.56069" lon="0.67298">
        <ele>110</ele>
        <time>2023-03-19T09:02:31Z</time>
      </trkpt>
      <trkpt lat="46.56086" lon="0.67307">
        <ele>108.8</ele>
        <time>2023-03-19T09:02:34Z</time>
      </trkpt>
      <trkpt lat="46.56105" lon="0.67316">
        <ele>108.2</ele>
        <time>2023-03-19T09:02:37Z</time>
      </trkpt>
      <trkpt lat="46.56111" lon="0.6732">
        <ele>107.8</ele>
        <time>2023-03-19T09:02:38Z</time>
      </trkpt>
      <trkpt lat="46.56138" lon="0.67331">
        <ele>106.8</ele>
        <time>2023-03-19T09:02:42Z</time>
      </trkpt>
      <trkpt lat="46.56144" lon="0.67332">
        <ele>106.8</ele>
        <time>2023-03-19T09:02:43Z</time>
      </trkpt>
      <trkpt lat="46.56151" lon="0.67332">
        <ele>106.4</ele>
        <time>2023-03-19T09:02:44Z</time>
      </trkpt>
      <trkpt lat="46.56159" lon="0.67332">
        <ele>105</ele>
        <time>2023-03-19T09:02:45Z</time>
      </trkpt>
      <trkpt lat="46.56166" lon="0.67333">
        <ele>104.2</ele>
        <time>2023-03-19T09:02:46Z</time>
      </trkpt>
      <trkpt lat="46.56173" lon="0.67335">
        <ele>103</ele>
        <time>2023-03-19T09:02:47Z</time>
      </trkpt>
      <trkpt lat="46.56179" lon="0.67339">
        <ele>102</ele>
        <time>2023-03-19T09:02:48Z</time>
      </trkpt>
      <trkpt lat="46.56185" lon="0.67344">
        <ele>101.4</ele>
        <time>2023-03-19T09:02:49Z</time>
      </trkpt>
      <trkpt lat="46.5619" lon="0.67349">
        <ele>100.8</ele>
        <time>2023-03-19T09:02:50Z</time>
      </trkpt>
      <trkpt lat="46.56197" lon="0.6736">
        <ele>100.4</ele>
        <time>2023-03-19T09:02:52Z</time>
      </trkpt>
      <trkpt lat="46.56205" lon="0.6737">
        <ele>100.2</ele>
        <time>2023-03-19T09:02:54Z</time>
      </trkpt>
      <trkpt lat="46.56215" lon="0.67378">
        <ele>100</ele>
        <time>2023-03-19T09:02:56Z</time>
      </trkpt>
      <trkpt lat="46.56226" lon="0.67384">
        <ele>99.8</ele>
        <time>2023-03-19T09:02:58Z</time>
      </trkpt>
      <trkpt lat="46.56246" lon="0.67393">
        <ele>99</ele>
        <time>2023-03-19T09:03:01Z</time>
      </trkpt>
      <trkpt lat="46.56252" lon="0.67397">
        <ele>98.8</ele>
        <time>2023-03-19T09:03:02Z</time>
      </trkpt>
      <trkpt lat="46.56258" lon="0.67409">
        <ele>98</ele>
        <time>2023-03-19T09:03:04Z</time>
      </trkpt>
      <trkpt lat="46.56259" lon="0.67417">
        <ele>98</ele>
        <time>2023-03-19T09:03:05Z</time>
      </trkpt>
      <trkpt lat="46.56259" lon="0.67435">
        <ele>97.8</ele>
        <time>2023-03-19T09:03:07Z</time>
      </trkpt>
      <trkpt lat="46.56255" lon="0.67454">
        <ele>97.6</ele>
        <time>2023-03-19T09:03:09Z</time>
      </trkpt>
      <trkpt lat="46.56249" lon="0.67476">
        <ele>96.8</ele>
        <time>2023-03-19T09:03:11Z</time>
      </trkpt>
      <trkpt lat="46.56242" lon="0.67499">
        <ele>95.6</ele>
        <time>2023-03-19T09:03:13Z</time>
      </trkpt>
      <trkpt lat="46.56236" lon="0.67521">
        <ele>94.4</ele>
        <time>2023-03-19T09:03:15Z</time>
      </trkpt>
      <trkpt lat="46.56229" lon="0.67542">
        <ele>92.8</ele>
        <time>2023-03-19T09:03:17Z</time>
      </trkpt>
      <trkpt lat="46.56227" lon="0.67553">
        <ele>91.4</ele>
        <time>2023-03-19T09:03:18Z</time>
      </trkpt>
      <trkpt lat="46.56219" lon="0.67574">
        <ele>90</ele>
        <time>2023-03-19T09:03:20Z</time>
      </trkpt>
      <trkpt lat="46.56213" lon="0.67597">
        <ele>89.2</ele>
        <time>2023-03-19T09:03:22Z</time>
      </trkpt>
      <trkpt lat="46.5621" lon="0.67608">
        <ele>88.8</ele>
        <time>2023-03-19T09:03:23Z</time>
      </trkpt>
      <trkpt lat="46.56208" lon="0.67619">
        <ele>88.4</ele>
        <time>2023-03-19T09:03:24Z</time>
      </trkpt>
      <trkpt lat="46.56204" lon="0.6765">
        <ele>87.6</ele>
        <time>2023-03-19T09:03:27Z</time>
      </trkpt>
      <trkpt lat="46.56204" lon="0.67669">
        <ele>87</ele>
        <time>2023-03-19T09:03:29Z</time>
      </trkpt>
      <trkpt lat="46.56205" lon="0.67679">
        <ele>86.8</ele>
        <time>2023-03-19T09:03:30Z</time>
      </trkpt>
      <trkpt lat="46.56206" lon="0.6769">
        <ele>86.6</ele>
        <time>2023-03-19T09:03:31Z</time>
      </trkpt>
      <trkpt lat="46.56212" lon="0.6772">
        <ele>85.6</ele>
        <time>2023-03-19T09:03:34Z</time>
      </trkpt>
      <trkpt lat="46.56214" lon="0.67729">
        <ele>85.4</ele>
        <time>2023-03-19T09:03:35Z</time>
      </trkpt>
      <trkpt lat="46.56217" lon="0.67737">
        <ele>85.2</ele>
        <time>2023-03-19T09:03:36Z</time>
      </trkpt>
      <trkpt lat="46.56219" lon="0.67753">
        <ele>85.2</ele>
        <time>2023-03-19T09:03:38Z</time>
      </trkpt>
      <trkpt lat="46.56225" lon="0.67802">
        <ele>84.2</ele>
        <time>2023-03-19T09:03:44Z</time>
      </trkpt>
      <trkpt lat="46.56228" lon="0.67822">
        <ele>82.8</ele>
        <time>2023-03-19T09:03:47Z</time>
      </trkpt>
      <trkpt lat="46.56227" lon="0.67834">
        <ele>82.4</ele>
        <time>2023-03-19T09:03:49Z</time>
      </trkpt>
      <trkpt lat="46.56226" lon="0.67847">
        <ele>81.4</ele>
        <time>2023-03-19T09:03:51Z</time>
      </trkpt>
      <trkpt lat="46.56224" lon="0.6787">
        <ele>80.2</ele>
        <time>2023-03-19T09:03:55Z</time>
      </trkpt>
      <trkpt lat="46.56222" lon="0.67897">
        <ele>79.2</ele>
        <time>2023-03-19T09:04:00Z</time>
      </trkpt>
      <trkpt lat="46.56221" lon="0.67901">
        <ele>79</ele>
        <time>2023-03-19T09:04:01Z</time>
      </trkpt>
      <trkpt lat="46.5622" lon="0.67921">
        <ele>78.8</ele>
        <time>2023-03-19T09:04:06Z</time>
      </trkpt>
      <trkpt lat="46.56223" lon="0.67942">
        <ele>78.8</ele>
        <time>2023-03-19T09:04:12Z</time>
      </trkpt>
      <trkpt lat="46.56234" lon="0.67955">
        <ele>79.8</ele>
        <time>2023-03-19T09:04:18Z</time>
      </trkpt>
      <trkpt lat="46.56238" lon="0.67956">
        <ele>79.8</ele>
        <time>2023-03-19T09:04:20Z</time>
      </trkpt>
      <trkpt lat="46.56244" lon="0.67955">
        <ele>79.8</ele>
        <time>2023-03-19T09:04:22Z</time>
      </trkpt>
      <trkpt lat="46.56255" lon="0.67945">
        <ele>79.6</ele>
        <time>2023-03-19T09:04:27Z</time>
      </trkpt>
      <trkpt lat="46.56261" lon="0.67941">
        <ele>79.6</ele>
        <time>2023-03-19T09:04:30Z</time>
      </trkpt>
      <trkpt lat="46.56263" lon="0.67941">
        <ele>79.8</ele>
        <time>2023-03-19T09:04:31Z</time>
      </trkpt>
      <trkpt lat="46.56265" lon="0.67942">
        <ele>80</ele>
        <time>2023-03-19T09:04:33Z</time>
      </trkpt>
      <trkpt lat="46.56268" lon="0.67944">
        <ele>80.4</ele>
        <time>2023-03-19T09:04:36Z</time>
      </trkpt>
      <trkpt lat="46.56276" lon="0.67952">
        <ele>81</ele>
        <time>2023-03-19T09:04:42Z</time>
      </trkpt>
      <trkpt lat="46.56281" lon="0.67957">
        <ele>81.4</ele>
        <time>2023-03-19T09:04:46Z</time>
      </trkpt>
      <trkpt lat="46.56283" lon="0.67957">
        <ele>81.6</ele>
        <time>2023-03-19T09:04:47Z</time>
      </trkpt>
      <trkpt lat="46.5629" lon="0.67955">
        <ele>81.8</ele>
        <time>2023-03-19T09:04:51Z</time>
      </trkpt>
      <trkpt lat="46.56293" lon="0.67956">
        <ele>82</ele>
        <time>2023-03-19T09:04:53Z</time>
      </trkpt>
      <trkpt lat="46.56303" lon="0.67959">
        <ele>82.6</ele>
        <time>2023-03-19T09:04:59Z</time>
      </trkpt>
      <trkpt lat="46.56304" lon="0.6796">
        <ele>83</ele>
        <time>2023-03-19T09:05:00Z</time>
      </trkpt>
      <trkpt lat="46.56305" lon="0.67962">
        <ele>83.2</ele>
        <time>2023-03-19T09:05:01Z</time>
      </trkpt>
      <trkpt lat="46.56307" lon="0.67966">
        <ele>83.8</ele>
        <time>2023-03-19T09:05:03Z</time>
      </trkpt>
      <trkpt lat="46.56311" lon="0.67972">
        <ele>84.2</ele>
        <time>2023-03-19T09:05:05Z</time>
      </trkpt>
      <trkpt lat="46.56311" lon="0.67972">
        <ele>84.2</ele>
        <time>2023-03-19T09:05:06Z</time>
      </trkpt>
      <trkpt lat="46.56311" lon="0.67973">
        <ele>84.4</ele>
        <time>2023-03-19T09:05:07Z</time>
      </trkpt>
      <trkpt lat="46.56313" lon="0.67976">
        <ele>84.8</ele>
        <time>2023-03-19T09:05:09Z</time>
      </trkpt>
      <trkpt lat="46.56317" lon="0.6798">
        <ele>85.4</ele>
        <time>2023-03-19T09:05:12Z</time>
      </trkpt>
      <trkpt lat="46.5632" lon="0.67982">
        <ele>85.6</ele>
        <time>2023-03-19T09:05:14Z</time>
      </trkpt>
      <trkpt lat="46.56321" lon="0.67983">
        <ele>85.8</ele>
        <time>2023-03-19T09:05:15Z</time>
      </trkpt>
      <trkpt lat="46.56334" lon="0.67992">
        <ele>86.4</ele>
        <time>2023-03-19T09:05:21Z</time>
      </trkpt>
      <trkpt lat="46.56342" lon="0.67996">
        <ele>87</ele>
        <time>2023-03-19T09:05:24Z</time>
      </trkpt>
      <trkpt lat="46.56347" lon="0.68003">
        <ele>87.6</ele>
        <time>2023-03-19T09:05:27Z</time>
      </trkpt>
      <trkpt lat="46.56351" lon="0.68009">
        <ele>88</ele>
        <time>2023-03-19T09:05:29Z</time>
      </trkpt>
      <trkpt lat="46.56362" lon="0.68016">
        <ele>89.2</ele>
        <time>2023-03-19T09:05:35Z</time>
      </trkpt>
      <trkpt lat="46.5637" lon="0.68021">
        <ele>90.2</ele>
        <time>2023-03-19T09:05:40Z</time>
      </trkpt>
      <trkpt lat="46.56372" lon="0.68023">
        <ele>90.8</ele>
        <time>2023-03-19T09:05:42Z</time>
      </trkpt>
      <trkpt lat="46.56374" lon="0.68025">
        <ele>91.2</ele>
        <time>2023-03-19T09:05:44Z</time>
      </trkpt>
      <trkpt lat="46.56375" lon="0.68027">
        <ele>91.4</ele>
        <time>2023-03-19T09:05:45Z</time>
      </trkpt>
      <trkpt lat="46.56379" lon="0.68031">
        <ele>92</ele>
        <time>2023-03-19T09:05:48Z</time>
      </trkpt>
      <trkpt lat="46.5638" lon="0.68032">
        <ele>92.2</ele>
        <time>2023-03-19T09:05:49Z</time>
      </trkpt>
      <trkpt lat="46.56384" lon="0.68034">
        <ele>92.6</ele>
        <time>2023-03-19T09:05:51Z</time>
      </trkpt>
      <trkpt lat="46.56389" lon="0.68037">
        <ele>93.2</ele>
        <time>2023-03-19T09:05:54Z</time>
      </trkpt>
      <trkpt lat="46.56391" lon="0.68038">
        <ele>93.6</ele>
        <time>2023-03-19T09:05:56Z</time>
      </trkpt>
      <trkpt lat="46.56392" lon="0.68038">
        <ele>93.8</ele>
        <time>2023-03-19T09:05:57Z</time>
      </trkpt>
      <trkpt lat="46.56395" lon="0.68039">
        <ele>94</ele>
        <time>2023-03-19T09:05:59Z</time>
      </trkpt>
      <trkpt lat="46.56399" lon="0.6804">
        <ele>94.4</ele>
        <time>2023-03-19T09:06:02Z</time>
      </trkpt>
      <trkpt lat="46.56401" lon="0.6804">
        <ele>94.6</ele>
        <time>2023-03-19T09:06:03Z</time>
      </trkpt>
      <trkpt lat="46.56405" lon="0.68041">
        <ele>95</ele>
        <time>2023-03-19T09:06:07Z</time>
      </trkpt>
      <trkpt lat="46.56408" lon="0.68041">
        <ele>95.2</ele>
        <time>2023-03-19T09:06:09Z</time>
      </trkpt>
      <trkpt lat="46.56416" lon="0.68043">
        <ele>95.8</ele>
        <time>2023-03-19T09:06:13Z</time>
      </trkpt>
      <trkpt lat="46.5642" lon="0.68046">
        <ele>96</ele>
        <time>2023-03-19T09:06:18Z</time>
      </trkpt>
      <trkpt lat="46.56423" lon="0.68048">
        <ele>96.6</ele>
        <time>2023-03-19T09:06:22Z</time>
      </trkpt>
      <trkpt lat="46.56424" lon="0.68049">
        <ele>97</ele>
        <time>2023-03-19T09:06:23Z</time>
      </trkpt>
      <trkpt lat="46.56426" lon="0.68049">
        <ele>97.8</ele>
        <time>2023-03-19T09:06:26Z</time>
      </trkpt>
      <trkpt lat="46.56427" lon="0.68049">
        <ele>97.8</ele>
        <time>2023-03-19T09:06:27Z</time>
      </trkpt>
      <trkpt lat="46.56429" lon="0.6805">
        <ele>98.2</ele>
        <time>2023-03-19T09:06:29Z</time>
      </trkpt>
      <trkpt lat="46.56433" lon="0.68052">
        <ele>99.2</ele>
        <time>2023-03-19T09:06:33Z</time>
      </trkpt>
      <trkpt lat="46.56434" lon="0.68052">
        <ele>99.2</ele>
        <time>2023-03-19T09:06:34Z</time>
      </trkpt>
      <trkpt lat="46.56435" lon="0.68051">
        <ele>99.8</ele>
        <time>2023-03-19T09:06:36Z</time>
      </trkpt>
      <trkpt lat="46.56437" lon="0.68051">
        <ele>100.2</ele>
        <time>2023-03-19T09:06:38Z</time>
      </trkpt>
      <trkpt lat="46.56438" lon="0.68051">
        <ele>100.4</ele>
        <time>2023-03-19T09:06:39Z</time>
      </trkpt>
      <trkpt lat="46.5644" lon="0.68052">
        <ele>101</ele>
        <time>2023-03-19T09:06:42Z</time>
      </trkpt>
      <trkpt lat="46.56442" lon="0.68051">
        <ele>101.4</ele>
        <time>2023-03-19T09:06:46Z</time>
      </trkpt>
      <trkpt lat="46.56446" lon="0.68054">
        <ele>102</ele>
        <time>2023-03-19T09:06:50Z</time>
      </trkpt>
      <trkpt lat="46.5645" lon="0.68055">
        <ele>102.4</ele>
        <time>2023-03-19T09:06:54Z</time>
      </trkpt>
      <trkpt lat="46.56451" lon="0.68056">
        <ele>102.8</ele>
        <time>2023-03-19T09:06:55Z</time>
      </trkpt>
      <trkpt lat="46.56453" lon="0.68057">
        <ele>103.2</ele>
        <time>2023-03-19T09:06:57Z</time>
      </trkpt>
      <trkpt lat="46.56455" lon="0.68059">
        <ele>103.6</ele>
        <time>2023-03-19T09:06:59Z</time>
      </trkpt>
      <trkpt lat="46.56456" lon="0.6806">
        <ele>103.8</ele>
        <time>2023-03-19T09:07:00Z</time>
      </trkpt>
      <trkpt lat="46.56459" lon="0.68066">
        <ele>104.8</ele>
        <time>2023-03-19T09:07:05Z</time>
      </trkpt>
      <trkpt lat="46.56462" lon="0.68068">
        <ele>106</ele>
        <time>2023-03-19T09:07:11Z</time>
      </trkpt>
      <trkpt lat="46.56463" lon="0.6807">
        <ele>106.4</ele>
        <time>2023-03-19T09:07:13Z</time>
      </trkpt>
      <trkpt lat="46.56463" lon="0.6807">
        <ele>106.6</ele>
        <time>2023-03-19T09:07:14Z</time>
      </trkpt>
      <trkpt lat="46.56463" lon="0.68071">
        <ele>106.6</ele>
        <time>2023-03-19T09:07:15Z</time>
      </trkpt>
      <trkpt lat="46.56464" lon="0.68073">
        <ele>107</ele>
        <time>2023-03-19T09:07:18Z</time>
      </trkpt>
      <trkpt lat="46.56467" lon="0.68078">
        <ele>108.2</ele>
        <time>2023-03-19T09:07:24Z</time>
      </trkpt>
      <trkpt lat="46.56468" lon="0.68079">
        <ele>108.4</ele>
        <time>2023-03-19T09:07:25Z</time>
      </trkpt>
      <trkpt lat="46.56469" lon="0.68083">
        <ele>109.2</ele>
        <time>2023-03-19T09:07:29Z</time>
      </trkpt>
      <trkpt lat="46.5647" lon="0.68083">
        <ele>109.4</ele>
        <time>2023-03-19T09:07:30Z</time>
      </trkpt>
      <trkpt lat="46.56471" lon="0.68087">
        <ele>110.2</ele>
        <time>2023-03-19T09:07:36Z</time>
      </trkpt>
      <trkpt lat="46.56471" lon="0.68087">
        <ele>110.4</ele>
        <time>2023-03-19T09:07:37Z</time>
      </trkpt>
      <trkpt lat="46.56473" lon="0.68091">
        <ele>111.2</ele>
        <time>2023-03-19T09:07:43Z</time>
      </trkpt>
      <trkpt lat="46.56474" lon="0.68093">
        <ele>111.6</ele>
        <time>2023-03-19T09:07:45Z</time>
      </trkpt>
      <trkpt lat="46.56474" lon="0.68095">
        <ele>112.2</ele>
        <time>2023-03-19T09:07:48Z</time>
      </trkpt>
      <trkpt lat="46.56476" lon="0.68099">
        <ele>112.8</ele>
        <time>2023-03-19T09:07:52Z</time>
      </trkpt>
      <trkpt lat="46.56479" lon="0.68102">
        <ele>113.6</ele>
        <time>2023-03-19T09:07:57Z</time>
      </trkpt>
      <trkpt lat="46.56481" lon="0.68104">
        <ele>113.8</ele>
        <time>2023-03-19T09:07:59Z</time>
      </trkpt>
      <trkpt lat="46.56482" lon="0.68106">
        <ele>114.2</ele>
        <time>2023-03-19T09:08:01Z</time>
      </trkpt>
      <trkpt lat="46.56486" lon="0.68111">
        <ele>115</ele>
        <time>2023-03-19T09:08:08Z</time>
      </trkpt>
      <trkpt lat="46.56486" lon="0.68113">
        <ele>115.2</ele>
        <time>2023-03-19T09:08:10Z</time>
      </trkpt>
      <trkpt lat="46.56487" lon="0.68113">
        <ele>115.2</ele>
        <time>2023-03-19T09:08:11Z</time>
      </trkpt>
      <trkpt lat="46.56489" lon="0.68122">
        <ele>115.6</ele>
        <time>2023-03-19T09:08:22Z</time>
      </trkpt>
      <trkpt lat="46.56489" lon="0.68128">
        <ele>116</ele>
        <time>2023-03-19T09:08:25Z</time>
      </trkpt>
      <trkpt lat="46.56486" lon="0.68139">
        <ele>116.2</ele>
        <time>2023-03-19T09:08:30Z</time>
      </trkpt>
      <trkpt lat="46.5648" lon="0.68162">
        <ele>116.2</ele>
        <time>2023-03-19T09:08:41Z</time>
      </trkpt>
      <trkpt lat="46.56466" lon="0.68183">
        <ele>116</ele>
        <time>2023-03-19T09:08:50Z</time>
      </trkpt>
      <trkpt lat="46.56457" lon="0.68196">
        <ele>115.2</ele>
        <time>2023-03-19T09:08:55Z</time>
      </trkpt>
      <trkpt lat="46.56448" lon="0.68213">
        <ele>115.8</ele>
        <time>2023-03-19T09:09:02Z</time>
      </trkpt>
      <trkpt lat="46.56444" lon="0.68217">
        <ele>116.2</ele>
        <time>2023-03-19T09:09:04Z</time>
      </trkpt>
      <trkpt lat="46.56438" lon="0.68224">
        <ele>117.2</ele>
        <time>2023-03-19T09:09:07Z</time>
      </trkpt>
      <trkpt lat="46.56435" lon="0.68227">
        <ele>117.2</ele>
        <time>2023-03-19T09:09:08Z</time>
      </trkpt>
      <trkpt lat="46.56425" lon="0.68236">
        <ele>116.6</ele>
        <time>2023-03-19T09:09:13Z</time>
      </trkpt>
      <trkpt lat="46.56422" lon="0.68238">
        <ele>116</ele>
        <time>2023-03-19T09:09:15Z</time>
      </trkpt>
      <trkpt lat="46.5641" lon="0.68243">
        <ele>115.6</ele>
        <time>2023-03-19T09:09:19Z</time>
      </trkpt>
      <trkpt lat="46.56405" lon="0.68245">
        <ele>114.4</ele>
        <time>2023-03-19T09:09:21Z</time>
      </trkpt>
      <trkpt lat="46.56396" lon="0.68249">
        <ele>113</ele>
        <time>2023-03-19T09:09:24Z</time>
      </trkpt>
      <trkpt lat="46.56392" lon="0.6825">
        <ele>112.6</ele>
        <time>2023-03-19T09:09:25Z</time>
      </trkpt>
      <trkpt lat="46.56386" lon="0.68251">
        <ele>111.8</ele>
        <time>2023-03-19T09:09:27Z</time>
      </trkpt>
      <trkpt lat="46.56381" lon="0.68253">
        <ele>110.2</ele>
        <time>2023-03-19T09:09:29Z</time>
      </trkpt>
      <trkpt lat="46.56378" lon="0.68254">
        <ele>109</ele>
        <time>2023-03-19T09:09:30Z</time>
      </trkpt>
      <trkpt lat="46.56378" lon="0.68254">
        <ele>109</ele>
        <time>2023-03-19T09:09:31Z</time>
      </trkpt>
      <trkpt lat="46.56375" lon="0.68255">
        <ele>108</ele>
        <time>2023-03-19T09:09:33Z</time>
      </trkpt>
      <trkpt lat="46.56372" lon="0.68255">
        <ele>107</ele>
        <time>2023-03-19T09:09:36Z</time>
      </trkpt>
      <trkpt lat="46.56371" lon="0.68255">
        <ele>106.8</ele>
        <time>2023-03-19T09:09:37Z</time>
      </trkpt>
      <trkpt lat="46.56368" lon="0.68255">
        <ele>105.8</ele>
        <time>2023-03-19T09:09:40Z</time>
      </trkpt>
      <trkpt lat="46.56365" lon="0.68256">
        <ele>104.6</ele>
        <time>2023-03-19T09:09:43Z</time>
      </trkpt>
      <trkpt lat="46.5636" lon="0.68256">
        <ele>103.6</ele>
        <time>2023-03-19T09:09:47Z</time>
      </trkpt>
      <trkpt lat="46.56359" lon="0.68256">
        <ele>103.2</ele>
        <time>2023-03-19T09:09:48Z</time>
      </trkpt>
      <trkpt lat="46.56358" lon="0.68256">
        <ele>102.6</ele>
        <time>2023-03-19T09:09:49Z</time>
      </trkpt>
      <trkpt lat="46.56356" lon="0.68256">
        <ele>101.6</ele>
        <time>2023-03-19T09:09:51Z</time>
      </trkpt>
      <trkpt lat="46.56355" lon="0.68256">
        <ele>101.4</ele>
        <time>2023-03-19T09:09:52Z</time>
      </trkpt>
      <trkpt lat="46.56352" lon="0.68258">
        <ele>100.4</ele>
        <time>2023-03-19T09:09:56Z</time>
      </trkpt>
      <trkpt lat="46.56348" lon="0.68262">
        <ele>99.4</ele>
        <time>2023-03-19T09:09:59Z</time>
      </trkpt>
      <trkpt lat="46.56347" lon="0.68263">
        <ele>98.4</ele>
        <time>2023-03-19T09:10:00Z</time>
      </trkpt>
      <trkpt lat="46.56343" lon="0.68265">
        <ele>96.4</ele>
        <time>2023-03-19T09:10:02Z</time>
      </trkpt>
      <trkpt lat="46.5634" lon="0.68266">
        <ele>94.6</ele>
        <time>2023-03-19T09:10:04Z</time>
      </trkpt>
      <trkpt lat="46.56338" lon="0.68268">
        <ele>93.2</ele>
        <time>2023-03-19T09:10:06Z</time>
      </trkpt>
      <trkpt lat="46.56334" lon="0.68271">
        <ele>91.8</ele>
        <time>2023-03-19T09:10:08Z</time>
      </trkpt>
      <trkpt lat="46.56332" lon="0.68272">
        <ele>91.2</ele>
        <time>2023-03-19T09:10:09Z</time>
      </trkpt>
      <trkpt lat="46.56331" lon="0.68273">
        <ele>90.6</ele>
        <time>2023-03-19T09:10:10Z</time>
      </trkpt>
      <trkpt lat="46.56329" lon="0.68275">
        <ele>89.4</ele>
        <time>2023-03-19T09:10:12Z</time>
      </trkpt>
      <trkpt lat="46.56327" lon="0.68275">
        <ele>88.8</ele>
        <time>2023-03-19T09:10:13Z</time>
      </trkpt>
      <trkpt lat="46.56326" lon="0.68276">
        <ele>88.2</ele>
        <time>2023-03-19T09:10:14Z</time>
      </trkpt>
      <trkpt lat="46.56322" lon="0.68279">
        <ele>86.4</ele>
        <time>2023-03-19T09:10:17Z</time>
      </trkpt>
      <trkpt lat="46.5632" lon="0.68281">
        <ele>85.2</ele>
        <time>2023-03-19T09:10:19Z</time>
      </trkpt>
      <trkpt lat="46.56315" lon="0.68285">
        <ele>84.4</ele>
        <time>2023-03-19T09:10:21Z</time>
      </trkpt>
      <trkpt lat="46.56311" lon="0.68287">
        <ele>84.2</ele>
        <time>2023-03-19T09:10:22Z</time>
      </trkpt>
      <trkpt lat="46.56309" lon="0.68288">
        <ele>83.8</ele>
        <time>2023-03-19T09:10:23Z</time>
      </trkpt>
      <trkpt lat="46.56307" lon="0.6829">
        <ele>83.4</ele>
        <time>2023-03-19T09:10:24Z</time>
      </trkpt>
      <trkpt lat="46.56304" lon="0.68294">
        <ele>82.8</ele>
        <time>2023-03-19T09:10:26Z</time>
      </trkpt>
      <trkpt lat="46.56302" lon="0.68295">
        <ele>82.8</ele>
        <time>2023-03-19T09:10:27Z</time>
      </trkpt>
      <trkpt lat="46.56287" lon="0.68308">
        <ele>82.6</ele>
        <time>2023-03-19T09:10:33Z</time>
      </trkpt>
      <trkpt lat="46.56273" lon="0.68332">
        <ele>83.8</ele>
        <time>2023-03-19T09:10:40Z</time>
      </trkpt>
      <trkpt lat="46.56268" lon="0.68338">
        <ele>84.2</ele>
        <time>2023-03-19T09:10:42Z</time>
      </trkpt>
      <trkpt lat="46.56268" lon="0.68342">
        <ele>84.6</ele>
        <time>2023-03-19T09:10:44Z</time>
      </trkpt>
      <trkpt lat="46.56267" lon="0.68346">
        <ele>84.8</ele>
        <time>2023-03-19T09:10:45Z</time>
      </trkpt>
      <trkpt lat="46.56268" lon="0.68348">
        <ele>85</ele>
        <time>2023-03-19T09:10:46Z</time>
      </trkpt>
      <trkpt lat="46.5627" lon="0.68356">
        <ele>86.2</ele>
        <time>2023-03-19T09:10:49Z</time>
      </trkpt>
      <trkpt lat="46.56273" lon="0.68367">
        <ele>87.2</ele>
        <time>2023-03-19T09:10:53Z</time>
      </trkpt>
      <trkpt lat="46.56274" lon="0.68371">
        <ele>87.4</ele>
        <time>2023-03-19T09:10:54Z</time>
      </trkpt>
      <trkpt lat="46.5628" lon="0.68388">
        <ele>88.8</ele>
        <time>2023-03-19T09:11:01Z</time>
      </trkpt>
      <trkpt lat="46.56281" lon="0.68391">
        <ele>89</ele>
        <time>2023-03-19T09:11:02Z</time>
      </trkpt>
      <trkpt lat="46.56285" lon="0.68401">
        <ele>89.8</ele>
        <time>2023-03-19T09:11:06Z</time>
      </trkpt>
      <trkpt lat="46.56287" lon="0.68405">
        <ele>90.2</ele>
        <time>2023-03-19T09:11:08Z</time>
      </trkpt>
      <trkpt lat="46.5629" lon="0.68411">
        <ele>91</ele>
        <time>2023-03-19T09:11:11Z</time>
      </trkpt>
      <trkpt lat="46.56293" lon="0.68416">
        <ele>91.8</ele>
        <time>2023-03-19T09:11:14Z</time>
      </trkpt>
      <trkpt lat="46.56295" lon="0.68421">
        <ele>92.2</ele>
        <time>2023-03-19T09:11:16Z</time>
      </trkpt>
      <trkpt lat="46.56299" lon="0.68434">
        <ele>93</ele>
        <time>2023-03-19T09:11:21Z</time>
      </trkpt>
      <trkpt lat="46.563" lon="0.68438">
        <ele>93.2</ele>
        <time>2023-03-19T09:11:23Z</time>
      </trkpt>
      <trkpt lat="46.56301" lon="0.68441">
        <ele>93.4</ele>
        <time>2023-03-19T09:11:24Z</time>
      </trkpt>
      <trkpt lat="46.56303" lon="0.68451">
        <ele>94.6</ele>
        <time>2023-03-19T09:11:28Z</time>
      </trkpt>
      <trkpt lat="46.56304" lon="0.68456">
        <ele>95</ele>
        <time>2023-03-19T09:11:30Z</time>
      </trkpt>
      <trkpt lat="46.56304" lon="0.6847">
        <ele>95.6</ele>
        <time>2023-03-19T09:11:35Z</time>
      </trkpt>
      <trkpt lat="46.56304" lon="0.68476">
        <ele>96</ele>
        <time>2023-03-19T09:11:37Z</time>
      </trkpt>
      <trkpt lat="46.56299" lon="0.68502">
        <ele>96.8</ele>
        <time>2023-03-19T09:11:44Z</time>
      </trkpt>
      <trkpt lat="46.56292" lon="0.68523">
        <ele>97.2</ele>
        <time>2023-03-19T09:11:52Z</time>
      </trkpt>
      <trkpt lat="46.56289" lon="0.68532">
        <ele>97.8</ele>
        <time>2023-03-19T09:11:56Z</time>
      </trkpt>
      <trkpt lat="46.56286" lon="0.68535">
        <ele>98</ele>
        <time>2023-03-19T09:11:58Z</time>
      </trkpt>
      <trkpt lat="46.56277" lon="0.68554">
        <ele>98.6</ele>
        <time>2023-03-19T09:12:06Z</time>
      </trkpt>
      <trkpt lat="46.56274" lon="0.6856">
        <ele>98.8</ele>
        <time>2023-03-19T09:12:09Z</time>
      </trkpt>
      <trkpt lat="46.5627" lon="0.68571">
        <ele>99.6</ele>
        <time>2023-03-19T09:12:14Z</time>
      </trkpt>
      <trkpt lat="46.56269" lon="0.68575">
        <ele>100.2</ele>
        <time>2023-03-19T09:12:16Z</time>
      </trkpt>
      <trkpt lat="46.56265" lon="0.68588">
        <ele>101.2</ele>
        <time>2023-03-19T09:12:22Z</time>
      </trkpt>
      <trkpt lat="46.56263" lon="0.68593">
        <ele>101.8</ele>
        <time>2023-03-19T09:12:24Z</time>
      </trkpt>
      <trkpt lat="46.56261" lon="0.68599">
        <ele>102.2</ele>
        <time>2023-03-19T09:12:27Z</time>
      </trkpt>
      <trkpt lat="46.56254" lon="0.68612">
        <ele>103.2</ele>
        <time>2023-03-19T09:12:34Z</time>
      </trkpt>
      <trkpt lat="46.56253" lon="0.68614">
        <ele>103.4</ele>
        <time>2023-03-19T09:12:35Z</time>
      </trkpt>
      <trkpt lat="46.5625" lon="0.68623">
        <ele>104.6</ele>
        <time>2023-03-19T09:12:40Z</time>
      </trkpt>
      <trkpt lat="46.56249" lon="0.68626">
        <ele>105</ele>
        <time>2023-03-19T09:12:42Z</time>
      </trkpt>
      <trkpt lat="46.56248" lon="0.68636">
        <ele>106</ele>
        <time>2023-03-19T09:12:48Z</time>
      </trkpt>
      <trkpt lat="46.56247" lon="0.68637">
        <ele>106.4</ele>
        <time>2023-03-19T09:12:49Z</time>
      </trkpt>
      <trkpt lat="46.56245" lon="0.68643">
        <ele>107.4</ele>
        <time>2023-03-19T09:12:53Z</time>
      </trkpt>
      <trkpt lat="46.56244" lon="0.6865">
        <ele>108.4</ele>
        <time>2023-03-19T09:12:57Z</time>
      </trkpt>
      <trkpt lat="46.56245" lon="0.68654">
        <ele>108.8</ele>
        <time>2023-03-19T09:13:00Z</time>
      </trkpt>
      <trkpt lat="46.56245" lon="0.68655">
        <ele>109.6</ele>
        <time>2023-03-19T09:13:01Z</time>
      </trkpt>
      <trkpt lat="46.56247" lon="0.68661">
        <ele>110.8</ele>
        <time>2023-03-19T09:13:07Z</time>
      </trkpt>
      <trkpt lat="46.56251" lon="0.68666">
        <ele>111.8</ele>
        <time>2023-03-19T09:13:13Z</time>
      </trkpt>
      <trkpt lat="46.56253" lon="0.68668">
        <ele>112</ele>
        <time>2023-03-19T09:13:15Z</time>
      </trkpt>
      <trkpt lat="46.5626" lon="0.6867">
        <ele>112.8</ele>
        <time>2023-03-19T09:13:20Z</time>
      </trkpt>
      <trkpt lat="46.56264" lon="0.68671">
        <ele>113.2</ele>
        <time>2023-03-19T09:13:24Z</time>
      </trkpt>
      <trkpt lat="46.56269" lon="0.68672">
        <ele>114</ele>
        <time>2023-03-19T09:13:28Z</time>
      </trkpt>
      <trkpt lat="46.56276" lon="0.68674">
        <ele>114.8</ele>
        <time>2023-03-19T09:13:34Z</time>
      </trkpt>
      <trkpt lat="46.56278" lon="0.68674">
        <ele>115</ele>
        <time>2023-03-19T09:13:35Z</time>
      </trkpt>
      <trkpt lat="46.56282" lon="0.68676">
        <ele>115.4</ele>
        <time>2023-03-19T09:13:38Z</time>
      </trkpt>
      <trkpt lat="46.56288" lon="0.6868">
        <ele>116.2</ele>
        <time>2023-03-19T09:13:43Z</time>
      </trkpt>
      <trkpt lat="46.56287" lon="0.68686">
        <ele>116.6</ele>
        <time>2023-03-19T09:13:47Z</time>
      </trkpt>
      <trkpt lat="46.56285" lon="0.68689">
        <ele>116.8</ele>
        <time>2023-03-19T09:13:49Z</time>
      </trkpt>
      <trkpt lat="46.56278" lon="0.68699">
        <ele>117</ele>
        <time>2023-03-19T09:13:55Z</time>
      </trkpt>
      <trkpt lat="46.56262" lon="0.68714">
        <ele>117</ele>
        <time>2023-03-19T09:14:02Z</time>
      </trkpt>
      <trkpt lat="46.56259" lon="0.68717">
        <ele>117</ele>
        <time>2023-03-19T09:14:03Z</time>
      </trkpt>
      <trkpt lat="46.56241" lon="0.68724">
        <ele>117</ele>
        <time>2023-03-19T09:14:08Z</time>
      </trkpt>
      <trkpt lat="46.56214" lon="0.68733">
        <ele>116.4</ele>
        <time>2023-03-19T09:14:14Z</time>
      </trkpt>
      <trkpt lat="46.56192" lon="0.68745">
        <ele>116</ele>
        <time>2023-03-19T09:14:20Z</time>
      </trkpt>
      <trkpt lat="46.56189" lon="0.68746">
        <ele>116</ele>
        <time>2023-03-19T09:14:21Z</time>
      </trkpt>
      <trkpt lat="46.56185" lon="0.68746">
        <ele>116</ele>
        <time>2023-03-19T09:14:22Z</time>
      </trkpt>
      <trkpt lat="46.56177" lon="0.68747">
        <ele>116</ele>
        <time>2023-03-19T09:14:24Z</time>
      </trkpt>
      <trkpt lat="46.56168" lon="0.68749">
        <ele>116</ele>
        <time>2023-03-19T09:14:26Z</time>
      </trkpt>
      <trkpt lat="46.56164" lon="0.68749">
        <ele>115.8</ele>
        <time>2023-03-19T09:14:27Z</time>
      </trkpt>
      <trkpt lat="46.56155" lon="0.68748">
        <ele>115.2</ele>
        <time>2023-03-19T09:14:29Z</time>
      </trkpt>
      <trkpt lat="46.56147" lon="0.68744">
        <ele>114.8</ele>
        <time>2023-03-19T09:14:31Z</time>
      </trkpt>
      <trkpt lat="46.56142" lon="0.68737">
        <ele>113.8</ele>
        <time>2023-03-19T09:14:33Z</time>
      </trkpt>
      <trkpt lat="46.56138" lon="0.68726">
        <ele>113.2</ele>
        <time>2023-03-19T09:14:35Z</time>
      </trkpt>
      <trkpt lat="46.56135" lon="0.68714">
        <ele>112.4</ele>
        <time>2023-03-19T09:14:37Z</time>
      </trkpt>
      <trkpt lat="46.56132" lon="0.687">
        <ele>111.4</ele>
        <time>2023-03-19T09:14:39Z</time>
      </trkpt>
      <trkpt lat="46.56131" lon="0.68692">
        <ele>110</ele>
        <time>2023-03-19T09:14:40Z</time>
      </trkpt>
      <trkpt lat="46.5613" lon="0.68676">
        <ele>108.4</ele>
        <time>2023-03-19T09:14:42Z</time>
      </trkpt>
      <trkpt lat="46.56128" lon="0.68656">
        <ele>107.4</ele>
        <time>2023-03-19T09:14:44Z</time>
      </trkpt>
      <trkpt lat="46.56126" lon="0.68646">
        <ele>106.4</ele>
        <time>2023-03-19T09:14:45Z</time>
      </trkpt>
      <trkpt lat="46.56124" lon="0.68637">
        <ele>105.8</ele>
        <time>2023-03-19T09:14:46Z</time>
      </trkpt>
      <trkpt lat="46.56123" lon="0.68627">
        <ele>105.4</ele>
        <time>2023-03-19T09:14:47Z</time>
      </trkpt>
      <trkpt lat="46.56123" lon="0.68608">
        <ele>103.4</ele>
        <time>2023-03-19T09:14:49Z</time>
      </trkpt>
      <trkpt lat="46.56124" lon="0.68589">
        <ele>101.8</ele>
        <time>2023-03-19T09:14:51Z</time>
      </trkpt>
      <trkpt lat="46.56125" lon="0.68578">
        <ele>100.8</ele>
        <time>2023-03-19T09:14:52Z</time>
      </trkpt>
      <trkpt lat="46.56126" lon="0.68568">
        <ele>99.6</ele>
        <time>2023-03-19T09:14:53Z</time>
      </trkpt>
      <trkpt lat="46.56126" lon="0.68558">
        <ele>98</ele>
        <time>2023-03-19T09:14:54Z</time>
      </trkpt>
      <trkpt lat="46.56129" lon="0.68528">
        <ele>96.4</ele>
        <time>2023-03-19T09:14:57Z</time>
      </trkpt>
      <trkpt lat="46.56131" lon="0.68513">
        <ele>94.6</ele>
        <time>2023-03-19T09:14:59Z</time>
      </trkpt>
      <trkpt lat="46.5613" lon="0.68507">
        <ele>93.2</ele>
        <time>2023-03-19T09:15:00Z</time>
      </trkpt>
      <trkpt lat="46.56126" lon="0.685">
        <ele>91.4</ele>
        <time>2023-03-19T09:15:02Z</time>
      </trkpt>
      <trkpt lat="46.56121" lon="0.68503">
        <ele>89.8</ele>
        <time>2023-03-19T09:15:04Z</time>
      </trkpt>
      <trkpt lat="46.5612" lon="0.68505">
        <ele>88.6</ele>
        <time>2023-03-19T09:15:05Z</time>
      </trkpt>
      <trkpt lat="46.56115" lon="0.68513">
        <ele>87.6</ele>
        <time>2023-03-19T09:15:07Z</time>
      </trkpt>
      <trkpt lat="46.56111" lon="0.68524">
        <ele>87.4</ele>
        <time>2023-03-19T09:15:09Z</time>
      </trkpt>
      <trkpt lat="46.56102" lon="0.68548">
        <ele>86.6</ele>
        <time>2023-03-19T09:15:14Z</time>
      </trkpt>
      <trkpt lat="46.56101" lon="0.68554">
        <ele>86</ele>
        <time>2023-03-19T09:15:15Z</time>
      </trkpt>
      <trkpt lat="46.56099" lon="0.68559">
        <ele>85.6</ele>
        <time>2023-03-19T09:15:16Z</time>
      </trkpt>
      <trkpt lat="46.56091" lon="0.68568">
        <ele>85.2</ele>
        <time>2023-03-19T09:15:18Z</time>
      </trkpt>
      <trkpt lat="46.56081" lon="0.68571">
        <ele>85.2</ele>
        <time>2023-03-19T09:15:20Z</time>
      </trkpt>
      <trkpt lat="46.56062" lon="0.68571">
        <ele>85.4</ele>
        <time>2023-03-19T09:15:23Z</time>
      </trkpt>
      <trkpt lat="46.56056" lon="0.6857">
        <ele>85.6</ele>
        <time>2023-03-19T09:15:24Z</time>
      </trkpt>
      <trkpt lat="46.56048" lon="0.68569">
        <ele>86</ele>
        <time>2023-03-19T09:15:26Z</time>
      </trkpt>
      <trkpt lat="46.56045" lon="0.6857">
        <ele>86</ele>
        <time>2023-03-19T09:15:27Z</time>
      </trkpt>
      <trkpt lat="46.56038" lon="0.68572">
        <ele>87</ele>
        <time>2023-03-19T09:15:31Z</time>
      </trkpt>
      <trkpt lat="46.56036" lon="0.68572">
        <ele>87.2</ele>
        <time>2023-03-19T09:15:33Z</time>
      </trkpt>
      <trkpt lat="46.5603" lon="0.68576">
        <ele>87.6</ele>
        <time>2023-03-19T09:15:39Z</time>
      </trkpt>
      <trkpt lat="46.56026" lon="0.68582">
        <ele>88.4</ele>
        <time>2023-03-19T09:15:44Z</time>
      </trkpt>
      <trkpt lat="46.56025" lon="0.68583">
        <ele>88.4</ele>
        <time>2023-03-19T09:15:45Z</time>
      </trkpt>
      <trkpt lat="46.56021" lon="0.68587">
        <ele>89.4</ele>
        <time>2023-03-19T09:15:49Z</time>
      </trkpt>
      <trkpt lat="46.5602" lon="0.68588">
        <ele>89.6</ele>
        <time>2023-03-19T09:15:50Z</time>
      </trkpt>
      <trkpt lat="46.56018" lon="0.68591">
        <ele>90.2</ele>
        <time>2023-03-19T09:15:53Z</time>
      </trkpt>
      <trkpt lat="46.56018" lon="0.68592">
        <ele>90.4</ele>
        <time>2023-03-19T09:15:54Z</time>
      </trkpt>
      <trkpt lat="46.56016" lon="0.68594">
        <ele>91</ele>
        <time>2023-03-19T09:15:56Z</time>
      </trkpt>
      <trkpt lat="46.56015" lon="0.68595">
        <ele>91.2</ele>
        <time>2023-03-19T09:15:58Z</time>
      </trkpt>
      <trkpt lat="46.56014" lon="0.68597">
        <ele>91.4</ele>
        <time>2023-03-19T09:16:00Z</time>
      </trkpt>
      <trkpt lat="46.56014" lon="0.68597">
        <ele>91.6</ele>
        <time>2023-03-19T09:16:01Z</time>
      </trkpt>
      <trkpt lat="46.56011" lon="0.686">
        <ele>92</ele>
        <time>2023-03-19T09:16:07Z</time>
      </trkpt>
      <trkpt lat="46.56008" lon="0.686">
        <ele>92.8</ele>
        <time>2023-03-19T09:16:11Z</time>
      </trkpt>
      <trkpt lat="46.56007" lon="0.68601">
        <ele>93</ele>
        <time>2023-03-19T09:16:13Z</time>
      </trkpt>
      <trkpt lat="46.56" lon="0.68601">
        <ele>94.2</ele>
        <time>2023-03-19T09:16:17Z</time>
      </trkpt>
      <trkpt lat="46.55998" lon="0.686">
        <ele>94.6</ele>
        <time>2023-03-19T09:16:19Z</time>
      </trkpt>
      <trkpt lat="46.55996" lon="0.686">
        <ele>95</ele>
        <time>2023-03-19T09:16:21Z</time>
      </trkpt>
      <trkpt lat="46.55995" lon="0.686">
        <ele>95.2</ele>
        <time>2023-03-19T09:16:22Z</time>
      </trkpt>
      <trkpt lat="46.55993" lon="0.686">
        <ele>95.6</ele>
        <time>2023-03-19T09:16:24Z</time>
      </trkpt>
      <trkpt lat="46.55991" lon="0.686">
        <ele>96</ele>
        <time>2023-03-19T09:16:26Z</time>
      </trkpt>
      <trkpt lat="46.55991" lon="0.68599">
        <ele>96.2</ele>
        <time>2023-03-19T09:16:27Z</time>
      </trkpt>
      <trkpt lat="46.5599" lon="0.68598">
        <ele>96.4</ele>
        <time>2023-03-19T09:16:28Z</time>
      </trkpt>
      <trkpt lat="46.55989" lon="0.68597">
        <ele>96.6</ele>
        <time>2023-03-19T09:16:29Z</time>
      </trkpt>
      <trkpt lat="46.55986" lon="0.68594">
        <ele>97.4</ele>
        <time>2023-03-19T09:16:33Z</time>
      </trkpt>
      <trkpt lat="46.55983" lon="0.68589">
        <ele>98</ele>
        <time>2023-03-19T09:16:38Z</time>
      </trkpt>
      <trkpt lat="46.55982" lon="0.68588">
        <ele>98.4</ele>
        <time>2023-03-19T09:16:40Z</time>
      </trkpt>
      <trkpt lat="46.55981" lon="0.68587">
        <ele>98.6</ele>
        <time>2023-03-19T09:16:41Z</time>
      </trkpt>
      <trkpt lat="46.55978" lon="0.68582">
        <ele>99</ele>
        <time>2023-03-19T09:16:45Z</time>
      </trkpt>
      <trkpt lat="46.55977" lon="0.68579">
        <ele>99.2</ele>
        <time>2023-03-19T09:16:47Z</time>
      </trkpt>
      <trkpt lat="46.55976" lon="0.68577">
        <ele>99.4</ele>
        <time>2023-03-19T09:16:48Z</time>
      </trkpt>
      <trkpt lat="46.55965" lon="0.68559">
        <ele>100.4</ele>
        <time>2023-03-19T09:16:56Z</time>
      </trkpt>
      <trkpt lat="46.55959" lon="0.6855">
        <ele>100.2</ele>
        <time>2023-03-19T09:17:02Z</time>
      </trkpt>
      <trkpt lat="46.55958" lon="0.68548">
        <ele>100.6</ele>
        <time>2023-03-19T09:17:03Z</time>
      </trkpt>
      <trkpt lat="46.55944" lon="0.68538">
        <ele>100.6</ele>
        <time>2023-03-19T09:17:11Z</time>
      </trkpt>
      <trkpt lat="46.55939" lon="0.68537">
        <ele>101.8</ele>
        <time>2023-03-19T09:17:15Z</time>
      </trkpt>
      <trkpt lat="46.55937" lon="0.68537">
        <ele>102</ele>
        <time>2023-03-19T09:17:16Z</time>
      </trkpt>
      <trkpt lat="46.55929" lon="0.68539">
        <ele>102.6</ele>
        <time>2023-03-19T09:17:20Z</time>
      </trkpt>
      <trkpt lat="46.55926" lon="0.6854">
        <ele>103</ele>
        <time>2023-03-19T09:17:21Z</time>
      </trkpt>
      <trkpt lat="46.55914" lon="0.68547">
        <ele>104</ele>
        <time>2023-03-19T09:17:28Z</time>
      </trkpt>
      <trkpt lat="46.55902" lon="0.68553">
        <ele>105</ele>
        <time>2023-03-19T09:17:33Z</time>
      </trkpt>
      <trkpt lat="46.55894" lon="0.68557">
        <ele>105.4</ele>
        <time>2023-03-19T09:17:36Z</time>
      </trkpt>
      <trkpt lat="46.55876" lon="0.68558">
        <ele>106.2</ele>
        <time>2023-03-19T09:17:43Z</time>
      </trkpt>
      <trkpt lat="46.55874" lon="0.68557">
        <ele>106.6</ele>
        <time>2023-03-19T09:17:44Z</time>
      </trkpt>
      <trkpt lat="46.55856" lon="0.68556">
        <ele>107.4</ele>
        <time>2023-03-19T09:17:52Z</time>
      </trkpt>
      <trkpt lat="46.55842" lon="0.6856">
        <ele>108.4</ele>
        <time>2023-03-19T09:17:59Z</time>
      </trkpt>
      <trkpt lat="46.55826" lon="0.68565">
        <ele>109.2</ele>
        <time>2023-03-19T09:18:06Z</time>
      </trkpt>
      <trkpt lat="46.55816" lon="0.68574">
        <ele>109</ele>
        <time>2023-03-19T09:18:11Z</time>
      </trkpt>
      <trkpt lat="46.55804" lon="0.68589">
        <ele>109</ele>
        <time>2023-03-19T09:18:17Z</time>
      </trkpt>
      <trkpt lat="46.558" lon="0.68592">
        <ele>109</ele>
        <time>2023-03-19T09:18:19Z</time>
      </trkpt>
      <trkpt lat="46.55795" lon="0.68592">
        <ele>109.4</ele>
        <time>2023-03-19T09:18:22Z</time>
      </trkpt>
      <trkpt lat="46.55786" lon="0.68589">
        <ele>109.4</ele>
        <time>2023-03-19T09:18:26Z</time>
      </trkpt>
      <trkpt lat="46.55784" lon="0.68585">
        <ele>109.2</ele>
        <time>2023-03-19T09:18:28Z</time>
      </trkpt>
      <trkpt lat="46.55782" lon="0.68575">
        <ele>108.2</ele>
        <time>2023-03-19T09:18:32Z</time>
      </trkpt>
      <trkpt lat="46.5578" lon="0.68572">
        <ele>108</ele>
        <time>2023-03-19T09:18:33Z</time>
      </trkpt>
      <trkpt lat="46.55779" lon="0.68569">
        <ele>108</ele>
        <time>2023-03-19T09:18:34Z</time>
      </trkpt>
      <trkpt lat="46.55776" lon="0.68563">
        <ele>107</ele>
        <time>2023-03-19T09:18:36Z</time>
      </trkpt>
      <trkpt lat="46.55775" lon="0.68559">
        <ele>106.6</ele>
        <time>2023-03-19T09:18:37Z</time>
      </trkpt>
      <trkpt lat="46.55771" lon="0.68549">
        <ele>105.6</ele>
        <time>2023-03-19T09:18:41Z</time>
      </trkpt>
      <trkpt lat="46.55769" lon="0.68547">
        <ele>105.4</ele>
        <time>2023-03-19T09:18:42Z</time>
      </trkpt>
      <trkpt lat="46.5576" lon="0.68545">
        <ele>104.6</ele>
        <time>2023-03-19T09:18:48Z</time>
      </trkpt>
      <trkpt lat="46.55759" lon="0.68545">
        <ele>104.6</ele>
        <time>2023-03-19T09:18:49Z</time>
      </trkpt>
      <trkpt lat="46.55758" lon="0.68543">
        <ele>104.6</ele>
        <time>2023-03-19T09:18:50Z</time>
      </trkpt>
      <trkpt lat="46.55757" lon="0.68538">
        <ele>103.6</ele>
        <time>2023-03-19T09:18:52Z</time>
      </trkpt>
      <trkpt lat="46.55757" lon="0.68534">
        <ele>103</ele>
        <time>2023-03-19T09:18:53Z</time>
      </trkpt>
      <trkpt lat="46.55755" lon="0.68526">
        <ele>102.4</ele>
        <time>2023-03-19T09:18:55Z</time>
      </trkpt>
      <trkpt lat="46.55755" lon="0.68517">
        <ele>101.2</ele>
        <time>2023-03-19T09:18:57Z</time>
      </trkpt>
      <trkpt lat="46.55755" lon="0.68509">
        <ele>99.8</ele>
        <time>2023-03-19T09:18:59Z</time>
      </trkpt>
      <trkpt lat="46.55756" lon="0.68505">
        <ele>98.2</ele>
        <time>2023-03-19T09:19:00Z</time>
      </trkpt>
      <trkpt lat="46.55755" lon="0.68497">
        <ele>96.6</ele>
        <time>2023-03-19T09:19:02Z</time>
      </trkpt>
      <trkpt lat="46.55757" lon="0.68489">
        <ele>94.6</ele>
        <time>2023-03-19T09:19:04Z</time>
      </trkpt>
      <trkpt lat="46.5576" lon="0.68482">
        <ele>94</ele>
        <time>2023-03-19T09:19:05Z</time>
      </trkpt>
      <trkpt lat="46.5576" lon="0.68482">
        <ele>93.4</ele>
        <time>2023-03-19T09:19:06Z</time>
      </trkpt>
      <trkpt lat="46.55763" lon="0.68476">
        <ele>92</ele>
        <time>2023-03-19T09:19:08Z</time>
      </trkpt>
      <trkpt lat="46.55765" lon="0.68471">
        <ele>90.8</ele>
        <time>2023-03-19T09:19:10Z</time>
      </trkpt>
      <trkpt lat="46.55767" lon="0.68468">
        <ele>89.2</ele>
        <time>2023-03-19T09:19:12Z</time>
      </trkpt>
      <trkpt lat="46.55771" lon="0.68465">
        <ele>88.2</ele>
        <time>2023-03-19T09:19:16Z</time>
      </trkpt>
      <trkpt lat="46.55774" lon="0.68463">
        <ele>88.6</ele>
        <time>2023-03-19T09:19:19Z</time>
      </trkpt>
      <trkpt lat="46.55776" lon="0.68463">
        <ele>89.4</ele>
        <time>2023-03-19T09:19:21Z</time>
      </trkpt>
      <trkpt lat="46.55779" lon="0.6846">
        <ele>89.8</ele>
        <time>2023-03-19T09:19:24Z</time>
      </trkpt>
      <trkpt lat="46.5578" lon="0.6846">
        <ele>90.2</ele>
        <time>2023-03-19T09:19:25Z</time>
      </trkpt>
      <trkpt lat="46.55781" lon="0.68461">
        <ele>90.6</ele>
        <time>2023-03-19T09:19:26Z</time>
      </trkpt>
      <trkpt lat="46.55787" lon="0.6846">
        <ele>91.8</ele>
        <time>2023-03-19T09:19:29Z</time>
      </trkpt>
      <trkpt lat="46.55793" lon="0.68459">
        <ele>92.6</ele>
        <time>2023-03-19T09:19:32Z</time>
      </trkpt>
      <trkpt lat="46.55799" lon="0.68457">
        <ele>92.8</ele>
        <time>2023-03-19T09:19:35Z</time>
      </trkpt>
      <trkpt lat="46.55809" lon="0.68454">
        <ele>93.8</ele>
        <time>2023-03-19T09:19:40Z</time>
      </trkpt>
      <trkpt lat="46.5581" lon="0.68453">
        <ele>94</ele>
        <time>2023-03-19T09:19:41Z</time>
      </trkpt>
      <trkpt lat="46.55813" lon="0.68453">
        <ele>94.4</ele>
        <time>2023-03-19T09:19:43Z</time>
      </trkpt>
      <trkpt lat="46.55819" lon="0.68456">
        <ele>94.6</ele>
        <time>2023-03-19T09:19:46Z</time>
      </trkpt>
      <trkpt lat="46.55821" lon="0.68457">
        <ele>95.2</ele>
        <time>2023-03-19T09:19:47Z</time>
      </trkpt>
      <trkpt lat="46.55823" lon="0.68458">
        <ele>95.4</ele>
        <time>2023-03-19T09:19:48Z</time>
      </trkpt>
      <trkpt lat="46.55834" lon="0.68461">
        <ele>96.2</ele>
        <time>2023-03-19T09:19:52Z</time>
      </trkpt>
      <trkpt lat="46.55839" lon="0.68461">
        <ele>96.2</ele>
        <time>2023-03-19T09:19:54Z</time>
      </trkpt>
      <trkpt lat="46.55854" lon="0.6846">
        <ele>97.4</ele>
        <time>2023-03-19T09:20:01Z</time>
      </trkpt>
      <trkpt lat="46.5587" lon="0.68467">
        <ele>98</ele>
        <time>2023-03-19T09:20:07Z</time>
      </trkpt>
      <trkpt lat="46.55882" lon="0.68466">
        <ele>97.8</ele>
        <time>2023-03-19T09:20:13Z</time>
      </trkpt>
      <trkpt lat="46.55887" lon="0.68464">
        <ele>97.8</ele>
        <time>2023-03-19T09:20:16Z</time>
      </trkpt>
      <trkpt lat="46.55895" lon="0.68461">
        <ele>97.8</ele>
        <time>2023-03-19T09:20:20Z</time>
      </trkpt>
      <trkpt lat="46.55903" lon="0.68458">
        <ele>97.4</ele>
        <time>2023-03-19T09:20:24Z</time>
      </trkpt>
      <trkpt lat="46.55905" lon="0.68454">
        <ele>97.2</ele>
        <time>2023-03-19T09:20:26Z</time>
      </trkpt>
      <trkpt lat="46.55908" lon="0.68447">
        <ele>96</ele>
        <time>2023-03-19T09:20:29Z</time>
      </trkpt>
      <trkpt lat="46.55909" lon="0.68445">
        <ele>95.6</ele>
        <time>2023-03-19T09:20:30Z</time>
      </trkpt>
      <trkpt lat="46.55913" lon="0.68443">
        <ele>95.2</ele>
        <time>2023-03-19T09:20:32Z</time>
      </trkpt>
      <trkpt lat="46.55921" lon="0.6844">
        <ele>96</ele>
        <time>2023-03-19T09:20:37Z</time>
      </trkpt>
      <trkpt lat="46.55923" lon="0.68438">
        <ele>96.2</ele>
        <time>2023-03-19T09:20:38Z</time>
      </trkpt>
      <trkpt lat="46.55937" lon="0.68425">
        <ele>96.6</ele>
        <time>2023-03-19T09:20:47Z</time>
      </trkpt>
      <trkpt lat="46.55939" lon="0.68423">
        <ele>96.6</ele>
        <time>2023-03-19T09:20:48Z</time>
      </trkpt>
      <trkpt lat="46.55946" lon="0.68409">
        <ele>95.6</ele>
        <time>2023-03-19T09:20:55Z</time>
      </trkpt>
      <trkpt lat="46.55955" lon="0.68389">
        <ele>97.2</ele>
        <time>2023-03-19T09:21:04Z</time>
      </trkpt>
      <trkpt lat="46.5596" lon="0.68376">
        <ele>97.4</ele>
        <time>2023-03-19T09:21:08Z</time>
      </trkpt>
      <trkpt lat="46.55963" lon="0.6837">
        <ele>97.4</ele>
        <time>2023-03-19T09:21:10Z</time>
      </trkpt>
      <trkpt lat="46.55966" lon="0.68364">
        <ele>97.6</ele>
        <time>2023-03-19T09:21:12Z</time>
      </trkpt>
      <trkpt lat="46.55969" lon="0.68361">
        <ele>98</ele>
        <time>2023-03-19T09:21:14Z</time>
      </trkpt>
      <trkpt lat="46.5597" lon="0.6836">
        <ele>98.4</ele>
        <time>2023-03-19T09:21:15Z</time>
      </trkpt>
      <trkpt lat="46.55973" lon="0.68355">
        <ele>99.6</ele>
        <time>2023-03-19T09:21:18Z</time>
      </trkpt>
      <trkpt lat="46.55974" lon="0.68353">
        <ele>99.8</ele>
        <time>2023-03-19T09:21:19Z</time>
      </trkpt>
      <trkpt lat="46.55978" lon="0.68335">
        <ele>100.6</ele>
        <time>2023-03-19T09:21:25Z</time>
      </trkpt>
      <trkpt lat="46.55978" lon="0.68331">
        <ele>100.8</ele>
        <time>2023-03-19T09:21:26Z</time>
      </trkpt>
      <trkpt lat="46.55983" lon="0.68308">
        <ele>101.8</ele>
        <time>2023-03-19T09:21:32Z</time>
      </trkpt>
      <trkpt lat="46.55986" lon="0.68277">
        <ele>102.6</ele>
        <time>2023-03-19T09:21:40Z</time>
      </trkpt>
      <trkpt lat="46.55988" lon="0.68238">
        <ele>102.2</ele>
        <time>2023-03-19T09:21:48Z</time>
      </trkpt>
      <trkpt lat="46.55988" lon="0.68233">
        <ele>102</ele>
        <time>2023-03-19T09:21:49Z</time>
      </trkpt>
      <trkpt lat="46.55985" lon="0.68222">
        <ele>101.4</ele>
        <time>2023-03-19T09:21:52Z</time>
      </trkpt>
      <trkpt lat="46.5598" lon="0.68215">
        <ele>100.8</ele>
        <time>2023-03-19T09:21:55Z</time>
      </trkpt>
      <trkpt lat="46.5598" lon="0.68213">
        <ele>100.6</ele>
        <time>2023-03-19T09:21:56Z</time>
      </trkpt>
      <trkpt lat="46.55979" lon="0.6821">
        <ele>100.2</ele>
        <time>2023-03-19T09:21:57Z</time>
      </trkpt>
      <trkpt lat="46.55977" lon="0.68204">
        <ele>99.6</ele>
        <time>2023-03-19T09:21:59Z</time>
      </trkpt>
      <trkpt lat="46.55974" lon="0.68194">
        <ele>99.2</ele>
        <time>2023-03-19T09:22:02Z</time>
      </trkpt>
      <trkpt lat="46.55973" lon="0.68186">
        <ele>98.4</ele>
        <time>2023-03-19T09:22:04Z</time>
      </trkpt>
      <trkpt lat="46.55973" lon="0.68174">
        <ele>97.2</ele>
        <time>2023-03-19T09:22:08Z</time>
      </trkpt>
      <trkpt lat="46.55973" lon="0.68155">
        <ele>96</ele>
        <time>2023-03-19T09:22:12Z</time>
      </trkpt>
      <trkpt lat="46.55973" lon="0.68149">
        <ele>95.8</ele>
        <time>2023-03-19T09:22:13Z</time>
      </trkpt>
      <trkpt lat="46.5597" lon="0.68138">
        <ele>94.8</ele>
        <time>2023-03-19T09:22:16Z</time>
      </trkpt>
      <trkpt lat="46.55968" lon="0.68137">
        <ele>94.8</ele>
        <time>2023-03-19T09:22:17Z</time>
      </trkpt>
      <trkpt lat="46.55966" lon="0.68134">
        <ele>94.2</ele>
        <time>2023-03-19T09:22:18Z</time>
      </trkpt>
      <trkpt lat="46.55962" lon="0.68129">
        <ele>93.8</ele>
        <time>2023-03-19T09:22:20Z</time>
      </trkpt>
      <trkpt lat="46.55961" lon="0.68125">
        <ele>93</ele>
        <time>2023-03-19T09:22:21Z</time>
      </trkpt>
      <trkpt lat="46.5596" lon="0.6812">
        <ele>92.8</ele>
        <time>2023-03-19T09:22:22Z</time>
      </trkpt>
      <trkpt lat="46.55958" lon="0.68098">
        <ele>91.6</ele>
        <time>2023-03-19T09:22:26Z</time>
      </trkpt>
      <trkpt lat="46.55955" lon="0.68085">
        <ele>90.4</ele>
        <time>2023-03-19T09:22:29Z</time>
      </trkpt>
      <trkpt lat="46.55952" lon="0.68078">
        <ele>89.2</ele>
        <time>2023-03-19T09:22:31Z</time>
      </trkpt>
      <trkpt lat="46.5595" lon="0.68074">
        <ele>88.4</ele>
        <time>2023-03-19T09:22:32Z</time>
      </trkpt>
      <trkpt lat="46.55949" lon="0.6807">
        <ele>87.8</ele>
        <time>2023-03-19T09:22:33Z</time>
      </trkpt>
      <trkpt lat="46.55949" lon="0.68063">
        <ele>87.2</ele>
        <time>2023-03-19T09:22:35Z</time>
      </trkpt>
      <trkpt lat="46.5595" lon="0.68058">
        <ele>86.8</ele>
        <time>2023-03-19T09:22:36Z</time>
      </trkpt>
      <trkpt lat="46.55951" lon="0.68054">
        <ele>86.4</ele>
        <time>2023-03-19T09:22:37Z</time>
      </trkpt>
      <trkpt lat="46.55958" lon="0.68045">
        <ele>85.2</ele>
        <time>2023-03-19T09:22:40Z</time>
      </trkpt>
      <trkpt lat="46.55961" lon="0.68041">
        <ele>85</ele>
        <time>2023-03-19T09:22:41Z</time>
      </trkpt>
      <trkpt lat="46.55967" lon="0.68029">
        <ele>83.6</ele>
        <time>2023-03-19T09:22:44Z</time>
      </trkpt>
      <trkpt lat="46.55972" lon="0.68023">
        <ele>82.4</ele>
        <time>2023-03-19T09:22:46Z</time>
      </trkpt>
      <trkpt lat="46.55973" lon="0.68019">
        <ele>81.8</ele>
        <time>2023-03-19T09:22:47Z</time>
      </trkpt>
      <trkpt lat="46.55973" lon="0.68014">
        <ele>81.2</ele>
        <time>2023-03-19T09:22:48Z</time>
      </trkpt>
      <trkpt lat="46.55972" lon="0.68001">
        <ele>79.8</ele>
        <time>2023-03-19T09:22:50Z</time>
      </trkpt>
      <trkpt lat="46.55973" lon="0.67997">
        <ele>79.4</ele>
        <time>2023-03-19T09:22:51Z</time>
      </trkpt>
      <trkpt lat="46.55977" lon="0.67992">
        <ele>79</ele>
        <time>2023-03-19T09:22:53Z</time>
      </trkpt>
      <trkpt lat="46.55998" lon="0.67979">
        <ele>78.8</ele>
        <time>2023-03-19T09:23:01Z</time>
      </trkpt>
      <trkpt lat="46.56001" lon="0.67977">
        <ele>78.8</ele>
        <time>2023-03-19T09:23:02Z</time>
      </trkpt>
      <trkpt lat="46.56009" lon="0.67967">
        <ele>78.8</ele>
        <time>2023-03-19T09:23:06Z</time>
      </trkpt>
      <trkpt lat="46.56025" lon="0.67955">
        <ele>78.4</ele>
        <time>2023-03-19T09:23:13Z</time>
      </trkpt>
      <trkpt lat="46.5604" lon="0.67955">
        <ele>78.6</ele>
        <time>2023-03-19T09:23:19Z</time>
      </trkpt>
      <trkpt lat="46.5605" lon="0.67956">
        <ele>77.8</ele>
        <time>2023-03-19T09:23:25Z</time>
      </trkpt>
      <trkpt lat="46.56053" lon="0.67951">
        <ele>77.8</ele>
        <time>2023-03-19T09:23:27Z</time>
      </trkpt>
      <trkpt lat="46.56057" lon="0.67945">
        <ele>78</ele>
        <time>2023-03-19T09:23:30Z</time>
      </trkpt>
      <trkpt lat="46.56059" lon="0.67943">
        <ele>78</ele>
        <time>2023-03-19T09:23:31Z</time>
      </trkpt>
      <trkpt lat="46.56064" lon="0.67936">
        <ele>78</ele>
        <time>2023-03-19T09:23:34Z</time>
      </trkpt>
      <trkpt lat="46.56065" lon="0.67928">
        <ele>78</ele>
        <time>2023-03-19T09:23:38Z</time>
      </trkpt>
      <trkpt lat="46.56067" lon="0.67921">
        <ele>79</ele>
        <time>2023-03-19T09:23:42Z</time>
      </trkpt>
      <trkpt lat="46.56069" lon="0.67917">
        <ele>80</ele>
        <time>2023-03-19T09:23:45Z</time>
      </trkpt>
      <trkpt lat="46.5607" lon="0.67916">
        <ele>80.2</ele>
        <time>2023-03-19T09:23:46Z</time>
      </trkpt>
      <trkpt lat="46.56071" lon="0.67914">
        <ele>80.6</ele>
        <time>2023-03-19T09:23:47Z</time>
      </trkpt>
      <trkpt lat="46.56073" lon="0.67907">
        <ele>81.4</ele>
        <time>2023-03-19T09:23:51Z</time>
      </trkpt>
      <trkpt lat="46.56073" lon="0.67906">
        <ele>81.6</ele>
        <time>2023-03-19T09:23:53Z</time>
      </trkpt>
      <trkpt lat="46.56075" lon="0.67899">
        <ele>81.8</ele>
        <time>2023-03-19T09:23:57Z</time>
      </trkpt>
      <trkpt lat="46.56076" lon="0.67895">
        <ele>82.4</ele>
        <time>2023-03-19T09:23:59Z</time>
      </trkpt>
      <trkpt lat="46.56077" lon="0.67892">
        <ele>82.6</ele>
        <time>2023-03-19T09:24:01Z</time>
      </trkpt>
      <trkpt lat="46.56077" lon="0.67889">
        <ele>83</ele>
        <time>2023-03-19T09:24:03Z</time>
      </trkpt>
      <trkpt lat="46.56078" lon="0.67885">
        <ele>83.4</ele>
        <time>2023-03-19T09:24:06Z</time>
      </trkpt>
      <trkpt lat="46.56078" lon="0.67882">
        <ele>83.6</ele>
        <time>2023-03-19T09:24:09Z</time>
      </trkpt>
      <trkpt lat="46.56079" lon="0.6788">
        <ele>83.8</ele>
        <time>2023-03-19T09:24:11Z</time>
      </trkpt>
      <trkpt lat="46.56078" lon="0.67878">
        <ele>84.4</ele>
        <time>2023-03-19T09:24:16Z</time>
      </trkpt>
      <trkpt lat="46.5608" lon="0.67876">
        <ele>85</ele>
        <time>2023-03-19T09:24:18Z</time>
      </trkpt>
      <trkpt lat="46.56083" lon="0.67869">
        <ele>85</ele>
        <time>2023-03-19T09:24:26Z</time>
      </trkpt>
      <trkpt lat="46.5608" lon="0.67867">
        <ele>87.4</ele>
        <time>2023-03-19T09:24:32Z</time>
      </trkpt>
      <trkpt lat="46.56079" lon="0.67866">
        <ele>87.4</ele>
        <time>2023-03-19T09:24:35Z</time>
      </trkpt>
      <trkpt lat="46.56071" lon="0.67863">
        <ele>88</ele>
        <time>2023-03-19T09:24:43Z</time>
      </trkpt>
      <trkpt lat="46.5607" lon="0.67863">
        <ele>88</ele>
        <time>2023-03-19T09:24:44Z</time>
      </trkpt>
      <trkpt lat="46.56067" lon="0.67862">
        <ele>88.8</ele>
        <time>2023-03-19T09:24:48Z</time>
      </trkpt>
      <trkpt lat="46.56066" lon="0.67862">
        <ele>89</ele>
        <time>2023-03-19T09:24:49Z</time>
      </trkpt>
      <trkpt lat="46.56063" lon="0.67861">
        <ele>89.6</ele>
        <time>2023-03-19T09:24:53Z</time>
      </trkpt>
      <trkpt lat="46.5606" lon="0.67859">
        <ele>89.8</ele>
        <time>2023-03-19T09:24:57Z</time>
      </trkpt>
      <trkpt lat="46.56058" lon="0.67858">
        <ele>89.8</ele>
        <time>2023-03-19T09:24:59Z</time>
      </trkpt>
      <trkpt lat="46.56055" lon="0.67857">
        <ele>90</ele>
        <time>2023-03-19T09:25:03Z</time>
      </trkpt>
      <trkpt lat="46.56051" lon="0.67858">
        <ele>90.2</ele>
        <time>2023-03-19T09:25:06Z</time>
      </trkpt>
      <trkpt lat="46.56047" lon="0.67857">
        <ele>90.6</ele>
        <time>2023-03-19T09:25:08Z</time>
      </trkpt>
      <trkpt lat="46.56045" lon="0.67856">
        <ele>90.6</ele>
        <time>2023-03-19T09:25:10Z</time>
      </trkpt>
      <trkpt lat="46.56043" lon="0.67856">
        <ele>90.8</ele>
        <time>2023-03-19T09:25:11Z</time>
      </trkpt>
      <trkpt lat="46.56041" lon="0.67854">
        <ele>91.4</ele>
        <time>2023-03-19T09:25:14Z</time>
      </trkpt>
      <trkpt lat="46.56039" lon="0.67853">
        <ele>91.8</ele>
        <time>2023-03-19T09:25:16Z</time>
      </trkpt>
      <trkpt lat="46.56036" lon="0.6785">
        <ele>92.4</ele>
        <time>2023-03-19T09:25:20Z</time>
      </trkpt>
      <trkpt lat="46.56035" lon="0.67849">
        <ele>93</ele>
        <time>2023-03-19T09:25:22Z</time>
      </trkpt>
      <trkpt lat="46.56033" lon="0.67847">
        <ele>94</ele>
        <time>2023-03-19T09:25:28Z</time>
      </trkpt>
      <trkpt lat="46.56031" lon="0.67845">
        <ele>95</ele>
        <time>2023-03-19T09:25:33Z</time>
      </trkpt>
      <trkpt lat="46.56031" lon="0.67845">
        <ele>95.2</ele>
        <time>2023-03-19T09:25:34Z</time>
      </trkpt>
      <trkpt lat="46.56027" lon="0.67841">
        <ele>96.4</ele>
        <time>2023-03-19T09:25:40Z</time>
      </trkpt>
      <trkpt lat="46.56023" lon="0.67836">
        <ele>96.4</ele>
        <time>2023-03-19T09:25:48Z</time>
      </trkpt>
      <trkpt lat="46.56021" lon="0.6783">
        <ele>96.6</ele>
        <time>2023-03-19T09:26:02Z</time>
      </trkpt>
      <trkpt lat="46.56017" lon="0.67811">
        <ele>97.2</ele>
        <time>2023-03-19T09:26:11Z</time>
      </trkpt>
      <trkpt lat="46.56016" lon="0.67801">
        <ele>97.4</ele>
        <time>2023-03-19T09:26:15Z</time>
      </trkpt>
      <trkpt lat="46.56016" lon="0.67797">
        <ele>97.4</ele>
        <time>2023-03-19T09:26:17Z</time>
      </trkpt>
      <trkpt lat="46.56016" lon="0.6779">
        <ele>97.8</ele>
        <time>2023-03-19T09:26:20Z</time>
      </trkpt>
      <trkpt lat="46.56015" lon="0.67783">
        <ele>98</ele>
        <time>2023-03-19T09:26:22Z</time>
      </trkpt>
      <trkpt lat="46.56012" lon="0.67764">
        <ele>98.2</ele>
        <time>2023-03-19T09:26:27Z</time>
      </trkpt>
      <trkpt lat="46.5601" lon="0.67741">
        <ele>98.6</ele>
        <time>2023-03-19T09:26:33Z</time>
      </trkpt>
      <trkpt lat="46.56012" lon="0.67729">
        <ele>99</ele>
        <time>2023-03-19T09:26:36Z</time>
      </trkpt>
      <trkpt lat="46.56018" lon="0.67713">
        <ele>99</ele>
        <time>2023-03-19T09:26:39Z</time>
      </trkpt>
      <trkpt lat="46.56026" lon="0.67683">
        <ele>99.6</ele>
        <time>2023-03-19T09:26:45Z</time>
      </trkpt>
      <trkpt lat="46.56029" lon="0.67653">
        <ele>100</ele>
        <time>2023-03-19T09:26:51Z</time>
      </trkpt>
      <trkpt lat="46.56035" lon="0.67625">
        <ele>100.4</ele>
        <time>2023-03-19T09:26:57Z</time>
      </trkpt>
      <trkpt lat="46.56042" lon="0.67598">
        <ele>100.8</ele>
        <time>2023-03-19T09:27:03Z</time>
      </trkpt>
      <trkpt lat="46.56054" lon="0.67571">
        <ele>100.8</ele>
        <time>2023-03-19T09:27:09Z</time>
      </trkpt>
      <trkpt lat="46.56064" lon="0.67551">
        <ele>101</ele>
        <time>2023-03-19T09:27:14Z</time>
      </trkpt>
      <trkpt lat="46.56075" lon="0.67531">
        <ele>101.2</ele>
        <time>2023-03-19T09:27:18Z</time>
      </trkpt>
      <trkpt lat="46.56089" lon="0.675">
        <ele>101.8</ele>
        <time>2023-03-19T09:27:25Z</time>
      </trkpt>
      <trkpt lat="46.56103" lon="0.67473">
        <ele>102</ele>
        <time>2023-03-19T09:27:31Z</time>
      </trkpt>
      <trkpt lat="46.56106" lon="0.67468">
        <ele>102</ele>
        <time>2023-03-19T09:27:32Z</time>
      </trkpt>
      <trkpt lat="46.56116" lon="0.6745">
        <ele>102.4</ele>
        <time>2023-03-19T09:27:37Z</time>
      </trkpt>
      <trkpt lat="46.56122" lon="0.67442">
        <ele>102.6</ele>
        <time>2023-03-19T09:27:39Z</time>
      </trkpt>
      <trkpt lat="46.56138" lon="0.67414">
        <ele>103.2</ele>
        <time>2023-03-19T09:27:46Z</time>
      </trkpt>
      <trkpt lat="46.5616" lon="0.67383">
        <ele>102.8</ele>
        <time>2023-03-19T09:27:53Z</time>
      </trkpt>
      <trkpt lat="46.56183" lon="0.67361">
        <ele>103</ele>
        <time>2023-03-19T09:27:59Z</time>
      </trkpt>
      <trkpt lat="46.562" lon="0.67341">
        <ele>103.8</ele>
        <time>2023-03-19T09:28:05Z</time>
      </trkpt>
      <trkpt lat="46.56218" lon="0.67323">
        <ele>103.8</ele>
        <time>2023-03-19T09:28:11Z</time>
      </trkpt>
      <trkpt lat="46.56236" lon="0.67303">
        <ele>103.6</ele>
        <time>2023-03-19T09:28:18Z</time>
      </trkpt>
      <trkpt lat="46.56253" lon="0.67288">
        <ele>104.2</ele>
        <time>2023-03-19T09:28:23Z</time>
      </trkpt>
      <trkpt lat="46.56256" lon="0.67285">
        <ele>104.4</ele>
        <time>2023-03-19T09:28:24Z</time>
      </trkpt>
      <trkpt lat="46.56275" lon="0.67261">
        <ele>104.8</ele>
        <time>2023-03-19T09:28:30Z</time>
      </trkpt>
      <trkpt lat="46.56282" lon="0.67252">
        <ele>104.8</ele>
        <time>2023-03-19T09:28:32Z</time>
      </trkpt>
      <trkpt lat="46.56289" lon="0.67251">
        <ele>104.8</ele>
        <time>2023-03-19T09:28:34Z</time>
      </trkpt>
      <trkpt lat="46.56286" lon="0.67257">
        <ele>104.6</ele>
        <time>2023-03-19T09:28:37Z</time>
      </trkpt>
      <trkpt lat="46.56271" lon="0.67271">
        <ele>103</ele>
        <time>2023-03-19T09:28:42Z</time>
      </trkpt>
      <trkpt lat="46.56267" lon="0.67278">
        <ele>102.4</ele>
        <time>2023-03-19T09:28:43Z</time>
      </trkpt>
      <trkpt lat="46.56264" lon="0.67286">
        <ele>101</ele>
        <time>2023-03-19T09:28:44Z</time>
      </trkpt>
      <trkpt lat="46.56261" lon="0.67294">
        <ele>100.2</ele>
        <time>2023-03-19T09:28:45Z</time>
      </trkpt>
      <trkpt lat="46.56258" lon="0.67301">
        <ele>99.6</ele>
        <time>2023-03-19T09:28:46Z</time>
      </trkpt>
      <trkpt lat="46.56256" lon="0.67307">
        <ele>98.6</ele>
        <time>2023-03-19T09:28:47Z</time>
      </trkpt>
      <trkpt lat="46.56254" lon="0.67311">
        <ele>97.6</ele>
        <time>2023-03-19T09:28:48Z</time>
      </trkpt>
      <trkpt lat="46.56253" lon="0.67312">
        <ele>95.8</ele>
        <time>2023-03-19T09:28:49Z</time>
      </trkpt>
      <trkpt lat="46.56253" lon="0.67315">
        <ele>94.6</ele>
        <time>2023-03-19T09:28:51Z</time>
      </trkpt>
      <trkpt lat="46.56254" lon="0.67315">
        <ele>94.2</ele>
        <time>2023-03-19T09:28:53Z</time>
      </trkpt>
      <trkpt lat="46.5626" lon="0.67317">
        <ele>93.4</ele>
        <time>2023-03-19T09:28:57Z</time>
      </trkpt>
      <trkpt lat="46.56264" lon="0.67321">
        <ele>93</ele>
        <time>2023-03-19T09:28:59Z</time>
      </trkpt>
      <trkpt lat="46.56267" lon="0.67324">
        <ele>92.6</ele>
        <time>2023-03-19T09:29:00Z</time>
      </trkpt>
      <trkpt lat="46.56269" lon="0.67327">
        <ele>92.2</ele>
        <time>2023-03-19T09:29:01Z</time>
      </trkpt>
      <trkpt lat="46.56276" lon="0.67334">
        <ele>91</ele>
        <time>2023-03-19T09:29:03Z</time>
      </trkpt>
      <trkpt lat="46.56279" lon="0.67338">
        <ele>89.8</ele>
        <time>2023-03-19T09:29:04Z</time>
      </trkpt>
      <trkpt lat="46.56282" lon="0.67343">
        <ele>89</ele>
        <time>2023-03-19T09:29:05Z</time>
      </trkpt>
      <trkpt lat="46.56285" lon="0.67349">
        <ele>88.2</ele>
        <time>2023-03-19T09:29:06Z</time>
      </trkpt>
      <trkpt lat="46.5629" lon="0.6736">
        <ele>86.8</ele>
        <time>2023-03-19T09:29:08Z</time>
      </trkpt>
      <trkpt lat="46.56292" lon="0.67366">
        <ele>86</ele>
        <time>2023-03-19T09:29:09Z</time>
      </trkpt>
      <trkpt lat="46.56294" lon="0.67372">
        <ele>85.4</ele>
        <time>2023-03-19T09:29:10Z</time>
      </trkpt>
      <trkpt lat="46.56298" lon="0.67384">
        <ele>83.6</ele>
        <time>2023-03-19T09:29:12Z</time>
      </trkpt>
      <trkpt lat="46.56301" lon="0.67397">
        <ele>82.6</ele>
        <time>2023-03-19T09:29:14Z</time>
      </trkpt>
      <trkpt lat="46.56305" lon="0.67408">
        <ele>82</ele>
        <time>2023-03-19T09:29:15Z</time>
      </trkpt>
      <trkpt lat="46.56313" lon="0.67423">
        <ele>81.4</ele>
        <time>2023-03-19T09:29:16Z</time>
      </trkpt>
      <trkpt lat="46.56313" lon="0.67442">
        <ele>79.6</ele>
        <time>2023-03-19T09:29:18Z</time>
      </trkpt>
      <trkpt lat="46.56313" lon="0.67463">
        <ele>78.4</ele>
        <time>2023-03-19T09:29:20Z</time>
      </trkpt>
      <trkpt lat="46.56314" lon="0.67473">
        <ele>77.8</ele>
        <time>2023-03-19T09:29:21Z</time>
      </trkpt>
      <trkpt lat="46.56314" lon="0.67488">
        <ele>77</ele>
        <time>2023-03-19T09:29:23Z</time>
      </trkpt>
      <trkpt lat="46.56314" lon="0.67493">
        <ele>77</ele>
        <time>2023-03-19T09:29:24Z</time>
      </trkpt>
      <trkpt lat="46.5632" lon="0.67514">
        <ele>78.2</ele>
        <time>2023-03-19T09:29:29Z</time>
      </trkpt>
      <trkpt lat="46.56319" lon="0.67529">
        <ele>79.4</ele>
        <time>2023-03-19T09:29:32Z</time>
      </trkpt>
      <trkpt lat="46.56316" lon="0.67541">
        <ele>80</ele>
        <time>2023-03-19T09:29:35Z</time>
      </trkpt>
      <trkpt lat="46.56315" lon="0.67547">
        <ele>80.6</ele>
        <time>2023-03-19T09:29:37Z</time>
      </trkpt>
      <trkpt lat="46.56314" lon="0.67558">
        <ele>82</ele>
        <time>2023-03-19T09:29:41Z</time>
      </trkpt>
      <trkpt lat="46.56313" lon="0.6757">
        <ele>83.2</ele>
        <time>2023-03-19T09:29:45Z</time>
      </trkpt>
      <trkpt lat="46.56312" lon="0.67581">
        <ele>84</ele>
        <time>2023-03-19T09:29:49Z</time>
      </trkpt>
      <trkpt lat="46.56313" lon="0.67583">
        <ele>84.2</ele>
        <time>2023-03-19T09:29:50Z</time>
      </trkpt>
      <trkpt lat="46.56314" lon="0.67594">
        <ele>85.2</ele>
        <time>2023-03-19T09:29:54Z</time>
      </trkpt>
      <trkpt lat="46.56314" lon="0.676">
        <ele>86.2</ele>
        <time>2023-03-19T09:29:57Z</time>
      </trkpt>
      <trkpt lat="46.56314" lon="0.67604">
        <ele>86.4</ele>
        <time>2023-03-19T09:29:58Z</time>
      </trkpt>
      <trkpt lat="46.56315" lon="0.67606">
        <ele>86.6</ele>
        <time>2023-03-19T09:29:59Z</time>
      </trkpt>
      <trkpt lat="46.56318" lon="0.67616">
        <ele>87.2</ele>
        <time>2023-03-19T09:30:04Z</time>
      </trkpt>
      <trkpt lat="46.56319" lon="0.67618">
        <ele>87.4</ele>
        <time>2023-03-19T09:30:05Z</time>
      </trkpt>
      <trkpt lat="46.56327" lon="0.67631">
        <ele>88.2</ele>
        <time>2023-03-19T09:30:10Z</time>
      </trkpt>
      <trkpt lat="46.56328" lon="0.67633">
        <ele>88.2</ele>
        <time>2023-03-19T09:30:11Z</time>
      </trkpt>
      <trkpt lat="46.56332" lon="0.67641">
        <ele>88.8</ele>
        <time>2023-03-19T09:30:14Z</time>
      </trkpt>
      <trkpt lat="46.56336" lon="0.67648">
        <ele>89.8</ele>
        <time>2023-03-19T09:30:18Z</time>
      </trkpt>
      <trkpt lat="46.56342" lon="0.67656">
        <ele>90.8</ele>
        <time>2023-03-19T09:30:24Z</time>
      </trkpt>
      <trkpt lat="46.56344" lon="0.67658">
        <ele>90.8</ele>
        <time>2023-03-19T09:30:25Z</time>
      </trkpt>
      <trkpt lat="46.56346" lon="0.67659">
        <ele>91</ele>
        <time>2023-03-19T09:30:26Z</time>
      </trkpt>
      <trkpt lat="46.5636" lon="0.67675">
        <ele>91.6</ele>
        <time>2023-03-19T09:30:33Z</time>
      </trkpt>
      <trkpt lat="46.56362" lon="0.67677">
        <ele>92</ele>
        <time>2023-03-19T09:30:35Z</time>
      </trkpt>
      <trkpt lat="46.5637" lon="0.67688">
        <ele>93</ele>
        <time>2023-03-19T09:30:41Z</time>
      </trkpt>
      <trkpt lat="46.56372" lon="0.67691">
        <ele>93</ele>
        <time>2023-03-19T09:30:43Z</time>
      </trkpt>
      <trkpt lat="46.56381" lon="0.67704">
        <ele>94.2</ele>
        <time>2023-03-19T09:30:50Z</time>
      </trkpt>
      <trkpt lat="46.56387" lon="0.67713">
        <ele>95</ele>
        <time>2023-03-19T09:30:55Z</time>
      </trkpt>
      <trkpt lat="46.56389" lon="0.67714">
        <ele>95.4</ele>
        <time>2023-03-19T09:30:56Z</time>
      </trkpt>
      <trkpt lat="46.56395" lon="0.67723">
        <ele>96.6</ele>
        <time>2023-03-19T09:31:03Z</time>
      </trkpt>
      <trkpt lat="46.56401" lon="0.67731">
        <ele>97.4</ele>
        <time>2023-03-19T09:31:09Z</time>
      </trkpt>
      <trkpt lat="46.56402" lon="0.67732">
        <ele>97.6</ele>
        <time>2023-03-19T09:31:10Z</time>
      </trkpt>
      <trkpt lat="46.56409" lon="0.6774">
        <ele>98.8</ele>
        <time>2023-03-19T09:31:16Z</time>
      </trkpt>
      <trkpt lat="46.5642" lon="0.67755">
        <ele>99.8</ele>
        <time>2023-03-19T09:31:23Z</time>
      </trkpt>
      <trkpt lat="46.56423" lon="0.6776">
        <ele>100</ele>
        <time>2023-03-19T09:31:25Z</time>
      </trkpt>
      <trkpt lat="46.56425" lon="0.67764">
        <ele>100.8</ele>
        <time>2023-03-19T09:31:28Z</time>
      </trkpt>
      <trkpt lat="46.56431" lon="0.67773">
        <ele>102</ele>
        <time>2023-03-19T09:31:34Z</time>
      </trkpt>
      <trkpt lat="46.56435" lon="0.67777">
        <ele>102.6</ele>
        <time>2023-03-19T09:31:38Z</time>
      </trkpt>
      <trkpt lat="46.56436" lon="0.67778">
        <ele>102.8</ele>
        <time>2023-03-19T09:31:39Z</time>
      </trkpt>
      <trkpt lat="46.56437" lon="0.67779">
        <ele>103.2</ele>
        <time>2023-03-19T09:31:41Z</time>
      </trkpt>
      <trkpt lat="46.56441" lon="0.67786">
        <ele>104.2</ele>
        <time>2023-03-19T09:31:47Z</time>
      </trkpt>
      <trkpt lat="46.56448" lon="0.67793">
        <ele>105</ele>
        <time>2023-03-19T09:31:53Z</time>
      </trkpt>
      <trkpt lat="46.56454" lon="0.67802">
        <ele>105.2</ele>
        <time>2023-03-19T09:31:58Z</time>
      </trkpt>
      <trkpt lat="46.56455" lon="0.67803">
        <ele>105.2</ele>
        <time>2023-03-19T09:31:59Z</time>
      </trkpt>
      <trkpt lat="46.56464" lon="0.67816">
        <ele>106.2</ele>
        <time>2023-03-19T09:32:06Z</time>
      </trkpt>
      <trkpt lat="46.56465" lon="0.67817">
        <ele>106.4</ele>
        <time>2023-03-19T09:32:07Z</time>
      </trkpt>
      <trkpt lat="46.56472" lon="0.67826">
        <ele>107.4</ele>
        <time>2023-03-19T09:32:13Z</time>
      </trkpt>
      <trkpt lat="46.5648" lon="0.67837">
        <ele>108.2</ele>
        <time>2023-03-19T09:32:19Z</time>
      </trkpt>
      <trkpt lat="46.56481" lon="0.67837">
        <ele>108.4</ele>
        <time>2023-03-19T09:32:20Z</time>
      </trkpt>
      <trkpt lat="46.5649" lon="0.67847">
        <ele>109.6</ele>
        <time>2023-03-19T09:32:26Z</time>
      </trkpt>
      <trkpt lat="46.56495" lon="0.67852">
        <ele>110.8</ele>
        <time>2023-03-19T09:32:31Z</time>
      </trkpt>
      <trkpt lat="46.56509" lon="0.67867">
        <ele>111.8</ele>
        <time>2023-03-19T09:32:40Z</time>
      </trkpt>
      <trkpt lat="46.56511" lon="0.67871">
        <ele>112.6</ele>
        <time>2023-03-19T09:32:43Z</time>
      </trkpt>
      <trkpt lat="46.56513" lon="0.67875">
        <ele>113</ele>
        <time>2023-03-19T09:32:45Z</time>
      </trkpt>
      <trkpt lat="46.56519" lon="0.67886">
        <ele>114.2</ele>
        <time>2023-03-19T09:32:51Z</time>
      </trkpt>
      <trkpt lat="46.56523" lon="0.67893">
        <ele>114.8</ele>
        <time>2023-03-19T09:32:55Z</time>
      </trkpt>
      <trkpt lat="46.56525" lon="0.67897">
        <ele>115.4</ele>
        <time>2023-03-19T09:32:57Z</time>
      </trkpt>
      <trkpt lat="46.56526" lon="0.67899">
        <ele>115.6</ele>
        <time>2023-03-19T09:32:58Z</time>
      </trkpt>
      <trkpt lat="46.56535" lon="0.67912">
        <ele>116.4</ele>
        <time>2023-03-19T09:33:05Z</time>
      </trkpt>
      <trkpt lat="46.56537" lon="0.67916">
        <ele>116.8</ele>
        <time>2023-03-19T09:33:07Z</time>
      </trkpt>
      <trkpt lat="46.56541" lon="0.67923">
        <ele>117.4</ele>
        <time>2023-03-19T09:33:11Z</time>
      </trkpt>
      <trkpt lat="46.56549" lon="0.67938">
        <ele>118</ele>
        <time>2023-03-19T09:33:17Z</time>
      </trkpt>
      <trkpt lat="46.5656" lon="0.67954">
        <ele>118.2</ele>
        <time>2023-03-19T09:33:24Z</time>
      </trkpt>
      <trkpt lat="46.56574" lon="0.67975">
        <ele>118.2</ele>
        <time>2023-03-19T09:33:32Z</time>
      </trkpt>
      <trkpt lat="46.56577" lon="0.67978">
        <ele>118.2</ele>
        <time>2023-03-19T09:33:34Z</time>
      </trkpt>
      <trkpt lat="46.5658" lon="0.67983">
        <ele>118.2</ele>
        <time>2023-03-19T09:33:38Z</time>
      </trkpt>
      <trkpt lat="46.56582" lon="0.67984">
        <ele>118.2</ele>
        <time>2023-03-19T09:33:39Z</time>
      </trkpt>
      <trkpt lat="46.56594" lon="0.67998">
        <ele>118.4</ele>
        <time>2023-03-19T09:33:49Z</time>
      </trkpt>
      <trkpt lat="46.56598" lon="0.68003">
        <ele>118.4</ele>
        <time>2023-03-19T09:33:52Z</time>
      </trkpt>
      <trkpt lat="46.56604" lon="0.68009">
        <ele>118.6</ele>
        <time>2023-03-19T09:33:55Z</time>
      </trkpt>
      <trkpt lat="46.56613" lon="0.68017">
        <ele>119</ele>
        <time>2023-03-19T09:34:01Z</time>
      </trkpt>
      <trkpt lat="46.56625" lon="0.68027">
        <ele>119.6</ele>
        <time>2023-03-19T09:34:08Z</time>
      </trkpt>
      <trkpt lat="46.56636" lon="0.68038">
        <ele>119.6</ele>
        <time>2023-03-19T09:34:14Z</time>
      </trkpt>
      <trkpt lat="46.56637" lon="0.68039">
        <ele>119.8</ele>
        <time>2023-03-19T09:34:15Z</time>
      </trkpt>
      <trkpt lat="46.56644" lon="0.68039">
        <ele>119.8</ele>
        <time>2023-03-19T09:34:18Z</time>
      </trkpt>
      <trkpt lat="46.56646" lon="0.68039">
        <ele>119.6</ele>
        <time>2023-03-19T09:34:19Z</time>
      </trkpt>
      <trkpt lat="46.56651" lon="0.68038">
        <ele>119.2</ele>
        <time>2023-03-19T09:34:24Z</time>
      </trkpt>
      <trkpt lat="46.56657" lon="0.68035">
        <ele>119</ele>
        <time>2023-03-19T09:34:30Z</time>
      </trkpt>
      <trkpt lat="46.56661" lon="0.68033">
        <ele>118.8</ele>
        <time>2023-03-19T09:34:32Z</time>
      </trkpt>
      <trkpt lat="46.56665" lon="0.68032">
        <ele>118.6</ele>
        <time>2023-03-19T09:34:34Z</time>
      </trkpt>
      <trkpt lat="46.56666" lon="0.6803">
        <ele>118.6</ele>
        <time>2023-03-19T09:34:35Z</time>
      </trkpt>
      <trkpt lat="46.5667" lon="0.68017">
        <ele>118.8</ele>
        <time>2023-03-19T09:34:40Z</time>
      </trkpt>
      <trkpt lat="46.56672" lon="0.68012">
        <ele>118.8</ele>
        <time>2023-03-19T09:34:43Z</time>
      </trkpt>
      <trkpt lat="46.56673" lon="0.68006">
        <ele>119.2</ele>
        <time>2023-03-19T09:34:45Z</time>
      </trkpt>
      <trkpt lat="46.56675" lon="0.67992">
        <ele>119.4</ele>
        <time>2023-03-19T09:34:51Z</time>
      </trkpt>
      <trkpt lat="46.56673" lon="0.67981">
        <ele>119.6</ele>
        <time>2023-03-19T09:34:57Z</time>
      </trkpt>
      <trkpt lat="46.56673" lon="0.67975">
        <ele>119.6</ele>
        <time>2023-03-19T09:34:59Z</time>
      </trkpt>
      <trkpt lat="46.56676" lon="0.67966">
        <ele>119.6</ele>
        <time>2023-03-19T09:35:03Z</time>
      </trkpt>
      <trkpt lat="46.56676" lon="0.67958">
        <ele>119.4</ele>
        <time>2023-03-19T09:35:07Z</time>
      </trkpt>
      <trkpt lat="46.56677" lon="0.67952">
        <ele>119.4</ele>
        <time>2023-03-19T09:35:09Z</time>
      </trkpt>
      <trkpt lat="46.56679" lon="0.67947">
        <ele>119.2</ele>
        <time>2023-03-19T09:35:11Z</time>
      </trkpt>
      <trkpt lat="46.56682" lon="0.6794">
        <ele>118.4</ele>
        <time>2023-03-19T09:35:14Z</time>
      </trkpt>
      <trkpt lat="46.56683" lon="0.67938">
        <ele>118.2</ele>
        <time>2023-03-19T09:35:15Z</time>
      </trkpt>
      <trkpt lat="46.56686" lon="0.67923">
        <ele>118</ele>
        <time>2023-03-19T09:35:21Z</time>
      </trkpt>
      <trkpt lat="46.56685" lon="0.6792">
        <ele>117.8</ele>
        <time>2023-03-19T09:35:23Z</time>
      </trkpt>
      <trkpt lat="46.56686" lon="0.67913">
        <ele>117</ele>
        <time>2023-03-19T09:35:26Z</time>
      </trkpt>
      <trkpt lat="46.56687" lon="0.67907">
        <ele>116.8</ele>
        <time>2023-03-19T09:35:28Z</time>
      </trkpt>
      <trkpt lat="46.56686" lon="0.67896">
        <ele>116</ele>
        <time>2023-03-19T09:35:32Z</time>
      </trkpt>
      <trkpt lat="46.56686" lon="0.67878">
        <ele>114.8</ele>
        <time>2023-03-19T09:35:36Z</time>
      </trkpt>
      <trkpt lat="46.56685" lon="0.67874">
        <ele>114.6</ele>
        <time>2023-03-19T09:35:37Z</time>
      </trkpt>
      <trkpt lat="46.56684" lon="0.67869">
        <ele>114</ele>
        <time>2023-03-19T09:35:38Z</time>
      </trkpt>
      <trkpt lat="46.56684" lon="0.67865">
        <ele>113.4</ele>
        <time>2023-03-19T09:35:39Z</time>
      </trkpt>
      <trkpt lat="46.56685" lon="0.67857">
        <ele>111.8</ele>
        <time>2023-03-19T09:35:41Z</time>
      </trkpt>
      <trkpt lat="46.56685" lon="0.67852">
        <ele>111.4</ele>
        <time>2023-03-19T09:35:42Z</time>
      </trkpt>
      <trkpt lat="46.56686" lon="0.67843">
        <ele>110.6</ele>
        <time>2023-03-19T09:35:44Z</time>
      </trkpt>
      <trkpt lat="46.56692" lon="0.67827">
        <ele>109.6</ele>
        <time>2023-03-19T09:35:48Z</time>
      </trkpt>
      <trkpt lat="46.56694" lon="0.67823">
        <ele>109.6</ele>
        <time>2023-03-19T09:35:49Z</time>
      </trkpt>
      <trkpt lat="46.56702" lon="0.67806">
        <ele>108.6</ele>
        <time>2023-03-19T09:35:53Z</time>
      </trkpt>
      <trkpt lat="46.56705" lon="0.67802">
        <ele>108.2</ele>
        <time>2023-03-19T09:35:54Z</time>
      </trkpt>
      <trkpt lat="46.56707" lon="0.67798">
        <ele>108</ele>
        <time>2023-03-19T09:35:55Z</time>
      </trkpt>
      <trkpt lat="46.56711" lon="0.67788">
        <ele>107.2</ele>
        <time>2023-03-19T09:35:57Z</time>
      </trkpt>
      <trkpt lat="46.56713" lon="0.67783">
        <ele>106.8</ele>
        <time>2023-03-19T09:35:58Z</time>
      </trkpt>
      <trkpt lat="46.56714" lon="0.67778">
        <ele>106</ele>
        <time>2023-03-19T09:35:59Z</time>
      </trkpt>
      <trkpt lat="46.5672" lon="0.67764">
        <ele>105</ele>
        <time>2023-03-19T09:36:02Z</time>
      </trkpt>
      <trkpt lat="46.56727" lon="0.67748">
        <ele>103.8</ele>
        <time>2023-03-19T09:36:06Z</time>
      </trkpt>
      <trkpt lat="46.56732" lon="0.67739">
        <ele>103.6</ele>
        <time>2023-03-19T09:36:08Z</time>
      </trkpt>
      <trkpt lat="46.5674" lon="0.67718">
        <ele>103</ele>
        <time>2023-03-19T09:36:14Z</time>
      </trkpt>
      <trkpt lat="46.56744" lon="0.67711">
        <ele>102.8</ele>
        <time>2023-03-19T09:36:17Z</time>
      </trkpt>
      <trkpt lat="46.5675" lon="0.67703">
        <ele>101.6</ele>
        <time>2023-03-19T09:36:21Z</time>
      </trkpt>
      <trkpt lat="46.56754" lon="0.677">
        <ele>100.6</ele>
        <time>2023-03-19T09:36:23Z</time>
      </trkpt>
      <trkpt lat="46.56758" lon="0.67697">
        <ele>99.2</ele>
        <time>2023-03-19T09:36:26Z</time>
      </trkpt>
      <trkpt lat="46.5676" lon="0.67696">
        <ele>98.6</ele>
        <time>2023-03-19T09:36:27Z</time>
      </trkpt>
      <trkpt lat="46.56761" lon="0.67694">
        <ele>98</ele>
        <time>2023-03-19T09:36:28Z</time>
      </trkpt>
      <trkpt lat="46.56766" lon="0.67691">
        <ele>97</ele>
        <time>2023-03-19T09:36:32Z</time>
      </trkpt>
      <trkpt lat="46.5677" lon="0.67689">
        <ele>96.8</ele>
        <time>2023-03-19T09:36:35Z</time>
      </trkpt>
      <trkpt lat="46.56771" lon="0.67688">
        <ele>96.8</ele>
        <time>2023-03-19T09:36:37Z</time>
      </trkpt>
      <trkpt lat="46.56773" lon="0.67689">
        <ele>97</ele>
        <time>2023-03-19T09:36:39Z</time>
      </trkpt>
      <trkpt lat="46.56776" lon="0.67688">
        <ele>98</ele>
        <time>2023-03-19T09:36:43Z</time>
      </trkpt>
      <trkpt lat="46.56777" lon="0.67687">
        <ele>98.2</ele>
        <time>2023-03-19T09:36:44Z</time>
      </trkpt>
      <trkpt lat="46.56778" lon="0.67685">
        <ele>98.2</ele>
        <time>2023-03-19T09:36:45Z</time>
      </trkpt>
      <trkpt lat="46.5678" lon="0.67683">
        <ele>98.2</ele>
        <time>2023-03-19T09:36:46Z</time>
      </trkpt>
      <trkpt lat="46.56786" lon="0.67673">
        <ele>96.6</ele>
        <time>2023-03-19T09:36:51Z</time>
      </trkpt>
      <trkpt lat="46.56788" lon="0.67668">
        <ele>96</ele>
        <time>2023-03-19T09:36:53Z</time>
      </trkpt>
      <trkpt lat="46.5679" lon="0.67664">
        <ele>95.8</ele>
        <time>2023-03-19T09:36:54Z</time>
      </trkpt>
      <trkpt lat="46.56791" lon="0.67661">
        <ele>95.6</ele>
        <time>2023-03-19T09:36:55Z</time>
      </trkpt>
      <trkpt lat="46.56797" lon="0.67646">
        <ele>95.4</ele>
        <time>2023-03-19T09:37:00Z</time>
      </trkpt>
      <trkpt lat="46.568" lon="0.6762">
        <ele>94.6</ele>
        <time>2023-03-19T09:37:06Z</time>
      </trkpt>
      <trkpt lat="46.568" lon="0.67616">
        <ele>94.6</ele>
        <time>2023-03-19T09:37:07Z</time>
      </trkpt>
      <trkpt lat="46.56805" lon="0.67598">
        <ele>93.6</ele>
        <time>2023-03-19T09:37:12Z</time>
      </trkpt>
      <trkpt lat="46.56808" lon="0.67592">
        <ele>92.8</ele>
        <time>2023-03-19T09:37:15Z</time>
      </trkpt>
      <trkpt lat="46.56809" lon="0.6759">
        <ele>92.6</ele>
        <time>2023-03-19T09:37:16Z</time>
      </trkpt>
      <trkpt lat="46.5681" lon="0.67583">
        <ele>92.2</ele>
        <time>2023-03-19T09:37:18Z</time>
      </trkpt>
      <trkpt lat="46.56812" lon="0.67575">
        <ele>91.8</ele>
        <time>2023-03-19T09:37:21Z</time>
      </trkpt>
      <trkpt lat="46.56814" lon="0.67566">
        <ele>91.2</ele>
        <time>2023-03-19T09:37:23Z</time>
      </trkpt>
      <trkpt lat="46.56816" lon="0.67553">
        <ele>90.2</ele>
        <time>2023-03-19T09:37:27Z</time>
      </trkpt>
      <trkpt lat="46.56818" lon="0.67551">
        <ele>90</ele>
        <time>2023-03-19T09:37:28Z</time>
      </trkpt>
      <trkpt lat="46.5682" lon="0.67544">
        <ele>89.8</ele>
        <time>2023-03-19T09:37:31Z</time>
      </trkpt>
      <trkpt lat="46.56822" lon="0.6754">
        <ele>89.8</ele>
        <time>2023-03-19T09:37:33Z</time>
      </trkpt>
      <trkpt lat="46.56826" lon="0.67534">
        <ele>90.4</ele>
        <time>2023-03-19T09:37:39Z</time>
      </trkpt>
      <trkpt lat="46.5683" lon="0.67531">
        <ele>91.2</ele>
        <time>2023-03-19T09:37:45Z</time>
      </trkpt>
      <trkpt lat="46.5683" lon="0.67531">
        <ele>91.2</ele>
        <time>2023-03-19T09:37:46Z</time>
      </trkpt>
      <trkpt lat="46.56835" lon="0.67527">
        <ele>91.2</ele>
        <time>2023-03-19T09:37:59Z</time>
      </trkpt>
      <trkpt lat="46.56839" lon="0.67522">
        <ele>91.2</ele>
        <time>2023-03-19T09:38:14Z</time>
      </trkpt>
      <trkpt lat="46.5684" lon="0.67522">
        <ele>91.2</ele>
        <time>2023-03-19T09:38:16Z</time>
      </trkpt>
      <trkpt lat="46.56844" lon="0.67521">
        <ele>91.2</ele>
        <time>2023-03-19T09:38:21Z</time>
      </trkpt>
      <trkpt lat="46.56847" lon="0.6752">
        <ele>92.2</ele>
        <time>2023-03-19T09:38:24Z</time>
      </trkpt>
      <trkpt lat="46.56849" lon="0.6752">
        <ele>92.8</ele>
        <time>2023-03-19T09:38:26Z</time>
      </trkpt>
      <trkpt lat="46.56851" lon="0.67516">
        <ele>93.4</ele>
        <time>2023-03-19T09:38:29Z</time>
      </trkpt>
      <trkpt lat="46.56854" lon="0.67508">
        <ele>93.8</ele>
        <time>2023-03-19T09:38:34Z</time>
      </trkpt>
      <trkpt lat="46.56854" lon="0.67505">
        <ele>93.8</ele>
        <time>2023-03-19T09:38:35Z</time>
      </trkpt>
      <trkpt lat="46.56857" lon="0.67493">
        <ele>94.6</ele>
        <time>2023-03-19T09:38:40Z</time>
      </trkpt>
      <trkpt lat="46.56858" lon="0.67482">
        <ele>95.2</ele>
        <time>2023-03-19T09:38:44Z</time>
      </trkpt>
      <trkpt lat="46.56858" lon="0.6748">
        <ele>95.8</ele>
        <time>2023-03-19T09:38:45Z</time>
      </trkpt>
      <trkpt lat="46.56857" lon="0.67467">
        <ele>96.8</ele>
        <time>2023-03-19T09:38:50Z</time>
      </trkpt>
      <trkpt lat="46.56856" lon="0.67457">
        <ele>97.6</ele>
        <time>2023-03-19T09:38:55Z</time>
      </trkpt>
      <trkpt lat="46.56855" lon="0.67453">
        <ele>97.8</ele>
        <time>2023-03-19T09:38:57Z</time>
      </trkpt>
      <trkpt lat="46.56849" lon="0.6743">
        <ele>99</ele>
        <time>2023-03-19T09:39:06Z</time>
      </trkpt>
      <trkpt lat="46.56848" lon="0.67427">
        <ele>99.2</ele>
        <time>2023-03-19T09:39:07Z</time>
      </trkpt>
      <trkpt lat="46.56843" lon="0.67408">
        <ele>100</ele>
        <time>2023-03-19T09:39:14Z</time>
      </trkpt>
      <trkpt lat="46.56842" lon="0.67405">
        <ele>100.2</ele>
        <time>2023-03-19T09:39:15Z</time>
      </trkpt>
      <trkpt lat="46.56835" lon="0.67385">
        <ele>100.6</ele>
        <time>2023-03-19T09:39:22Z</time>
      </trkpt>
      <trkpt lat="46.5683" lon="0.67363">
        <ele>101</ele>
        <time>2023-03-19T09:39:29Z</time>
      </trkpt>
      <trkpt lat="46.56829" lon="0.6736">
        <ele>101.4</ele>
        <time>2023-03-19T09:39:30Z</time>
      </trkpt>
      <trkpt lat="46.56824" lon="0.67345">
        <ele>102.2</ele>
        <time>2023-03-19T09:39:35Z</time>
      </trkpt>
      <trkpt lat="46.5682" lon="0.67334">
        <ele>102.6</ele>
        <time>2023-03-19T09:39:39Z</time>
      </trkpt>
      <trkpt lat="46.56816" lon="0.67326">
        <ele>102.8</ele>
        <time>2023-03-19T09:39:41Z</time>
      </trkpt>
      <trkpt lat="46.56808" lon="0.67311">
        <ele>103.4</ele>
        <time>2023-03-19T09:39:47Z</time>
      </trkpt>
      <trkpt lat="46.56805" lon="0.67302">
        <ele>103.6</ele>
        <time>2023-03-19T09:39:50Z</time>
      </trkpt>
      <trkpt lat="46.56802" lon="0.6729">
        <ele>104</ele>
        <time>2023-03-19T09:39:53Z</time>
      </trkpt>
      <trkpt lat="46.56797" lon="0.6727">
        <ele>104.8</ele>
        <time>2023-03-19T09:39:58Z</time>
      </trkpt>
      <trkpt lat="46.56796" lon="0.67267">
        <ele>104.8</ele>
        <time>2023-03-19T09:39:59Z</time>
      </trkpt>
      <trkpt lat="46.56792" lon="0.67243">
        <ele>105.6</ele>
        <time>2023-03-19T09:40:06Z</time>
      </trkpt>
      <trkpt lat="46.56788" lon="0.67219">
        <ele>105.6</ele>
        <time>2023-03-19T09:40:12Z</time>
      </trkpt>
      <trkpt lat="46.56782" lon="0.67192">
        <ele>105</ele>
        <time>2023-03-19T09:40:19Z</time>
      </trkpt>
      <trkpt lat="46.56778" lon="0.67163">
        <ele>105</ele>
        <time>2023-03-19T09:40:25Z</time>
      </trkpt>
      <trkpt lat="46.56774" lon="0.67132">
        <ele>105</ele>
        <time>2023-03-19T09:40:31Z</time>
      </trkpt>
      <trkpt lat="46.56772" lon="0.67119">
        <ele>104.8</ele>
        <time>2023-03-19T09:40:33Z</time>
      </trkpt>
      <trkpt lat="46.56769" lon="0.67098">
        <ele>104.8</ele>
        <time>2023-03-19T09:40:36Z</time>
      </trkpt>
      <trkpt lat="46.56768" lon="0.67091">
        <ele>104.4</ele>
        <time>2023-03-19T09:40:37Z</time>
      </trkpt>
      <trkpt lat="46.56765" lon="0.67073">
        <ele>103.8</ele>
        <time>2023-03-19T09:40:40Z</time>
      </trkpt>
      <trkpt lat="46.56764" lon="0.67067">
        <ele>103.6</ele>
        <time>2023-03-19T09:40:41Z</time>
      </trkpt>
      <trkpt lat="46.56764" lon="0.67061">
        <ele>103.6</ele>
        <time>2023-03-19T09:40:42Z</time>
      </trkpt>
      <trkpt lat="46.56761" lon="0.6704">
        <ele>102.4</ele>
        <time>2023-03-19T09:40:45Z</time>
      </trkpt>
      <trkpt lat="46.56755" lon="0.67033">
        <ele>101.2</ele>
        <time>2023-03-19T09:40:47Z</time>
      </trkpt>
      <trkpt lat="46.56744" lon="0.67027">
        <ele>100</ele>
        <time>2023-03-19T09:40:50Z</time>
      </trkpt>
      <trkpt lat="46.56739" lon="0.67023">
        <ele>99</ele>
        <time>2023-03-19T09:40:52Z</time>
      </trkpt>
      <trkpt lat="46.56738" lon="0.67019">
        <ele>98.8</ele>
        <time>2023-03-19T09:40:53Z</time>
      </trkpt>
      <trkpt lat="46.56737" lon="0.67014">
        <ele>98.6</ele>
        <time>2023-03-19T09:40:55Z</time>
      </trkpt>
      <trkpt lat="46.56737" lon="0.67011">
        <ele>98.6</ele>
        <time>2023-03-19T09:40:56Z</time>
      </trkpt>
      <trkpt lat="46.56736" lon="0.66998">
        <ele>98</ele>
        <time>2023-03-19T09:41:00Z</time>
      </trkpt>
      <trkpt lat="46.56738" lon="0.66994">
        <ele>97.8</ele>
        <time>2023-03-19T09:41:01Z</time>
      </trkpt>
      <trkpt lat="46.56739" lon="0.66992">
        <ele>97.8</ele>
        <time>2023-03-19T09:41:02Z</time>
      </trkpt>
      <trkpt lat="46.56745" lon="0.66989">
        <ele>98</ele>
        <time>2023-03-19T09:41:05Z</time>
      </trkpt>
      <trkpt lat="46.56746" lon="0.66988">
        <ele>98</ele>
        <time>2023-03-19T09:41:07Z</time>
      </trkpt>
      <trkpt lat="46.56751" lon="0.66979">
        <ele>98.6</ele>
        <time>2023-03-19T09:41:11Z</time>
      </trkpt>
      <trkpt lat="46.56761" lon="0.66966">
        <ele>98.2</ele>
        <time>2023-03-19T09:41:17Z</time>
      </trkpt>
      <trkpt lat="46.56773" lon="0.66956">
        <ele>98.2</ele>
        <time>2023-03-19T09:41:23Z</time>
      </trkpt>
      <trkpt lat="46.56775" lon="0.66954">
        <ele>98</ele>
        <time>2023-03-19T09:41:24Z</time>
      </trkpt>
      <trkpt lat="46.56788" lon="0.66945">
        <ele>97.2</ele>
        <time>2023-03-19T09:41:29Z</time>
      </trkpt>
      <trkpt lat="46.56795" lon="0.66939">
        <ele>96.8</ele>
        <time>2023-03-19T09:41:32Z</time>
      </trkpt>
      <trkpt lat="46.56803" lon="0.66933">
        <ele>96.6</ele>
        <time>2023-03-19T09:41:35Z</time>
      </trkpt>
      <trkpt lat="46.56809" lon="0.66928">
        <ele>96</ele>
        <time>2023-03-19T09:41:38Z</time>
      </trkpt>
      <trkpt lat="46.56813" lon="0.66926">
        <ele>95.8</ele>
        <time>2023-03-19T09:41:40Z</time>
      </trkpt>
      <trkpt lat="46.56815" lon="0.66926">
        <ele>95.8</ele>
        <time>2023-03-19T09:41:41Z</time>
      </trkpt>
      <trkpt lat="46.56817" lon="0.66924">
        <ele>95.6</ele>
        <time>2023-03-19T09:41:43Z</time>
      </trkpt>
      <trkpt lat="46.56822" lon="0.6692">
        <ele>95.4</ele>
        <time>2023-03-19T09:41:45Z</time>
      </trkpt>
      <trkpt lat="46.56826" lon="0.66915">
        <ele>94.8</ele>
        <time>2023-03-19T09:41:47Z</time>
      </trkpt>
      <trkpt lat="46.56829" lon="0.66914">
        <ele>94.4</ele>
        <time>2023-03-19T09:41:48Z</time>
      </trkpt>
      <trkpt lat="46.56834" lon="0.6691">
        <ele>93.8</ele>
        <time>2023-03-19T09:41:50Z</time>
      </trkpt>
      <trkpt lat="46.5684" lon="0.66907">
        <ele>93.4</ele>
        <time>2023-03-19T09:41:53Z</time>
      </trkpt>
      <trkpt lat="46.56842" lon="0.66906">
        <ele>93.4</ele>
        <time>2023-03-19T09:41:54Z</time>
      </trkpt>
      <trkpt lat="46.56845" lon="0.66905">
        <ele>93.4</ele>
        <time>2023-03-19T09:41:55Z</time>
      </trkpt>
      <trkpt lat="46.56851" lon="0.66904">
        <ele>93.6</ele>
        <time>2023-03-19T09:41:58Z</time>
      </trkpt>
      <trkpt lat="46.56857" lon="0.66906">
        <ele>93.8</ele>
        <time>2023-03-19T09:42:01Z</time>
      </trkpt>
      <trkpt lat="46.56861" lon="0.66906">
        <ele>94.6</ele>
        <time>2023-03-19T09:42:03Z</time>
      </trkpt>
      <trkpt lat="46.56867" lon="0.66905">
        <ele>95</ele>
        <time>2023-03-19T09:42:06Z</time>
      </trkpt>
      <trkpt lat="46.56868" lon="0.66905">
        <ele>95</ele>
        <time>2023-03-19T09:42:07Z</time>
      </trkpt>
      <trkpt lat="46.56876" lon="0.66906">
        <ele>95.4</ele>
        <time>2023-03-19T09:42:12Z</time>
      </trkpt>
      <trkpt lat="46.5688" lon="0.66906">
        <ele>95.8</ele>
        <time>2023-03-19T09:42:14Z</time>
      </trkpt>
      <trkpt lat="46.56885" lon="0.66906">
        <ele>96.4</ele>
        <time>2023-03-19T09:42:17Z</time>
      </trkpt>
      <trkpt lat="46.56888" lon="0.66906">
        <ele>96.8</ele>
        <time>2023-03-19T09:42:19Z</time>
      </trkpt>
      <trkpt lat="46.5689" lon="0.66907">
        <ele>96.8</ele>
        <time>2023-03-19T09:42:20Z</time>
      </trkpt>
      <trkpt lat="46.56893" lon="0.66908">
        <ele>97.2</ele>
        <time>2023-03-19T09:42:22Z</time>
      </trkpt>
      <trkpt lat="46.56895" lon="0.66907">
        <ele>97.2</ele>
        <time>2023-03-19T09:42:23Z</time>
      </trkpt>
      <trkpt lat="46.56903" lon="0.66903">
        <ele>96.4</ele>
        <time>2023-03-19T09:42:27Z</time>
      </trkpt>
      <trkpt lat="46.56905" lon="0.66902">
        <ele>96</ele>
        <time>2023-03-19T09:42:28Z</time>
      </trkpt>
      <trkpt lat="46.56909" lon="0.66902">
        <ele>95.6</ele>
        <time>2023-03-19T09:42:30Z</time>
      </trkpt>
      <trkpt lat="46.56913" lon="0.66903">
        <ele>95.6</ele>
        <time>2023-03-19T09:42:32Z</time>
      </trkpt>
      <trkpt lat="46.56915" lon="0.66904">
        <ele>95.6</ele>
        <time>2023-03-19T09:42:33Z</time>
      </trkpt>
      <trkpt lat="46.56917" lon="0.66905">
        <ele>95.6</ele>
        <time>2023-03-19T09:42:34Z</time>
      </trkpt>
      <trkpt lat="46.56919" lon="0.66905">
        <ele>95.6</ele>
        <time>2023-03-19T09:42:36Z</time>
      </trkpt>
      <trkpt lat="46.56925" lon="0.66908">
        <ele>96.2</ele>
        <time>2023-03-19T09:42:38Z</time>
      </trkpt>
      <trkpt lat="46.56932" lon="0.66913">
        <ele>96.8</ele>
        <time>2023-03-19T09:42:42Z</time>
      </trkpt>
      <trkpt lat="46.56935" lon="0.66911">
        <ele>97</ele>
        <time>2023-03-19T09:42:44Z</time>
      </trkpt>
      <trkpt lat="46.56945" lon="0.66906">
        <ele>96</ele>
        <time>2023-03-19T09:42:50Z</time>
      </trkpt>
      <trkpt lat="46.56946" lon="0.66907">
        <ele>95.6</ele>
        <time>2023-03-19T09:42:51Z</time>
      </trkpt>
      <trkpt lat="46.56948" lon="0.66909">
        <ele>95.4</ele>
        <time>2023-03-19T09:42:53Z</time>
      </trkpt>
      <trkpt lat="46.56951" lon="0.66913">
        <ele>95.4</ele>
        <time>2023-03-19T09:42:55Z</time>
      </trkpt>
      <trkpt lat="46.56952" lon="0.66914">
        <ele>95.6</ele>
        <time>2023-03-19T09:42:56Z</time>
      </trkpt>
      <trkpt lat="46.56962" lon="0.66927">
        <ele>96.4</ele>
        <time>2023-03-19T09:43:03Z</time>
      </trkpt>
      <trkpt lat="46.56963" lon="0.66929">
        <ele>96.8</ele>
        <time>2023-03-19T09:43:04Z</time>
      </trkpt>
      <trkpt lat="46.56963" lon="0.66931">
        <ele>96.8</ele>
        <time>2023-03-19T09:43:05Z</time>
      </trkpt>
      <trkpt lat="46.56963" lon="0.66932">
        <ele>97.2</ele>
        <time>2023-03-19T09:43:07Z</time>
      </trkpt>
      <trkpt lat="46.56964" lon="0.66934">
        <ele>97.6</ele>
        <time>2023-03-19T09:43:09Z</time>
      </trkpt>
      <trkpt lat="46.56966" lon="0.66934">
        <ele>97.8</ele>
        <time>2023-03-19T09:43:12Z</time>
      </trkpt>
      <trkpt lat="46.56968" lon="0.66936">
        <ele>97.6</ele>
        <time>2023-03-19T09:43:14Z</time>
      </trkpt>
      <trkpt lat="46.56972" lon="0.66942">
        <ele>97.2</ele>
        <time>2023-03-19T09:43:19Z</time>
      </trkpt>
      <trkpt lat="46.56973" lon="0.66942">
        <ele>97.2</ele>
        <time>2023-03-19T09:43:20Z</time>
      </trkpt>
      <trkpt lat="46.56975" lon="0.66944">
        <ele>97</ele>
        <time>2023-03-19T09:43:22Z</time>
      </trkpt>
      <trkpt lat="46.56978" lon="0.6694">
        <ele>96.2</ele>
        <time>2023-03-19T09:43:26Z</time>
      </trkpt>
      <trkpt lat="46.56979" lon="0.66935">
        <ele>95.2</ele>
        <time>2023-03-19T09:43:29Z</time>
      </trkpt>
      <trkpt lat="46.5698" lon="0.66934">
        <ele>94.8</ele>
        <time>2023-03-19T09:43:30Z</time>
      </trkpt>
      <trkpt lat="46.56981" lon="0.6693">
        <ele>94.2</ele>
        <time>2023-03-19T09:43:32Z</time>
      </trkpt>
      <trkpt lat="46.56981" lon="0.66928">
        <ele>93.8</ele>
        <time>2023-03-19T09:43:33Z</time>
      </trkpt>
      <trkpt lat="46.56983" lon="0.66925">
        <ele>92.8</ele>
        <time>2023-03-19T09:43:35Z</time>
      </trkpt>
      <trkpt lat="46.56987" lon="0.66921">
        <ele>91.2</ele>
        <time>2023-03-19T09:43:38Z</time>
      </trkpt>
      <trkpt lat="46.56989" lon="0.6692">
        <ele>90.8</ele>
        <time>2023-03-19T09:43:39Z</time>
      </trkpt>
      <trkpt lat="46.56992" lon="0.66916">
        <ele>90</ele>
        <time>2023-03-19T09:43:41Z</time>
      </trkpt>
      <trkpt lat="46.56993" lon="0.66915">
        <ele>89.8</ele>
        <time>2023-03-19T09:43:42Z</time>
      </trkpt>
      <trkpt lat="46.56995" lon="0.66914">
        <ele>89.4</ele>
        <time>2023-03-19T09:43:43Z</time>
      </trkpt>
      <trkpt lat="46.56996" lon="0.66913">
        <ele>88.4</ele>
        <time>2023-03-19T09:43:44Z</time>
      </trkpt>
      <trkpt lat="46.57003" lon="0.66905">
        <ele>87.6</ele>
        <time>2023-03-19T09:43:49Z</time>
      </trkpt>
      <trkpt lat="46.57003" lon="0.66903">
        <ele>86.8</ele>
        <time>2023-03-19T09:43:50Z</time>
      </trkpt>
      <trkpt lat="46.57004" lon="0.66895">
        <ele>85.4</ele>
        <time>2023-03-19T09:43:53Z</time>
      </trkpt>
      <trkpt lat="46.57005" lon="0.6689">
        <ele>84.6</ele>
        <time>2023-03-19T09:43:55Z</time>
      </trkpt>
      <trkpt lat="46.57005" lon="0.66888">
        <ele>84</ele>
        <time>2023-03-19T09:43:56Z</time>
      </trkpt>
      <trkpt lat="46.57004" lon="0.66877">
        <ele>83</ele>
        <time>2023-03-19T09:44:00Z</time>
      </trkpt>
      <trkpt lat="46.57003" lon="0.66876">
        <ele>83</ele>
        <time>2023-03-19T09:44:01Z</time>
      </trkpt>
      <trkpt lat="46.57004" lon="0.66875">
        <ele>82.8</ele>
        <time>2023-03-19T09:44:02Z</time>
      </trkpt>
      <trkpt lat="46.57004" lon="0.6687">
        <ele>82.6</ele>
        <time>2023-03-19T09:44:04Z</time>
      </trkpt>
      <trkpt lat="46.57002" lon="0.66862">
        <ele>82.4</ele>
        <time>2023-03-19T09:44:07Z</time>
      </trkpt>
      <trkpt lat="46.57001" lon="0.66857">
        <ele>81.8</ele>
        <time>2023-03-19T09:44:10Z</time>
      </trkpt>
      <trkpt lat="46.57" lon="0.6685">
        <ele>81.6</ele>
        <time>2023-03-19T09:44:16Z</time>
      </trkpt>
      <trkpt lat="46.56996" lon="0.66841">
        <ele>81.8</ele>
        <time>2023-03-19T09:44:25Z</time>
      </trkpt>
      <trkpt lat="46.56992" lon="0.66833">
        <ele>81.2</ele>
        <time>2023-03-19T09:44:29Z</time>
      </trkpt>
      <trkpt lat="46.56989" lon="0.66827">
        <ele>80.6</ele>
        <time>2023-03-19T09:44:32Z</time>
      </trkpt>
      <trkpt lat="46.56987" lon="0.66818">
        <ele>79.4</ele>
        <time>2023-03-19T09:44:36Z</time>
      </trkpt>
      <trkpt lat="46.56985" lon="0.66813">
        <ele>78.2</ele>
        <time>2023-03-19T09:44:38Z</time>
      </trkpt>
      <trkpt lat="46.56984" lon="0.66811">
        <ele>77.8</ele>
        <time>2023-03-19T09:44:39Z</time>
      </trkpt>
      <trkpt lat="46.56983" lon="0.66809">
        <ele>77.2</ele>
        <time>2023-03-19T09:44:41Z</time>
      </trkpt>
      <trkpt lat="46.56982" lon="0.66808">
        <ele>77.2</ele>
        <time>2023-03-19T09:44:42Z</time>
      </trkpt>
      <trkpt lat="46.56979" lon="0.66802">
        <ele>76.4</ele>
        <time>2023-03-19T09:44:47Z</time>
      </trkpt>
      <trkpt lat="46.56978" lon="0.66798">
        <ele>75.6</ele>
        <time>2023-03-19T09:44:50Z</time>
      </trkpt>
      <trkpt lat="46.56977" lon="0.66795">
        <ele>74.6</ele>
        <time>2023-03-19T09:44:53Z</time>
      </trkpt>
      <trkpt lat="46.56975" lon="0.66789">
        <ele>74</ele>
        <time>2023-03-19T09:44:57Z</time>
      </trkpt>
      <trkpt lat="46.56975" lon="0.66782">
        <ele>73.6</ele>
        <time>2023-03-19T09:44:59Z</time>
      </trkpt>
      <trkpt lat="46.56974" lon="0.66778">
        <ele>73.2</ele>
        <time>2023-03-19T09:45:00Z</time>
      </trkpt>
      <trkpt lat="46.56972" lon="0.66773">
        <ele>72.8</ele>
        <time>2023-03-19T09:45:01Z</time>
      </trkpt>
      <trkpt lat="46.56968" lon="0.66762">
        <ele>72.4</ele>
        <time>2023-03-19T09:45:03Z</time>
      </trkpt>
      <trkpt lat="46.5696" lon="0.66748">
        <ele>71.6</ele>
        <time>2023-03-19T09:45:05Z</time>
      </trkpt>
      <trkpt lat="46.5696" lon="0.66748">
        <ele>71</ele>
        <time>2023-03-19T09:45:06Z</time>
      </trkpt>
      <trkpt lat="46.56959" lon="0.66738">
        <ele>70</ele>
        <time>2023-03-19T09:45:08Z</time>
      </trkpt>
      <trkpt lat="46.5696" lon="0.66735">
        <ele>69.6</ele>
        <time>2023-03-19T09:45:09Z</time>
      </trkpt>
      <trkpt lat="46.56969" lon="0.66725">
        <ele>69</ele>
        <time>2023-03-19T09:45:13Z</time>
      </trkpt>
      <trkpt lat="46.56974" lon="0.66723">
        <ele>68.6</ele>
        <time>2023-03-19T09:45:15Z</time>
      </trkpt>
      <trkpt lat="46.56984" lon="0.66714">
        <ele>69</ele>
        <time>2023-03-19T09:45:20Z</time>
      </trkpt>
      <trkpt lat="46.56986" lon="0.66714">
        <ele>69</ele>
        <time>2023-03-19T09:45:21Z</time>
      </trkpt>
      <trkpt lat="46.56997" lon="0.66718">
        <ele>69.4</ele>
        <time>2023-03-19T09:45:26Z</time>
      </trkpt>
      <trkpt lat="46.57007" lon="0.66722">
        <ele>70</ele>
        <time>2023-03-19T09:45:32Z</time>
      </trkpt>
      <trkpt lat="46.57008" lon="0.66723">
        <ele>70.4</ele>
        <time>2023-03-19T09:45:33Z</time>
      </trkpt>
      <trkpt lat="46.57014" lon="0.66738">
        <ele>71</ele>
        <time>2023-03-19T09:45:39Z</time>
      </trkpt>
      <trkpt lat="46.57018" lon="0.66742">
        <ele>71.2</ele>
        <time>2023-03-19T09:45:41Z</time>
      </trkpt>
      <trkpt lat="46.57022" lon="0.66752">
        <ele>71.6</ele>
        <time>2023-03-19T09:45:44Z</time>
      </trkpt>
      <trkpt lat="46.57029" lon="0.66779">
        <ele>71.6</ele>
        <time>2023-03-19T09:45:51Z</time>
      </trkpt>
      <trkpt lat="46.57039" lon="0.66794">
        <ele>72</ele>
        <time>2023-03-19T09:45:57Z</time>
      </trkpt>
      <trkpt lat="46.57041" lon="0.66799">
        <ele>72.2</ele>
        <time>2023-03-19T09:45:59Z</time>
      </trkpt>
      <trkpt lat="46.57048" lon="0.66809">
        <ele>72.8</ele>
        <time>2023-03-19T09:46:03Z</time>
      </trkpt>
      <trkpt lat="46.57054" lon="0.66815">
        <ele>73.2</ele>
        <time>2023-03-19T09:46:06Z</time>
      </trkpt>
      <trkpt lat="46.57061" lon="0.66827">
        <ele>73.6</ele>
        <time>2023-03-19T09:46:10Z</time>
      </trkpt>
      <trkpt lat="46.57064" lon="0.66829">
        <ele>73.6</ele>
        <time>2023-03-19T09:46:11Z</time>
      </trkpt>
      <trkpt lat="46.57072" lon="0.66838">
        <ele>74</ele>
        <time>2023-03-19T09:46:15Z</time>
      </trkpt>
      <trkpt lat="46.57078" lon="0.66845">
        <ele>74.2</ele>
        <time>2023-03-19T09:46:18Z</time>
      </trkpt>
      <trkpt lat="46.57085" lon="0.66848">
        <ele>75</ele>
        <time>2023-03-19T09:46:22Z</time>
      </trkpt>
      <trkpt lat="46.57088" lon="0.6685">
        <ele>75.4</ele>
        <time>2023-03-19T09:46:24Z</time>
      </trkpt>
      <trkpt lat="46.57094" lon="0.66853">
        <ele>76.2</ele>
        <time>2023-03-19T09:46:28Z</time>
      </trkpt>
      <trkpt lat="46.57097" lon="0.66855">
        <ele>76.4</ele>
        <time>2023-03-19T09:46:29Z</time>
      </trkpt>
      <trkpt lat="46.57099" lon="0.66856">
        <ele>76.6</ele>
        <time>2023-03-19T09:46:30Z</time>
      </trkpt>
      <trkpt lat="46.57104" lon="0.66861">
        <ele>77.6</ele>
        <time>2023-03-19T09:46:34Z</time>
      </trkpt>
      <trkpt lat="46.57108" lon="0.66863">
        <ele>78.6</ele>
        <time>2023-03-19T09:46:37Z</time>
      </trkpt>
      <trkpt lat="46.5711" lon="0.66863">
        <ele>78.8</ele>
        <time>2023-03-19T09:46:38Z</time>
      </trkpt>
      <trkpt lat="46.57114" lon="0.66866">
        <ele>79.8</ele>
        <time>2023-03-19T09:46:41Z</time>
      </trkpt>
      <trkpt lat="46.57122" lon="0.66872">
        <ele>80.6</ele>
        <time>2023-03-19T09:46:47Z</time>
      </trkpt>
      <trkpt lat="46.57126" lon="0.66874">
        <ele>81.4</ele>
        <time>2023-03-19T09:46:49Z</time>
      </trkpt>
      <trkpt lat="46.57131" lon="0.66878">
        <ele>82.2</ele>
        <time>2023-03-19T09:46:53Z</time>
      </trkpt>
      <trkpt lat="46.57132" lon="0.66878">
        <ele>82.4</ele>
        <time>2023-03-19T09:46:54Z</time>
      </trkpt>
      <trkpt lat="46.57133" lon="0.66878">
        <ele>82.4</ele>
        <time>2023-03-19T09:46:55Z</time>
      </trkpt>
      <trkpt lat="46.57135" lon="0.66878">
        <ele>83</ele>
        <time>2023-03-19T09:46:57Z</time>
      </trkpt>
      <trkpt lat="46.57138" lon="0.66878">
        <ele>83.6</ele>
        <time>2023-03-19T09:47:01Z</time>
      </trkpt>
      <trkpt lat="46.57141" lon="0.66876">
        <ele>84.6</ele>
        <time>2023-03-19T09:47:06Z</time>
      </trkpt>
      <trkpt lat="46.57142" lon="0.66875">
        <ele>85</ele>
        <time>2023-03-19T09:47:10Z</time>
      </trkpt>
      <trkpt lat="46.57143" lon="0.66872">
        <ele>85.8</ele>
        <time>2023-03-19T09:47:15Z</time>
      </trkpt>
      <trkpt lat="46.57144" lon="0.66871">
        <ele>86</ele>
        <time>2023-03-19T09:47:17Z</time>
      </trkpt>
      <trkpt lat="46.57144" lon="0.66868">
        <ele>86.8</ele>
        <time>2023-03-19T09:47:23Z</time>
      </trkpt>
      <trkpt lat="46.57144" lon="0.66866">
        <ele>87</ele>
        <time>2023-03-19T09:47:25Z</time>
      </trkpt>
      <trkpt lat="46.57146" lon="0.66865">
        <ele>87.8</ele>
        <time>2023-03-19T09:47:32Z</time>
      </trkpt>
      <trkpt lat="46.57147" lon="0.66864">
        <ele>88.4</ele>
        <time>2023-03-19T09:47:37Z</time>
      </trkpt>
      <trkpt lat="46.57146" lon="0.6686">
        <ele>89</ele>
        <time>2023-03-19T09:47:42Z</time>
      </trkpt>
      <trkpt lat="46.57146" lon="0.66856">
        <ele>89.8</ele>
        <time>2023-03-19T09:47:48Z</time>
      </trkpt>
      <trkpt lat="46.57146" lon="0.66856">
        <ele>90</ele>
        <time>2023-03-19T09:47:49Z</time>
      </trkpt>
      <trkpt lat="46.57144" lon="0.66851">
        <ele>91</ele>
        <time>2023-03-19T09:47:55Z</time>
      </trkpt>
      <trkpt lat="46.57141" lon="0.66844">
        <ele>92.2</ele>
        <time>2023-03-19T09:48:03Z</time>
      </trkpt>
      <trkpt lat="46.5714" lon="0.66843">
        <ele>92.4</ele>
        <time>2023-03-19T09:48:05Z</time>
      </trkpt>
      <trkpt lat="46.57138" lon="0.6684">
        <ele>92.6</ele>
        <time>2023-03-19T09:48:09Z</time>
      </trkpt>
      <trkpt lat="46.57137" lon="0.66836">
        <ele>93</ele>
        <time>2023-03-19T09:48:17Z</time>
      </trkpt>
      <trkpt lat="46.57135" lon="0.66833">
        <ele>93</ele>
        <time>2023-03-19T09:48:20Z</time>
      </trkpt>
      <trkpt lat="46.57133" lon="0.6683">
        <ele>92.8</ele>
        <time>2023-03-19T09:48:23Z</time>
      </trkpt>
      <trkpt lat="46.57132" lon="0.66826">
        <ele>92.8</ele>
        <time>2023-03-19T09:48:27Z</time>
      </trkpt>
      <trkpt lat="46.57131" lon="0.66823">
        <ele>93.4</ele>
        <time>2023-03-19T09:48:30Z</time>
      </trkpt>
      <trkpt lat="46.57131" lon="0.66819">
        <ele>93.8</ele>
        <time>2023-03-19T09:48:32Z</time>
      </trkpt>
      <trkpt lat="46.5713" lon="0.66817">
        <ele>94.2</ele>
        <time>2023-03-19T09:48:33Z</time>
      </trkpt>
      <trkpt lat="46.57129" lon="0.66812">
        <ele>94.4</ele>
        <time>2023-03-19T09:48:35Z</time>
      </trkpt>
      <trkpt lat="46.57128" lon="0.66803">
        <ele>95.4</ele>
        <time>2023-03-19T09:48:39Z</time>
      </trkpt>
      <trkpt lat="46.57127" lon="0.6679">
        <ele>96.4</ele>
        <time>2023-03-19T09:48:44Z</time>
      </trkpt>
      <trkpt lat="46.57124" lon="0.66776">
        <ele>96.8</ele>
        <time>2023-03-19T09:48:50Z</time>
      </trkpt>
      <trkpt lat="46.57119" lon="0.66769">
        <ele>96.4</ele>
        <time>2023-03-19T09:48:53Z</time>
      </trkpt>
      <trkpt lat="46.57116" lon="0.66758">
        <ele>95.8</ele>
        <time>2023-03-19T09:48:56Z</time>
      </trkpt>
      <trkpt lat="46.57114" lon="0.66749">
        <ele>95.2</ele>
        <time>2023-03-19T09:48:59Z</time>
      </trkpt>
      <trkpt lat="46.57112" lon="0.66737">
        <ele>94.4</ele>
        <time>2023-03-19T09:49:02Z</time>
      </trkpt>
      <trkpt lat="46.57111" lon="0.66734">
        <ele>94.4</ele>
        <time>2023-03-19T09:49:03Z</time>
      </trkpt>
      <trkpt lat="46.57104" lon="0.6673">
        <ele>94.2</ele>
        <time>2023-03-19T09:49:05Z</time>
      </trkpt>
      <trkpt lat="46.57098" lon="0.66727">
        <ele>94.2</ele>
        <time>2023-03-19T09:49:07Z</time>
      </trkpt>
      <trkpt lat="46.57093" lon="0.66723">
        <ele>93.6</ele>
        <time>2023-03-19T09:49:09Z</time>
      </trkpt>
      <trkpt lat="46.5709" lon="0.6672">
        <ele>93.4</ele>
        <time>2023-03-19T09:49:10Z</time>
      </trkpt>
      <trkpt lat="46.57089" lon="0.66715">
        <ele>92.6</ele>
        <time>2023-03-19T09:49:11Z</time>
      </trkpt>
      <trkpt lat="46.57086" lon="0.66704">
        <ele>91.4</ele>
        <time>2023-03-19T09:49:13Z</time>
      </trkpt>
      <trkpt lat="46.57085" lon="0.66699">
        <ele>91</ele>
        <time>2023-03-19T09:49:14Z</time>
      </trkpt>
      <trkpt lat="46.57085" lon="0.66695">
        <ele>90.8</ele>
        <time>2023-03-19T09:49:15Z</time>
      </trkpt>
      <trkpt lat="46.57085" lon="0.6669">
        <ele>90.4</ele>
        <time>2023-03-19T09:49:16Z</time>
      </trkpt>
      <trkpt lat="46.57086" lon="0.6668">
        <ele>89.8</ele>
        <time>2023-03-19T09:49:18Z</time>
      </trkpt>
      <trkpt lat="46.57085" lon="0.6667">
        <ele>88.8</ele>
        <time>2023-03-19T09:49:20Z</time>
      </trkpt>
      <trkpt lat="46.57088" lon="0.66653">
        <ele>87.6</ele>
        <time>2023-03-19T09:49:23Z</time>
      </trkpt>
      <trkpt lat="46.57088" lon="0.66644">
        <ele>87.4</ele>
        <time>2023-03-19T09:49:25Z</time>
      </trkpt>
      <trkpt lat="46.57088" lon="0.66639">
        <ele>87.6</ele>
        <time>2023-03-19T09:49:27Z</time>
      </trkpt>
      <trkpt lat="46.57086" lon="0.6663">
        <ele>87.6</ele>
        <time>2023-03-19T09:49:30Z</time>
      </trkpt>
      <trkpt lat="46.57089" lon="0.66614">
        <ele>88.4</ele>
        <time>2023-03-19T09:49:39Z</time>
      </trkpt>
      <trkpt lat="46.5709" lon="0.66612">
        <ele>88.6</ele>
        <time>2023-03-19T09:49:40Z</time>
      </trkpt>
      <trkpt lat="46.57091" lon="0.66606">
        <ele>89.8</ele>
        <time>2023-03-19T09:49:45Z</time>
      </trkpt>
      <trkpt lat="46.57093" lon="0.666">
        <ele>90.6</ele>
        <time>2023-03-19T09:49:50Z</time>
      </trkpt>
      <trkpt lat="46.57094" lon="0.66598">
        <ele>90.8</ele>
        <time>2023-03-19T09:49:52Z</time>
      </trkpt>
      <trkpt lat="46.57094" lon="0.66597">
        <ele>90.8</ele>
        <time>2023-03-19T09:49:53Z</time>
      </trkpt>
      <trkpt lat="46.57094" lon="0.66593">
        <ele>91.6</ele>
        <time>2023-03-19T09:49:56Z</time>
      </trkpt>
      <trkpt lat="46.57094" lon="0.66591">
        <ele>91.8</ele>
        <time>2023-03-19T09:49:58Z</time>
      </trkpt>
      <trkpt lat="46.57095" lon="0.66584">
        <ele>93</ele>
        <time>2023-03-19T09:50:04Z</time>
      </trkpt>
      <trkpt lat="46.57097" lon="0.66574">
        <ele>93.4</ele>
        <time>2023-03-19T09:50:14Z</time>
      </trkpt>
      <trkpt lat="46.57097" lon="0.66569">
        <ele>94</ele>
        <time>2023-03-19T09:50:17Z</time>
      </trkpt>
      <trkpt lat="46.57097" lon="0.66568">
        <ele>94.4</ele>
        <time>2023-03-19T09:50:18Z</time>
      </trkpt>
      <trkpt lat="46.57096" lon="0.66566">
        <ele>94.8</ele>
        <time>2023-03-19T09:50:19Z</time>
      </trkpt>
      <trkpt lat="46.57093" lon="0.66561">
        <ele>95.2</ele>
        <time>2023-03-19T09:50:22Z</time>
      </trkpt>
      <trkpt lat="46.57091" lon="0.66557">
        <ele>95.4</ele>
        <time>2023-03-19T09:50:24Z</time>
      </trkpt>
      <trkpt lat="46.57089" lon="0.66555">
        <ele>95.6</ele>
        <time>2023-03-19T09:50:25Z</time>
      </trkpt>
      <trkpt lat="46.57085" lon="0.66534">
        <ele>95.4</ele>
        <time>2023-03-19T09:50:32Z</time>
      </trkpt>
      <trkpt lat="46.57077" lon="0.66516">
        <ele>95.2</ele>
        <time>2023-03-19T09:50:38Z</time>
      </trkpt>
      <trkpt lat="46.57074" lon="0.66493">
        <ele>95.4</ele>
        <time>2023-03-19T09:50:43Z</time>
      </trkpt>
      <trkpt lat="46.57076" lon="0.66483">
        <ele>95.8</ele>
        <time>2023-03-19T09:50:46Z</time>
      </trkpt>
      <trkpt lat="46.57074" lon="0.66478">
        <ele>96.2</ele>
        <time>2023-03-19T09:50:48Z</time>
      </trkpt>
      <trkpt lat="46.57067" lon="0.66468">
        <ele>96.2</ele>
        <time>2023-03-19T09:50:52Z</time>
      </trkpt>
      <trkpt lat="46.57062" lon="0.66454">
        <ele>95.6</ele>
        <time>2023-03-19T09:50:57Z</time>
      </trkpt>
      <trkpt lat="46.57062" lon="0.6645">
        <ele>95.4</ele>
        <time>2023-03-19T09:50:58Z</time>
      </trkpt>
      <trkpt lat="46.57059" lon="0.66443">
        <ele>95.8</ele>
        <time>2023-03-19T09:51:01Z</time>
      </trkpt>
      <trkpt lat="46.57057" lon="0.66437">
        <ele>96</ele>
        <time>2023-03-19T09:51:03Z</time>
      </trkpt>
      <trkpt lat="46.57049" lon="0.66419">
        <ele>96.6</ele>
        <time>2023-03-19T09:51:08Z</time>
      </trkpt>
      <trkpt lat="46.57047" lon="0.66414">
        <ele>96.6</ele>
        <time>2023-03-19T09:51:09Z</time>
      </trkpt>
      <trkpt lat="46.5704" lon="0.66395">
        <ele>96.8</ele>
        <time>2023-03-19T09:51:14Z</time>
      </trkpt>
      <trkpt lat="46.57038" lon="0.66386">
        <ele>97</ele>
        <time>2023-03-19T09:51:16Z</time>
      </trkpt>
      <trkpt lat="46.57028" lon="0.66365">
        <ele>97</ele>
        <time>2023-03-19T09:51:22Z</time>
      </trkpt>
      <trkpt lat="46.57024" lon="0.66358">
        <ele>97</ele>
        <time>2023-03-19T09:51:24Z</time>
      </trkpt>
      <trkpt lat="46.57024" lon="0.66352">
        <ele>97</ele>
        <time>2023-03-19T09:51:26Z</time>
      </trkpt>
      <trkpt lat="46.57021" lon="0.66332">
        <ele>97</ele>
        <time>2023-03-19T09:51:31Z</time>
      </trkpt>
      <trkpt lat="46.57025" lon="0.66316">
        <ele>96.8</ele>
        <time>2023-03-19T09:51:36Z</time>
      </trkpt>
      <trkpt lat="46.57027" lon="0.663">
        <ele>96.4</ele>
        <time>2023-03-19T09:51:41Z</time>
      </trkpt>
      <trkpt lat="46.57029" lon="0.66296">
        <ele>96.4</ele>
        <time>2023-03-19T09:51:43Z</time>
      </trkpt>
      <trkpt lat="46.57034" lon="0.6629">
        <ele>96.2</ele>
        <time>2023-03-19T09:51:46Z</time>
      </trkpt>
      <trkpt lat="46.57041" lon="0.66278">
        <ele>96.8</ele>
        <time>2023-03-19T09:51:51Z</time>
      </trkpt>
      <trkpt lat="46.57046" lon="0.66273">
        <ele>97</ele>
        <time>2023-03-19T09:51:54Z</time>
      </trkpt>
      <trkpt lat="46.57052" lon="0.66266">
        <ele>96.6</ele>
        <time>2023-03-19T09:51:56Z</time>
      </trkpt>
      <trkpt lat="46.57062" lon="0.66257">
        <ele>95.6</ele>
        <time>2023-03-19T09:51:59Z</time>
      </trkpt>
      <trkpt lat="46.57068" lon="0.66252">
        <ele>95.2</ele>
        <time>2023-03-19T09:52:01Z</time>
      </trkpt>
      <trkpt lat="46.57073" lon="0.66249">
        <ele>94.4</ele>
        <time>2023-03-19T09:52:03Z</time>
      </trkpt>
      <trkpt lat="46.5708" lon="0.66246">
        <ele>93.6</ele>
        <time>2023-03-19T09:52:06Z</time>
      </trkpt>
      <trkpt lat="46.57081" lon="0.66245">
        <ele>93.2</ele>
        <time>2023-03-19T09:52:07Z</time>
      </trkpt>
      <trkpt lat="46.57083" lon="0.66244">
        <ele>93</ele>
        <time>2023-03-19T09:52:08Z</time>
      </trkpt>
      <trkpt lat="46.57089" lon="0.66237">
        <ele>92.4</ele>
        <time>2023-03-19T09:52:11Z</time>
      </trkpt>
      <trkpt lat="46.57091" lon="0.66236">
        <ele>91.6</ele>
        <time>2023-03-19T09:52:12Z</time>
      </trkpt>
      <trkpt lat="46.57091" lon="0.66234">
        <ele>91</ele>
        <time>2023-03-19T09:52:13Z</time>
      </trkpt>
      <trkpt lat="46.57095" lon="0.66229">
        <ele>90.2</ele>
        <time>2023-03-19T09:52:15Z</time>
      </trkpt>
      <trkpt lat="46.57096" lon="0.66226">
        <ele>89.8</ele>
        <time>2023-03-19T09:52:16Z</time>
      </trkpt>
      <trkpt lat="46.57098" lon="0.66222">
        <ele>88.8</ele>
        <time>2023-03-19T09:52:18Z</time>
      </trkpt>
      <trkpt lat="46.571" lon="0.66218">
        <ele>87.4</ele>
        <time>2023-03-19T09:52:20Z</time>
      </trkpt>
      <trkpt lat="46.57101" lon="0.66212">
        <ele>86</ele>
        <time>2023-03-19T09:52:22Z</time>
      </trkpt>
      <trkpt lat="46.57102" lon="0.66209">
        <ele>85.6</ele>
        <time>2023-03-19T09:52:23Z</time>
      </trkpt>
      <trkpt lat="46.57105" lon="0.66207">
        <ele>85</ele>
        <time>2023-03-19T09:52:24Z</time>
      </trkpt>
      <trkpt lat="46.57109" lon="0.66204">
        <ele>83.8</ele>
        <time>2023-03-19T09:52:26Z</time>
      </trkpt>
      <trkpt lat="46.57112" lon="0.66201">
        <ele>83.2</ele>
        <time>2023-03-19T09:52:28Z</time>
      </trkpt>
      <trkpt lat="46.57114" lon="0.66198">
        <ele>82.6</ele>
        <time>2023-03-19T09:52:29Z</time>
      </trkpt>
      <trkpt lat="46.57118" lon="0.66192">
        <ele>81.4</ele>
        <time>2023-03-19T09:52:33Z</time>
      </trkpt>
      <trkpt lat="46.57129" lon="0.66182">
        <ele>80.8</ele>
        <time>2023-03-19T09:52:39Z</time>
      </trkpt>
      <trkpt lat="46.57139" lon="0.66175">
        <ele>81.2</ele>
        <time>2023-03-19T09:52:45Z</time>
      </trkpt>
      <trkpt lat="46.5714" lon="0.66172">
        <ele>81.2</ele>
        <time>2023-03-19T09:52:46Z</time>
      </trkpt>
      <trkpt lat="46.57144" lon="0.66168">
        <ele>79.6</ele>
        <time>2023-03-19T09:52:49Z</time>
      </trkpt>
      <trkpt lat="46.57144" lon="0.66166">
        <ele>78.8</ele>
        <time>2023-03-19T09:52:50Z</time>
      </trkpt>
      <trkpt lat="46.57145" lon="0.66165">
        <ele>78.4</ele>
        <time>2023-03-19T09:52:51Z</time>
      </trkpt>
      <trkpt lat="46.57146" lon="0.66161">
        <ele>78</ele>
        <time>2023-03-19T09:52:53Z</time>
      </trkpt>
      <trkpt lat="46.57147" lon="0.66158">
        <ele>77</ele>
        <time>2023-03-19T09:52:54Z</time>
      </trkpt>
      <trkpt lat="46.5715" lon="0.66152">
        <ele>75.6</ele>
        <time>2023-03-19T09:52:57Z</time>
      </trkpt>
      <trkpt lat="46.57151" lon="0.66148">
        <ele>75.4</ele>
        <time>2023-03-19T09:52:58Z</time>
      </trkpt>
      <trkpt lat="46.57153" lon="0.66145">
        <ele>75.2</ele>
        <time>2023-03-19T09:52:59Z</time>
      </trkpt>
      <trkpt lat="46.57155" lon="0.66142">
        <ele>74.6</ele>
        <time>2023-03-19T09:53:01Z</time>
      </trkpt>
      <trkpt lat="46.57158" lon="0.66139">
        <ele>74.2</ele>
        <time>2023-03-19T09:53:03Z</time>
      </trkpt>
      <trkpt lat="46.57162" lon="0.66133">
        <ele>73.6</ele>
        <time>2023-03-19T09:53:05Z</time>
      </trkpt>
      <trkpt lat="46.57162" lon="0.66133">
        <ele>73.4</ele>
        <time>2023-03-19T09:53:06Z</time>
      </trkpt>
      <trkpt lat="46.57164" lon="0.66132">
        <ele>73.2</ele>
        <time>2023-03-19T09:53:07Z</time>
      </trkpt>
      <trkpt lat="46.57165" lon="0.66131">
        <ele>73</ele>
        <time>2023-03-19T09:53:08Z</time>
      </trkpt>
      <trkpt lat="46.57166" lon="0.6613">
        <ele>72.8</ele>
        <time>2023-03-19T09:53:09Z</time>
      </trkpt>
      <trkpt lat="46.57172" lon="0.66125">
        <ele>72.4</ele>
        <time>2023-03-19T09:53:14Z</time>
      </trkpt>
      <trkpt lat="46.57174" lon="0.66122">
        <ele>72.4</ele>
        <time>2023-03-19T09:53:16Z</time>
      </trkpt>
      <trkpt lat="46.57177" lon="0.6612">
        <ele>72.2</ele>
        <time>2023-03-19T09:53:19Z</time>
      </trkpt>
      <trkpt lat="46.57178" lon="0.66118">
        <ele>72.2</ele>
        <time>2023-03-19T09:53:20Z</time>
      </trkpt>
      <trkpt lat="46.57184" lon="0.66112">
        <ele>71.6</ele>
        <time>2023-03-19T09:53:25Z</time>
      </trkpt>
      <trkpt lat="46.57188" lon="0.66112">
        <ele>72.2</ele>
        <time>2023-03-19T09:53:28Z</time>
      </trkpt>
      <trkpt lat="46.57192" lon="0.66113">
        <ele>73</ele>
        <time>2023-03-19T09:53:30Z</time>
      </trkpt>
      <trkpt lat="46.57195" lon="0.66113">
        <ele>73.6</ele>
        <time>2023-03-19T09:53:32Z</time>
      </trkpt>
      <trkpt lat="46.57196" lon="0.66112">
        <ele>73.6</ele>
        <time>2023-03-19T09:53:33Z</time>
      </trkpt>
      <trkpt lat="46.57198" lon="0.6611">
        <ele>73.8</ele>
        <time>2023-03-19T09:53:36Z</time>
      </trkpt>
      <trkpt lat="46.57201" lon="0.66109">
        <ele>73.2</ele>
        <time>2023-03-19T09:53:38Z</time>
      </trkpt>
      <trkpt lat="46.57203" lon="0.66106">
        <ele>73</ele>
        <time>2023-03-19T09:53:40Z</time>
      </trkpt>
      <trkpt lat="46.57205" lon="0.66104">
        <ele>72.4</ele>
        <time>2023-03-19T09:53:42Z</time>
      </trkpt>
      <trkpt lat="46.57208" lon="0.66103">
        <ele>72</ele>
        <time>2023-03-19T09:53:44Z</time>
      </trkpt>
      <trkpt lat="46.57211" lon="0.66102">
        <ele>71.4</ele>
        <time>2023-03-19T09:53:48Z</time>
      </trkpt>
      <trkpt lat="46.57221" lon="0.66097">
        <ele>70.8</ele>
        <time>2023-03-19T09:53:57Z</time>
      </trkpt>
      <trkpt lat="46.57225" lon="0.66096">
        <ele>70.4</ele>
        <time>2023-03-19T09:54:01Z</time>
      </trkpt>
      <trkpt lat="46.57229" lon="0.66095">
        <ele>70.2</ele>
        <time>2023-03-19T09:54:05Z</time>
      </trkpt>
      <trkpt lat="46.57234" lon="0.66089">
        <ele>69.6</ele>
        <time>2023-03-19T09:54:11Z</time>
      </trkpt>
      <trkpt lat="46.57237" lon="0.66082">
        <ele>69.8</ele>
        <time>2023-03-19T09:54:15Z</time>
      </trkpt>
      <trkpt lat="46.5724" lon="0.66076">
        <ele>69.4</ele>
        <time>2023-03-19T09:54:19Z</time>
      </trkpt>
      <trkpt lat="46.5724" lon="0.66074">
        <ele>69</ele>
        <time>2023-03-19T09:54:20Z</time>
      </trkpt>
      <trkpt lat="46.57242" lon="0.66064">
        <ele>68.2</ele>
        <time>2023-03-19T09:54:24Z</time>
      </trkpt>
      <trkpt lat="46.57241" lon="0.66062">
        <ele>67.6</ele>
        <time>2023-03-19T09:54:25Z</time>
      </trkpt>
      <trkpt lat="46.57239" lon="0.66059">
        <ele>66.6</ele>
        <time>2023-03-19T09:54:26Z</time>
      </trkpt>
      <trkpt lat="46.57236" lon="0.66052">
        <ele>65.6</ele>
        <time>2023-03-19T09:54:28Z</time>
      </trkpt>
      <trkpt lat="46.57235" lon="0.66044">
        <ele>65.2</ele>
        <time>2023-03-19T09:54:30Z</time>
      </trkpt>
      <trkpt lat="46.57232" lon="0.66013">
        <ele>65.4</ele>
        <time>2023-03-19T09:54:36Z</time>
      </trkpt>
      <trkpt lat="46.5724" lon="0.65991">
        <ele>65.8</ele>
        <time>2023-03-19T09:54:41Z</time>
      </trkpt>
      <trkpt lat="46.57247" lon="0.6598">
        <ele>66</ele>
        <time>2023-03-19T09:54:46Z</time>
      </trkpt>
      <trkpt lat="46.57255" lon="0.65957">
        <ele>66.4</ele>
        <time>2023-03-19T09:54:53Z</time>
      </trkpt>
      <trkpt lat="46.57255" lon="0.65935">
        <ele>66.6</ele>
        <time>2023-03-19T09:54:58Z</time>
      </trkpt>
      <trkpt lat="46.57256" lon="0.65931">
        <ele>66.8</ele>
        <time>2023-03-19T09:54:59Z</time>
      </trkpt>
      <trkpt lat="46.57257" lon="0.6592">
        <ele>67.8</ele>
        <time>2023-03-19T09:55:03Z</time>
      </trkpt>
      <trkpt lat="46.5726" lon="0.65903">
        <ele>68.8</ele>
        <time>2023-03-19T09:55:10Z</time>
      </trkpt>
      <trkpt lat="46.57263" lon="0.65901">
        <ele>68.8</ele>
        <time>2023-03-19T09:55:13Z</time>
      </trkpt>
      <trkpt lat="46.57263" lon="0.65901">
        <ele>68.8</ele>
        <time>2023-03-19T09:55:14Z</time>
      </trkpt>
      <trkpt lat="46.57263" lon="0.65901">
        <ele>69</ele>
        <time>2023-03-19T09:55:15Z</time>
      </trkpt>
      <trkpt lat="46.57264" lon="0.65901">
        <ele>69.2</ele>
        <time>2023-03-19T09:55:16Z</time>
      </trkpt>
      <trkpt lat="46.57264" lon="0.65902">
        <ele>69.8</ele>
        <time>2023-03-19T09:55:18Z</time>
      </trkpt>
      <trkpt lat="46.57264" lon="0.65904">
        <ele>71</ele>
        <time>2023-03-19T09:55:23Z</time>
      </trkpt>
      <trkpt lat="46.57263" lon="0.65907">
        <ele>72</ele>
        <time>2023-03-19T09:55:27Z</time>
      </trkpt>
      <trkpt lat="46.57262" lon="0.6591">
        <ele>72.8</ele>
        <time>2023-03-19T09:55:30Z</time>
      </trkpt>
      <trkpt lat="46.57261" lon="0.65911">
        <ele>73.2</ele>
        <time>2023-03-19T09:55:31Z</time>
      </trkpt>
      <trkpt lat="46.5726" lon="0.65914">
        <ele>73.8</ele>
        <time>2023-03-19T09:55:34Z</time>
      </trkpt>
      <trkpt lat="46.57259" lon="0.65916">
        <ele>74.4</ele>
        <time>2023-03-19T09:55:36Z</time>
      </trkpt>
      <trkpt lat="46.57256" lon="0.65918">
        <ele>75.2</ele>
        <time>2023-03-19T09:55:39Z</time>
      </trkpt>
      <trkpt lat="46.57254" lon="0.65919">
        <ele>75.4</ele>
        <time>2023-03-19T09:55:41Z</time>
      </trkpt>
      <trkpt lat="46.57253" lon="0.65919">
        <ele>75.6</ele>
        <time>2023-03-19T09:55:42Z</time>
      </trkpt>
      <trkpt lat="46.57245" lon="0.65924">
        <ele>76.6</ele>
        <time>2023-03-19T09:55:49Z</time>
      </trkpt>
      <trkpt lat="46.57244" lon="0.65924">
        <ele>76.8</ele>
        <time>2023-03-19T09:55:50Z</time>
      </trkpt>
      <trkpt lat="46.57243" lon="0.65925">
        <ele>77.2</ele>
        <time>2023-03-19T09:55:51Z</time>
      </trkpt>
      <trkpt lat="46.57239" lon="0.65925">
        <ele>77.6</ele>
        <time>2023-03-19T09:55:54Z</time>
      </trkpt>
      <trkpt lat="46.57237" lon="0.65925">
        <ele>77.8</ele>
        <time>2023-03-19T09:55:55Z</time>
      </trkpt>
      <trkpt lat="46.57236" lon="0.65926">
        <ele>77.8</ele>
        <time>2023-03-19T09:55:56Z</time>
      </trkpt>
      <trkpt lat="46.57233" lon="0.65925">
        <ele>78.2</ele>
        <time>2023-03-19T09:55:58Z</time>
      </trkpt>
      <trkpt lat="46.57223" lon="0.65925">
        <ele>79</ele>
        <time>2023-03-19T09:56:04Z</time>
      </trkpt>
      <trkpt lat="46.57216" lon="0.65925">
        <ele>79.8</ele>
        <time>2023-03-19T09:56:08Z</time>
      </trkpt>
      <trkpt lat="46.57214" lon="0.65925">
        <ele>80</ele>
        <time>2023-03-19T09:56:09Z</time>
      </trkpt>
      <trkpt lat="46.57204" lon="0.65928">
        <ele>81</ele>
        <time>2023-03-19T09:56:15Z</time>
      </trkpt>
      <trkpt lat="46.57199" lon="0.6593">
        <ele>82.2</ele>
        <time>2023-03-19T09:56:19Z</time>
      </trkpt>
      <trkpt lat="46.57198" lon="0.6593">
        <ele>82.4</ele>
        <time>2023-03-19T09:56:20Z</time>
      </trkpt>
      <trkpt lat="46.57193" lon="0.65932">
        <ele>83.2</ele>
        <time>2023-03-19T09:56:24Z</time>
      </trkpt>
      <trkpt lat="46.5718" lon="0.65935">
        <ele>84.2</ele>
        <time>2023-03-19T09:56:32Z</time>
      </trkpt>
      <trkpt lat="46.57177" lon="0.65936">
        <ele>84.8</ele>
        <time>2023-03-19T09:56:34Z</time>
      </trkpt>
      <trkpt lat="46.57174" lon="0.65937">
        <ele>85.2</ele>
        <time>2023-03-19T09:56:36Z</time>
      </trkpt>
      <trkpt lat="46.57166" lon="0.6594">
        <ele>86.4</ele>
        <time>2023-03-19T09:56:42Z</time>
      </trkpt>
      <trkpt lat="46.57163" lon="0.65943">
        <ele>87.2</ele>
        <time>2023-03-19T09:56:46Z</time>
      </trkpt>
      <trkpt lat="46.57162" lon="0.65944">
        <ele>87.6</ele>
        <time>2023-03-19T09:56:47Z</time>
      </trkpt>
      <trkpt lat="46.57162" lon="0.65945">
        <ele>87.8</ele>
        <time>2023-03-19T09:56:48Z</time>
      </trkpt>
      <trkpt lat="46.57158" lon="0.65947">
        <ele>88.8</ele>
        <time>2023-03-19T09:56:52Z</time>
      </trkpt>
      <trkpt lat="46.57157" lon="0.65947">
        <ele>89</ele>
        <time>2023-03-19T09:56:53Z</time>
      </trkpt>
      <trkpt lat="46.57154" lon="0.65949">
        <ele>89.6</ele>
        <time>2023-03-19T09:56:57Z</time>
      </trkpt>
      <trkpt lat="46.57153" lon="0.65949">
        <ele>89.8</ele>
        <time>2023-03-19T09:56:58Z</time>
      </trkpt>
      <trkpt lat="46.57152" lon="0.6595">
        <ele>90</ele>
        <time>2023-03-19T09:56:59Z</time>
      </trkpt>
      <trkpt lat="46.57151" lon="0.6595">
        <ele>90.2</ele>
        <time>2023-03-19T09:57:00Z</time>
      </trkpt>
      <trkpt lat="46.57146" lon="0.6595">
        <ele>90.6</ele>
        <time>2023-03-19T09:57:05Z</time>
      </trkpt>
      <trkpt lat="46.57145" lon="0.65951">
        <ele>90.8</ele>
        <time>2023-03-19T09:57:06Z</time>
      </trkpt>
      <trkpt lat="46.5714" lon="0.65952">
        <ele>91.2</ele>
        <time>2023-03-19T09:57:09Z</time>
      </trkpt>
      <trkpt lat="46.57138" lon="0.65953">
        <ele>91.4</ele>
        <time>2023-03-19T09:57:10Z</time>
      </trkpt>
      <trkpt lat="46.57136" lon="0.65953">
        <ele>91.4</ele>
        <time>2023-03-19T09:57:11Z</time>
      </trkpt>
      <trkpt lat="46.57134" lon="0.65955">
        <ele>91.8</ele>
        <time>2023-03-19T09:57:13Z</time>
      </trkpt>
      <trkpt lat="46.57132" lon="0.65955">
        <ele>92</ele>
        <time>2023-03-19T09:57:14Z</time>
      </trkpt>
      <trkpt lat="46.5713" lon="0.65956">
        <ele>92.2</ele>
        <time>2023-03-19T09:57:16Z</time>
      </trkpt>
      <trkpt lat="46.57126" lon="0.65956">
        <ele>92.4</ele>
        <time>2023-03-19T09:57:19Z</time>
      </trkpt>
      <trkpt lat="46.57123" lon="0.65956">
        <ele>92.8</ele>
        <time>2023-03-19T09:57:21Z</time>
      </trkpt>
      <trkpt lat="46.57121" lon="0.65956">
        <ele>93</ele>
        <time>2023-03-19T09:57:22Z</time>
      </trkpt>
      <trkpt lat="46.57116" lon="0.65947">
        <ele>93.6</ele>
        <time>2023-03-19T09:57:29Z</time>
      </trkpt>
      <trkpt lat="46.57112" lon="0.65941">
        <ele>93.8</ele>
        <time>2023-03-19T09:57:36Z</time>
      </trkpt>
      <trkpt lat="46.57111" lon="0.6594">
        <ele>93.8</ele>
        <time>2023-03-19T09:57:38Z</time>
      </trkpt>
      <trkpt lat="46.57113" lon="0.65937">
        <ele>93.8</ele>
        <time>2023-03-19T09:57:41Z</time>
      </trkpt>
      <trkpt lat="46.57117" lon="0.65935">
        <ele>92.8</ele>
        <time>2023-03-19T09:57:45Z</time>
      </trkpt>
      <trkpt lat="46.57118" lon="0.65934">
        <ele>92.8</ele>
        <time>2023-03-19T09:57:46Z</time>
      </trkpt>
      <trkpt lat="46.5712" lon="0.65931">
        <ele>91.8</ele>
        <time>2023-03-19T09:57:48Z</time>
      </trkpt>
      <trkpt lat="46.57122" lon="0.65927">
        <ele>90.4</ele>
        <time>2023-03-19T09:57:50Z</time>
      </trkpt>
      <trkpt lat="46.57124" lon="0.65923">
        <ele>89</ele>
        <time>2023-03-19T09:57:52Z</time>
      </trkpt>
      <trkpt lat="46.57125" lon="0.65922">
        <ele>88.6</ele>
        <time>2023-03-19T09:57:53Z</time>
      </trkpt>
      <trkpt lat="46.5713" lon="0.65917">
        <ele>87.8</ele>
        <time>2023-03-19T09:57:55Z</time>
      </trkpt>
      <trkpt lat="46.57132" lon="0.65915">
        <ele>86.4</ele>
        <time>2023-03-19T09:57:56Z</time>
      </trkpt>
      <trkpt lat="46.57134" lon="0.65912">
        <ele>84.4</ele>
        <time>2023-03-19T09:57:58Z</time>
      </trkpt>
      <trkpt lat="46.57135" lon="0.65907">
        <ele>83</ele>
        <time>2023-03-19T09:58:00Z</time>
      </trkpt>
      <trkpt lat="46.57135" lon="0.65896">
        <ele>81.6</ele>
        <time>2023-03-19T09:58:03Z</time>
      </trkpt>
      <trkpt lat="46.57136" lon="0.65892">
        <ele>78</ele>
        <time>2023-03-19T09:58:04Z</time>
      </trkpt>
      <trkpt lat="46.57137" lon="0.65888">
        <ele>76.6</ele>
        <time>2023-03-19T09:58:06Z</time>
      </trkpt>
      <trkpt lat="46.57138" lon="0.65881">
        <ele>75.2</ele>
        <time>2023-03-19T09:58:08Z</time>
      </trkpt>
      <trkpt lat="46.57141" lon="0.65877">
        <ele>73</ele>
        <time>2023-03-19T09:58:10Z</time>
      </trkpt>
      <trkpt lat="46.57142" lon="0.65875">
        <ele>72.4</ele>
        <time>2023-03-19T09:58:11Z</time>
      </trkpt>
      <trkpt lat="46.57143" lon="0.65873">
        <ele>71.4</ele>
        <time>2023-03-19T09:58:12Z</time>
      </trkpt>
      <trkpt lat="46.57147" lon="0.6587">
        <ele>70.4</ele>
        <time>2023-03-19T09:58:14Z</time>
      </trkpt>
      <trkpt lat="46.57151" lon="0.65864">
        <ele>69.4</ele>
        <time>2023-03-19T09:58:16Z</time>
      </trkpt>
      <trkpt lat="46.57155" lon="0.65859">
        <ele>68.2</ele>
        <time>2023-03-19T09:58:18Z</time>
      </trkpt>
      <trkpt lat="46.57158" lon="0.65853">
        <ele>66.8</ele>
        <time>2023-03-19T09:58:20Z</time>
      </trkpt>
      <trkpt lat="46.57158" lon="0.6585">
        <ele>66.4</ele>
        <time>2023-03-19T09:58:21Z</time>
      </trkpt>
      <trkpt lat="46.57162" lon="0.65838">
        <ele>65.8</ele>
        <time>2023-03-19T09:58:24Z</time>
      </trkpt>
      <trkpt lat="46.57161" lon="0.65833">
        <ele>65.6</ele>
        <time>2023-03-19T09:58:25Z</time>
      </trkpt>
      <trkpt lat="46.57162" lon="0.6583">
        <ele>65.6</ele>
        <time>2023-03-19T09:58:26Z</time>
      </trkpt>
      <trkpt lat="46.57162" lon="0.65797">
        <ele>65.2</ele>
        <time>2023-03-19T09:58:33Z</time>
      </trkpt>
      <trkpt lat="46.57156" lon="0.6577">
        <ele>65.8</ele>
        <time>2023-03-19T09:58:39Z</time>
      </trkpt>
      <trkpt lat="46.57155" lon="0.65766">
        <ele>66</ele>
        <time>2023-03-19T09:58:40Z</time>
      </trkpt>
      <trkpt lat="46.57146" lon="0.65736">
        <ele>66</ele>
        <time>2023-03-19T09:58:46Z</time>
      </trkpt>
      <trkpt lat="46.57142" lon="0.65721">
        <ele>66.8</ele>
        <time>2023-03-19T09:58:49Z</time>
      </trkpt>
      <trkpt lat="46.57137" lon="0.65707">
        <ele>67.2</ele>
        <time>2023-03-19T09:58:52Z</time>
      </trkpt>
      <trkpt lat="46.57128" lon="0.65691">
        <ele>67.8</ele>
        <time>2023-03-19T09:58:56Z</time>
      </trkpt>
      <trkpt lat="46.57126" lon="0.65686">
        <ele>68.2</ele>
        <time>2023-03-19T09:58:57Z</time>
      </trkpt>
      <trkpt lat="46.5711" lon="0.65659">
        <ele>68.8</ele>
        <time>2023-03-19T09:59:02Z</time>
      </trkpt>
      <trkpt lat="46.57102" lon="0.65638">
        <ele>69.6</ele>
        <time>2023-03-19T09:59:06Z</time>
      </trkpt>
      <trkpt lat="46.57097" lon="0.6562">
        <ele>70</ele>
        <time>2023-03-19T09:59:09Z</time>
      </trkpt>
      <trkpt lat="46.57091" lon="0.65596">
        <ele>70.4</ele>
        <time>2023-03-19T09:59:14Z</time>
      </trkpt>
      <trkpt lat="46.57085" lon="0.65563">
        <ele>71</ele>
        <time>2023-03-19T09:59:20Z</time>
      </trkpt>
      <trkpt lat="46.57083" lon="0.65557">
        <ele>71</ele>
        <time>2023-03-19T09:59:21Z</time>
      </trkpt>
      <trkpt lat="46.57079" lon="0.65519">
        <ele>71.2</ele>
        <time>2023-03-19T09:59:28Z</time>
      </trkpt>
      <trkpt lat="46.57079" lon="0.65485">
        <ele>71.6</ele>
        <time>2023-03-19T09:59:34Z</time>
      </trkpt>
      <trkpt lat="46.5708" lon="0.6547">
        <ele>71.2</ele>
        <time>2023-03-19T09:59:36Z</time>
      </trkpt>
      <trkpt lat="46.57081" lon="0.65447">
        <ele>70.6</ele>
        <time>2023-03-19T09:59:39Z</time>
      </trkpt>
      <trkpt lat="46.57084" lon="0.65424">
        <ele>69.8</ele>
        <time>2023-03-19T09:59:42Z</time>
      </trkpt>
      <trkpt lat="46.57088" lon="0.654">
        <ele>68.6</ele>
        <time>2023-03-19T09:59:45Z</time>
      </trkpt>
      <trkpt lat="46.57095" lon="0.65354">
        <ele>67.6</ele>
        <time>2023-03-19T09:59:51Z</time>
      </trkpt>
      <trkpt lat="46.57095" lon="0.65345">
        <ele>67.4</ele>
        <time>2023-03-19T09:59:52Z</time>
      </trkpt>
      <trkpt lat="46.57103" lon="0.65296">
        <ele>67.6</ele>
        <time>2023-03-19T09:59:59Z</time>
      </trkpt>
      <trkpt lat="46.57109" lon="0.65259">
        <ele>68.2</ele>
        <time>2023-03-19T10:00:06Z</time>
      </trkpt>
      <trkpt lat="46.57113" lon="0.65247">
        <ele>68.6</ele>
        <time>2023-03-19T10:00:09Z</time>
      </trkpt>
      <trkpt lat="46.5712" lon="0.65231">
        <ele>69.4</ele>
        <time>2023-03-19T10:00:14Z</time>
      </trkpt>
      <trkpt lat="46.57124" lon="0.65223">
        <ele>70</ele>
        <time>2023-03-19T10:00:17Z</time>
      </trkpt>
      <trkpt lat="46.57129" lon="0.65213">
        <ele>71</ele>
        <time>2023-03-19T10:00:20Z</time>
      </trkpt>
      <trkpt lat="46.57131" lon="0.6521">
        <ele>71.2</ele>
        <time>2023-03-19T10:00:21Z</time>
      </trkpt>
      <trkpt lat="46.57142" lon="0.65198">
        <ele>72.4</ele>
        <time>2023-03-19T10:00:26Z</time>
      </trkpt>
      <trkpt lat="46.57145" lon="0.65196">
        <ele>72.4</ele>
        <time>2023-03-19T10:00:27Z</time>
      </trkpt>
      <trkpt lat="46.57156" lon="0.65186">
        <ele>73.4</ele>
        <time>2023-03-19T10:00:31Z</time>
      </trkpt>
      <trkpt lat="46.57162" lon="0.65177">
        <ele>74</ele>
        <time>2023-03-19T10:00:34Z</time>
      </trkpt>
      <trkpt lat="46.57164" lon="0.65165">
        <ele>74.2</ele>
        <time>2023-03-19T10:00:37Z</time>
      </trkpt>
      <trkpt lat="46.57163" lon="0.65159">
        <ele>74.2</ele>
        <time>2023-03-19T10:00:38Z</time>
      </trkpt>
      <trkpt lat="46.57159" lon="0.65149">
        <ele>74</ele>
        <time>2023-03-19T10:00:40Z</time>
      </trkpt>
      <trkpt lat="46.57148" lon="0.65132">
        <ele>73.2</ele>
        <time>2023-03-19T10:00:43Z</time>
      </trkpt>
      <trkpt lat="46.57134" lon="0.65113">
        <ele>72.4</ele>
        <time>2023-03-19T10:00:46Z</time>
      </trkpt>
      <trkpt lat="46.57124" lon="0.65098">
        <ele>71.8</ele>
        <time>2023-03-19T10:00:48Z</time>
      </trkpt>
      <trkpt lat="46.5712" lon="0.6509">
        <ele>71.2</ele>
        <time>2023-03-19T10:00:49Z</time>
      </trkpt>
      <trkpt lat="46.57112" lon="0.65074">
        <ele>70.2</ele>
        <time>2023-03-19T10:00:51Z</time>
      </trkpt>
      <trkpt lat="46.571" lon="0.65051">
        <ele>69.6</ele>
        <time>2023-03-19T10:00:54Z</time>
      </trkpt>
      <trkpt lat="46.57091" lon="0.65037">
        <ele>69.2</ele>
        <time>2023-03-19T10:00:56Z</time>
      </trkpt>
      <trkpt lat="46.57075" lon="0.65019">
        <ele>67.8</ele>
        <time>2023-03-19T10:00:59Z</time>
      </trkpt>
      <trkpt lat="46.57057" lon="0.65006">
        <ele>67.2</ele>
        <time>2023-03-19T10:01:02Z</time>
      </trkpt>
      <trkpt lat="46.57045" lon="0.65001">
        <ele>67</ele>
        <time>2023-03-19T10:01:04Z</time>
      </trkpt>
      <trkpt lat="46.57028" lon="0.64996">
        <ele>66.8</ele>
        <time>2023-03-19T10:01:07Z</time>
      </trkpt>
      <trkpt lat="46.56993" lon="0.64988">
        <ele>66.4</ele>
        <time>2023-03-19T10:01:13Z</time>
      </trkpt>
      <trkpt lat="46.56963" lon="0.64982">
        <ele>67</ele>
        <time>2023-03-19T10:01:18Z</time>
      </trkpt>
      <trkpt lat="46.56957" lon="0.6498">
        <ele>67</ele>
        <time>2023-03-19T10:01:19Z</time>
      </trkpt>
      <trkpt lat="46.56925" lon="0.64976">
        <ele>67</ele>
        <time>2023-03-19T10:01:25Z</time>
      </trkpt>
      <trkpt lat="46.56893" lon="0.64973">
        <ele>66.8</ele>
        <time>2023-03-19T10:01:31Z</time>
      </trkpt>
      <trkpt lat="46.56872" lon="0.64964">
        <ele>66.4</ele>
        <time>2023-03-19T10:01:36Z</time>
      </trkpt>
      <trkpt lat="46.56865" lon="0.64957">
        <ele>66.4</ele>
        <time>2023-03-19T10:01:38Z</time>
      </trkpt>
      <trkpt lat="46.56858" lon="0.64947">
        <ele>66.2</ele>
        <time>2023-03-19T10:01:41Z</time>
      </trkpt>
      <trkpt lat="46.56853" lon="0.64939">
        <ele>65.8</ele>
        <time>2023-03-19T10:01:43Z</time>
      </trkpt>
      <trkpt lat="46.56851" lon="0.64935">
        <ele>65.4</ele>
        <time>2023-03-19T10:01:44Z</time>
      </trkpt>
      <trkpt lat="46.56849" lon="0.64931">
        <ele>65</ele>
        <time>2023-03-19T10:01:45Z</time>
      </trkpt>
      <trkpt lat="46.56844" lon="0.64922">
        <ele>64.2</ele>
        <time>2023-03-19T10:01:47Z</time>
      </trkpt>
      <trkpt lat="46.56844" lon="0.64914">
        <ele>63.4</ele>
        <time>2023-03-19T10:01:49Z</time>
      </trkpt>
      <trkpt lat="46.56846" lon="0.64907">
        <ele>63</ele>
        <time>2023-03-19T10:01:51Z</time>
      </trkpt>
      <trkpt lat="46.56848" lon="0.64906">
        <ele>62.8</ele>
        <time>2023-03-19T10:01:52Z</time>
      </trkpt>
      <trkpt lat="46.5685" lon="0.64905">
        <ele>62.6</ele>
        <time>2023-03-19T10:01:54Z</time>
      </trkpt>
      <trkpt lat="46.56861" lon="0.64901">
        <ele>63.8</ele>
        <time>2023-03-19T10:01:59Z</time>
      </trkpt>
      <trkpt lat="46.56862" lon="0.649">
        <ele>64.2</ele>
        <time>2023-03-19T10:02:00Z</time>
      </trkpt>
      <trkpt lat="46.5687" lon="0.64892">
        <ele>65.6</ele>
        <time>2023-03-19T10:02:05Z</time>
      </trkpt>
      <trkpt lat="46.56875" lon="0.64879">
        <ele>66.6</ele>
        <time>2023-03-19T10:02:09Z</time>
      </trkpt>
      <trkpt lat="46.56876" lon="0.64875">
        <ele>66.6</ele>
        <time>2023-03-19T10:02:10Z</time>
      </trkpt>
      <trkpt lat="46.56884" lon="0.6485">
        <ele>65.8</ele>
        <time>2023-03-19T10:02:16Z</time>
      </trkpt>
      <trkpt lat="46.5689" lon="0.64837">
        <ele>65.4</ele>
        <time>2023-03-19T10:02:20Z</time>
      </trkpt>
      <trkpt lat="46.56892" lon="0.64829">
        <ele>65</ele>
        <time>2023-03-19T10:02:22Z</time>
      </trkpt>
      <trkpt lat="46.56893" lon="0.64827">
        <ele>64.4</ele>
        <time>2023-03-19T10:02:23Z</time>
      </trkpt>
      <trkpt lat="46.56897" lon="0.64821">
        <ele>63.2</ele>
        <time>2023-03-19T10:02:27Z</time>
      </trkpt>
      <trkpt lat="46.56899" lon="0.64821">
        <ele>63</ele>
        <time>2023-03-19T10:02:28Z</time>
      </trkpt>
      <trkpt lat="46.56903" lon="0.6482">
        <ele>62.8</ele>
        <time>2023-03-19T10:02:29Z</time>
      </trkpt>
      <trkpt lat="46.56914" lon="0.64814">
        <ele>62.8</ele>
        <time>2023-03-19T10:02:33Z</time>
      </trkpt>
      <trkpt lat="46.5692" lon="0.64804">
        <ele>63.8</ele>
        <time>2023-03-19T10:02:37Z</time>
      </trkpt>
      <trkpt lat="46.56931" lon="0.64791">
        <ele>64.4</ele>
        <time>2023-03-19T10:02:42Z</time>
      </trkpt>
      <trkpt lat="46.56933" lon="0.64788">
        <ele>64.6</ele>
        <time>2023-03-19T10:02:43Z</time>
      </trkpt>
      <trkpt lat="46.56943" lon="0.64771">
        <ele>65.6</ele>
        <time>2023-03-19T10:02:48Z</time>
      </trkpt>
      <trkpt lat="46.56945" lon="0.64768">
        <ele>65.6</ele>
        <time>2023-03-19T10:02:49Z</time>
      </trkpt>
      <trkpt lat="46.56961" lon="0.64757">
        <ele>66.6</ele>
        <time>2023-03-19T10:02:54Z</time>
      </trkpt>
      <trkpt lat="46.56964" lon="0.64758">
        <ele>67</ele>
        <time>2023-03-19T10:02:55Z</time>
      </trkpt>
      <trkpt lat="46.56966" lon="0.64759">
        <ele>67.2</ele>
        <time>2023-03-19T10:02:56Z</time>
      </trkpt>
      <trkpt lat="46.56969" lon="0.64762">
        <ele>67.6</ele>
        <time>2023-03-19T10:02:57Z</time>
      </trkpt>
      <trkpt lat="46.56972" lon="0.64765">
        <ele>68.6</ele>
        <time>2023-03-19T10:02:59Z</time>
      </trkpt>
      <trkpt lat="46.56972" lon="0.64767">
        <ele>68.8</ele>
        <time>2023-03-19T10:03:00Z</time>
      </trkpt>
      <trkpt lat="46.5697" lon="0.64774">
        <ele>69.4</ele>
        <time>2023-03-19T10:03:03Z</time>
      </trkpt>
      <trkpt lat="46.56969" lon="0.64781">
        <ele>70</ele>
        <time>2023-03-19T10:03:05Z</time>
      </trkpt>
      <trkpt lat="46.56968" lon="0.64786">
        <ele>71</ele>
        <time>2023-03-19T10:03:09Z</time>
      </trkpt>
      <trkpt lat="46.56967" lon="0.64788">
        <ele>71.2</ele>
        <time>2023-03-19T10:03:10Z</time>
      </trkpt>
      <trkpt lat="46.56965" lon="0.64794">
        <ele>72.2</ele>
        <time>2023-03-19T10:03:14Z</time>
      </trkpt>
      <trkpt lat="46.56962" lon="0.648">
        <ele>73</ele>
        <time>2023-03-19T10:03:18Z</time>
      </trkpt>
      <trkpt lat="46.56962" lon="0.64802">
        <ele>73.4</ele>
        <time>2023-03-19T10:03:19Z</time>
      </trkpt>
      <trkpt lat="46.56958" lon="0.64807">
        <ele>74.4</ele>
        <time>2023-03-19T10:03:23Z</time>
      </trkpt>
      <trkpt lat="46.56957" lon="0.64809">
        <ele>74.6</ele>
        <time>2023-03-19T10:03:24Z</time>
      </trkpt>
      <trkpt lat="46.56954" lon="0.64814">
        <ele>75.4</ele>
        <time>2023-03-19T10:03:28Z</time>
      </trkpt>
      <trkpt lat="46.56951" lon="0.64821">
        <ele>76.4</ele>
        <time>2023-03-19T10:03:32Z</time>
      </trkpt>
      <trkpt lat="46.56951" lon="0.64822">
        <ele>76.6</ele>
        <time>2023-03-19T10:03:33Z</time>
      </trkpt>
      <trkpt lat="46.56949" lon="0.64828">
        <ele>77.6</ele>
        <time>2023-03-19T10:03:37Z</time>
      </trkpt>
      <trkpt lat="46.56946" lon="0.64835">
        <ele>78.4</ele>
        <time>2023-03-19T10:03:41Z</time>
      </trkpt>
      <trkpt lat="46.56945" lon="0.64837">
        <ele>78.8</ele>
        <time>2023-03-19T10:03:42Z</time>
      </trkpt>
      <trkpt lat="46.56944" lon="0.64845">
        <ele>79.6</ele>
        <time>2023-03-19T10:03:46Z</time>
      </trkpt>
      <trkpt lat="46.56943" lon="0.64846">
        <ele>80.2</ele>
        <time>2023-03-19T10:03:47Z</time>
      </trkpt>
      <trkpt lat="46.56939" lon="0.64853">
        <ele>81.2</ele>
        <time>2023-03-19T10:03:52Z</time>
      </trkpt>
      <trkpt lat="46.56938" lon="0.64856">
        <ele>81.4</ele>
        <time>2023-03-19T10:03:55Z</time>
      </trkpt>
      <trkpt lat="46.5694" lon="0.64859">
        <ele>81.8</ele>
        <time>2023-03-19T10:04:00Z</time>
      </trkpt>
      <trkpt lat="46.56942" lon="0.64855">
        <ele>82.4</ele>
        <time>2023-03-19T10:04:04Z</time>
      </trkpt>
      <trkpt lat="46.56943" lon="0.64854">
        <ele>82.8</ele>
        <time>2023-03-19T10:04:07Z</time>
      </trkpt>
      <trkpt lat="46.56945" lon="0.64858">
        <ele>83.4</ele>
        <time>2023-03-19T10:04:10Z</time>
      </trkpt>
      <trkpt lat="46.56945" lon="0.64863">
        <ele>84</ele>
        <time>2023-03-19T10:04:13Z</time>
      </trkpt>
      <trkpt lat="46.56945" lon="0.6487">
        <ele>84.6</ele>
        <time>2023-03-19T10:04:16Z</time>
      </trkpt>
      <trkpt lat="46.56946" lon="0.64876">
        <ele>86</ele>
        <time>2023-03-19T10:04:20Z</time>
      </trkpt>
      <trkpt lat="46.56946" lon="0.64877">
        <ele>86.4</ele>
        <time>2023-03-19T10:04:21Z</time>
      </trkpt>
      <trkpt lat="46.56946" lon="0.6488">
        <ele>87</ele>
        <time>2023-03-19T10:04:23Z</time>
      </trkpt>
      <trkpt lat="46.56948" lon="0.64891">
        <ele>88</ele>
        <time>2023-03-19T10:04:30Z</time>
      </trkpt>
      <trkpt lat="46.56949" lon="0.64893">
        <ele>88.2</ele>
        <time>2023-03-19T10:04:31Z</time>
      </trkpt>
      <trkpt lat="46.5695" lon="0.64899">
        <ele>89.2</ele>
        <time>2023-03-19T10:04:35Z</time>
      </trkpt>
      <trkpt lat="46.5695" lon="0.64904">
        <ele>89.6</ele>
        <time>2023-03-19T10:04:37Z</time>
      </trkpt>
      <trkpt lat="46.56949" lon="0.6491">
        <ele>90.2</ele>
        <time>2023-03-19T10:04:40Z</time>
      </trkpt>
      <trkpt lat="46.5695" lon="0.64917">
        <ele>90.6</ele>
        <time>2023-03-19T10:04:43Z</time>
      </trkpt>
      <trkpt lat="46.56952" lon="0.64918">
        <ele>91.2</ele>
        <time>2023-03-19T10:04:45Z</time>
      </trkpt>
      <trkpt lat="46.56953" lon="0.64918">
        <ele>91.4</ele>
        <time>2023-03-19T10:04:46Z</time>
      </trkpt>
      <trkpt lat="46.56953" lon="0.64915">
        <ele>92</ele>
        <time>2023-03-19T10:04:50Z</time>
      </trkpt>
      <trkpt lat="46.56953" lon="0.6491">
        <ele>92.4</ele>
        <time>2023-03-19T10:04:53Z</time>
      </trkpt>
      <trkpt lat="46.56953" lon="0.64901">
        <ele>92.6</ele>
        <time>2023-03-19T10:04:57Z</time>
      </trkpt>
      <trkpt lat="46.56956" lon="0.64892">
        <ele>92.8</ele>
        <time>2023-03-19T10:05:02Z</time>
      </trkpt>
      <trkpt lat="46.56967" lon="0.64892">
        <ele>93.6</ele>
        <time>2023-03-19T10:05:07Z</time>
      </trkpt>
      <trkpt lat="46.56978" lon="0.64892">
        <ele>94.4</ele>
        <time>2023-03-19T10:05:13Z</time>
      </trkpt>
      <trkpt lat="46.56984" lon="0.64891">
        <ele>94.6</ele>
        <time>2023-03-19T10:05:16Z</time>
      </trkpt>
      <trkpt lat="46.5699" lon="0.64891">
        <ele>95.4</ele>
        <time>2023-03-19T10:05:19Z</time>
      </trkpt>
      <trkpt lat="46.56995" lon="0.64892">
        <ele>95.8</ele>
        <time>2023-03-19T10:05:21Z</time>
      </trkpt>
      <trkpt lat="46.57008" lon="0.64893">
        <ele>96.8</ele>
        <time>2023-03-19T10:05:26Z</time>
      </trkpt>
      <trkpt lat="46.57019" lon="0.64892">
        <ele>98</ele>
        <time>2023-03-19T10:05:30Z</time>
      </trkpt>
      <trkpt lat="46.57024" lon="0.64892">
        <ele>98.4</ele>
        <time>2023-03-19T10:05:32Z</time>
      </trkpt>
      <trkpt lat="46.57031" lon="0.64895">
        <ele>99.2</ele>
        <time>2023-03-19T10:05:36Z</time>
      </trkpt>
      <trkpt lat="46.57033" lon="0.64895">
        <ele>99.2</ele>
        <time>2023-03-19T10:05:37Z</time>
      </trkpt>
      <trkpt lat="46.57036" lon="0.64895">
        <ele>99.2</ele>
        <time>2023-03-19T10:05:38Z</time>
      </trkpt>
      <trkpt lat="46.57052" lon="0.64902">
        <ele>99</ele>
        <time>2023-03-19T10:05:43Z</time>
      </trkpt>
      <trkpt lat="46.57067" lon="0.64901">
        <ele>98.4</ele>
        <time>2023-03-19T10:05:46Z</time>
      </trkpt>
      <trkpt lat="46.57078" lon="0.64903">
        <ele>98.2</ele>
        <time>2023-03-19T10:05:48Z</time>
      </trkpt>
      <trkpt lat="46.57092" lon="0.64905">
        <ele>98.2</ele>
        <time>2023-03-19T10:05:51Z</time>
      </trkpt>
      <trkpt lat="46.57099" lon="0.64903">
        <ele>98.2</ele>
        <time>2023-03-19T10:05:53Z</time>
      </trkpt>
      <trkpt lat="46.57104" lon="0.64892">
        <ele>98.6</ele>
        <time>2023-03-19T10:05:57Z</time>
      </trkpt>
      <trkpt lat="46.57107" lon="0.64879">
        <ele>99.4</ele>
        <time>2023-03-19T10:06:03Z</time>
      </trkpt>
      <trkpt lat="46.57107" lon="0.64878">
        <ele>99.4</ele>
        <time>2023-03-19T10:06:04Z</time>
      </trkpt>
      <trkpt lat="46.57111" lon="0.64876">
        <ele>99.8</ele>
        <time>2023-03-19T10:06:07Z</time>
      </trkpt>
      <trkpt lat="46.57114" lon="0.64876">
        <ele>100</ele>
        <time>2023-03-19T10:06:09Z</time>
      </trkpt>
      <trkpt lat="46.57115" lon="0.64876">
        <ele>100.4</ele>
        <time>2023-03-19T10:06:10Z</time>
      </trkpt>
      <trkpt lat="46.57121" lon="0.64875">
        <ele>101.6</ele>
        <time>2023-03-19T10:06:13Z</time>
      </trkpt>
      <trkpt lat="46.57131" lon="0.64873">
        <ele>102</ele>
        <time>2023-03-19T10:06:18Z</time>
      </trkpt>
      <trkpt lat="46.57133" lon="0.64875">
        <ele>102</ele>
        <time>2023-03-19T10:06:19Z</time>
      </trkpt>
      <trkpt lat="46.57138" lon="0.64882">
        <ele>101.8</ele>
        <time>2023-03-19T10:06:22Z</time>
      </trkpt>
      <trkpt lat="46.5714" lon="0.64885">
        <ele>101.6</ele>
        <time>2023-03-19T10:06:23Z</time>
      </trkpt>
      <trkpt lat="46.57146" lon="0.64889">
        <ele>101.4</ele>
        <time>2023-03-19T10:06:25Z</time>
      </trkpt>
      <trkpt lat="46.5716" lon="0.64889">
        <ele>101</ele>
        <time>2023-03-19T10:06:30Z</time>
      </trkpt>
      <trkpt lat="46.57163" lon="0.64887">
        <ele>101.2</ele>
        <time>2023-03-19T10:06:34Z</time>
      </trkpt>
      <trkpt lat="46.57166" lon="0.64887">
        <ele>101.6</ele>
        <time>2023-03-19T10:06:39Z</time>
      </trkpt>
      <trkpt lat="46.57172" lon="0.64889">
        <ele>101.6</ele>
        <time>2023-03-19T10:06:42Z</time>
      </trkpt>
      <trkpt lat="46.5718" lon="0.64883">
        <ele>101.8</ele>
        <time>2023-03-19T10:06:46Z</time>
      </trkpt>
      <trkpt lat="46.57187" lon="0.64872">
        <ele>102.6</ele>
        <time>2023-03-19T10:06:50Z</time>
      </trkpt>
      <trkpt lat="46.5719" lon="0.64867">
        <ele>103.2</ele>
        <time>2023-03-19T10:06:52Z</time>
      </trkpt>
      <trkpt lat="46.57192" lon="0.64861">
        <ele>103.8</ele>
        <time>2023-03-19T10:06:54Z</time>
      </trkpt>
      <trkpt lat="46.57195" lon="0.64846">
        <ele>104.2</ele>
        <time>2023-03-19T10:06:58Z</time>
      </trkpt>
      <trkpt lat="46.57199" lon="0.64821">
        <ele>104.8</ele>
        <time>2023-03-19T10:07:04Z</time>
      </trkpt>
      <trkpt lat="46.57201" lon="0.64818">
        <ele>105.4</ele>
        <time>2023-03-19T10:07:05Z</time>
      </trkpt>
      <trkpt lat="46.57203" lon="0.64812">
        <ele>105.4</ele>
        <time>2023-03-19T10:07:07Z</time>
      </trkpt>
      <trkpt lat="46.57205" lon="0.64805">
        <ele>106</ele>
        <time>2023-03-19T10:07:09Z</time>
      </trkpt>
      <trkpt lat="46.57206" lon="0.64802">
        <ele>106.2</ele>
        <time>2023-03-19T10:07:10Z</time>
      </trkpt>
      <trkpt lat="46.57209" lon="0.64782">
        <ele>107</ele>
        <time>2023-03-19T10:07:16Z</time>
      </trkpt>
      <trkpt lat="46.5721" lon="0.64777">
        <ele>107.8</ele>
        <time>2023-03-19T10:07:18Z</time>
      </trkpt>
      <trkpt lat="46.57211" lon="0.64772">
        <ele>108</ele>
        <time>2023-03-19T10:07:20Z</time>
      </trkpt>
      <trkpt lat="46.57209" lon="0.64768">
        <ele>108.2</ele>
        <time>2023-03-19T10:07:22Z</time>
      </trkpt>
      <trkpt lat="46.57207" lon="0.64768">
        <ele>108.2</ele>
        <time>2023-03-19T10:07:23Z</time>
      </trkpt>
      <trkpt lat="46.57193" lon="0.64763">
        <ele>107.8</ele>
        <time>2023-03-19T10:07:29Z</time>
      </trkpt>
      <trkpt lat="46.57188" lon="0.64748">
        <ele>108.2</ele>
        <time>2023-03-19T10:07:33Z</time>
      </trkpt>
      <trkpt lat="46.57186" lon="0.64727">
        <ele>109.2</ele>
        <time>2023-03-19T10:07:38Z</time>
      </trkpt>
      <trkpt lat="46.57186" lon="0.64724">
        <ele>109.2</ele>
        <time>2023-03-19T10:07:39Z</time>
      </trkpt>
      <trkpt lat="46.57186" lon="0.64722">
        <ele>109.2</ele>
        <time>2023-03-19T10:07:40Z</time>
      </trkpt>
      <trkpt lat="46.57181" lon="0.64722">
        <ele>109.2</ele>
        <time>2023-03-19T10:07:43Z</time>
      </trkpt>
      <trkpt lat="46.57167" lon="0.64729">
        <ele>109</ele>
        <time>2023-03-19T10:07:47Z</time>
      </trkpt>
      <trkpt lat="46.57163" lon="0.64732">
        <ele>108.8</ele>
        <time>2023-03-19T10:07:48Z</time>
      </trkpt>
      <trkpt lat="46.57152" lon="0.6474">
        <ele>108.4</ele>
        <time>2023-03-19T10:07:51Z</time>
      </trkpt>
      <trkpt lat="46.57148" lon="0.64743">
        <ele>108.2</ele>
        <time>2023-03-19T10:07:52Z</time>
      </trkpt>
      <trkpt lat="46.57145" lon="0.64746">
        <ele>108</ele>
        <time>2023-03-19T10:07:53Z</time>
      </trkpt>
      <trkpt lat="46.57122" lon="0.6477">
        <ele>106.8</ele>
        <time>2023-03-19T10:07:59Z</time>
      </trkpt>
      <trkpt lat="46.57117" lon="0.6477">
        <ele>106.6</ele>
        <time>2023-03-19T10:08:00Z</time>
      </trkpt>
      <trkpt lat="46.57108" lon="0.64771">
        <ele>106.2</ele>
        <time>2023-03-19T10:08:02Z</time>
      </trkpt>
      <trkpt lat="46.57102" lon="0.64767">
        <ele>105.6</ele>
        <time>2023-03-19T10:08:04Z</time>
      </trkpt>
      <trkpt lat="46.571" lon="0.64757">
        <ele>105</ele>
        <time>2023-03-19T10:08:06Z</time>
      </trkpt>
      <trkpt lat="46.57101" lon="0.64749">
        <ele>104</ele>
        <time>2023-03-19T10:08:07Z</time>
      </trkpt>
      <trkpt lat="46.57103" lon="0.64728">
        <ele>102.2</ele>
        <time>2023-03-19T10:08:09Z</time>
      </trkpt>
      <trkpt lat="46.57106" lon="0.64716">
        <ele>100.2</ele>
        <time>2023-03-19T10:08:10Z</time>
      </trkpt>
      <trkpt lat="46.57109" lon="0.64703">
        <ele>98.8</ele>
        <time>2023-03-19T10:08:11Z</time>
      </trkpt>
      <trkpt lat="46.57117" lon="0.64675">
        <ele>97.4</ele>
        <time>2023-03-19T10:08:13Z</time>
      </trkpt>
      <trkpt lat="46.57121" lon="0.6466">
        <ele>96</ele>
        <time>2023-03-19T10:08:14Z</time>
      </trkpt>
      <trkpt lat="46.57125" lon="0.64646">
        <ele>95</ele>
        <time>2023-03-19T10:08:15Z</time>
      </trkpt>
      <trkpt lat="46.57129" lon="0.64631">
        <ele>93</ele>
        <time>2023-03-19T10:08:16Z</time>
      </trkpt>
      <trkpt lat="46.57133" lon="0.64618">
        <ele>90.8</ele>
        <time>2023-03-19T10:08:17Z</time>
      </trkpt>
      <trkpt lat="46.57137" lon="0.64604">
        <ele>89.8</ele>
        <time>2023-03-19T10:08:18Z</time>
      </trkpt>
      <trkpt lat="46.5714" lon="0.64593">
        <ele>88.4</ele>
        <time>2023-03-19T10:08:19Z</time>
      </trkpt>
      <trkpt lat="46.57143" lon="0.64585">
        <ele>86</ele>
        <time>2023-03-19T10:08:20Z</time>
      </trkpt>
      <trkpt lat="46.57144" lon="0.64578">
        <ele>84.2</ele>
        <time>2023-03-19T10:08:21Z</time>
      </trkpt>
      <trkpt lat="46.57146" lon="0.64572">
        <ele>81.8</ele>
        <time>2023-03-19T10:08:22Z</time>
      </trkpt>
      <trkpt lat="46.57148" lon="0.64567">
        <ele>80.6</ele>
        <time>2023-03-19T10:08:23Z</time>
      </trkpt>
      <trkpt lat="46.57149" lon="0.64562">
        <ele>78.6</ele>
        <time>2023-03-19T10:08:24Z</time>
      </trkpt>
      <trkpt lat="46.5715" lon="0.64558">
        <ele>77.6</ele>
        <time>2023-03-19T10:08:25Z</time>
      </trkpt>
      <trkpt lat="46.57153" lon="0.6455">
        <ele>76.2</ele>
        <time>2023-03-19T10:08:27Z</time>
      </trkpt>
      <trkpt lat="46.57156" lon="0.64543">
        <ele>74.6</ele>
        <time>2023-03-19T10:08:29Z</time>
      </trkpt>
      <trkpt lat="46.57158" lon="0.6454">
        <ele>73.6</ele>
        <time>2023-03-19T10:08:30Z</time>
      </trkpt>
      <trkpt lat="46.5716" lon="0.64536">
        <ele>72.6</ele>
        <time>2023-03-19T10:08:31Z</time>
      </trkpt>
      <trkpt lat="46.57163" lon="0.64531">
        <ele>71.2</ele>
        <time>2023-03-19T10:08:33Z</time>
      </trkpt>
      <trkpt lat="46.57164" lon="0.64526">
        <ele>69.6</ele>
        <time>2023-03-19T10:08:35Z</time>
      </trkpt>
      <trkpt lat="46.57163" lon="0.64522">
        <ele>68.8</ele>
        <time>2023-03-19T10:08:36Z</time>
      </trkpt>
      <trkpt lat="46.57162" lon="0.64519">
        <ele>68.4</ele>
        <time>2023-03-19T10:08:37Z</time>
      </trkpt>
      <trkpt lat="46.57161" lon="0.64516">
        <ele>67.8</ele>
        <time>2023-03-19T10:08:39Z</time>
      </trkpt>
      <trkpt lat="46.57161" lon="0.64515">
        <ele>67.6</ele>
        <time>2023-03-19T10:08:41Z</time>
      </trkpt>
      <trkpt lat="46.57161" lon="0.64514">
        <ele>67.6</ele>
        <time>2023-03-19T10:08:42Z</time>
      </trkpt>
      <trkpt lat="46.5716" lon="0.64513">
        <ele>67.4</ele>
        <time>2023-03-19T10:08:44Z</time>
      </trkpt>
      <trkpt lat="46.57159" lon="0.64511">
        <ele>67.2</ele>
        <time>2023-03-19T10:08:46Z</time>
      </trkpt>
      <trkpt lat="46.57155" lon="0.64508">
        <ele>66</ele>
        <time>2023-03-19T10:08:49Z</time>
      </trkpt>
      <trkpt lat="46.57154" lon="0.64506">
        <ele>65.6</ele>
        <time>2023-03-19T10:08:50Z</time>
      </trkpt>
      <trkpt lat="46.57139" lon="0.64489">
        <ele>64.8</ele>
        <time>2023-03-19T10:08:53Z</time>
      </trkpt>
      <trkpt lat="46.57126" lon="0.64474">
        <ele>63.6</ele>
        <time>2023-03-19T10:08:55Z</time>
      </trkpt>
      <trkpt lat="46.57119" lon="0.64466">
        <ele>62.8</ele>
        <time>2023-03-19T10:08:56Z</time>
      </trkpt>
      <trkpt lat="46.57112" lon="0.6446">
        <ele>62.2</ele>
        <time>2023-03-19T10:08:57Z</time>
      </trkpt>
      <trkpt lat="46.57105" lon="0.64456">
        <ele>60.2</ele>
        <time>2023-03-19T10:08:58Z</time>
      </trkpt>
      <trkpt lat="46.57082" lon="0.6445">
        <ele>59.6</ele>
        <time>2023-03-19T10:09:01Z</time>
      </trkpt>
      <trkpt lat="46.57075" lon="0.64449">
        <ele>59.2</ele>
        <time>2023-03-19T10:09:02Z</time>
      </trkpt>
      <trkpt lat="46.57053" lon="0.64447">
        <ele>58.6</ele>
        <time>2023-03-19T10:09:06Z</time>
      </trkpt>
      <trkpt lat="46.57049" lon="0.64454">
        <ele>58.2</ele>
        <time>2023-03-19T10:09:09Z</time>
      </trkpt>
      <trkpt lat="46.5705" lon="0.64458">
        <ele>58</ele>
        <time>2023-03-19T10:09:10Z</time>
      </trkpt>
      <trkpt lat="46.57054" lon="0.64477">
        <ele>57.8</ele>
        <time>2023-03-19T10:09:14Z</time>
      </trkpt>
      <trkpt lat="46.57051" lon="0.64494">
        <ele>58</ele>
        <time>2023-03-19T10:09:19Z</time>
      </trkpt>
      <trkpt lat="46.57044" lon="0.64494">
        <ele>57.8</ele>
        <time>2023-03-19T10:09:21Z</time>
      </trkpt>
      <trkpt lat="46.57033" lon="0.64492">
        <ele>57.8</ele>
        <time>2023-03-19T10:09:23Z</time>
      </trkpt>
      <trkpt lat="46.57015" lon="0.64482">
        <ele>57.4</ele>
        <time>2023-03-19T10:09:27Z</time>
      </trkpt>
      <trkpt lat="46.57005" lon="0.64468">
        <ele>57.8</ele>
        <time>2023-03-19T10:09:30Z</time>
      </trkpt>
      <trkpt lat="46.57" lon="0.64463">
        <ele>57.8</ele>
        <time>2023-03-19T10:09:31Z</time>
      </trkpt>
      <trkpt lat="46.56995" lon="0.64458">
        <ele>57.8</ele>
        <time>2023-03-19T10:09:32Z</time>
      </trkpt>
      <trkpt lat="46.56979" lon="0.64446">
        <ele>57.8</ele>
        <time>2023-03-19T10:09:36Z</time>
      </trkpt>
      <trkpt lat="46.56971" lon="0.64435">
        <ele>58</ele>
        <time>2023-03-19T10:09:40Z</time>
      </trkpt>
      <trkpt lat="46.56969" lon="0.6443">
        <ele>58</ele>
        <time>2023-03-19T10:09:42Z</time>
      </trkpt>
      <trkpt lat="46.56964" lon="0.6443">
        <ele>57.8</ele>
        <time>2023-03-19T10:09:44Z</time>
      </trkpt>
      <trkpt lat="46.56956" lon="0.64438">
        <ele>57.6</ele>
        <time>2023-03-19T10:09:48Z</time>
      </trkpt>
      <trkpt lat="46.5695" lon="0.6444">
        <ele>58</ele>
        <time>2023-03-19T10:09:51Z</time>
      </trkpt>
      <trkpt lat="46.56948" lon="0.64439">
        <ele>58</ele>
        <time>2023-03-19T10:09:52Z</time>
      </trkpt>
      <trkpt lat="46.56945" lon="0.64438">
        <ele>58</ele>
        <time>2023-03-19T10:09:53Z</time>
      </trkpt>
      <trkpt lat="46.56938" lon="0.64437">
        <ele>58</ele>
        <time>2023-03-19T10:09:56Z</time>
      </trkpt>
      <trkpt lat="46.56933" lon="0.64435">
        <ele>58</ele>
        <time>2023-03-19T10:09:58Z</time>
      </trkpt>
      <trkpt lat="46.5693" lon="0.64434">
        <ele>58</ele>
        <time>2023-03-19T10:09:59Z</time>
      </trkpt>
      <trkpt lat="46.56921" lon="0.64432">
        <ele>58</ele>
        <time>2023-03-19T10:10:02Z</time>
      </trkpt>
      <trkpt lat="46.56914" lon="0.64432">
        <ele>58</ele>
        <time>2023-03-19T10:10:05Z</time>
      </trkpt>
      <trkpt lat="46.56909" lon="0.64433">
        <ele>58</ele>
        <time>2023-03-19T10:10:07Z</time>
      </trkpt>
      <trkpt lat="46.56891" lon="0.6443">
        <ele>58.2</ele>
        <time>2023-03-19T10:10:12Z</time>
      </trkpt>
      <trkpt lat="46.56887" lon="0.64428">
        <ele>58.4</ele>
        <time>2023-03-19T10:10:13Z</time>
      </trkpt>
      <trkpt lat="46.56868" lon="0.64419">
        <ele>58.6</ele>
        <time>2023-03-19T10:10:18Z</time>
      </trkpt>
      <trkpt lat="46.56848" lon="0.64411">
        <ele>59</ele>
        <time>2023-03-19T10:10:22Z</time>
      </trkpt>
      <trkpt lat="46.56837" lon="0.64406">
        <ele>59.2</ele>
        <time>2023-03-19T10:10:24Z</time>
      </trkpt>
      <trkpt lat="46.56798" lon="0.64391">
        <ele>59.2</ele>
        <time>2023-03-19T10:10:31Z</time>
      </trkpt>
      <trkpt lat="46.56792" lon="0.6439">
        <ele>59.2</ele>
        <time>2023-03-19T10:10:32Z</time>
      </trkpt>
      <trkpt lat="46.56783" lon="0.64384">
        <ele>59</ele>
        <time>2023-03-19T10:10:34Z</time>
      </trkpt>
      <trkpt lat="46.56776" lon="0.64373">
        <ele>58.8</ele>
        <time>2023-03-19T10:10:36Z</time>
      </trkpt>
      <trkpt lat="46.56768" lon="0.64367">
        <ele>58.6</ele>
        <time>2023-03-19T10:10:38Z</time>
      </trkpt>
      <trkpt lat="46.5675" lon="0.64362">
        <ele>58.4</ele>
        <time>2023-03-19T10:10:42Z</time>
      </trkpt>
      <trkpt lat="46.56722" lon="0.64356">
        <ele>58.4</ele>
        <time>2023-03-19T10:10:49Z</time>
      </trkpt>
      <trkpt lat="46.56701" lon="0.64351">
        <ele>58.8</ele>
        <time>2023-03-19T10:10:54Z</time>
      </trkpt>
      <trkpt lat="46.56694" lon="0.64344">
        <ele>58.8</ele>
        <time>2023-03-19T10:10:56Z</time>
      </trkpt>
      <trkpt lat="46.56692" lon="0.64338">
        <ele>59</ele>
        <time>2023-03-19T10:10:57Z</time>
      </trkpt>
      <trkpt lat="46.56687" lon="0.64325">
        <ele>59</ele>
        <time>2023-03-19T10:10:59Z</time>
      </trkpt>
      <trkpt lat="46.56678" lon="0.64304">
        <ele>58.8</ele>
        <time>2023-03-19T10:11:02Z</time>
      </trkpt>
      <trkpt lat="46.56667" lon="0.64275">
        <ele>58.6</ele>
        <time>2023-03-19T10:11:06Z</time>
      </trkpt>
      <trkpt lat="46.56663" lon="0.64271">
        <ele>58.6</ele>
        <time>2023-03-19T10:11:07Z</time>
      </trkpt>
      <trkpt lat="46.56645" lon="0.64266">
        <ele>58.6</ele>
        <time>2023-03-19T10:11:12Z</time>
      </trkpt>
      <trkpt lat="46.56624" lon="0.64269">
        <ele>58.6</ele>
        <time>2023-03-19T10:11:17Z</time>
      </trkpt>
      <trkpt lat="46.56619" lon="0.64269">
        <ele>58.8</ele>
        <time>2023-03-19T10:11:18Z</time>
      </trkpt>
      <trkpt lat="46.56615" lon="0.64269">
        <ele>58.8</ele>
        <time>2023-03-19T10:11:19Z</time>
      </trkpt>
      <trkpt lat="46.56609" lon="0.64263">
        <ele>58.8</ele>
        <time>2023-03-19T10:11:21Z</time>
      </trkpt>
      <trkpt lat="46.56608" lon="0.64258">
        <ele>58.6</ele>
        <time>2023-03-19T10:11:22Z</time>
      </trkpt>
      <trkpt lat="46.56608" lon="0.64252">
        <ele>58.6</ele>
        <time>2023-03-19T10:11:23Z</time>
      </trkpt>
      <trkpt lat="46.5661" lon="0.64238">
        <ele>57.8</ele>
        <time>2023-03-19T10:11:25Z</time>
      </trkpt>
      <trkpt lat="46.56612" lon="0.6423">
        <ele>57.4</ele>
        <time>2023-03-19T10:11:26Z</time>
      </trkpt>
      <trkpt lat="46.56616" lon="0.64206">
        <ele>56.8</ele>
        <time>2023-03-19T10:11:29Z</time>
      </trkpt>
      <trkpt lat="46.56617" lon="0.64188">
        <ele>56.6</ele>
        <time>2023-03-19T10:11:30Z</time>
      </trkpt>
      <trkpt lat="46.56616" lon="0.6418">
        <ele>56.4</ele>
        <time>2023-03-19T10:11:32Z</time>
      </trkpt>
      <trkpt lat="46.56612" lon="0.64165">
        <ele>56</ele>
        <time>2023-03-19T10:11:34Z</time>
      </trkpt>
      <trkpt lat="46.56609" lon="0.64161">
        <ele>55.6</ele>
        <time>2023-03-19T10:11:35Z</time>
      </trkpt>
      <trkpt lat="46.56599" lon="0.6415">
        <ele>55.6</ele>
        <time>2023-03-19T10:11:38Z</time>
      </trkpt>
      <trkpt lat="46.56591" lon="0.64145">
        <ele>55.6</ele>
        <time>2023-03-19T10:11:40Z</time>
      </trkpt>
      <trkpt lat="46.56564" lon="0.64124">
        <ele>55.8</ele>
        <time>2023-03-19T10:11:46Z</time>
      </trkpt>
      <trkpt lat="46.5655" lon="0.64116">
        <ele>55.8</ele>
        <time>2023-03-19T10:11:49Z</time>
      </trkpt>
      <trkpt lat="46.56541" lon="0.64111">
        <ele>55.8</ele>
        <time>2023-03-19T10:11:51Z</time>
      </trkpt>
      <trkpt lat="46.56509" lon="0.64091">
        <ele>55</ele>
        <time>2023-03-19T10:11:59Z</time>
      </trkpt>
      <trkpt lat="46.56477" lon="0.64067">
        <ele>55.4</ele>
        <time>2023-03-19T10:12:07Z</time>
      </trkpt>
      <trkpt lat="46.56453" lon="0.64051">
        <ele>55.4</ele>
        <time>2023-03-19T10:12:13Z</time>
      </trkpt>
      <trkpt lat="46.5645" lon="0.6405">
        <ele>55.4</ele>
        <time>2023-03-19T10:12:14Z</time>
      </trkpt>
      <trkpt lat="46.56438" lon="0.64046">
        <ele>54.6</ele>
        <time>2023-03-19T10:12:18Z</time>
      </trkpt>
      <trkpt lat="46.56434" lon="0.64048">
        <ele>54.6</ele>
        <time>2023-03-19T10:12:20Z</time>
      </trkpt>
      <trkpt lat="46.56431" lon="0.6405">
        <ele>54.4</ele>
        <time>2023-03-19T10:12:25Z</time>
      </trkpt>
      <trkpt lat="46.56431" lon="0.6405">
        <ele>53.6</ele>
        <time>2023-03-19T10:12:29Z</time>
      </trkpt>
      <trkpt lat="46.56431" lon="0.64051">
        <ele>53.4</ele>
        <time>2023-03-19T10:12:41Z</time>
      </trkpt>
      <trkpt lat="46.56432" lon="0.64052">
        <ele>53.4</ele>
        <time>2023-03-19T10:12:59Z</time>
      </trkpt>
      <trkpt lat="46.56432" lon="0.64052">
        <ele>53.2</ele>
        <time>2023-03-19T10:13:13Z</time>
      </trkpt>
      <trkpt lat="46.56432" lon="0.64054">
        <ele>52.6</ele>
        <time>2023-03-19T10:13:27Z</time>
      </trkpt>
      <trkpt lat="46.56433" lon="0.64055">
        <ele>53</ele>
        <time>2023-03-19T10:13:46Z</time>
      </trkpt>
      <trkpt lat="46.56432" lon="0.64055">
        <ele>53</ele>
        <time>2023-03-19T10:14:05Z</time>
      </trkpt>
      <trkpt lat="46.56433" lon="0.64055">
        <ele>53.2</ele>
        <time>2023-03-19T10:14:29Z</time>
      </trkpt>
      <trkpt lat="46.5643" lon="0.64058">
        <ele>53.2</ele>
        <time>2023-03-19T10:14:46Z</time>
      </trkpt>
      <trkpt lat="46.5643" lon="0.64059">
        <ele>53.2</ele>
        <time>2023-03-19T10:15:03Z</time>
      </trkpt>
      <trkpt lat="46.56431" lon="0.64058">
        <ele>53.2</ele>
        <time>2023-03-19T10:15:23Z</time>
      </trkpt>
      <trkpt lat="46.5643" lon="0.64058">
        <ele>53.2</ele>
        <time>2023-03-19T10:15:41Z</time>
      </trkpt>
      <trkpt lat="46.5643" lon="0.64059">
        <ele>53.2</ele>
        <time>2023-03-19T10:15:59Z</time>
      </trkpt>
      <trkpt lat="46.56429" lon="0.64059">
        <ele>53.2</ele>
        <time>2023-03-19T10:16:17Z</time>
      </trkpt>
      <trkpt lat="46.56428" lon="0.6406">
        <ele>53.2</ele>
        <time>2023-03-19T10:16:34Z</time>
      </trkpt>
      <trkpt lat="46.56428" lon="0.6406">
        <ele>53.2</ele>
        <time>2023-03-19T10:16:50Z</time>
      </trkpt>
      <trkpt lat="46.56429" lon="0.64058">
        <ele>53.2</ele>
        <time>2023-03-19T10:17:05Z</time>
      </trkpt>
      <trkpt lat="46.56429" lon="0.64058">
        <ele>53.2</ele>
        <time>2023-03-19T10:17:06Z</time>
      </trkpt>
      <trkpt lat="46.56426" lon="0.64054">
        <ele>52.8</ele>
        <time>2023-03-19T10:17:14Z</time>
      </trkpt>
      <trkpt lat="46.56426" lon="0.64054">
        <ele>52.8</ele>
        <time>2023-03-19T10:17:15Z</time>
      </trkpt>
      <trkpt lat="46.5642" lon="0.64044">
        <ele>53.6</ele>
        <time>2023-03-19T10:17:26Z</time>
      </trkpt>
      <trkpt lat="46.56407" lon="0.64042">
        <ele>53.8</ele>
        <time>2023-03-19T10:17:33Z</time>
      </trkpt>
      <trkpt lat="46.56398" lon="0.64054">
        <ele>53.8</ele>
        <time>2023-03-19T10:17:38Z</time>
      </trkpt>
      <trkpt lat="46.56394" lon="0.64068">
        <ele>54</ele>
        <time>2023-03-19T10:17:44Z</time>
      </trkpt>
      <trkpt lat="46.56394" lon="0.64069">
        <ele>54</ele>
        <time>2023-03-19T10:17:45Z</time>
      </trkpt>
      <trkpt lat="46.5639" lon="0.64074">
        <ele>53.8</ele>
        <time>2023-03-19T10:17:54Z</time>
      </trkpt>
      <trkpt lat="46.56389" lon="0.64076">
        <ele>53.8</ele>
        <time>2023-03-19T10:17:55Z</time>
      </trkpt>
      <trkpt lat="46.56385" lon="0.64094">
        <ele>54</ele>
        <time>2023-03-19T10:18:01Z</time>
      </trkpt>
      <trkpt lat="46.56382" lon="0.6412">
        <ele>54.4</ele>
        <time>2023-03-19T10:18:08Z</time>
      </trkpt>
      <trkpt lat="46.56378" lon="0.64148">
        <ele>54.6</ele>
        <time>2023-03-19T10:18:14Z</time>
      </trkpt>
      <trkpt lat="46.56377" lon="0.64162">
        <ele>55</ele>
        <time>2023-03-19T10:18:17Z</time>
      </trkpt>
      <trkpt lat="46.56376" lon="0.64171">
        <ele>55.8</ele>
        <time>2023-03-19T10:18:19Z</time>
      </trkpt>
      <trkpt lat="46.56371" lon="0.64196">
        <ele>56.4</ele>
        <time>2023-03-19T10:18:24Z</time>
      </trkpt>
      <trkpt lat="46.56368" lon="0.64229">
        <ele>56.4</ele>
        <time>2023-03-19T10:18:30Z</time>
      </trkpt>
      <trkpt lat="46.56365" lon="0.64254">
        <ele>57</ele>
        <time>2023-03-19T10:18:35Z</time>
      </trkpt>
      <trkpt lat="46.56365" lon="0.64258">
        <ele>57.2</ele>
        <time>2023-03-19T10:18:36Z</time>
      </trkpt>
      <trkpt lat="46.5636" lon="0.64289">
        <ele>57.4</ele>
        <time>2023-03-19T10:18:43Z</time>
      </trkpt>
      <trkpt lat="46.56357" lon="0.64301">
        <ele>57.8</ele>
        <time>2023-03-19T10:18:49Z</time>
      </trkpt>
      <trkpt lat="46.56355" lon="0.64306">
        <ele>58</ele>
        <time>2023-03-19T10:18:51Z</time>
      </trkpt>
      <trkpt lat="46.56356" lon="0.64307">
        <ele>58</ele>
        <time>2023-03-19T10:18:52Z</time>
      </trkpt>
      <trkpt lat="46.56357" lon="0.64308">
        <ele>58.2</ele>
        <time>2023-03-19T10:18:53Z</time>
      </trkpt>
      <trkpt lat="46.56357" lon="0.64304">
        <ele>58.4</ele>
        <time>2023-03-19T10:18:55Z</time>
      </trkpt>
      <trkpt lat="46.56358" lon="0.64302">
        <ele>58.4</ele>
        <time>2023-03-19T10:18:56Z</time>
      </trkpt>
      <trkpt lat="46.56361" lon="0.643">
        <ele>58.4</ele>
        <time>2023-03-19T10:18:58Z</time>
      </trkpt>
      <trkpt lat="46.56363" lon="0.64297">
        <ele>58.8</ele>
        <time>2023-03-19T10:19:00Z</time>
      </trkpt>
      <trkpt lat="46.56365" lon="0.64294">
        <ele>59.2</ele>
        <time>2023-03-19T10:19:02Z</time>
      </trkpt>
      <trkpt lat="46.56368" lon="0.64282">
        <ele>60.8</ele>
        <time>2023-03-19T10:19:08Z</time>
      </trkpt>
      <trkpt lat="46.5637" lon="0.64275">
        <ele>62</ele>
        <time>2023-03-19T10:19:11Z</time>
      </trkpt>
      <trkpt lat="46.56372" lon="0.64271">
        <ele>63</ele>
        <time>2023-03-19T10:19:13Z</time>
      </trkpt>
      <trkpt lat="46.56374" lon="0.64265">
        <ele>64.4</ele>
        <time>2023-03-19T10:19:16Z</time>
      </trkpt>
      <trkpt lat="46.56375" lon="0.64263">
        <ele>64.6</ele>
        <time>2023-03-19T10:19:17Z</time>
      </trkpt>
      <trkpt lat="46.56378" lon="0.64252">
        <ele>65.6</ele>
        <time>2023-03-19T10:19:23Z</time>
      </trkpt>
      <trkpt lat="46.56378" lon="0.6425">
        <ele>65.8</ele>
        <time>2023-03-19T10:19:24Z</time>
      </trkpt>
      <trkpt lat="46.5638" lon="0.64243">
        <ele>67</ele>
        <time>2023-03-19T10:19:27Z</time>
      </trkpt>
      <trkpt lat="46.5638" lon="0.64233">
        <ele>67.2</ele>
        <time>2023-03-19T10:19:30Z</time>
      </trkpt>
      <trkpt lat="46.56384" lon="0.64209">
        <ele>66.6</ele>
        <time>2023-03-19T10:19:36Z</time>
      </trkpt>
      <trkpt lat="46.56388" lon="0.64178">
        <ele>66.6</ele>
        <time>2023-03-19T10:19:42Z</time>
      </trkpt>
      <trkpt lat="46.56389" lon="0.64172">
        <ele>66.6</ele>
        <time>2023-03-19T10:19:43Z</time>
      </trkpt>
      <trkpt lat="46.56392" lon="0.64151">
        <ele>66.4</ele>
        <time>2023-03-19T10:19:47Z</time>
      </trkpt>
      <trkpt lat="46.56396" lon="0.64124">
        <ele>65.8</ele>
        <time>2023-03-19T10:19:52Z</time>
      </trkpt>
      <trkpt lat="46.56397" lon="0.64113">
        <ele>65.6</ele>
        <time>2023-03-19T10:19:54Z</time>
      </trkpt>
      <trkpt lat="46.564" lon="0.64102">
        <ele>65.2</ele>
        <time>2023-03-19T10:19:56Z</time>
      </trkpt>
      <trkpt lat="46.56404" lon="0.64085">
        <ele>65</ele>
        <time>2023-03-19T10:19:59Z</time>
      </trkpt>
      <trkpt lat="46.56418" lon="0.64049">
        <ele>65.4</ele>
        <time>2023-03-19T10:20:05Z</time>
      </trkpt>
      <trkpt lat="46.56436" lon="0.64003">
        <ele>65.8</ele>
        <time>2023-03-19T10:20:12Z</time>
      </trkpt>
      <trkpt lat="46.56465" lon="0.63943">
        <ele>65.8</ele>
        <time>2023-03-19T10:20:22Z</time>
      </trkpt>
      <trkpt lat="46.56489" lon="0.63897">
        <ele>65.8</ele>
        <time>2023-03-19T10:20:30Z</time>
      </trkpt>
      <trkpt lat="46.56514" lon="0.63856">
        <ele>66</ele>
        <time>2023-03-19T10:20:38Z</time>
      </trkpt>
      <trkpt lat="46.56521" lon="0.63848">
        <ele>66</ele>
        <time>2023-03-19T10:20:40Z</time>
      </trkpt>
      <trkpt lat="46.56526" lon="0.63837">
        <ele>65.8</ele>
        <time>2023-03-19T10:20:43Z</time>
      </trkpt>
      <trkpt lat="46.56527" lon="0.63828">
        <ele>65.6</ele>
        <time>2023-03-19T10:20:47Z</time>
      </trkpt>
      <trkpt lat="46.56529" lon="0.63821">
        <ele>66.4</ele>
        <time>2023-03-19T10:20:57Z</time>
      </trkpt>
      <trkpt lat="46.56529" lon="0.6382">
        <ele>67</ele>
        <time>2023-03-19T10:20:59Z</time>
      </trkpt>
      <trkpt lat="46.56528" lon="0.63818">
        <ele>68.2</ele>
        <time>2023-03-19T10:21:03Z</time>
      </trkpt>
      <trkpt lat="46.56527" lon="0.63816">
        <ele>68.6</ele>
        <time>2023-03-19T10:21:06Z</time>
      </trkpt>
      <trkpt lat="46.56527" lon="0.63815">
        <ele>69</ele>
        <time>2023-03-19T10:21:07Z</time>
      </trkpt>
      <trkpt lat="46.56527" lon="0.63814">
        <ele>69.2</ele>
        <time>2023-03-19T10:21:08Z</time>
      </trkpt>
      <trkpt lat="46.56527" lon="0.63813">
        <ele>69.4</ele>
        <time>2023-03-19T10:21:09Z</time>
      </trkpt>
      <trkpt lat="46.56528" lon="0.63811">
        <ele>70</ele>
        <time>2023-03-19T10:21:11Z</time>
      </trkpt>
      <trkpt lat="46.56529" lon="0.63811">
        <ele>70.2</ele>
        <time>2023-03-19T10:21:12Z</time>
      </trkpt>
      <trkpt lat="46.56531" lon="0.63809">
        <ele>71</ele>
        <time>2023-03-19T10:21:15Z</time>
      </trkpt>
      <trkpt lat="46.56532" lon="0.63807">
        <ele>71.2</ele>
        <time>2023-03-19T10:21:17Z</time>
      </trkpt>
      <trkpt lat="46.56532" lon="0.63805">
        <ele>71.4</ele>
        <time>2023-03-19T10:21:18Z</time>
      </trkpt>
      <trkpt lat="46.56533" lon="0.638">
        <ele>72.2</ele>
        <time>2023-03-19T10:21:23Z</time>
      </trkpt>
      <trkpt lat="46.56533" lon="0.63799">
        <ele>72.2</ele>
        <time>2023-03-19T10:21:24Z</time>
      </trkpt>
      <trkpt lat="46.56533" lon="0.63798">
        <ele>72.4</ele>
        <time>2023-03-19T10:21:25Z</time>
      </trkpt>
      <trkpt lat="46.56533" lon="0.63793">
        <ele>73</ele>
        <time>2023-03-19T10:21:29Z</time>
      </trkpt>
      <trkpt lat="46.56533" lon="0.63786">
        <ele>73.4</ele>
        <time>2023-03-19T10:21:33Z</time>
      </trkpt>
      <trkpt lat="46.56532" lon="0.63782">
        <ele>73.6</ele>
        <time>2023-03-19T10:21:35Z</time>
      </trkpt>
      <trkpt lat="46.56533" lon="0.63777">
        <ele>74.4</ele>
        <time>2023-03-19T10:21:38Z</time>
      </trkpt>
      <trkpt lat="46.56531" lon="0.63763">
        <ele>75.6</ele>
        <time>2023-03-19T10:21:44Z</time>
      </trkpt>
      <trkpt lat="46.56529" lon="0.63753">
        <ele>76.6</ele>
        <time>2023-03-19T10:21:49Z</time>
      </trkpt>
      <trkpt lat="46.56528" lon="0.63738">
        <ele>77.8</ele>
        <time>2023-03-19T10:21:55Z</time>
      </trkpt>
      <trkpt lat="46.56528" lon="0.63724">
        <ele>79</ele>
        <time>2023-03-19T10:22:01Z</time>
      </trkpt>
      <trkpt lat="46.56526" lon="0.63706">
        <ele>80</ele>
        <time>2023-03-19T10:22:08Z</time>
      </trkpt>
      <trkpt lat="46.56525" lon="0.637">
        <ele>80.4</ele>
        <time>2023-03-19T10:22:10Z</time>
      </trkpt>
      <trkpt lat="46.56525" lon="0.63694">
        <ele>81</ele>
        <time>2023-03-19T10:22:12Z</time>
      </trkpt>
      <trkpt lat="46.56519" lon="0.63675">
        <ele>82</ele>
        <time>2023-03-19T10:22:20Z</time>
      </trkpt>
      <trkpt lat="46.56517" lon="0.63673">
        <ele>82.2</ele>
        <time>2023-03-19T10:22:21Z</time>
      </trkpt>
      <trkpt lat="46.56508" lon="0.63665">
        <ele>83.2</ele>
        <time>2023-03-19T10:22:27Z</time>
      </trkpt>
      <trkpt lat="46.56507" lon="0.63663">
        <ele>83.2</ele>
        <time>2023-03-19T10:22:28Z</time>
      </trkpt>
      <trkpt lat="46.56506" lon="0.63656">
        <ele>83.6</ele>
        <time>2023-03-19T10:22:31Z</time>
      </trkpt>
      <trkpt lat="46.56505" lon="0.63651">
        <ele>84.2</ele>
        <time>2023-03-19T10:22:33Z</time>
      </trkpt>
      <trkpt lat="46.56502" lon="0.63636">
        <ele>85</ele>
        <time>2023-03-19T10:22:38Z</time>
      </trkpt>
      <trkpt lat="46.56502" lon="0.63632">
        <ele>85.4</ele>
        <time>2023-03-19T10:22:39Z</time>
      </trkpt>
      <trkpt lat="46.565" lon="0.63612">
        <ele>86.6</ele>
        <time>2023-03-19T10:22:45Z</time>
      </trkpt>
      <trkpt lat="46.565" lon="0.63609">
        <ele>86.8</ele>
        <time>2023-03-19T10:22:46Z</time>
      </trkpt>
      <trkpt lat="46.56497" lon="0.63598">
        <ele>87.6</ele>
        <time>2023-03-19T10:22:51Z</time>
      </trkpt>
      <trkpt lat="46.56495" lon="0.63593">
        <ele>88.2</ele>
        <time>2023-03-19T10:22:53Z</time>
      </trkpt>
      <trkpt lat="46.56492" lon="0.6359">
        <ele>88.4</ele>
        <time>2023-03-19T10:22:55Z</time>
      </trkpt>
      <trkpt lat="46.56484" lon="0.63588">
        <ele>88.6</ele>
        <time>2023-03-19T10:22:58Z</time>
      </trkpt>
      <trkpt lat="46.56484" lon="0.63588">
        <ele>88.8</ele>
        <time>2023-03-19T10:23:01Z</time>
      </trkpt>
      <trkpt lat="46.56458" lon="0.63591">
        <ele>88.8</ele>
        <time>2023-03-19T10:23:07Z</time>
      </trkpt>
      <trkpt lat="46.56435" lon="0.63598">
        <ele>89.2</ele>
        <time>2023-03-19T10:23:13Z</time>
      </trkpt>
      <trkpt lat="46.56418" lon="0.63603">
        <ele>88.6</ele>
        <time>2023-03-19T10:23:17Z</time>
      </trkpt>
      <trkpt lat="46.56413" lon="0.63601">
        <ele>88.2</ele>
        <time>2023-03-19T10:23:19Z</time>
      </trkpt>
      <trkpt lat="46.56407" lon="0.63587">
        <ele>88.2</ele>
        <time>2023-03-19T10:23:24Z</time>
      </trkpt>
      <trkpt lat="46.56398" lon="0.63582">
        <ele>89.2</ele>
        <time>2023-03-19T10:23:29Z</time>
      </trkpt>
      <trkpt lat="46.56382" lon="0.63577">
        <ele>89</ele>
        <time>2023-03-19T10:23:34Z</time>
      </trkpt>
      <trkpt lat="46.56371" lon="0.63566">
        <ele>88.6</ele>
        <time>2023-03-19T10:23:39Z</time>
      </trkpt>
      <trkpt lat="46.56358" lon="0.63552">
        <ele>90</ele>
        <time>2023-03-19T10:23:44Z</time>
      </trkpt>
      <trkpt lat="46.56344" lon="0.63538">
        <ele>91.2</ele>
        <time>2023-03-19T10:23:49Z</time>
      </trkpt>
      <trkpt lat="46.56335" lon="0.63538">
        <ele>92.2</ele>
        <time>2023-03-19T10:23:52Z</time>
      </trkpt>
      <trkpt lat="46.56333" lon="0.63541">
        <ele>92.2</ele>
        <time>2023-03-19T10:23:53Z</time>
      </trkpt>
      <trkpt lat="46.56311" lon="0.63561">
        <ele>92</ele>
        <time>2023-03-19T10:24:00Z</time>
      </trkpt>
      <trkpt lat="46.56302" lon="0.63565">
        <ele>91.2</ele>
        <time>2023-03-19T10:24:04Z</time>
      </trkpt>
      <trkpt lat="46.56292" lon="0.63578">
        <ele>90</ele>
        <time>2023-03-19T10:24:09Z</time>
      </trkpt>
      <trkpt lat="46.56278" lon="0.63592">
        <ele>89.4</ele>
        <time>2023-03-19T10:24:14Z</time>
      </trkpt>
      <trkpt lat="46.56276" lon="0.63593">
        <ele>88.8</ele>
        <time>2023-03-19T10:24:16Z</time>
      </trkpt>
      <trkpt lat="46.56275" lon="0.63593">
        <ele>88.6</ele>
        <time>2023-03-19T10:24:18Z</time>
      </trkpt>
      <trkpt lat="46.56273" lon="0.63592">
        <ele>88.2</ele>
        <time>2023-03-19T10:24:38Z</time>
      </trkpt>
      <trkpt lat="46.56272" lon="0.63592">
        <ele>88.4</ele>
        <time>2023-03-19T10:24:53Z</time>
      </trkpt>
      <trkpt lat="46.56272" lon="0.63592">
        <ele>88.4</ele>
        <time>2023-03-19T10:25:09Z</time>
      </trkpt>
      <trkpt lat="46.56269" lon="0.63592">
        <ele>88.8</ele>
        <time>2023-03-19T10:25:24Z</time>
      </trkpt>
      <trkpt lat="46.56261" lon="0.63584">
        <ele>88.8</ele>
        <time>2023-03-19T10:25:31Z</time>
      </trkpt>
      <trkpt lat="46.56254" lon="0.63573">
        <ele>90</ele>
        <time>2023-03-19T10:25:37Z</time>
      </trkpt>
      <trkpt lat="46.56251" lon="0.6357">
        <ele>90.4</ele>
        <time>2023-03-19T10:25:39Z</time>
      </trkpt>
      <trkpt lat="46.56238" lon="0.63558">
        <ele>91.4</ele>
        <time>2023-03-19T10:25:45Z</time>
      </trkpt>
      <trkpt lat="46.56229" lon="0.63551">
        <ele>91.4</ele>
        <time>2023-03-19T10:25:50Z</time>
      </trkpt>
      <trkpt lat="46.5622" lon="0.63541">
        <ele>91.4</ele>
        <time>2023-03-19T10:25:55Z</time>
      </trkpt>
      <trkpt lat="46.5621" lon="0.63529">
        <ele>91.2</ele>
        <time>2023-03-19T10:26:00Z</time>
      </trkpt>
      <trkpt lat="46.56203" lon="0.63516">
        <ele>92</ele>
        <time>2023-03-19T10:26:05Z</time>
      </trkpt>
      <trkpt lat="46.56202" lon="0.63516">
        <ele>92</ele>
        <time>2023-03-19T10:26:06Z</time>
      </trkpt>
      <trkpt lat="46.56193" lon="0.63507">
        <ele>92.2</ele>
        <time>2023-03-19T10:26:10Z</time>
      </trkpt>
      <trkpt lat="46.56186" lon="0.63494">
        <ele>92.4</ele>
        <time>2023-03-19T10:26:13Z</time>
      </trkpt>
      <trkpt lat="46.56182" lon="0.63485">
        <ele>92.4</ele>
        <time>2023-03-19T10:26:15Z</time>
      </trkpt>
      <trkpt lat="46.56174" lon="0.63467">
        <ele>92.4</ele>
        <time>2023-03-19T10:26:20Z</time>
      </trkpt>
      <trkpt lat="46.5617" lon="0.63458">
        <ele>92</ele>
        <time>2023-03-19T10:26:22Z</time>
      </trkpt>
      <trkpt lat="46.56166" lon="0.6345">
        <ele>91.8</ele>
        <time>2023-03-19T10:26:24Z</time>
      </trkpt>
      <trkpt lat="46.56163" lon="0.63446">
        <ele>91.8</ele>
        <time>2023-03-19T10:26:25Z</time>
      </trkpt>
      <trkpt lat="46.56155" lon="0.63439">
        <ele>91.4</ele>
        <time>2023-03-19T10:26:27Z</time>
      </trkpt>
      <trkpt lat="46.56151" lon="0.63435">
        <ele>91</ele>
        <time>2023-03-19T10:26:28Z</time>
      </trkpt>
      <trkpt lat="46.56145" lon="0.63424">
        <ele>90.4</ele>
        <time>2023-03-19T10:26:30Z</time>
      </trkpt>
      <trkpt lat="46.56141" lon="0.63418">
        <ele>90.2</ele>
        <time>2023-03-19T10:26:31Z</time>
      </trkpt>
      <trkpt lat="46.56139" lon="0.63414">
        <ele>90.2</ele>
        <time>2023-03-19T10:26:32Z</time>
      </trkpt>
      <trkpt lat="46.56138" lon="0.63409">
        <ele>90</ele>
        <time>2023-03-19T10:26:34Z</time>
      </trkpt>
      <trkpt lat="46.56132" lon="0.63385">
        <ele>90.4</ele>
        <time>2023-03-19T10:26:41Z</time>
      </trkpt>
      <trkpt lat="46.5613" lon="0.63375">
        <ele>90.4</ele>
        <time>2023-03-19T10:26:43Z</time>
      </trkpt>
      <trkpt lat="46.56122" lon="0.63354">
        <ele>90</ele>
        <time>2023-03-19T10:26:47Z</time>
      </trkpt>
      <trkpt lat="46.56114" lon="0.63336">
        <ele>89.6</ele>
        <time>2023-03-19T10:26:50Z</time>
      </trkpt>
      <trkpt lat="46.56107" lon="0.63326">
        <ele>89.2</ele>
        <time>2023-03-19T10:26:52Z</time>
      </trkpt>
      <trkpt lat="46.56104" lon="0.6332">
        <ele>89</ele>
        <time>2023-03-19T10:26:53Z</time>
      </trkpt>
      <trkpt lat="46.56098" lon="0.63312">
        <ele>88.4</ele>
        <time>2023-03-19T10:26:55Z</time>
      </trkpt>
      <trkpt lat="46.56093" lon="0.63306">
        <ele>87.4</ele>
        <time>2023-03-19T10:26:57Z</time>
      </trkpt>
      <trkpt lat="46.56087" lon="0.63299">
        <ele>86.4</ele>
        <time>2023-03-19T10:27:00Z</time>
      </trkpt>
      <trkpt lat="46.56085" lon="0.63294">
        <ele>85.2</ele>
        <time>2023-03-19T10:27:02Z</time>
      </trkpt>
      <trkpt lat="46.56081" lon="0.63286">
        <ele>83.4</ele>
        <time>2023-03-19T10:27:04Z</time>
      </trkpt>
      <trkpt lat="46.56078" lon="0.6328">
        <ele>82.6</ele>
        <time>2023-03-19T10:27:05Z</time>
      </trkpt>
      <trkpt lat="46.56076" lon="0.63273">
        <ele>81.6</ele>
        <time>2023-03-19T10:27:06Z</time>
      </trkpt>
      <trkpt lat="46.56073" lon="0.63268">
        <ele>80.2</ele>
        <time>2023-03-19T10:27:07Z</time>
      </trkpt>
      <trkpt lat="46.56071" lon="0.63266">
        <ele>79.2</ele>
        <time>2023-03-19T10:27:08Z</time>
      </trkpt>
      <trkpt lat="46.56067" lon="0.6327">
        <ele>77.8</ele>
        <time>2023-03-19T10:27:10Z</time>
      </trkpt>
      <trkpt lat="46.56066" lon="0.63276">
        <ele>77</ele>
        <time>2023-03-19T10:27:11Z</time>
      </trkpt>
      <trkpt lat="46.56064" lon="0.63282">
        <ele>76.4</ele>
        <time>2023-03-19T10:27:12Z</time>
      </trkpt>
      <trkpt lat="46.56062" lon="0.63298">
        <ele>75.2</ele>
        <time>2023-03-19T10:27:14Z</time>
      </trkpt>
      <trkpt lat="46.56062" lon="0.63307">
        <ele>74.8</ele>
        <time>2023-03-19T10:27:15Z</time>
      </trkpt>
      <trkpt lat="46.56059" lon="0.63337">
        <ele>73.8</ele>
        <time>2023-03-19T10:27:18Z</time>
      </trkpt>
      <trkpt lat="46.56058" lon="0.63357">
        <ele>72.4</ele>
        <time>2023-03-19T10:27:20Z</time>
      </trkpt>
      <trkpt lat="46.56057" lon="0.63378">
        <ele>71</ele>
        <time>2023-03-19T10:27:22Z</time>
      </trkpt>
      <trkpt lat="46.56057" lon="0.63389">
        <ele>69.6</ele>
        <time>2023-03-19T10:27:23Z</time>
      </trkpt>
      <trkpt lat="46.56059" lon="0.63401">
        <ele>68.2</ele>
        <time>2023-03-19T10:27:24Z</time>
      </trkpt>
      <trkpt lat="46.56061" lon="0.63414">
        <ele>67.2</ele>
        <time>2023-03-19T10:27:25Z</time>
      </trkpt>
      <trkpt lat="46.56068" lon="0.6344">
        <ele>65.8</ele>
        <time>2023-03-19T10:27:27Z</time>
      </trkpt>
      <trkpt lat="46.56079" lon="0.63463">
        <ele>64.4</ele>
        <time>2023-03-19T10:27:29Z</time>
      </trkpt>
      <trkpt lat="46.56095" lon="0.63496">
        <ele>62.8</ele>
        <time>2023-03-19T10:27:32Z</time>
      </trkpt>
      <trkpt lat="46.561" lon="0.63504">
        <ele>61.6</ele>
        <time>2023-03-19T10:27:33Z</time>
      </trkpt>
      <trkpt lat="46.56104" lon="0.6351">
        <ele>60.6</ele>
        <time>2023-03-19T10:27:34Z</time>
      </trkpt>
      <trkpt lat="46.56106" lon="0.63515">
        <ele>59.8</ele>
        <time>2023-03-19T10:27:35Z</time>
      </trkpt>
      <trkpt lat="46.56105" lon="0.63525">
        <ele>58.4</ele>
        <time>2023-03-19T10:27:37Z</time>
      </trkpt>
      <trkpt lat="46.561" lon="0.63534">
        <ele>57.8</ele>
        <time>2023-03-19T10:27:39Z</time>
      </trkpt>
      <trkpt lat="46.56096" lon="0.63536">
        <ele>57.6</ele>
        <time>2023-03-19T10:27:40Z</time>
      </trkpt>
      <trkpt lat="46.56091" lon="0.63537">
        <ele>57.2</ele>
        <time>2023-03-19T10:27:41Z</time>
      </trkpt>
      <trkpt lat="46.56076" lon="0.63541">
        <ele>56.4</ele>
        <time>2023-03-19T10:27:44Z</time>
      </trkpt>
      <trkpt lat="46.56071" lon="0.63542">
        <ele>56.2</ele>
        <time>2023-03-19T10:27:45Z</time>
      </trkpt>
      <trkpt lat="46.56039" lon="0.63546">
        <ele>55.8</ele>
        <time>2023-03-19T10:27:51Z</time>
      </trkpt>
      <trkpt lat="46.56033" lon="0.63549">
        <ele>55.8</ele>
        <time>2023-03-19T10:27:52Z</time>
      </trkpt>
      <trkpt lat="46.56025" lon="0.63556">
        <ele>55.4</ele>
        <time>2023-03-19T10:27:54Z</time>
      </trkpt>
      <trkpt lat="46.56021" lon="0.6356">
        <ele>55.2</ele>
        <time>2023-03-19T10:27:55Z</time>
      </trkpt>
      <trkpt lat="46.56017" lon="0.63561">
        <ele>54.8</ele>
        <time>2023-03-19T10:27:56Z</time>
      </trkpt>
      <trkpt lat="46.56008" lon="0.6356">
        <ele>54.6</ele>
        <time>2023-03-19T10:27:58Z</time>
      </trkpt>
      <trkpt lat="46.55975" lon="0.63544">
        <ele>55</ele>
        <time>2023-03-19T10:28:05Z</time>
      </trkpt>
      <trkpt lat="46.55973" lon="0.63531">
        <ele>55</ele>
        <time>2023-03-19T10:28:07Z</time>
      </trkpt>
      <trkpt lat="46.55973" lon="0.63524">
        <ele>55</ele>
        <time>2023-03-19T10:28:08Z</time>
      </trkpt>
      <trkpt lat="46.55975" lon="0.63516">
        <ele>55.2</ele>
        <time>2023-03-19T10:28:09Z</time>
      </trkpt>
      <trkpt lat="46.55984" lon="0.63487">
        <ele>55.4</ele>
        <time>2023-03-19T10:28:13Z</time>
      </trkpt>
      <trkpt lat="46.55996" lon="0.63437">
        <ele>56.4</ele>
        <time>2023-03-19T10:28:21Z</time>
      </trkpt>
      <trkpt lat="46.56002" lon="0.634">
        <ele>57.6</ele>
        <time>2023-03-19T10:28:28Z</time>
      </trkpt>
      <trkpt lat="46.56009" lon="0.63354">
        <ele>59</ele>
        <time>2023-03-19T10:28:37Z</time>
      </trkpt>
      <trkpt lat="46.56011" lon="0.63341">
        <ele>60</ele>
        <time>2023-03-19T10:28:40Z</time>
      </trkpt>
      <trkpt lat="46.56014" lon="0.63325">
        <ele>61.2</ele>
        <time>2023-03-19T10:28:44Z</time>
      </trkpt>
      <trkpt lat="46.56015" lon="0.63321">
        <ele>61.4</ele>
        <time>2023-03-19T10:28:45Z</time>
      </trkpt>
      <trkpt lat="46.56015" lon="0.63312">
        <ele>62.6</ele>
        <time>2023-03-19T10:28:48Z</time>
      </trkpt>
      <trkpt lat="46.56013" lon="0.63303">
        <ele>63.6</ele>
        <time>2023-03-19T10:28:52Z</time>
      </trkpt>
      <trkpt lat="46.56011" lon="0.63296">
        <ele>64</ele>
        <time>2023-03-19T10:28:55Z</time>
      </trkpt>
      <trkpt lat="46.56008" lon="0.63293">
        <ele>64</ele>
        <time>2023-03-19T10:28:57Z</time>
      </trkpt>
      <trkpt lat="46.55998" lon="0.63284">
        <ele>64.8</ele>
        <time>2023-03-19T10:29:03Z</time>
      </trkpt>
      <trkpt lat="46.55997" lon="0.63282">
        <ele>65</ele>
        <time>2023-03-19T10:29:04Z</time>
      </trkpt>
      <trkpt lat="46.5599" lon="0.63275">
        <ele>65.8</ele>
        <time>2023-03-19T10:29:10Z</time>
      </trkpt>
      <trkpt lat="46.55988" lon="0.63274">
        <ele>66</ele>
        <time>2023-03-19T10:29:11Z</time>
      </trkpt>
      <trkpt lat="46.55987" lon="0.63272">
        <ele>66</ele>
        <time>2023-03-19T10:29:12Z</time>
      </trkpt>
      <trkpt lat="46.55981" lon="0.6327">
        <ele>65.8</ele>
        <time>2023-03-19T10:29:14Z</time>
      </trkpt>
      <trkpt lat="46.55978" lon="0.63269">
        <ele>65.8</ele>
        <time>2023-03-19T10:29:15Z</time>
      </trkpt>
      <trkpt lat="46.55972" lon="0.63265">
        <ele>65.4</ele>
        <time>2023-03-19T10:29:17Z</time>
      </trkpt>
      <trkpt lat="46.55964" lon="0.63256">
        <ele>65</ele>
        <time>2023-03-19T10:29:19Z</time>
      </trkpt>
      <trkpt lat="46.5596" lon="0.63252">
        <ele>64.6</ele>
        <time>2023-03-19T10:29:20Z</time>
      </trkpt>
      <trkpt lat="46.5594" lon="0.63229">
        <ele>63.6</ele>
        <time>2023-03-19T10:29:24Z</time>
      </trkpt>
      <trkpt lat="46.55928" lon="0.63224">
        <ele>62.6</ele>
        <time>2023-03-19T10:29:26Z</time>
      </trkpt>
      <trkpt lat="46.55923" lon="0.63223">
        <ele>62.4</ele>
        <time>2023-03-19T10:29:27Z</time>
      </trkpt>
      <trkpt lat="46.55905" lon="0.63217">
        <ele>62</ele>
        <time>2023-03-19T10:29:31Z</time>
      </trkpt>
      <trkpt lat="46.55901" lon="0.63215">
        <ele>62.2</ele>
        <time>2023-03-19T10:29:32Z</time>
      </trkpt>
      <trkpt lat="46.55876" lon="0.63199">
        <ele>62.8</ele>
        <time>2023-03-19T10:29:39Z</time>
      </trkpt>
      <trkpt lat="46.55866" lon="0.63191">
        <ele>62.8</ele>
        <time>2023-03-19T10:29:42Z</time>
      </trkpt>
      <trkpt lat="46.55851" lon="0.6318">
        <ele>63</ele>
        <time>2023-03-19T10:29:46Z</time>
      </trkpt>
      <trkpt lat="46.55827" lon="0.63164">
        <ele>62.6</ele>
        <time>2023-03-19T10:29:52Z</time>
      </trkpt>
      <trkpt lat="46.55823" lon="0.6316">
        <ele>62.6</ele>
        <time>2023-03-19T10:29:53Z</time>
      </trkpt>
      <trkpt lat="46.5581" lon="0.63149">
        <ele>62.6</ele>
        <time>2023-03-19T10:29:56Z</time>
      </trkpt>
      <trkpt lat="46.55801" lon="0.63141">
        <ele>63</ele>
        <time>2023-03-19T10:29:59Z</time>
      </trkpt>
      <trkpt lat="46.55792" lon="0.63133">
        <ele>63.4</ele>
        <time>2023-03-19T10:30:02Z</time>
      </trkpt>
      <trkpt lat="46.55781" lon="0.63123">
        <ele>63.6</ele>
        <time>2023-03-19T10:30:05Z</time>
      </trkpt>
      <trkpt lat="46.55773" lon="0.63115">
        <ele>63.8</ele>
        <time>2023-03-19T10:30:07Z</time>
      </trkpt>
      <trkpt lat="46.55766" lon="0.63108">
        <ele>63.8</ele>
        <time>2023-03-19T10:30:09Z</time>
      </trkpt>
      <trkpt lat="46.55763" lon="0.63104">
        <ele>63.8</ele>
        <time>2023-03-19T10:30:10Z</time>
      </trkpt>
      <trkpt lat="46.55752" lon="0.63094">
        <ele>63.6</ele>
        <time>2023-03-19T10:30:13Z</time>
      </trkpt>
      <trkpt lat="46.55742" lon="0.63084">
        <ele>63.8</ele>
        <time>2023-03-19T10:30:15Z</time>
      </trkpt>
      <trkpt lat="46.5573" lon="0.63071">
        <ele>63.6</ele>
        <time>2023-03-19T10:30:18Z</time>
      </trkpt>
      <trkpt lat="46.5572" lon="0.63058">
        <ele>63.4</ele>
        <time>2023-03-19T10:30:21Z</time>
      </trkpt>
      <trkpt lat="46.55699" lon="0.6304">
        <ele>63.6</ele>
        <time>2023-03-19T10:30:26Z</time>
      </trkpt>
      <trkpt lat="46.55691" lon="0.63034">
        <ele>63.6</ele>
        <time>2023-03-19T10:30:28Z</time>
      </trkpt>
      <trkpt lat="46.55669" lon="0.6302">
        <ele>62.6</ele>
        <time>2023-03-19T10:30:33Z</time>
      </trkpt>
      <trkpt lat="46.55663" lon="0.63016">
        <ele>62.2</ele>
        <time>2023-03-19T10:30:35Z</time>
      </trkpt>
      <trkpt lat="46.55653" lon="0.63007">
        <ele>61.8</ele>
        <time>2023-03-19T10:30:39Z</time>
      </trkpt>
      <trkpt lat="46.55644" lon="0.63">
        <ele>62</ele>
        <time>2023-03-19T10:30:42Z</time>
      </trkpt>
      <trkpt lat="46.55637" lon="0.62996">
        <ele>62.4</ele>
        <time>2023-03-19T10:30:44Z</time>
      </trkpt>
      <trkpt lat="46.55625" lon="0.62991">
        <ele>62.6</ele>
        <time>2023-03-19T10:30:47Z</time>
      </trkpt>
      <trkpt lat="46.55616" lon="0.62985">
        <ele>62.6</ele>
        <time>2023-03-19T10:30:49Z</time>
      </trkpt>
      <trkpt lat="46.55611" lon="0.62982">
        <ele>62.6</ele>
        <time>2023-03-19T10:30:50Z</time>
      </trkpt>
      <trkpt lat="46.55601" lon="0.62975">
        <ele>62.4</ele>
        <time>2023-03-19T10:30:52Z</time>
      </trkpt>
      <trkpt lat="46.55589" lon="0.62966">
        <ele>62.2</ele>
        <time>2023-03-19T10:30:55Z</time>
      </trkpt>
      <trkpt lat="46.55586" lon="0.62964">
        <ele>62.2</ele>
        <time>2023-03-19T10:30:56Z</time>
      </trkpt>
      <trkpt lat="46.55569" lon="0.62954">
        <ele>62.2</ele>
        <time>2023-03-19T10:31:01Z</time>
      </trkpt>
      <trkpt lat="46.55566" lon="0.62952">
        <ele>62.4</ele>
        <time>2023-03-19T10:31:02Z</time>
      </trkpt>
      <trkpt lat="46.55558" lon="0.62947">
        <ele>62.4</ele>
        <time>2023-03-19T10:31:04Z</time>
      </trkpt>
      <trkpt lat="46.55549" lon="0.6294">
        <ele>63</ele>
        <time>2023-03-19T10:31:07Z</time>
      </trkpt>
      <trkpt lat="46.5553" lon="0.62925">
        <ele>62.6</ele>
        <time>2023-03-19T10:31:12Z</time>
      </trkpt>
      <trkpt lat="46.55526" lon="0.62922">
        <ele>62.4</ele>
        <time>2023-03-19T10:31:13Z</time>
      </trkpt>
      <trkpt lat="46.55516" lon="0.62917">
        <ele>62</ele>
        <time>2023-03-19T10:31:15Z</time>
      </trkpt>
      <trkpt lat="46.55498" lon="0.62911">
        <ele>61</ele>
        <time>2023-03-19T10:31:18Z</time>
      </trkpt>
      <trkpt lat="46.5548" lon="0.62905">
        <ele>60.2</ele>
        <time>2023-03-19T10:31:21Z</time>
      </trkpt>
      <trkpt lat="46.55475" lon="0.62901">
        <ele>60</ele>
        <time>2023-03-19T10:31:22Z</time>
      </trkpt>
      <trkpt lat="46.55471" lon="0.62898">
        <ele>59.8</ele>
        <time>2023-03-19T10:31:23Z</time>
      </trkpt>
      <trkpt lat="46.55448" lon="0.62886">
        <ele>61.4</ele>
        <time>2023-03-19T10:31:28Z</time>
      </trkpt>
      <trkpt lat="46.55438" lon="0.62881">
        <ele>61.6</ele>
        <time>2023-03-19T10:31:30Z</time>
      </trkpt>
      <trkpt lat="46.5542" lon="0.6287">
        <ele>61.2</ele>
        <time>2023-03-19T10:31:35Z</time>
      </trkpt>
      <trkpt lat="46.55416" lon="0.62868">
        <ele>61.4</ele>
        <time>2023-03-19T10:31:37Z</time>
      </trkpt>
      <trkpt lat="46.55411" lon="0.62866">
        <ele>61.4</ele>
        <time>2023-03-19T10:31:40Z</time>
      </trkpt>
      <trkpt lat="46.55409" lon="0.62865">
        <ele>61.6</ele>
        <time>2023-03-19T10:31:41Z</time>
      </trkpt>
      <trkpt lat="46.55397" lon="0.6286">
        <ele>62</ele>
        <time>2023-03-19T10:31:48Z</time>
      </trkpt>
      <trkpt lat="46.55385" lon="0.62849">
        <ele>62.4</ele>
        <time>2023-03-19T10:31:53Z</time>
      </trkpt>
      <trkpt lat="46.55383" lon="0.62847">
        <ele>62.8</ele>
        <time>2023-03-19T10:31:54Z</time>
      </trkpt>
      <trkpt lat="46.55374" lon="0.62838">
        <ele>63.4</ele>
        <time>2023-03-19T10:31:58Z</time>
      </trkpt>
      <trkpt lat="46.55371" lon="0.62835">
        <ele>64.4</ele>
        <time>2023-03-19T10:32:00Z</time>
      </trkpt>
      <trkpt lat="46.55369" lon="0.62833">
        <ele>64.6</ele>
        <time>2023-03-19T10:32:01Z</time>
      </trkpt>
      <trkpt lat="46.55361" lon="0.62823">
        <ele>65.8</ele>
        <time>2023-03-19T10:32:07Z</time>
      </trkpt>
      <trkpt lat="46.55358" lon="0.6282">
        <ele>66</ele>
        <time>2023-03-19T10:32:09Z</time>
      </trkpt>
      <trkpt lat="46.55351" lon="0.62814">
        <ele>67</ele>
        <time>2023-03-19T10:32:13Z</time>
      </trkpt>
      <trkpt lat="46.55347" lon="0.62812">
        <ele>67</ele>
        <time>2023-03-19T10:32:15Z</time>
      </trkpt>
      <trkpt lat="46.55326" lon="0.62801">
        <ele>66.8</ele>
        <time>2023-03-19T10:32:22Z</time>
      </trkpt>
      <trkpt lat="46.5531" lon="0.62791">
        <ele>65.8</ele>
        <time>2023-03-19T10:32:26Z</time>
      </trkpt>
      <trkpt lat="46.55307" lon="0.62788">
        <ele>65.6</ele>
        <time>2023-03-19T10:32:27Z</time>
      </trkpt>
      <trkpt lat="46.55303" lon="0.62784">
        <ele>65.4</ele>
        <time>2023-03-19T10:32:28Z</time>
      </trkpt>
      <trkpt lat="46.55284" lon="0.62761">
        <ele>65</ele>
        <time>2023-03-19T10:32:34Z</time>
      </trkpt>
      <trkpt lat="46.55276" lon="0.62747">
        <ele>65</ele>
        <time>2023-03-19T10:32:37Z</time>
      </trkpt>
      <trkpt lat="46.55272" lon="0.62739">
        <ele>65</ele>
        <time>2023-03-19T10:32:39Z</time>
      </trkpt>
      <trkpt lat="46.55262" lon="0.62713">
        <ele>66.6</ele>
        <time>2023-03-19T10:32:46Z</time>
      </trkpt>
      <trkpt lat="46.55259" lon="0.62706">
        <ele>66.8</ele>
        <time>2023-03-19T10:32:48Z</time>
      </trkpt>
      <trkpt lat="46.55258" lon="0.62691">
        <ele>67.2</ele>
        <time>2023-03-19T10:32:52Z</time>
      </trkpt>
      <trkpt lat="46.55255" lon="0.62674">
        <ele>68</ele>
        <time>2023-03-19T10:32:56Z</time>
      </trkpt>
      <trkpt lat="46.55252" lon="0.62667">
        <ele>68.6</ele>
        <time>2023-03-19T10:32:58Z</time>
      </trkpt>
      <trkpt lat="46.55249" lon="0.62657">
        <ele>69.2</ele>
        <time>2023-03-19T10:33:01Z</time>
      </trkpt>
      <trkpt lat="46.55243" lon="0.62643">
        <ele>69.8</ele>
        <time>2023-03-19T10:33:05Z</time>
      </trkpt>
      <trkpt lat="46.55239" lon="0.62633">
        <ele>70.2</ele>
        <time>2023-03-19T10:33:08Z</time>
      </trkpt>
      <trkpt lat="46.55236" lon="0.62624">
        <ele>71</ele>
        <time>2023-03-19T10:33:11Z</time>
      </trkpt>
      <trkpt lat="46.55234" lon="0.6262">
        <ele>71.2</ele>
        <time>2023-03-19T10:33:13Z</time>
      </trkpt>
      <trkpt lat="46.55232" lon="0.62618">
        <ele>71.4</ele>
        <time>2023-03-19T10:33:14Z</time>
      </trkpt>
      <trkpt lat="46.55228" lon="0.62612">
        <ele>71.8</ele>
        <time>2023-03-19T10:33:17Z</time>
      </trkpt>
      <trkpt lat="46.55218" lon="0.62598">
        <ele>72.4</ele>
        <time>2023-03-19T10:33:24Z</time>
      </trkpt>
      <trkpt lat="46.55216" lon="0.62596">
        <ele>72.6</ele>
        <time>2023-03-19T10:33:25Z</time>
      </trkpt>
      <trkpt lat="46.55201" lon="0.62582">
        <ele>73.4</ele>
        <time>2023-03-19T10:33:32Z</time>
      </trkpt>
      <trkpt lat="46.55188" lon="0.6257">
        <ele>74.6</ele>
        <time>2023-03-19T10:33:40Z</time>
      </trkpt>
      <trkpt lat="46.55174" lon="0.62555">
        <ele>75.4</ele>
        <time>2023-03-19T10:33:47Z</time>
      </trkpt>
      <trkpt lat="46.55171" lon="0.6255">
        <ele>75.6</ele>
        <time>2023-03-19T10:33:49Z</time>
      </trkpt>
      <trkpt lat="46.55158" lon="0.62543">
        <ele>76.4</ele>
        <time>2023-03-19T10:33:54Z</time>
      </trkpt>
      <trkpt lat="46.55154" lon="0.62542">
        <ele>76.8</ele>
        <time>2023-03-19T10:33:56Z</time>
      </trkpt>
      <trkpt lat="46.55145" lon="0.62537">
        <ele>77</ele>
        <time>2023-03-19T10:34:00Z</time>
      </trkpt>
      <trkpt lat="46.55131" lon="0.62531">
        <ele>77.6</ele>
        <time>2023-03-19T10:34:05Z</time>
      </trkpt>
      <trkpt lat="46.55125" lon="0.62529">
        <ele>77.8</ele>
        <time>2023-03-19T10:34:07Z</time>
      </trkpt>
      <trkpt lat="46.55114" lon="0.62524">
        <ele>78.2</ele>
        <time>2023-03-19T10:34:11Z</time>
      </trkpt>
      <trkpt lat="46.55101" lon="0.62517">
        <ele>78.8</ele>
        <time>2023-03-19T10:34:16Z</time>
      </trkpt>
      <trkpt lat="46.55097" lon="0.62513">
        <ele>78.8</ele>
        <time>2023-03-19T10:34:18Z</time>
      </trkpt>
      <trkpt lat="46.55075" lon="0.62501">
        <ele>79.6</ele>
        <time>2023-03-19T10:34:26Z</time>
      </trkpt>
      <trkpt lat="46.5507" lon="0.62497">
        <ele>79.8</ele>
        <time>2023-03-19T10:34:28Z</time>
      </trkpt>
      <trkpt lat="46.55059" lon="0.62489">
        <ele>80.6</ele>
        <time>2023-03-19T10:34:33Z</time>
      </trkpt>
      <trkpt lat="46.55052" lon="0.62485">
        <ele>80.8</ele>
        <time>2023-03-19T10:34:36Z</time>
      </trkpt>
      <trkpt lat="46.55045" lon="0.62478">
        <ele>81.6</ele>
        <time>2023-03-19T10:34:40Z</time>
      </trkpt>
      <trkpt lat="46.55041" lon="0.62473">
        <ele>82</ele>
        <time>2023-03-19T10:34:42Z</time>
      </trkpt>
      <trkpt lat="46.55033" lon="0.62463">
        <ele>83</ele>
        <time>2023-03-19T10:34:47Z</time>
      </trkpt>
      <trkpt lat="46.55031" lon="0.62462">
        <ele>83.2</ele>
        <time>2023-03-19T10:34:48Z</time>
      </trkpt>
      <trkpt lat="46.55025" lon="0.62455">
        <ele>84.2</ele>
        <time>2023-03-19T10:34:52Z</time>
      </trkpt>
      <trkpt lat="46.55017" lon="0.62452">
        <ele>85</ele>
        <time>2023-03-19T10:34:56Z</time>
      </trkpt>
      <trkpt lat="46.55006" lon="0.62446">
        <ele>85.2</ele>
        <time>2023-03-19T10:35:02Z</time>
      </trkpt>
      <trkpt lat="46.54988" lon="0.6244">
        <ele>85.8</ele>
        <time>2023-03-19T10:35:08Z</time>
      </trkpt>
      <trkpt lat="46.54971" lon="0.62435">
        <ele>86</ele>
        <time>2023-03-19T10:35:14Z</time>
      </trkpt>
      <trkpt lat="46.54966" lon="0.62435">
        <ele>86.4</ele>
        <time>2023-03-19T10:35:16Z</time>
      </trkpt>
      <trkpt lat="46.54959" lon="0.62435">
        <ele>86.6</ele>
        <time>2023-03-19T10:35:19Z</time>
      </trkpt>
      <trkpt lat="46.54949" lon="0.62432">
        <ele>87.4</ele>
        <time>2023-03-19T10:35:24Z</time>
      </trkpt>
      <trkpt lat="46.54947" lon="0.62429">
        <ele>87.6</ele>
        <time>2023-03-19T10:35:26Z</time>
      </trkpt>
      <trkpt lat="46.54932" lon="0.62418">
        <ele>88.4</ele>
        <time>2023-03-19T10:35:33Z</time>
      </trkpt>
      <trkpt lat="46.54922" lon="0.62406">
        <ele>88.6</ele>
        <time>2023-03-19T10:35:39Z</time>
      </trkpt>
      <trkpt lat="46.54906" lon="0.62394">
        <ele>89.4</ele>
        <time>2023-03-19T10:35:45Z</time>
      </trkpt>
      <trkpt lat="46.54903" lon="0.62391">
        <ele>89.4</ele>
        <time>2023-03-19T10:35:46Z</time>
      </trkpt>
      <trkpt lat="46.54887" lon="0.62377">
        <ele>89.6</ele>
        <time>2023-03-19T10:35:51Z</time>
      </trkpt>
      <trkpt lat="46.54882" lon="0.62373">
        <ele>90</ele>
        <time>2023-03-19T10:35:53Z</time>
      </trkpt>
      <trkpt lat="46.54871" lon="0.62366">
        <ele>90.4</ele>
        <time>2023-03-19T10:35:57Z</time>
      </trkpt>
      <trkpt lat="46.54852" lon="0.62354">
        <ele>91.6</ele>
        <time>2023-03-19T10:36:03Z</time>
      </trkpt>
      <trkpt lat="46.54831" lon="0.62343">
        <ele>92.2</ele>
        <time>2023-03-19T10:36:10Z</time>
      </trkpt>
      <trkpt lat="46.54821" lon="0.6234">
        <ele>92.6</ele>
        <time>2023-03-19T10:36:13Z</time>
      </trkpt>
      <trkpt lat="46.54811" lon="0.62338">
        <ele>93</ele>
        <time>2023-03-19T10:36:16Z</time>
      </trkpt>
      <trkpt lat="46.54792" lon="0.62334">
        <ele>93.6</ele>
        <time>2023-03-19T10:36:21Z</time>
      </trkpt>
      <trkpt lat="46.54785" lon="0.62332">
        <ele>93.8</ele>
        <time>2023-03-19T10:36:23Z</time>
      </trkpt>
      <trkpt lat="46.54763" lon="0.62324">
        <ele>94.8</ele>
        <time>2023-03-19T10:36:30Z</time>
      </trkpt>
      <trkpt lat="46.54761" lon="0.62322">
        <ele>94.8</ele>
        <time>2023-03-19T10:36:31Z</time>
      </trkpt>
      <trkpt lat="46.54747" lon="0.62314">
        <ele>95.4</ele>
        <time>2023-03-19T10:36:37Z</time>
      </trkpt>
      <trkpt lat="46.54733" lon="0.62307">
        <ele>95.8</ele>
        <time>2023-03-19T10:36:42Z</time>
      </trkpt>
      <trkpt lat="46.5473" lon="0.62306">
        <ele>96</ele>
        <time>2023-03-19T10:36:43Z</time>
      </trkpt>
      <trkpt lat="46.54705" lon="0.62291">
        <ele>96.4</ele>
        <time>2023-03-19T10:36:51Z</time>
      </trkpt>
      <trkpt lat="46.54695" lon="0.62286">
        <ele>97</ele>
        <time>2023-03-19T10:36:54Z</time>
      </trkpt>
      <trkpt lat="46.54685" lon="0.6228">
        <ele>97.8</ele>
        <time>2023-03-19T10:36:57Z</time>
      </trkpt>
      <trkpt lat="46.54667" lon="0.62267">
        <ele>98</ele>
        <time>2023-03-19T10:37:02Z</time>
      </trkpt>
      <trkpt lat="46.54664" lon="0.62265">
        <ele>98</ele>
        <time>2023-03-19T10:37:03Z</time>
      </trkpt>
      <trkpt lat="46.54647" lon="0.62252">
        <ele>98.4</ele>
        <time>2023-03-19T10:37:09Z</time>
      </trkpt>
      <trkpt lat="46.54634" lon="0.62242">
        <ele>99</ele>
        <time>2023-03-19T10:37:13Z</time>
      </trkpt>
      <trkpt lat="46.54628" lon="0.62238">
        <ele>99</ele>
        <time>2023-03-19T10:37:15Z</time>
      </trkpt>
      <trkpt lat="46.54608" lon="0.62222">
        <ele>98.8</ele>
        <time>2023-03-19T10:37:22Z</time>
      </trkpt>
      <trkpt lat="46.54582" lon="0.622">
        <ele>99</ele>
        <time>2023-03-19T10:37:29Z</time>
      </trkpt>
      <trkpt lat="46.54559" lon="0.62185">
        <ele>100</ele>
        <time>2023-03-19T10:37:36Z</time>
      </trkpt>
      <trkpt lat="46.54542" lon="0.62171">
        <ele>101</ele>
        <time>2023-03-19T10:37:43Z</time>
      </trkpt>
      <trkpt lat="46.54529" lon="0.62164">
        <ele>102.4</ele>
        <time>2023-03-19T10:37:48Z</time>
      </trkpt>
      <trkpt lat="46.54522" lon="0.62162">
        <ele>102.6</ele>
        <time>2023-03-19T10:37:51Z</time>
      </trkpt>
      <trkpt lat="46.5451" lon="0.62162">
        <ele>103.4</ele>
        <time>2023-03-19T10:37:57Z</time>
      </trkpt>
      <trkpt lat="46.54505" lon="0.62162">
        <ele>103.8</ele>
        <time>2023-03-19T10:37:59Z</time>
      </trkpt>
      <trkpt lat="46.54499" lon="0.62162">
        <ele>104.4</ele>
        <time>2023-03-19T10:38:02Z</time>
      </trkpt>
      <trkpt lat="46.54488" lon="0.62161">
        <ele>105.2</ele>
        <time>2023-03-19T10:38:07Z</time>
      </trkpt>
      <trkpt lat="46.54484" lon="0.62161">
        <ele>105.6</ele>
        <time>2023-03-19T10:38:09Z</time>
      </trkpt>
      <trkpt lat="46.54475" lon="0.62161">
        <ele>106.4</ele>
        <time>2023-03-19T10:38:13Z</time>
      </trkpt>
      <trkpt lat="46.5447" lon="0.62161">
        <ele>106.8</ele>
        <time>2023-03-19T10:38:15Z</time>
      </trkpt>
      <trkpt lat="46.54459" lon="0.62161">
        <ele>107.4</ele>
        <time>2023-03-19T10:38:19Z</time>
      </trkpt>
      <trkpt lat="46.54442" lon="0.62159">
        <ele>108</ele>
        <time>2023-03-19T10:38:25Z</time>
      </trkpt>
      <trkpt lat="46.5444" lon="0.62159">
        <ele>108.2</ele>
        <time>2023-03-19T10:38:26Z</time>
      </trkpt>
      <trkpt lat="46.54421" lon="0.62159">
        <ele>109</ele>
        <time>2023-03-19T10:38:33Z</time>
      </trkpt>
      <trkpt lat="46.54419" lon="0.62159">
        <ele>109.2</ele>
        <time>2023-03-19T10:38:34Z</time>
      </trkpt>
      <trkpt lat="46.54408" lon="0.62157">
        <ele>109.8</ele>
        <time>2023-03-19T10:38:40Z</time>
      </trkpt>
      <trkpt lat="46.54398" lon="0.62153">
        <ele>110.2</ele>
        <time>2023-03-19T10:38:44Z</time>
      </trkpt>
      <trkpt lat="46.54395" lon="0.62152">
        <ele>110.2</ele>
        <time>2023-03-19T10:38:45Z</time>
      </trkpt>
      <trkpt lat="46.54388" lon="0.6215">
        <ele>110.4</ele>
        <time>2023-03-19T10:38:47Z</time>
      </trkpt>
      <trkpt lat="46.5438" lon="0.62154">
        <ele>111</ele>
        <time>2023-03-19T10:38:50Z</time>
      </trkpt>
      <trkpt lat="46.54379" lon="0.62156">
        <ele>111.2</ele>
        <time>2023-03-19T10:38:51Z</time>
      </trkpt>
      <trkpt lat="46.54377" lon="0.6216">
        <ele>111.2</ele>
        <time>2023-03-19T10:38:52Z</time>
      </trkpt>
      <trkpt lat="46.54376" lon="0.62167">
        <ele>111.2</ele>
        <time>2023-03-19T10:38:54Z</time>
      </trkpt>
      <trkpt lat="46.54373" lon="0.62196">
        <ele>112</ele>
        <time>2023-03-19T10:39:01Z</time>
      </trkpt>
      <trkpt lat="46.54369" lon="0.62237">
        <ele>112.2</ele>
        <time>2023-03-19T10:39:08Z</time>
      </trkpt>
      <trkpt lat="46.54365" lon="0.62293">
        <ele>111.6</ele>
        <time>2023-03-19T10:39:16Z</time>
      </trkpt>
      <trkpt lat="46.54361" lon="0.62343">
        <ele>110.2</ele>
        <time>2023-03-19T10:39:21Z</time>
      </trkpt>
      <trkpt lat="46.54359" lon="0.62366">
        <ele>109</ele>
        <time>2023-03-19T10:39:23Z</time>
      </trkpt>
      <trkpt lat="46.54356" lon="0.62427">
        <ele>107.8</ele>
        <time>2023-03-19T10:39:28Z</time>
      </trkpt>
      <trkpt lat="46.54356" lon="0.62449">
        <ele>106.6</ele>
        <time>2023-03-19T10:39:30Z</time>
      </trkpt>
      <trkpt lat="46.54359" lon="0.62472">
        <ele>105.8</ele>
        <time>2023-03-19T10:39:32Z</time>
      </trkpt>
      <trkpt lat="46.54361" lon="0.62482">
        <ele>105.2</ele>
        <time>2023-03-19T10:39:33Z</time>
      </trkpt>
      <trkpt lat="46.54361" lon="0.62493">
        <ele>104.2</ele>
        <time>2023-03-19T10:39:34Z</time>
      </trkpt>
      <trkpt lat="46.54361" lon="0.62514">
        <ele>102</ele>
        <time>2023-03-19T10:39:35Z</time>
      </trkpt>
      <trkpt lat="46.54361" lon="0.62526">
        <ele>101.4</ele>
        <time>2023-03-19T10:39:37Z</time>
      </trkpt>
      <trkpt lat="46.5436" lon="0.62539">
        <ele>100.8</ele>
        <time>2023-03-19T10:39:38Z</time>
      </trkpt>
      <trkpt lat="46.5436" lon="0.62567">
        <ele>99</ele>
        <time>2023-03-19T10:39:40Z</time>
      </trkpt>
      <trkpt lat="46.54362" lon="0.62581">
        <ele>98.6</ele>
        <time>2023-03-19T10:39:41Z</time>
      </trkpt>
      <trkpt lat="46.54364" lon="0.62595">
        <ele>97.4</ele>
        <time>2023-03-19T10:39:42Z</time>
      </trkpt>
      <trkpt lat="46.54367" lon="0.62608">
        <ele>96</ele>
        <time>2023-03-19T10:39:43Z</time>
      </trkpt>
      <trkpt lat="46.54371" lon="0.6262">
        <ele>94.8</ele>
        <time>2023-03-19T10:39:44Z</time>
      </trkpt>
      <trkpt lat="46.54376" lon="0.62631">
        <ele>94.2</ele>
        <time>2023-03-19T10:39:45Z</time>
      </trkpt>
      <trkpt lat="46.54381" lon="0.62641">
        <ele>93</ele>
        <time>2023-03-19T10:39:46Z</time>
      </trkpt>
      <trkpt lat="46.54388" lon="0.62661">
        <ele>90.8</ele>
        <time>2023-03-19T10:39:48Z</time>
      </trkpt>
      <trkpt lat="46.5439" lon="0.62673">
        <ele>90</ele>
        <time>2023-03-19T10:39:49Z</time>
      </trkpt>
      <trkpt lat="46.54391" lon="0.62685">
        <ele>88.8</ele>
        <time>2023-03-19T10:39:50Z</time>
      </trkpt>
      <trkpt lat="46.54393" lon="0.62699">
        <ele>87.6</ele>
        <time>2023-03-19T10:39:51Z</time>
      </trkpt>
      <trkpt lat="46.54396" lon="0.62713">
        <ele>86.8</ele>
        <time>2023-03-19T10:39:52Z</time>
      </trkpt>
      <trkpt lat="46.54399" lon="0.62726">
        <ele>85.8</ele>
        <time>2023-03-19T10:39:53Z</time>
      </trkpt>
      <trkpt lat="46.54404" lon="0.62739">
        <ele>84.8</ele>
        <time>2023-03-19T10:39:54Z</time>
      </trkpt>
      <trkpt lat="46.54408" lon="0.6275">
        <ele>84.4</ele>
        <time>2023-03-19T10:39:55Z</time>
      </trkpt>
      <trkpt lat="46.54412" lon="0.6276">
        <ele>83.6</ele>
        <time>2023-03-19T10:39:56Z</time>
      </trkpt>
      <trkpt lat="46.54415" lon="0.62768">
        <ele>81.8</ele>
        <time>2023-03-19T10:39:57Z</time>
      </trkpt>
      <trkpt lat="46.54417" lon="0.62773">
        <ele>80.4</ele>
        <time>2023-03-19T10:39:58Z</time>
      </trkpt>
      <trkpt lat="46.54418" lon="0.62776">
        <ele>79.2</ele>
        <time>2023-03-19T10:39:59Z</time>
      </trkpt>
      <trkpt lat="46.54416" lon="0.62782">
        <ele>78</ele>
        <time>2023-03-19T10:40:01Z</time>
      </trkpt>
      <trkpt lat="46.54414" lon="0.62786">
        <ele>77.4</ele>
        <time>2023-03-19T10:40:02Z</time>
      </trkpt>
      <trkpt lat="46.54409" lon="0.6279">
        <ele>77</ele>
        <time>2023-03-19T10:40:05Z</time>
      </trkpt>
      <trkpt lat="46.54407" lon="0.6279">
        <ele>77</ele>
        <time>2023-03-19T10:40:06Z</time>
      </trkpt>
      <trkpt lat="46.54401" lon="0.62792">
        <ele>77.2</ele>
        <time>2023-03-19T10:40:08Z</time>
      </trkpt>
      <trkpt lat="46.54395" lon="0.62792">
        <ele>77.4</ele>
        <time>2023-03-19T10:40:10Z</time>
      </trkpt>
      <trkpt lat="46.54393" lon="0.62791">
        <ele>77.2</ele>
        <time>2023-03-19T10:40:11Z</time>
      </trkpt>
      <trkpt lat="46.54375" lon="0.62785">
        <ele>76.6</ele>
        <time>2023-03-19T10:40:17Z</time>
      </trkpt>
      <trkpt lat="46.54371" lon="0.62784">
        <ele>76.4</ele>
        <time>2023-03-19T10:40:18Z</time>
      </trkpt>
      <trkpt lat="46.54357" lon="0.62777">
        <ele>75.8</ele>
        <time>2023-03-19T10:40:21Z</time>
      </trkpt>
      <trkpt lat="46.54336" lon="0.62764">
        <ele>74.4</ele>
        <time>2023-03-19T10:40:24Z</time>
      </trkpt>
      <trkpt lat="46.54321" lon="0.62758">
        <ele>73.8</ele>
        <time>2023-03-19T10:40:26Z</time>
      </trkpt>
      <trkpt lat="46.54314" lon="0.62755">
        <ele>73.2</ele>
        <time>2023-03-19T10:40:27Z</time>
      </trkpt>
      <trkpt lat="46.54302" lon="0.62752">
        <ele>72.8</ele>
        <time>2023-03-19T10:40:29Z</time>
      </trkpt>
      <trkpt lat="46.54297" lon="0.62751">
        <ele>72.8</ele>
        <time>2023-03-19T10:40:30Z</time>
      </trkpt>
      <trkpt lat="46.5429" lon="0.6275">
        <ele>73</ele>
        <time>2023-03-19T10:40:32Z</time>
      </trkpt>
      <trkpt lat="46.54288" lon="0.6275">
        <ele>73.2</ele>
        <time>2023-03-19T10:40:33Z</time>
      </trkpt>
      <trkpt lat="46.54269" lon="0.62746">
        <ele>74.4</ele>
        <time>2023-03-19T10:40:39Z</time>
      </trkpt>
      <trkpt lat="46.54261" lon="0.62745">
        <ele>75.4</ele>
        <time>2023-03-19T10:40:43Z</time>
      </trkpt>
      <trkpt lat="46.54256" lon="0.62743">
        <ele>76</ele>
        <time>2023-03-19T10:40:45Z</time>
      </trkpt>
      <trkpt lat="46.54254" lon="0.62741">
        <ele>76.4</ele>
        <time>2023-03-19T10:40:46Z</time>
      </trkpt>
      <trkpt lat="46.54252" lon="0.6274">
        <ele>76.6</ele>
        <time>2023-03-19T10:40:47Z</time>
      </trkpt>
      <trkpt lat="46.54247" lon="0.62736">
        <ele>77</ele>
        <time>2023-03-19T10:40:50Z</time>
      </trkpt>
      <trkpt lat="46.54244" lon="0.62735">
        <ele>77.8</ele>
        <time>2023-03-19T10:40:52Z</time>
      </trkpt>
      <trkpt lat="46.54242" lon="0.62733">
        <ele>78</ele>
        <time>2023-03-19T10:40:53Z</time>
      </trkpt>
      <trkpt lat="46.54239" lon="0.6273">
        <ele>78.4</ele>
        <time>2023-03-19T10:40:55Z</time>
      </trkpt>
      <trkpt lat="46.54236" lon="0.62726">
        <ele>79</ele>
        <time>2023-03-19T10:40:57Z</time>
      </trkpt>
      <trkpt lat="46.54231" lon="0.62723">
        <ele>79.8</ele>
        <time>2023-03-19T10:41:00Z</time>
      </trkpt>
      <trkpt lat="46.54228" lon="0.6272">
        <ele>80</ele>
        <time>2023-03-19T10:41:02Z</time>
      </trkpt>
      <trkpt lat="46.54224" lon="0.62717">
        <ele>80.4</ele>
        <time>2023-03-19T10:41:04Z</time>
      </trkpt>
      <trkpt lat="46.54222" lon="0.62716">
        <ele>81.2</ele>
        <time>2023-03-19T10:41:06Z</time>
      </trkpt>
      <trkpt lat="46.54212" lon="0.62707">
        <ele>82.4</ele>
        <time>2023-03-19T10:41:13Z</time>
      </trkpt>
      <trkpt lat="46.54207" lon="0.62703">
        <ele>82.8</ele>
        <time>2023-03-19T10:41:16Z</time>
      </trkpt>
      <trkpt lat="46.54202" lon="0.62699">
        <ele>83.4</ele>
        <time>2023-03-19T10:41:20Z</time>
      </trkpt>
      <trkpt lat="46.54191" lon="0.62688">
        <ele>84.4</ele>
        <time>2023-03-19T10:41:28Z</time>
      </trkpt>
      <trkpt lat="46.5419" lon="0.62687">
        <ele>84.6</ele>
        <time>2023-03-19T10:41:29Z</time>
      </trkpt>
      <trkpt lat="46.54177" lon="0.62677">
        <ele>85.6</ele>
        <time>2023-03-19T10:41:38Z</time>
      </trkpt>
      <trkpt lat="46.54171" lon="0.62674">
        <ele>86.2</ele>
        <time>2023-03-19T10:41:41Z</time>
      </trkpt>
      <trkpt lat="46.54168" lon="0.62674">
        <ele>86.8</ele>
        <time>2023-03-19T10:41:43Z</time>
      </trkpt>
      <trkpt lat="46.54158" lon="0.62668">
        <ele>87.8</ele>
        <time>2023-03-19T10:41:50Z</time>
      </trkpt>
      <trkpt lat="46.54156" lon="0.62666">
        <ele>87.8</ele>
        <time>2023-03-19T10:41:52Z</time>
      </trkpt>
      <trkpt lat="46.54147" lon="0.62656">
        <ele>89</ele>
        <time>2023-03-19T10:42:00Z</time>
      </trkpt>
      <trkpt lat="46.54143" lon="0.62649">
        <ele>89.6</ele>
        <time>2023-03-19T10:42:04Z</time>
      </trkpt>
      <trkpt lat="46.54135" lon="0.62642">
        <ele>90.2</ele>
        <time>2023-03-19T10:42:09Z</time>
      </trkpt>
      <trkpt lat="46.54123" lon="0.6263">
        <ele>91</ele>
        <time>2023-03-19T10:42:16Z</time>
      </trkpt>
      <trkpt lat="46.54122" lon="0.62629">
        <ele>91.2</ele>
        <time>2023-03-19T10:42:17Z</time>
      </trkpt>
      <trkpt lat="46.54107" lon="0.62612">
        <ele>92.2</ele>
        <time>2023-03-19T10:42:28Z</time>
      </trkpt>
      <trkpt lat="46.541" lon="0.62606">
        <ele>92.8</ele>
        <time>2023-03-19T10:42:32Z</time>
      </trkpt>
      <trkpt lat="46.54096" lon="0.626">
        <ele>93.4</ele>
        <time>2023-03-19T10:42:35Z</time>
      </trkpt>
      <trkpt lat="46.54086" lon="0.62591">
        <ele>93.8</ele>
        <time>2023-03-19T10:42:41Z</time>
      </trkpt>
      <trkpt lat="46.54074" lon="0.62578">
        <ele>94.4</ele>
        <time>2023-03-19T10:42:49Z</time>
      </trkpt>
      <trkpt lat="46.54067" lon="0.6257">
        <ele>95.2</ele>
        <time>2023-03-19T10:42:54Z</time>
      </trkpt>
      <trkpt lat="46.54066" lon="0.62568">
        <ele>95.4</ele>
        <time>2023-03-19T10:42:55Z</time>
      </trkpt>
      <trkpt lat="46.54054" lon="0.62555">
        <ele>96.4</ele>
        <time>2023-03-19T10:43:02Z</time>
      </trkpt>
      <trkpt lat="46.54048" lon="0.6255">
        <ele>97.2</ele>
        <time>2023-03-19T10:43:05Z</time>
      </trkpt>
      <trkpt lat="46.54046" lon="0.62546">
        <ele>97.6</ele>
        <time>2023-03-19T10:43:07Z</time>
      </trkpt>
      <trkpt lat="46.54045" lon="0.62544">
        <ele>97.8</ele>
        <time>2023-03-19T10:43:08Z</time>
      </trkpt>
      <trkpt lat="46.54043" lon="0.62539">
        <ele>98</ele>
        <time>2023-03-19T10:43:10Z</time>
      </trkpt>
      <trkpt lat="46.54042" lon="0.62537">
        <ele>98.2</ele>
        <time>2023-03-19T10:43:11Z</time>
      </trkpt>
      <trkpt lat="46.54037" lon="0.62528">
        <ele>98.8</ele>
        <time>2023-03-19T10:43:15Z</time>
      </trkpt>
      <trkpt lat="46.54036" lon="0.62524">
        <ele>99</ele>
        <time>2023-03-19T10:43:17Z</time>
      </trkpt>
      <trkpt lat="46.54025" lon="0.62498">
        <ele>99.6</ele>
        <time>2023-03-19T10:43:26Z</time>
      </trkpt>
      <trkpt lat="46.54022" lon="0.62492">
        <ele>99.8</ele>
        <time>2023-03-19T10:43:28Z</time>
      </trkpt>
      <trkpt lat="46.54016" lon="0.62483">
        <ele>100.4</ele>
        <time>2023-03-19T10:43:32Z</time>
      </trkpt>
      <trkpt lat="46.54013" lon="0.62476">
        <ele>101</ele>
        <time>2023-03-19T10:43:35Z</time>
      </trkpt>
      <trkpt lat="46.5401" lon="0.6247">
        <ele>101.2</ele>
        <time>2023-03-19T10:43:37Z</time>
      </trkpt>
      <trkpt lat="46.54005" lon="0.62461">
        <ele>102.2</ele>
        <time>2023-03-19T10:43:41Z</time>
      </trkpt>
      <trkpt lat="46.54005" lon="0.62458">
        <ele>102.4</ele>
        <time>2023-03-19T10:43:42Z</time>
      </trkpt>
      <trkpt lat="46.54" lon="0.6245">
        <ele>103.2</ele>
        <time>2023-03-19T10:43:45Z</time>
      </trkpt>
      <trkpt lat="46.53997" lon="0.62447">
        <ele>103.4</ele>
        <time>2023-03-19T10:43:47Z</time>
      </trkpt>
      <trkpt lat="46.53995" lon="0.62445">
        <ele>103.4</ele>
        <time>2023-03-19T10:43:48Z</time>
      </trkpt>
      <trkpt lat="46.53989" lon="0.62439">
        <ele>104.4</ele>
        <time>2023-03-19T10:43:52Z</time>
      </trkpt>
      <trkpt lat="46.53988" lon="0.62439">
        <ele>104.6</ele>
        <time>2023-03-19T10:43:53Z</time>
      </trkpt>
      <trkpt lat="46.53985" lon="0.62436">
        <ele>104.6</ele>
        <time>2023-03-19T10:43:55Z</time>
      </trkpt>
      <trkpt lat="46.53977" lon="0.62432">
        <ele>105.4</ele>
        <time>2023-03-19T10:44:00Z</time>
      </trkpt>
      <trkpt lat="46.53975" lon="0.62431">
        <ele>105.6</ele>
        <time>2023-03-19T10:44:01Z</time>
      </trkpt>
      <trkpt lat="46.53971" lon="0.62426">
        <ele>106.2</ele>
        <time>2023-03-19T10:44:05Z</time>
      </trkpt>
      <trkpt lat="46.5397" lon="0.62423">
        <ele>106.4</ele>
        <time>2023-03-19T10:44:06Z</time>
      </trkpt>
      <trkpt lat="46.5397" lon="0.62419">
        <ele>106.4</ele>
        <time>2023-03-19T10:44:07Z</time>
      </trkpt>
      <trkpt lat="46.5397" lon="0.62417">
        <ele>106.4</ele>
        <time>2023-03-19T10:44:08Z</time>
      </trkpt>
      <trkpt lat="46.53972" lon="0.6241">
        <ele>106.2</ele>
        <time>2023-03-19T10:44:11Z</time>
      </trkpt>
      <trkpt lat="46.53975" lon="0.62402">
        <ele>105.6</ele>
        <time>2023-03-19T10:44:14Z</time>
      </trkpt>
      <trkpt lat="46.53977" lon="0.62399">
        <ele>105.2</ele>
        <time>2023-03-19T10:44:15Z</time>
      </trkpt>
      <trkpt lat="46.5398" lon="0.62391">
        <ele>104.6</ele>
        <time>2023-03-19T10:44:17Z</time>
      </trkpt>
      <trkpt lat="46.53984" lon="0.62382">
        <ele>104.4</ele>
        <time>2023-03-19T10:44:19Z</time>
      </trkpt>
      <trkpt lat="46.53985" lon="0.62377">
        <ele>104.2</ele>
        <time>2023-03-19T10:44:20Z</time>
      </trkpt>
      <trkpt lat="46.53987" lon="0.62371">
        <ele>103.8</ele>
        <time>2023-03-19T10:44:21Z</time>
      </trkpt>
      <trkpt lat="46.53992" lon="0.62344">
        <ele>103</ele>
        <time>2023-03-19T10:44:25Z</time>
      </trkpt>
      <trkpt lat="46.53996" lon="0.62329">
        <ele>102.6</ele>
        <time>2023-03-19T10:44:27Z</time>
      </trkpt>
      <trkpt lat="46.54009" lon="0.62287">
        <ele>102</ele>
        <time>2023-03-19T10:44:33Z</time>
      </trkpt>
      <trkpt lat="46.54011" lon="0.62283">
        <ele>102</ele>
        <time>2023-03-19T10:44:34Z</time>
      </trkpt>
      <trkpt lat="46.54017" lon="0.62271">
        <ele>101.4</ele>
        <time>2023-03-19T10:44:37Z</time>
      </trkpt>
      <trkpt lat="46.54022" lon="0.62269">
        <ele>101</ele>
        <time>2023-03-19T10:44:38Z</time>
      </trkpt>
      <trkpt lat="46.54029" lon="0.62266">
        <ele>100.2</ele>
        <time>2023-03-19T10:44:40Z</time>
      </trkpt>
      <trkpt lat="46.54032" lon="0.62265">
        <ele>99</ele>
        <time>2023-03-19T10:44:41Z</time>
      </trkpt>
      <trkpt lat="46.54034" lon="0.62264">
        <ele>98.4</ele>
        <time>2023-03-19T10:44:42Z</time>
      </trkpt>
      <trkpt lat="46.54037" lon="0.62262">
        <ele>97.6</ele>
        <time>2023-03-19T10:44:43Z</time>
      </trkpt>
      <trkpt lat="46.5404" lon="0.6226">
        <ele>97</ele>
        <time>2023-03-19T10:44:44Z</time>
      </trkpt>
      <trkpt lat="46.54043" lon="0.62258">
        <ele>96.2</ele>
        <time>2023-03-19T10:44:45Z</time>
      </trkpt>
      <trkpt lat="46.54046" lon="0.62255">
        <ele>94.2</ele>
        <time>2023-03-19T10:44:46Z</time>
      </trkpt>
      <trkpt lat="46.54049" lon="0.62249">
        <ele>93.6</ele>
        <time>2023-03-19T10:44:48Z</time>
      </trkpt>
      <trkpt lat="46.54052" lon="0.62245">
        <ele>93.2</ele>
        <time>2023-03-19T10:44:50Z</time>
      </trkpt>
      <trkpt lat="46.54055" lon="0.62241">
        <ele>93</ele>
        <time>2023-03-19T10:44:52Z</time>
      </trkpt>
      <trkpt lat="46.54058" lon="0.62231">
        <ele>93.6</ele>
        <time>2023-03-19T10:44:56Z</time>
      </trkpt>
      <trkpt lat="46.54059" lon="0.62225">
        <ele>94</ele>
        <time>2023-03-19T10:44:58Z</time>
      </trkpt>
      <trkpt lat="46.54063" lon="0.62211">
        <ele>94.2</ele>
        <time>2023-03-19T10:45:01Z</time>
      </trkpt>
      <trkpt lat="46.54066" lon="0.62207">
        <ele>94.4</ele>
        <time>2023-03-19T10:45:02Z</time>
      </trkpt>
      <trkpt lat="46.54073" lon="0.62191">
        <ele>95.4</ele>
        <time>2023-03-19T10:45:07Z</time>
      </trkpt>
      <trkpt lat="46.54073" lon="0.62188">
        <ele>95.6</ele>
        <time>2023-03-19T10:45:08Z</time>
      </trkpt>
      <trkpt lat="46.54075" lon="0.62183">
        <ele>96.2</ele>
        <time>2023-03-19T10:45:10Z</time>
      </trkpt>
      <trkpt lat="46.54076" lon="0.6218">
        <ele>96.6</ele>
        <time>2023-03-19T10:45:12Z</time>
      </trkpt>
      <trkpt lat="46.54079" lon="0.62171">
        <ele>96.8</ele>
        <time>2023-03-19T10:45:15Z</time>
      </trkpt>
      <trkpt lat="46.54085" lon="0.62158">
        <ele>97.6</ele>
        <time>2023-03-19T10:45:20Z</time>
      </trkpt>
      <trkpt lat="46.54089" lon="0.6215">
        <ele>98.6</ele>
        <time>2023-03-19T10:45:24Z</time>
      </trkpt>
      <trkpt lat="46.54097" lon="0.62142">
        <ele>99.6</ele>
        <time>2023-03-19T10:45:30Z</time>
      </trkpt>
      <trkpt lat="46.54099" lon="0.62142">
        <ele>99.8</ele>
        <time>2023-03-19T10:45:31Z</time>
      </trkpt>
      <trkpt lat="46.541" lon="0.62143">
        <ele>100</ele>
        <time>2023-03-19T10:45:32Z</time>
      </trkpt>
      <trkpt lat="46.54106" lon="0.62143">
        <ele>100.8</ele>
        <time>2023-03-19T10:45:36Z</time>
      </trkpt>
      <trkpt lat="46.54119" lon="0.62148">
        <ele>102</ele>
        <time>2023-03-19T10:45:44Z</time>
      </trkpt>
      <trkpt lat="46.54123" lon="0.62148">
        <ele>102.2</ele>
        <time>2023-03-19T10:45:46Z</time>
      </trkpt>
      <trkpt lat="46.54138" lon="0.62154">
        <ele>103.2</ele>
        <time>2023-03-19T10:45:55Z</time>
      </trkpt>
      <trkpt lat="46.54142" lon="0.62155">
        <ele>103.6</ele>
        <time>2023-03-19T10:45:58Z</time>
      </trkpt>
      <trkpt lat="46.5415" lon="0.62155">
        <ele>104.2</ele>
        <time>2023-03-19T10:46:02Z</time>
      </trkpt>
      <trkpt lat="46.54162" lon="0.62155">
        <ele>105.2</ele>
        <time>2023-03-19T10:46:10Z</time>
      </trkpt>
      <trkpt lat="46.54167" lon="0.62154">
        <ele>105.4</ele>
        <time>2023-03-19T10:46:13Z</time>
      </trkpt>
      <trkpt lat="46.54177" lon="0.6215">
        <ele>106.4</ele>
        <time>2023-03-19T10:46:20Z</time>
      </trkpt>
      <trkpt lat="46.54181" lon="0.62149">
        <ele>106.8</ele>
        <time>2023-03-19T10:46:23Z</time>
      </trkpt>
      <trkpt lat="46.54198" lon="0.62136">
        <ele>107.6</ele>
        <time>2023-03-19T10:46:32Z</time>
      </trkpt>
      <trkpt lat="46.54211" lon="0.62125">
        <ele>108</ele>
        <time>2023-03-19T10:46:38Z</time>
      </trkpt>
      <trkpt lat="46.54223" lon="0.62119">
        <ele>108.6</ele>
        <time>2023-03-19T10:46:43Z</time>
      </trkpt>
      <trkpt lat="46.54231" lon="0.62116">
        <ele>108.8</ele>
        <time>2023-03-19T10:46:46Z</time>
      </trkpt>
      <trkpt lat="46.54241" lon="0.62108">
        <ele>109.4</ele>
        <time>2023-03-19T10:46:51Z</time>
      </trkpt>
      <trkpt lat="46.54243" lon="0.62103">
        <ele>109.8</ele>
        <time>2023-03-19T10:46:53Z</time>
      </trkpt>
      <trkpt lat="46.54249" lon="0.6209">
        <ele>110.2</ele>
        <time>2023-03-19T10:46:57Z</time>
      </trkpt>
      <trkpt lat="46.5426" lon="0.62065">
        <ele>110.6</ele>
        <time>2023-03-19T10:47:03Z</time>
      </trkpt>
      <trkpt lat="46.54261" lon="0.62061">
        <ele>110.8</ele>
        <time>2023-03-19T10:47:04Z</time>
      </trkpt>
      <trkpt lat="46.5427" lon="0.62041">
        <ele>111.4</ele>
        <time>2023-03-19T10:47:10Z</time>
      </trkpt>
      <trkpt lat="46.54277" lon="0.6202">
        <ele>111.4</ele>
        <time>2023-03-19T10:47:16Z</time>
      </trkpt>
      <trkpt lat="46.54284" lon="0.61999">
        <ele>111.6</ele>
        <time>2023-03-19T10:47:21Z</time>
      </trkpt>
      <trkpt lat="46.54292" lon="0.61977">
        <ele>111.4</ele>
        <time>2023-03-19T10:47:26Z</time>
      </trkpt>
      <trkpt lat="46.54297" lon="0.61961">
        <ele>111.4</ele>
        <time>2023-03-19T10:47:29Z</time>
      </trkpt>
      <trkpt lat="46.54303" lon="0.6195">
        <ele>111.2</ele>
        <time>2023-03-19T10:47:31Z</time>
      </trkpt>
      <trkpt lat="46.54316" lon="0.6193">
        <ele>110.4</ele>
        <time>2023-03-19T10:47:35Z</time>
      </trkpt>
      <trkpt lat="46.54329" lon="0.61912">
        <ele>110.2</ele>
        <time>2023-03-19T10:47:38Z</time>
      </trkpt>
      <trkpt lat="46.54336" lon="0.61896">
        <ele>110</ele>
        <time>2023-03-19T10:47:40Z</time>
      </trkpt>
      <trkpt lat="46.5434" lon="0.61879">
        <ele>109.8</ele>
        <time>2023-03-19T10:47:42Z</time>
      </trkpt>
      <trkpt lat="46.54352" lon="0.61825">
        <ele>108.6</ele>
        <time>2023-03-19T10:47:48Z</time>
      </trkpt>
      <trkpt lat="46.5437" lon="0.61769">
        <ele>108</ele>
        <time>2023-03-19T10:47:54Z</time>
      </trkpt>
      <trkpt lat="46.54375" lon="0.61748">
        <ele>107.4</ele>
        <time>2023-03-19T10:47:56Z</time>
      </trkpt>
      <trkpt lat="46.54389" lon="0.61697">
        <ele>106.4</ele>
        <time>2023-03-19T10:48:01Z</time>
      </trkpt>
      <trkpt lat="46.54409" lon="0.61641">
        <ele>106</ele>
        <time>2023-03-19T10:48:08Z</time>
      </trkpt>
      <trkpt lat="46.54417" lon="0.61614">
        <ele>106.4</ele>
        <time>2023-03-19T10:48:13Z</time>
      </trkpt>
      <trkpt lat="46.54422" lon="0.61601">
        <ele>106.8</ele>
        <time>2023-03-19T10:48:16Z</time>
      </trkpt>
      <trkpt lat="46.54425" lon="0.61591">
        <ele>107.4</ele>
        <time>2023-03-19T10:48:18Z</time>
      </trkpt>
      <trkpt lat="46.54427" lon="0.61583">
        <ele>108.2</ele>
        <time>2023-03-19T10:48:20Z</time>
      </trkpt>
      <trkpt lat="46.5443" lon="0.61572">
        <ele>108.6</ele>
        <time>2023-03-19T10:48:23Z</time>
      </trkpt>
      <trkpt lat="46.54433" lon="0.61567">
        <ele>108.8</ele>
        <time>2023-03-19T10:48:25Z</time>
      </trkpt>
      <trkpt lat="46.54436" lon="0.61559">
        <ele>109.6</ele>
        <time>2023-03-19T10:48:28Z</time>
      </trkpt>
      <trkpt lat="46.54443" lon="0.61552">
        <ele>110.6</ele>
        <time>2023-03-19T10:48:32Z</time>
      </trkpt>
      <trkpt lat="46.54445" lon="0.61551">
        <ele>110.8</ele>
        <time>2023-03-19T10:48:33Z</time>
      </trkpt>
      <trkpt lat="46.54457" lon="0.61545">
        <ele>111.4</ele>
        <time>2023-03-19T10:48:38Z</time>
      </trkpt>
      <trkpt lat="46.54488" lon="0.61541">
        <ele>111.6</ele>
        <time>2023-03-19T10:48:46Z</time>
      </trkpt>
      <trkpt lat="46.54496" lon="0.61541">
        <ele>112</ele>
        <time>2023-03-19T10:48:48Z</time>
      </trkpt>
      <trkpt lat="46.54516" lon="0.6154">
        <ele>112.4</ele>
        <time>2023-03-19T10:48:53Z</time>
      </trkpt>
      <trkpt lat="46.54527" lon="0.6155">
        <ele>112.6</ele>
        <time>2023-03-19T10:48:57Z</time>
      </trkpt>
      <trkpt lat="46.5454" lon="0.61568">
        <ele>112.8</ele>
        <time>2023-03-19T10:49:03Z</time>
      </trkpt>
      <trkpt lat="46.54546" lon="0.61585">
        <ele>112.4</ele>
        <time>2023-03-19T10:49:07Z</time>
      </trkpt>
      <trkpt lat="46.54549" lon="0.61595">
        <ele>112.2</ele>
        <time>2023-03-19T10:49:09Z</time>
      </trkpt>
      <trkpt lat="46.5456" lon="0.61631">
        <ele>112</ele>
        <time>2023-03-19T10:49:15Z</time>
      </trkpt>
      <trkpt lat="46.54564" lon="0.61641">
        <ele>112</ele>
        <time>2023-03-19T10:49:17Z</time>
      </trkpt>
      <trkpt lat="46.54574" lon="0.61656">
        <ele>111.8</ele>
        <time>2023-03-19T10:49:20Z</time>
      </trkpt>
      <trkpt lat="46.5458" lon="0.61665">
        <ele>112.2</ele>
        <time>2023-03-19T10:49:22Z</time>
      </trkpt>
      <trkpt lat="46.54587" lon="0.61671">
        <ele>112.2</ele>
        <time>2023-03-19T10:49:24Z</time>
      </trkpt>
      <trkpt lat="46.5459" lon="0.61673">
        <ele>112.2</ele>
        <time>2023-03-19T10:49:25Z</time>
      </trkpt>
      <trkpt lat="46.54594" lon="0.61675">
        <ele>112.4</ele>
        <time>2023-03-19T10:49:26Z</time>
      </trkpt>
      <trkpt lat="46.54601" lon="0.61678">
        <ele>112.4</ele>
        <time>2023-03-19T10:49:28Z</time>
      </trkpt>
      <trkpt lat="46.54609" lon="0.61684">
        <ele>112.6</ele>
        <time>2023-03-19T10:49:30Z</time>
      </trkpt>
      <trkpt lat="46.54617" lon="0.61691">
        <ele>112.6</ele>
        <time>2023-03-19T10:49:32Z</time>
      </trkpt>
      <trkpt lat="46.54635" lon="0.61706">
        <ele>112.6</ele>
        <time>2023-03-19T10:49:36Z</time>
      </trkpt>
      <trkpt lat="46.5465" lon="0.61718">
        <ele>112.8</ele>
        <time>2023-03-19T10:49:39Z</time>
      </trkpt>
      <trkpt lat="46.54658" lon="0.61722">
        <ele>112.6</ele>
        <time>2023-03-19T10:49:41Z</time>
      </trkpt>
      <trkpt lat="46.54679" lon="0.61736">
        <ele>112.2</ele>
        <time>2023-03-19T10:49:46Z</time>
      </trkpt>
      <trkpt lat="46.54682" lon="0.61738">
        <ele>112.2</ele>
        <time>2023-03-19T10:49:47Z</time>
      </trkpt>
      <trkpt lat="46.54686" lon="0.61741">
        <ele>112.2</ele>
        <time>2023-03-19T10:49:48Z</time>
      </trkpt>
      <trkpt lat="46.54705" lon="0.61753">
        <ele>112.2</ele>
        <time>2023-03-19T10:49:53Z</time>
      </trkpt>
      <trkpt lat="46.54713" lon="0.61757">
        <ele>112.2</ele>
        <time>2023-03-19T10:49:55Z</time>
      </trkpt>
      <trkpt lat="46.54726" lon="0.61765">
        <ele>111.6</ele>
        <time>2023-03-19T10:49:58Z</time>
      </trkpt>
      <trkpt lat="46.54735" lon="0.6177">
        <ele>111.6</ele>
        <time>2023-03-19T10:50:00Z</time>
      </trkpt>
      <trkpt lat="46.54751" lon="0.6178">
        <ele>112</ele>
        <time>2023-03-19T10:50:04Z</time>
      </trkpt>
      <trkpt lat="46.54767" lon="0.61786">
        <ele>112</ele>
        <time>2023-03-19T10:50:08Z</time>
      </trkpt>
      <trkpt lat="46.54774" lon="0.61788">
        <ele>112</ele>
        <time>2023-03-19T10:50:10Z</time>
      </trkpt>
      <trkpt lat="46.54781" lon="0.61789">
        <ele>112</ele>
        <time>2023-03-19T10:50:12Z</time>
      </trkpt>
      <trkpt lat="46.54794" lon="0.61795">
        <ele>112.2</ele>
        <time>2023-03-19T10:50:16Z</time>
      </trkpt>
      <trkpt lat="46.54804" lon="0.61797">
        <ele>112.4</ele>
        <time>2023-03-19T10:50:19Z</time>
      </trkpt>
      <trkpt lat="46.54814" lon="0.61801">
        <ele>112.6</ele>
        <time>2023-03-19T10:50:22Z</time>
      </trkpt>
      <trkpt lat="46.54821" lon="0.61804">
        <ele>112.6</ele>
        <time>2023-03-19T10:50:24Z</time>
      </trkpt>
      <trkpt lat="46.54832" lon="0.61808">
        <ele>112.4</ele>
        <time>2023-03-19T10:50:26Z</time>
      </trkpt>
      <trkpt lat="46.54839" lon="0.61811">
        <ele>112.2</ele>
        <time>2023-03-19T10:50:27Z</time>
      </trkpt>
      <trkpt lat="46.54849" lon="0.61817">
        <ele>112.2</ele>
        <time>2023-03-19T10:50:29Z</time>
      </trkpt>
      <trkpt lat="46.54862" lon="0.61822">
        <ele>112.2</ele>
        <time>2023-03-19T10:50:33Z</time>
      </trkpt>
      <trkpt lat="46.5488" lon="0.61825">
        <ele>112.2</ele>
        <time>2023-03-19T10:50:40Z</time>
      </trkpt>
      <trkpt lat="46.54903" lon="0.61829">
        <ele>112.6</ele>
        <time>2023-03-19T10:50:46Z</time>
      </trkpt>
      <trkpt lat="46.54913" lon="0.61831">
        <ele>112.6</ele>
        <time>2023-03-19T10:50:49Z</time>
      </trkpt>
      <trkpt lat="46.54917" lon="0.6183">
        <ele>112.6</ele>
        <time>2023-03-19T10:50:50Z</time>
      </trkpt>
      <trkpt lat="46.54927" lon="0.61823">
        <ele>112.6</ele>
        <time>2023-03-19T10:50:54Z</time>
      </trkpt>
      <trkpt lat="46.54933" lon="0.6182">
        <ele>112.6</ele>
        <time>2023-03-19T10:50:56Z</time>
      </trkpt>
      <trkpt lat="46.54936" lon="0.61818">
        <ele>112.4</ele>
        <time>2023-03-19T10:50:57Z</time>
      </trkpt>
      <trkpt lat="46.54948" lon="0.61812">
        <ele>112.4</ele>
        <time>2023-03-19T10:51:02Z</time>
      </trkpt>
      <trkpt lat="46.54965" lon="0.61805">
        <ele>112.4</ele>
        <time>2023-03-19T10:51:07Z</time>
      </trkpt>
      <trkpt lat="46.54987" lon="0.61788">
        <ele>112.4</ele>
        <time>2023-03-19T10:51:13Z</time>
      </trkpt>
      <trkpt lat="46.55004" lon="0.61764">
        <ele>112.6</ele>
        <time>2023-03-19T10:51:20Z</time>
      </trkpt>
      <trkpt lat="46.55012" lon="0.61756">
        <ele>112.4</ele>
        <time>2023-03-19T10:51:22Z</time>
      </trkpt>
      <trkpt lat="46.5502" lon="0.61748">
        <ele>112.4</ele>
        <time>2023-03-19T10:51:24Z</time>
      </trkpt>
      <trkpt lat="46.55023" lon="0.61744">
        <ele>112.4</ele>
        <time>2023-03-19T10:51:25Z</time>
      </trkpt>
      <trkpt lat="46.55035" lon="0.61728">
        <ele>112.8</ele>
        <time>2023-03-19T10:51:29Z</time>
      </trkpt>
      <trkpt lat="46.5504" lon="0.61718">
        <ele>112.4</ele>
        <time>2023-03-19T10:51:31Z</time>
      </trkpt>
      <trkpt lat="46.55051" lon="0.61701">
        <ele>111.4</ele>
        <time>2023-03-19T10:51:36Z</time>
      </trkpt>
      <trkpt lat="46.55064" lon="0.61672">
        <ele>111.2</ele>
        <time>2023-03-19T10:51:44Z</time>
      </trkpt>
      <trkpt lat="46.55072" lon="0.61655">
        <ele>111</ele>
        <time>2023-03-19T10:51:49Z</time>
      </trkpt>
      <trkpt lat="46.55072" lon="0.61653">
        <ele>111</ele>
        <time>2023-03-19T10:51:50Z</time>
      </trkpt>
      <trkpt lat="46.55076" lon="0.61647">
        <ele>110.4</ele>
        <time>2023-03-19T10:51:52Z</time>
      </trkpt>
      <trkpt lat="46.5508" lon="0.61644">
        <ele>110.2</ele>
        <time>2023-03-19T10:51:54Z</time>
      </trkpt>
      <trkpt lat="46.55086" lon="0.6164">
        <ele>110</ele>
        <time>2023-03-19T10:51:57Z</time>
      </trkpt>
      <trkpt lat="46.55088" lon="0.61637">
        <ele>110</ele>
        <time>2023-03-19T10:51:59Z</time>
      </trkpt>
      <trkpt lat="46.55097" lon="0.61627">
        <ele>110</ele>
        <time>2023-03-19T10:52:03Z</time>
      </trkpt>
      <trkpt lat="46.551" lon="0.61622">
        <ele>109.6</ele>
        <time>2023-03-19T10:52:05Z</time>
      </trkpt>
      <trkpt lat="46.55104" lon="0.61617">
        <ele>109.2</ele>
        <time>2023-03-19T10:52:08Z</time>
      </trkpt>
      <trkpt lat="46.55107" lon="0.61615">
        <ele>109</ele>
        <time>2023-03-19T10:52:10Z</time>
      </trkpt>
      <trkpt lat="46.55119" lon="0.61609">
        <ele>109</ele>
        <time>2023-03-19T10:52:20Z</time>
      </trkpt>
      <trkpt lat="46.55123" lon="0.61606">
        <ele>109</ele>
        <time>2023-03-19T10:52:23Z</time>
      </trkpt>
      <trkpt lat="46.55135" lon="0.61597">
        <ele>107.8</ele>
        <time>2023-03-19T10:52:30Z</time>
      </trkpt>
      <trkpt lat="46.5515" lon="0.61583">
        <ele>107</ele>
        <time>2023-03-19T10:52:39Z</time>
      </trkpt>
      <trkpt lat="46.55152" lon="0.61581">
        <ele>106.6</ele>
        <time>2023-03-19T10:52:40Z</time>
      </trkpt>
      <trkpt lat="46.55155" lon="0.61579">
        <ele>106.2</ele>
        <time>2023-03-19T10:52:42Z</time>
      </trkpt>
      <trkpt lat="46.55155" lon="0.61579">
        <ele>106.2</ele>
        <time>2023-03-19T10:52:43Z</time>
      </trkpt>
      <trkpt lat="46.55157" lon="0.61579">
        <ele>106.2</ele>
        <time>2023-03-19T10:52:46Z</time>
      </trkpt>
      <trkpt lat="46.55165" lon="0.61578">
        <ele>106</ele>
        <time>2023-03-19T10:52:52Z</time>
      </trkpt>
      <trkpt lat="46.55168" lon="0.61577">
        <ele>106</ele>
        <time>2023-03-19T10:52:53Z</time>
      </trkpt>
      <trkpt lat="46.55172" lon="0.61576">
        <ele>105.8</ele>
        <time>2023-03-19T10:52:56Z</time>
      </trkpt>
      <trkpt lat="46.55175" lon="0.61575">
        <ele>105.6</ele>
        <time>2023-03-19T10:52:59Z</time>
      </trkpt>
      <trkpt lat="46.55176" lon="0.61575">
        <ele>105.6</ele>
        <time>2023-03-19T10:53:00Z</time>
      </trkpt>
      <trkpt lat="46.5518" lon="0.61574">
        <ele>105.4</ele>
        <time>2023-03-19T10:53:03Z</time>
      </trkpt>
      <trkpt lat="46.55181" lon="0.61574">
        <ele>105.2</ele>
        <time>2023-03-19T10:53:04Z</time>
      </trkpt>
      <trkpt lat="46.55184" lon="0.61573">
        <ele>105</ele>
        <time>2023-03-19T10:53:06Z</time>
      </trkpt>
      <trkpt lat="46.55191" lon="0.61571">
        <ele>104.4</ele>
        <time>2023-03-19T10:53:10Z</time>
      </trkpt>
      <trkpt lat="46.55197" lon="0.61568">
        <ele>103.8</ele>
        <time>2023-03-19T10:53:13Z</time>
      </trkpt>
      <trkpt lat="46.55201" lon="0.61565">
        <ele>103.4</ele>
        <time>2023-03-19T10:53:15Z</time>
      </trkpt>
      <trkpt lat="46.55205" lon="0.61562">
        <ele>103.2</ele>
        <time>2023-03-19T10:53:17Z</time>
      </trkpt>
      <trkpt lat="46.55208" lon="0.6156">
        <ele>103</ele>
        <time>2023-03-19T10:53:18Z</time>
      </trkpt>
      <trkpt lat="46.55214" lon="0.61558">
        <ele>102.4</ele>
        <time>2023-03-19T10:53:20Z</time>
      </trkpt>
      <trkpt lat="46.55219" lon="0.61556">
        <ele>102</ele>
        <time>2023-03-19T10:53:22Z</time>
      </trkpt>
      <trkpt lat="46.55223" lon="0.61551">
        <ele>101.2</ele>
        <time>2023-03-19T10:53:24Z</time>
      </trkpt>
      <trkpt lat="46.55236" lon="0.61546">
        <ele>100</ele>
        <time>2023-03-19T10:53:28Z</time>
      </trkpt>
      <trkpt lat="46.55239" lon="0.61543">
        <ele>99.8</ele>
        <time>2023-03-19T10:53:29Z</time>
      </trkpt>
      <trkpt lat="46.5526" lon="0.6152">
        <ele>99</ele>
        <time>2023-03-19T10:53:34Z</time>
      </trkpt>
      <trkpt lat="46.55279" lon="0.61486">
        <ele>99.2</ele>
        <time>2023-03-19T10:53:41Z</time>
      </trkpt>
      <trkpt lat="46.553" lon="0.61441">
        <ele>101</ele>
        <time>2023-03-19T10:53:50Z</time>
      </trkpt>
      <trkpt lat="46.55307" lon="0.61428">
        <ele>101.2</ele>
        <time>2023-03-19T10:53:53Z</time>
      </trkpt>
      <trkpt lat="46.55322" lon="0.61414">
        <ele>101.6</ele>
        <time>2023-03-19T10:53:58Z</time>
      </trkpt>
      <trkpt lat="46.55344" lon="0.61415">
        <ele>101</ele>
        <time>2023-03-19T10:54:03Z</time>
      </trkpt>
      <trkpt lat="46.55371" lon="0.61422">
        <ele>100.6</ele>
        <time>2023-03-19T10:54:09Z</time>
      </trkpt>
      <trkpt lat="46.55375" lon="0.61422">
        <ele>100.6</ele>
        <time>2023-03-19T10:54:10Z</time>
      </trkpt>
      <trkpt lat="46.55378" lon="0.61421">
        <ele>100.8</ele>
        <time>2023-03-19T10:54:11Z</time>
      </trkpt>
      <trkpt lat="46.55383" lon="0.61413">
        <ele>100.8</ele>
        <time>2023-03-19T10:54:13Z</time>
      </trkpt>
      <trkpt lat="46.55389" lon="0.61399">
        <ele>100.6</ele>
        <time>2023-03-19T10:54:16Z</time>
      </trkpt>
      <trkpt lat="46.55395" lon="0.61383">
        <ele>100.6</ele>
        <time>2023-03-19T10:54:19Z</time>
      </trkpt>
      <trkpt lat="46.55407" lon="0.61353">
        <ele>100.6</ele>
        <time>2023-03-19T10:54:25Z</time>
      </trkpt>
      <trkpt lat="46.55411" lon="0.61345">
        <ele>101</ele>
        <time>2023-03-19T10:54:27Z</time>
      </trkpt>
      <trkpt lat="46.55417" lon="0.61332">
        <ele>101</ele>
        <time>2023-03-19T10:54:32Z</time>
      </trkpt>
      <trkpt lat="46.55426" lon="0.61307">
        <ele>101.8</ele>
        <time>2023-03-19T10:54:38Z</time>
      </trkpt>
      <trkpt lat="46.55428" lon="0.61303">
        <ele>102.2</ele>
        <time>2023-03-19T10:54:39Z</time>
      </trkpt>
      <trkpt lat="46.55439" lon="0.61294">
        <ele>102.8</ele>
        <time>2023-03-19T10:54:43Z</time>
      </trkpt>
      <trkpt lat="46.55459" lon="0.61295">
        <ele>103</ele>
        <time>2023-03-19T10:54:49Z</time>
      </trkpt>
      <trkpt lat="46.55471" lon="0.61297">
        <ele>103.4</ele>
        <time>2023-03-19T10:54:52Z</time>
      </trkpt>
      <trkpt lat="46.55489" lon="0.61299">
        <ele>103.8</ele>
        <time>2023-03-19T10:54:57Z</time>
      </trkpt>
      <trkpt lat="46.55491" lon="0.61297">
        <ele>104.4</ele>
        <time>2023-03-19T10:54:58Z</time>
      </trkpt>
      <trkpt lat="46.55496" lon="0.61282">
        <ele>104.8</ele>
        <time>2023-03-19T10:55:02Z</time>
      </trkpt>
      <trkpt lat="46.55496" lon="0.61254">
        <ele>105</ele>
        <time>2023-03-19T10:55:08Z</time>
      </trkpt>
      <trkpt lat="46.55494" lon="0.61218">
        <ele>105.2</ele>
        <time>2023-03-19T10:55:15Z</time>
      </trkpt>
      <trkpt lat="46.55493" lon="0.61192">
        <ele>105.4</ele>
        <time>2023-03-19T10:55:20Z</time>
      </trkpt>
      <trkpt lat="46.55492" lon="0.61163">
        <ele>105.6</ele>
        <time>2023-03-19T10:55:25Z</time>
      </trkpt>
      <trkpt lat="46.55496" lon="0.61101">
        <ele>106.2</ele>
        <time>2023-03-19T10:55:36Z</time>
      </trkpt>
      <trkpt lat="46.55497" lon="0.61096">
        <ele>106.6</ele>
        <time>2023-03-19T10:55:37Z</time>
      </trkpt>
      <trkpt lat="46.55498" lon="0.61055">
        <ele>107</ele>
        <time>2023-03-19T10:55:45Z</time>
      </trkpt>
      <trkpt lat="46.55498" lon="0.61037">
        <ele>106.8</ele>
        <time>2023-03-19T10:55:51Z</time>
      </trkpt>
      <trkpt lat="46.55498" lon="0.6102">
        <ele>107.4</ele>
        <time>2023-03-19T10:55:56Z</time>
      </trkpt>
      <trkpt lat="46.55501" lon="0.61004">
        <ele>107.8</ele>
        <time>2023-03-19T10:55:59Z</time>
      </trkpt>
      <trkpt lat="46.55504" lon="0.60994">
        <ele>108</ele>
        <time>2023-03-19T10:56:01Z</time>
      </trkpt>
      <trkpt lat="46.55512" lon="0.6096">
        <ele>108.8</ele>
        <time>2023-03-19T10:56:07Z</time>
      </trkpt>
      <trkpt lat="46.55518" lon="0.60926">
        <ele>109.2</ele>
        <time>2023-03-19T10:56:12Z</time>
      </trkpt>
      <trkpt lat="46.55519" lon="0.6092">
        <ele>109.4</ele>
        <time>2023-03-19T10:56:14Z</time>
      </trkpt>
      <trkpt lat="46.5552" lon="0.60903">
        <ele>109.8</ele>
        <time>2023-03-19T10:56:17Z</time>
      </trkpt>
      <trkpt lat="46.55521" lon="0.60874">
        <ele>110</ele>
        <time>2023-03-19T10:56:22Z</time>
      </trkpt>
      <trkpt lat="46.55521" lon="0.60833">
        <ele>110.6</ele>
        <time>2023-03-19T10:56:29Z</time>
      </trkpt>
      <trkpt lat="46.5552" lon="0.60817">
        <ele>111.2</ele>
        <time>2023-03-19T10:56:32Z</time>
      </trkpt>
      <trkpt lat="46.5552" lon="0.60794">
        <ele>111.8</ele>
        <time>2023-03-19T10:56:36Z</time>
      </trkpt>
      <trkpt lat="46.5552" lon="0.6073">
        <ele>112</ele>
        <time>2023-03-19T10:56:47Z</time>
      </trkpt>
      <trkpt lat="46.55521" lon="0.60712">
        <ele>112</ele>
        <time>2023-03-19T10:56:50Z</time>
      </trkpt>
      <trkpt lat="46.5552" lon="0.60696">
        <ele>111.4</ele>
        <time>2023-03-19T10:56:53Z</time>
      </trkpt>
      <trkpt lat="46.55517" lon="0.60661">
        <ele>112</ele>
        <time>2023-03-19T10:56:59Z</time>
      </trkpt>
      <trkpt lat="46.55512" lon="0.60616">
        <ele>110.8</ele>
        <time>2023-03-19T10:57:06Z</time>
      </trkpt>
      <trkpt lat="46.55511" lon="0.6061">
        <ele>110.8</ele>
        <time>2023-03-19T10:57:07Z</time>
      </trkpt>
      <trkpt lat="46.55508" lon="0.60604">
        <ele>110.6</ele>
        <time>2023-03-19T10:57:08Z</time>
      </trkpt>
      <trkpt lat="46.55495" lon="0.60581">
        <ele>110.8</ele>
        <time>2023-03-19T10:57:12Z</time>
      </trkpt>
      <trkpt lat="46.55488" lon="0.60562">
        <ele>110.6</ele>
        <time>2023-03-19T10:57:16Z</time>
      </trkpt>
      <trkpt lat="46.55485" lon="0.60557">
        <ele>110.4</ele>
        <time>2023-03-19T10:57:19Z</time>
      </trkpt>
      <trkpt lat="46.55483" lon="0.60556">
        <ele>110.4</ele>
        <time>2023-03-19T10:57:20Z</time>
      </trkpt>
      <trkpt lat="46.55476" lon="0.60545">
        <ele>110.2</ele>
        <time>2023-03-19T10:57:23Z</time>
      </trkpt>
      <trkpt lat="46.55473" lon="0.60542">
        <ele>110.2</ele>
        <time>2023-03-19T10:57:24Z</time>
      </trkpt>
      <trkpt lat="46.55469" lon="0.60539">
        <ele>110.2</ele>
        <time>2023-03-19T10:57:25Z</time>
      </trkpt>
      <trkpt lat="46.55461" lon="0.60534">
        <ele>110.2</ele>
        <time>2023-03-19T10:57:27Z</time>
      </trkpt>
      <trkpt lat="46.55457" lon="0.60529">
        <ele>110.2</ele>
        <time>2023-03-19T10:57:28Z</time>
      </trkpt>
      <trkpt lat="46.55428" lon="0.60489">
        <ele>110.2</ele>
        <time>2023-03-19T10:57:35Z</time>
      </trkpt>
      <trkpt lat="46.554" lon="0.60449">
        <ele>110.2</ele>
        <time>2023-03-19T10:57:42Z</time>
      </trkpt>
      <trkpt lat="46.55381" lon="0.60422">
        <ele>109.8</ele>
        <time>2023-03-19T10:57:47Z</time>
      </trkpt>
      <trkpt lat="46.55376" lon="0.60413">
        <ele>109.4</ele>
        <time>2023-03-19T10:57:50Z</time>
      </trkpt>
      <trkpt lat="46.55376" lon="0.60411">
        <ele>109.2</ele>
        <time>2023-03-19T10:57:51Z</time>
      </trkpt>
      <trkpt lat="46.55378" lon="0.60407">
        <ele>109.2</ele>
        <time>2023-03-19T10:57:53Z</time>
      </trkpt>
      <trkpt lat="46.55379" lon="0.60402">
        <ele>109</ele>
        <time>2023-03-19T10:57:55Z</time>
      </trkpt>
      <trkpt lat="46.55382" lon="0.60398">
        <ele>109</ele>
        <time>2023-03-19T10:57:57Z</time>
      </trkpt>
      <trkpt lat="46.55391" lon="0.60377">
        <ele>108.4</ele>
        <time>2023-03-19T10:58:02Z</time>
      </trkpt>
      <trkpt lat="46.55392" lon="0.60373">
        <ele>108.4</ele>
        <time>2023-03-19T10:58:03Z</time>
      </trkpt>
      <trkpt lat="46.55393" lon="0.60364">
        <ele>108.4</ele>
        <time>2023-03-19T10:58:05Z</time>
      </trkpt>
      <trkpt lat="46.55396" lon="0.60355">
        <ele>108.2</ele>
        <time>2023-03-19T10:58:07Z</time>
      </trkpt>
      <trkpt lat="46.55398" lon="0.6035">
        <ele>108.2</ele>
        <time>2023-03-19T10:58:08Z</time>
      </trkpt>
      <trkpt lat="46.55399" lon="0.60345">
        <ele>108</ele>
        <time>2023-03-19T10:58:09Z</time>
      </trkpt>
      <trkpt lat="46.55402" lon="0.60328">
        <ele>107.6</ele>
        <time>2023-03-19T10:58:12Z</time>
      </trkpt>
      <trkpt lat="46.55404" lon="0.60321">
        <ele>107.6</ele>
        <time>2023-03-19T10:58:13Z</time>
      </trkpt>
      <trkpt lat="46.55405" lon="0.60314">
        <ele>107.2</ele>
        <time>2023-03-19T10:58:14Z</time>
      </trkpt>
      <trkpt lat="46.55406" lon="0.60308">
        <ele>106.8</ele>
        <time>2023-03-19T10:58:15Z</time>
      </trkpt>
      <trkpt lat="46.55406" lon="0.60302">
        <ele>106.8</ele>
        <time>2023-03-19T10:58:16Z</time>
      </trkpt>
      <trkpt lat="46.55405" lon="0.60297">
        <ele>106.4</ele>
        <time>2023-03-19T10:58:17Z</time>
      </trkpt>
      <trkpt lat="46.55405" lon="0.60292">
        <ele>106.2</ele>
        <time>2023-03-19T10:58:18Z</time>
      </trkpt>
      <trkpt lat="46.55405" lon="0.60288">
        <ele>105.6</ele>
        <time>2023-03-19T10:58:19Z</time>
      </trkpt>
      <trkpt lat="46.55407" lon="0.60279">
        <ele>105.4</ele>
        <time>2023-03-19T10:58:21Z</time>
      </trkpt>
      <trkpt lat="46.55408" lon="0.60274">
        <ele>105.4</ele>
        <time>2023-03-19T10:58:22Z</time>
      </trkpt>
      <trkpt lat="46.5541" lon="0.60257">
        <ele>105</ele>
        <time>2023-03-19T10:58:25Z</time>
      </trkpt>
      <trkpt lat="46.55413" lon="0.60245">
        <ele>104.6</ele>
        <time>2023-03-19T10:58:27Z</time>
      </trkpt>
      <trkpt lat="46.55414" lon="0.60242">
        <ele>104.4</ele>
        <time>2023-03-19T10:58:28Z</time>
      </trkpt>
      <trkpt lat="46.55416" lon="0.6023">
        <ele>103.8</ele>
        <time>2023-03-19T10:58:31Z</time>
      </trkpt>
      <trkpt lat="46.55416" lon="0.60223">
        <ele>103.8</ele>
        <time>2023-03-19T10:58:33Z</time>
      </trkpt>
      <trkpt lat="46.55413" lon="0.60215">
        <ele>103.8</ele>
        <time>2023-03-19T10:58:35Z</time>
      </trkpt>
      <trkpt lat="46.55408" lon="0.60201">
        <ele>104.2</ele>
        <time>2023-03-19T10:58:38Z</time>
      </trkpt>
      <trkpt lat="46.55406" lon="0.60192">
        <ele>104.4</ele>
        <time>2023-03-19T10:58:40Z</time>
      </trkpt>
      <trkpt lat="46.55405" lon="0.60183">
        <ele>104.4</ele>
        <time>2023-03-19T10:58:42Z</time>
      </trkpt>
      <trkpt lat="46.55402" lon="0.60171">
        <ele>104.6</ele>
        <time>2023-03-19T10:58:45Z</time>
      </trkpt>
      <trkpt lat="46.55402" lon="0.60166">
        <ele>104.8</ele>
        <time>2023-03-19T10:58:46Z</time>
      </trkpt>
      <trkpt lat="46.55402" lon="0.60161">
        <ele>104.8</ele>
        <time>2023-03-19T10:58:47Z</time>
      </trkpt>
      <trkpt lat="46.55403" lon="0.60145">
        <ele>104.8</ele>
        <time>2023-03-19T10:58:49Z</time>
      </trkpt>
      <trkpt lat="46.55405" lon="0.6014">
        <ele>104.8</ele>
        <time>2023-03-19T10:58:50Z</time>
      </trkpt>
      <trkpt lat="46.55407" lon="0.60137">
        <ele>104.4</ele>
        <time>2023-03-19T10:58:51Z</time>
      </trkpt>
      <trkpt lat="46.55413" lon="0.60124">
        <ele>104.2</ele>
        <time>2023-03-19T10:58:54Z</time>
      </trkpt>
      <trkpt lat="46.55415" lon="0.60121">
        <ele>104</ele>
        <time>2023-03-19T10:58:55Z</time>
      </trkpt>
      <trkpt lat="46.55416" lon="0.60117">
        <ele>104</ele>
        <time>2023-03-19T10:58:56Z</time>
      </trkpt>
      <trkpt lat="46.55415" lon="0.60108">
        <ele>104</ele>
        <time>2023-03-19T10:58:59Z</time>
      </trkpt>
      <trkpt lat="46.55414" lon="0.60104">
        <ele>104</ele>
        <time>2023-03-19T10:59:00Z</time>
      </trkpt>
      <trkpt lat="46.55415" lon="0.60096">
        <ele>104</ele>
        <time>2023-03-19T10:59:02Z</time>
      </trkpt>
      <trkpt lat="46.55414" lon="0.60087">
        <ele>104</ele>
        <time>2023-03-19T10:59:04Z</time>
      </trkpt>
      <trkpt lat="46.55413" lon="0.60063">
        <ele>104</ele>
        <time>2023-03-19T10:59:09Z</time>
      </trkpt>
      <trkpt lat="46.55414" lon="0.6005">
        <ele>103.6</ele>
        <time>2023-03-19T10:59:12Z</time>
      </trkpt>
      <trkpt lat="46.55416" lon="0.60043">
        <ele>103.2</ele>
        <time>2023-03-19T10:59:14Z</time>
      </trkpt>
      <trkpt lat="46.55421" lon="0.60035">
        <ele>103</ele>
        <time>2023-03-19T10:59:17Z</time>
      </trkpt>
      <trkpt lat="46.55424" lon="0.60033">
        <ele>102.8</ele>
        <time>2023-03-19T10:59:19Z</time>
      </trkpt>
      <trkpt lat="46.55428" lon="0.60034">
        <ele>102.8</ele>
        <time>2023-03-19T10:59:21Z</time>
      </trkpt>
      <trkpt lat="46.55433" lon="0.60032">
        <ele>102.4</ele>
        <time>2023-03-19T10:59:23Z</time>
      </trkpt>
      <trkpt lat="46.55436" lon="0.60032">
        <ele>102.4</ele>
        <time>2023-03-19T10:59:24Z</time>
      </trkpt>
      <trkpt lat="46.55445" lon="0.6003">
        <ele>101.8</ele>
        <time>2023-03-19T10:59:27Z</time>
      </trkpt>
      <trkpt lat="46.55449" lon="0.60026">
        <ele>101.6</ele>
        <time>2023-03-19T10:59:29Z</time>
      </trkpt>
      <trkpt lat="46.55452" lon="0.60022">
        <ele>101.4</ele>
        <time>2023-03-19T10:59:30Z</time>
      </trkpt>
      <trkpt lat="46.55455" lon="0.60017">
        <ele>101.2</ele>
        <time>2023-03-19T10:59:31Z</time>
      </trkpt>
      <trkpt lat="46.55459" lon="0.60005">
        <ele>100.6</ele>
        <time>2023-03-19T10:59:33Z</time>
      </trkpt>
      <trkpt lat="46.55461" lon="0.59999">
        <ele>100.4</ele>
        <time>2023-03-19T10:59:34Z</time>
      </trkpt>
      <trkpt lat="46.55464" lon="0.5998">
        <ele>99.4</ele>
        <time>2023-03-19T10:59:38Z</time>
      </trkpt>
      <trkpt lat="46.55464" lon="0.59974">
        <ele>99.4</ele>
        <time>2023-03-19T10:59:39Z</time>
      </trkpt>
      <trkpt lat="46.55465" lon="0.59962">
        <ele>99.2</ele>
        <time>2023-03-19T10:59:41Z</time>
      </trkpt>
      <trkpt lat="46.55469" lon="0.59947">
        <ele>98.6</ele>
        <time>2023-03-19T10:59:43Z</time>
      </trkpt>
      <trkpt lat="46.55474" lon="0.5993">
        <ele>98.2</ele>
        <time>2023-03-19T10:59:45Z</time>
      </trkpt>
      <trkpt lat="46.55486" lon="0.59897">
        <ele>96.8</ele>
        <time>2023-03-19T10:59:48Z</time>
      </trkpt>
      <trkpt lat="46.55493" lon="0.5987">
        <ele>95</ele>
        <time>2023-03-19T10:59:50Z</time>
      </trkpt>
      <trkpt lat="46.55496" lon="0.59858">
        <ele>94.4</ele>
        <time>2023-03-19T10:59:51Z</time>
      </trkpt>
      <trkpt lat="46.55502" lon="0.59836">
        <ele>94</ele>
        <time>2023-03-19T10:59:53Z</time>
      </trkpt>
      <trkpt lat="46.55504" lon="0.59826">
        <ele>93.6</ele>
        <time>2023-03-19T10:59:54Z</time>
      </trkpt>
      <trkpt lat="46.55507" lon="0.59784">
        <ele>93.8</ele>
        <time>2023-03-19T10:59:59Z</time>
      </trkpt>
      <trkpt lat="46.55506" lon="0.59776">
        <ele>95</ele>
        <time>2023-03-19T11:00:00Z</time>
      </trkpt>
      <trkpt lat="46.55506" lon="0.59768">
        <ele>95.6</ele>
        <time>2023-03-19T11:00:01Z</time>
      </trkpt>
      <trkpt lat="46.55505" lon="0.59754">
        <ele>96.2</ele>
        <time>2023-03-19T11:00:03Z</time>
      </trkpt>
      <trkpt lat="46.55505" lon="0.59741">
        <ele>96.4</ele>
        <time>2023-03-19T11:00:05Z</time>
      </trkpt>
      <trkpt lat="46.55505" lon="0.59726">
        <ele>96.6</ele>
        <time>2023-03-19T11:00:08Z</time>
      </trkpt>
      <trkpt lat="46.55507" lon="0.59712">
        <ele>97</ele>
        <time>2023-03-19T11:00:11Z</time>
      </trkpt>
      <trkpt lat="46.55511" lon="0.59671">
        <ele>96.8</ele>
        <time>2023-03-19T11:00:18Z</time>
      </trkpt>
      <trkpt lat="46.55517" lon="0.59646">
        <ele>97.4</ele>
        <time>2023-03-19T11:00:22Z</time>
      </trkpt>
      <trkpt lat="46.55519" lon="0.59633">
        <ele>97.8</ele>
        <time>2023-03-19T11:00:24Z</time>
      </trkpt>
      <trkpt lat="46.55527" lon="0.59604">
        <ele>97.6</ele>
        <time>2023-03-19T11:00:29Z</time>
      </trkpt>
      <trkpt lat="46.55539" lon="0.59541">
        <ele>98.4</ele>
        <time>2023-03-19T11:00:40Z</time>
      </trkpt>
      <trkpt lat="46.55547" lon="0.595">
        <ele>99</ele>
        <time>2023-03-19T11:00:48Z</time>
      </trkpt>
      <trkpt lat="46.55552" lon="0.59483">
        <ele>99.6</ele>
        <time>2023-03-19T11:00:52Z</time>
      </trkpt>
      <trkpt lat="46.55557" lon="0.59464">
        <ele>100.6</ele>
        <time>2023-03-19T11:00:57Z</time>
      </trkpt>
      <trkpt lat="46.55568" lon="0.59425">
        <ele>101.6</ele>
        <time>2023-03-19T11:01:07Z</time>
      </trkpt>
      <trkpt lat="46.55569" lon="0.59421">
        <ele>101.8</ele>
        <time>2023-03-19T11:01:08Z</time>
      </trkpt>
      <trkpt lat="46.55575" lon="0.59401">
        <ele>102.8</ele>
        <time>2023-03-19T11:01:14Z</time>
      </trkpt>
      <trkpt lat="46.55578" lon="0.59391">
        <ele>103.2</ele>
        <time>2023-03-19T11:01:17Z</time>
      </trkpt>
      <trkpt lat="46.55581" lon="0.59377">
        <ele>103.8</ele>
        <time>2023-03-19T11:01:21Z</time>
      </trkpt>
      <trkpt lat="46.55588" lon="0.59353">
        <ele>104.4</ele>
        <time>2023-03-19T11:01:28Z</time>
      </trkpt>
      <trkpt lat="46.55591" lon="0.59341">
        <ele>104.8</ele>
        <time>2023-03-19T11:01:31Z</time>
      </trkpt>
      <trkpt lat="46.55597" lon="0.59317">
        <ele>105.4</ele>
        <time>2023-03-19T11:01:37Z</time>
      </trkpt>
      <trkpt lat="46.55605" lon="0.59289">
        <ele>105.8</ele>
        <time>2023-03-19T11:01:44Z</time>
      </trkpt>
      <trkpt lat="46.5561" lon="0.59272">
        <ele>106.2</ele>
        <time>2023-03-19T11:01:48Z</time>
      </trkpt>
      <trkpt lat="46.55622" lon="0.59227">
        <ele>106.4</ele>
        <time>2023-03-19T11:01:58Z</time>
      </trkpt>
      <trkpt lat="46.55631" lon="0.59192">
        <ele>106.8</ele>
        <time>2023-03-19T11:02:05Z</time>
      </trkpt>
      <trkpt lat="46.55632" lon="0.59187">
        <ele>106.8</ele>
        <time>2023-03-19T11:02:06Z</time>
      </trkpt>
      <trkpt lat="46.55643" lon="0.59149">
        <ele>106.6</ele>
        <time>2023-03-19T11:02:13Z</time>
      </trkpt>
      <trkpt lat="46.55651" lon="0.59121">
        <ele>105.8</ele>
        <time>2023-03-19T11:02:18Z</time>
      </trkpt>
      <trkpt lat="46.55655" lon="0.59102">
        <ele>104.6</ele>
        <time>2023-03-19T11:02:21Z</time>
      </trkpt>
      <trkpt lat="46.55665" lon="0.59054">
        <ele>103.6</ele>
        <time>2023-03-19T11:02:28Z</time>
      </trkpt>
      <trkpt lat="46.55667" lon="0.59046">
        <ele>103</ele>
        <time>2023-03-19T11:02:29Z</time>
      </trkpt>
      <trkpt lat="46.55671" lon="0.5903">
        <ele>102.6</ele>
        <time>2023-03-19T11:02:31Z</time>
      </trkpt>
      <trkpt lat="46.55673" lon="0.59022">
        <ele>102.2</ele>
        <time>2023-03-19T11:02:32Z</time>
      </trkpt>
      <trkpt lat="46.55677" lon="0.58995">
        <ele>102</ele>
        <time>2023-03-19T11:02:35Z</time>
      </trkpt>
      <trkpt lat="46.55688" lon="0.58951">
        <ele>101.4</ele>
        <time>2023-03-19T11:02:40Z</time>
      </trkpt>
      <trkpt lat="46.55695" lon="0.58917">
        <ele>100.6</ele>
        <time>2023-03-19T11:02:44Z</time>
      </trkpt>
      <trkpt lat="46.55703" lon="0.58877">
        <ele>100.2</ele>
        <time>2023-03-19T11:02:49Z</time>
      </trkpt>
      <trkpt lat="46.55706" lon="0.58863">
        <ele>100.2</ele>
        <time>2023-03-19T11:02:51Z</time>
      </trkpt>
      <trkpt lat="46.55716" lon="0.58823">
        <ele>100.2</ele>
        <time>2023-03-19T11:02:58Z</time>
      </trkpt>
      <trkpt lat="46.55726" lon="0.5879">
        <ele>100.4</ele>
        <time>2023-03-19T11:03:05Z</time>
      </trkpt>
      <trkpt lat="46.55734" lon="0.58755">
        <ele>100.2</ele>
        <time>2023-03-19T11:03:12Z</time>
      </trkpt>
      <trkpt lat="46.55741" lon="0.58719">
        <ele>101</ele>
        <time>2023-03-19T11:03:20Z</time>
      </trkpt>
      <trkpt lat="46.55741" lon="0.58715">
        <ele>101.2</ele>
        <time>2023-03-19T11:03:21Z</time>
      </trkpt>
      <trkpt lat="46.55747" lon="0.58688">
        <ele>101.8</ele>
        <time>2023-03-19T11:03:27Z</time>
      </trkpt>
      <trkpt lat="46.55749" lon="0.58676">
        <ele>102.4</ele>
        <time>2023-03-19T11:03:30Z</time>
      </trkpt>
      <trkpt lat="46.55753" lon="0.58661">
        <ele>102.8</ele>
        <time>2023-03-19T11:03:34Z</time>
      </trkpt>
      <trkpt lat="46.55759" lon="0.58635">
        <ele>102.8</ele>
        <time>2023-03-19T11:03:40Z</time>
      </trkpt>
      <trkpt lat="46.55764" lon="0.58615">
        <ele>103.4</ele>
        <time>2023-03-19T11:03:44Z</time>
      </trkpt>
      <trkpt lat="46.55766" lon="0.58606">
        <ele>103.4</ele>
        <time>2023-03-19T11:03:46Z</time>
      </trkpt>
      <trkpt lat="46.55773" lon="0.58569">
        <ele>104</ele>
        <time>2023-03-19T11:03:54Z</time>
      </trkpt>
      <trkpt lat="46.55778" lon="0.58546">
        <ele>104.4</ele>
        <time>2023-03-19T11:03:59Z</time>
      </trkpt>
      <trkpt lat="46.5578" lon="0.58536">
        <ele>104.8</ele>
        <time>2023-03-19T11:04:01Z</time>
      </trkpt>
      <trkpt lat="46.55785" lon="0.585">
        <ele>105.4</ele>
        <time>2023-03-19T11:04:09Z</time>
      </trkpt>
      <trkpt lat="46.55786" lon="0.58495">
        <ele>105.6</ele>
        <time>2023-03-19T11:04:10Z</time>
      </trkpt>
      <trkpt lat="46.55791" lon="0.58471">
        <ele>106</ele>
        <time>2023-03-19T11:04:16Z</time>
      </trkpt>
      <trkpt lat="46.55793" lon="0.58463">
        <ele>106.6</ele>
        <time>2023-03-19T11:04:18Z</time>
      </trkpt>
      <trkpt lat="46.55797" lon="0.58439">
        <ele>107.2</ele>
        <time>2023-03-19T11:04:24Z</time>
      </trkpt>
      <trkpt lat="46.55802" lon="0.58416">
        <ele>107.8</ele>
        <time>2023-03-19T11:04:30Z</time>
      </trkpt>
      <trkpt lat="46.55802" lon="0.58412">
        <ele>108.2</ele>
        <time>2023-03-19T11:04:31Z</time>
      </trkpt>
      <trkpt lat="46.55808" lon="0.58391">
        <ele>108.8</ele>
        <time>2023-03-19T11:04:37Z</time>
      </trkpt>
      <trkpt lat="46.55813" lon="0.58371">
        <ele>109</ele>
        <time>2023-03-19T11:04:43Z</time>
      </trkpt>
      <trkpt lat="46.55814" lon="0.58368">
        <ele>109.2</ele>
        <time>2023-03-19T11:04:44Z</time>
      </trkpt>
      <trkpt lat="46.5582" lon="0.58345">
        <ele>110</ele>
        <time>2023-03-19T11:04:51Z</time>
      </trkpt>
      <trkpt lat="46.5582" lon="0.58343">
        <ele>110.2</ele>
        <time>2023-03-19T11:04:52Z</time>
      </trkpt>
      <trkpt lat="46.55822" lon="0.58335">
        <ele>110.6</ele>
        <time>2023-03-19T11:04:55Z</time>
      </trkpt>
      <trkpt lat="46.55824" lon="0.5833">
        <ele>110.6</ele>
        <time>2023-03-19T11:04:57Z</time>
      </trkpt>
      <trkpt lat="46.55826" lon="0.58327">
        <ele>110.6</ele>
        <time>2023-03-19T11:04:59Z</time>
      </trkpt>
      <trkpt lat="46.55828" lon="0.58319">
        <ele>110.8</ele>
        <time>2023-03-19T11:05:02Z</time>
      </trkpt>
      <trkpt lat="46.55832" lon="0.58302">
        <ele>111</ele>
        <time>2023-03-19T11:05:06Z</time>
      </trkpt>
      <trkpt lat="46.55834" lon="0.58298">
        <ele>110.8</ele>
        <time>2023-03-19T11:05:07Z</time>
      </trkpt>
      <trkpt lat="46.55837" lon="0.58288">
        <ele>110.6</ele>
        <time>2023-03-19T11:05:09Z</time>
      </trkpt>
      <trkpt lat="46.55844" lon="0.58269">
        <ele>110</ele>
        <time>2023-03-19T11:05:12Z</time>
      </trkpt>
      <trkpt lat="46.55846" lon="0.58263">
        <ele>109.8</ele>
        <time>2023-03-19T11:05:13Z</time>
      </trkpt>
      <trkpt lat="46.55848" lon="0.58258">
        <ele>109.8</ele>
        <time>2023-03-19T11:05:14Z</time>
      </trkpt>
      <trkpt lat="46.55851" lon="0.58244">
        <ele>109.6</ele>
        <time>2023-03-19T11:05:16Z</time>
      </trkpt>
      <trkpt lat="46.55858" lon="0.58216">
        <ele>109.4</ele>
        <time>2023-03-19T11:05:20Z</time>
      </trkpt>
      <trkpt lat="46.5587" lon="0.58174">
        <ele>109.2</ele>
        <time>2023-03-19T11:05:27Z</time>
      </trkpt>
      <trkpt lat="46.55872" lon="0.58159">
        <ele>109.4</ele>
        <time>2023-03-19T11:05:30Z</time>
      </trkpt>
      <trkpt lat="46.55873" lon="0.58146">
        <ele>109.4</ele>
        <time>2023-03-19T11:05:32Z</time>
      </trkpt>
      <trkpt lat="46.55879" lon="0.58121">
        <ele>109.4</ele>
        <time>2023-03-19T11:05:36Z</time>
      </trkpt>
      <trkpt lat="46.55882" lon="0.58108">
        <ele>109.4</ele>
        <time>2023-03-19T11:05:38Z</time>
      </trkpt>
      <trkpt lat="46.55893" lon="0.58067">
        <ele>110.6</ele>
        <time>2023-03-19T11:05:45Z</time>
      </trkpt>
      <trkpt lat="46.55903" lon="0.58035">
        <ele>110.4</ele>
        <time>2023-03-19T11:05:50Z</time>
      </trkpt>
      <trkpt lat="46.55908" lon="0.58022">
        <ele>110.4</ele>
        <time>2023-03-19T11:05:52Z</time>
      </trkpt>
      <trkpt lat="46.55926" lon="0.57972">
        <ele>110.8</ele>
        <time>2023-03-19T11:06:01Z</time>
      </trkpt>
      <trkpt lat="46.55937" lon="0.57944">
        <ele>111</ele>
        <time>2023-03-19T11:06:06Z</time>
      </trkpt>
      <trkpt lat="46.55941" lon="0.57934">
        <ele>111.2</ele>
        <time>2023-03-19T11:06:08Z</time>
      </trkpt>
      <trkpt lat="46.5595" lon="0.57902">
        <ele>112</ele>
        <time>2023-03-19T11:06:14Z</time>
      </trkpt>
      <trkpt lat="46.55954" lon="0.57891">
        <ele>112</ele>
        <time>2023-03-19T11:06:16Z</time>
      </trkpt>
      <trkpt lat="46.55969" lon="0.57842">
        <ele>112.4</ele>
        <time>2023-03-19T11:06:25Z</time>
      </trkpt>
      <trkpt lat="46.5598" lon="0.57804">
        <ele>112.6</ele>
        <time>2023-03-19T11:06:33Z</time>
      </trkpt>
      <trkpt lat="46.55992" lon="0.57765">
        <ele>112.8</ele>
        <time>2023-03-19T11:06:42Z</time>
      </trkpt>
      <trkpt lat="46.56002" lon="0.57756">
        <ele>113</ele>
        <time>2023-03-19T11:06:46Z</time>
      </trkpt>
      <trkpt lat="46.56016" lon="0.57762">
        <ele>112.8</ele>
        <time>2023-03-19T11:06:50Z</time>
      </trkpt>
      <trkpt lat="46.56044" lon="0.57781">
        <ele>112.6</ele>
        <time>2023-03-19T11:06:57Z</time>
      </trkpt>
      <trkpt lat="46.56085" lon="0.57805">
        <ele>112.4</ele>
        <time>2023-03-19T11:07:06Z</time>
      </trkpt>
      <trkpt lat="46.56122" lon="0.57828">
        <ele>113.2</ele>
        <time>2023-03-19T11:07:15Z</time>
      </trkpt>
      <trkpt lat="46.56126" lon="0.5783">
        <ele>113.2</ele>
        <time>2023-03-19T11:07:16Z</time>
      </trkpt>
      <trkpt lat="46.56162" lon="0.5785">
        <ele>113</ele>
        <time>2023-03-19T11:07:25Z</time>
      </trkpt>
      <trkpt lat="46.562" lon="0.57865">
        <ele>113.6</ele>
        <time>2023-03-19T11:07:34Z</time>
      </trkpt>
      <trkpt lat="46.5624" lon="0.57874">
        <ele>113.4</ele>
        <time>2023-03-19T11:07:43Z</time>
      </trkpt>
      <trkpt lat="46.56271" lon="0.57882">
        <ele>113</ele>
        <time>2023-03-19T11:07:50Z</time>
      </trkpt>
      <trkpt lat="46.56314" lon="0.57894">
        <ele>113</ele>
        <time>2023-03-19T11:08:00Z</time>
      </trkpt>
      <trkpt lat="46.56349" lon="0.57908">
        <ele>113.4</ele>
        <time>2023-03-19T11:08:09Z</time>
      </trkpt>
      <trkpt lat="46.56378" lon="0.57928">
        <ele>113.6</ele>
        <time>2023-03-19T11:08:17Z</time>
      </trkpt>
      <trkpt lat="46.56394" lon="0.57946">
        <ele>113.8</ele>
        <time>2023-03-19T11:08:23Z</time>
      </trkpt>
      <trkpt lat="46.56399" lon="0.57955">
        <ele>113.8</ele>
        <time>2023-03-19T11:08:25Z</time>
      </trkpt>
      <trkpt lat="46.56406" lon="0.57964">
        <ele>114</ele>
        <time>2023-03-19T11:08:27Z</time>
      </trkpt>
      <trkpt lat="46.56415" lon="0.57967">
        <ele>114</ele>
        <time>2023-03-19T11:08:29Z</time>
      </trkpt>
      <trkpt lat="46.56419" lon="0.57966">
        <ele>114.2</ele>
        <time>2023-03-19T11:08:30Z</time>
      </trkpt>
      <trkpt lat="46.56423" lon="0.57964">
        <ele>114.2</ele>
        <time>2023-03-19T11:08:31Z</time>
      </trkpt>
      <trkpt lat="46.5643" lon="0.57957">
        <ele>114.4</ele>
        <time>2023-03-19T11:08:33Z</time>
      </trkpt>
      <trkpt lat="46.56436" lon="0.57947">
        <ele>114.6</ele>
        <time>2023-03-19T11:08:35Z</time>
      </trkpt>
      <trkpt lat="46.56443" lon="0.57938">
        <ele>114.6</ele>
        <time>2023-03-19T11:08:37Z</time>
      </trkpt>
      <trkpt lat="46.56452" lon="0.57935">
        <ele>114.6</ele>
        <time>2023-03-19T11:08:39Z</time>
      </trkpt>
      <trkpt lat="46.56486" lon="0.5794">
        <ele>115</ele>
        <time>2023-03-19T11:08:46Z</time>
      </trkpt>
      <trkpt lat="46.56491" lon="0.5794">
        <ele>115.2</ele>
        <time>2023-03-19T11:08:47Z</time>
      </trkpt>
      <trkpt lat="46.56526" lon="0.57947">
        <ele>115.6</ele>
        <time>2023-03-19T11:08:54Z</time>
      </trkpt>
      <trkpt lat="46.56572" lon="0.57958">
        <ele>116</ele>
        <time>2023-03-19T11:09:03Z</time>
      </trkpt>
      <trkpt lat="46.56611" lon="0.57975">
        <ele>116.2</ele>
        <time>2023-03-19T11:09:11Z</time>
      </trkpt>
      <trkpt lat="46.56616" lon="0.57978">
        <ele>116.4</ele>
        <time>2023-03-19T11:09:12Z</time>
      </trkpt>
      <trkpt lat="46.56636" lon="0.5799">
        <ele>116.2</ele>
        <time>2023-03-19T11:09:16Z</time>
      </trkpt>
      <trkpt lat="46.56645" lon="0.58001">
        <ele>116.2</ele>
        <time>2023-03-19T11:09:18Z</time>
      </trkpt>
      <trkpt lat="46.56664" lon="0.58032">
        <ele>115.4</ele>
        <time>2023-03-19T11:09:23Z</time>
      </trkpt>
      <trkpt lat="46.5667" lon="0.58035">
        <ele>115.4</ele>
        <time>2023-03-19T11:09:24Z</time>
      </trkpt>
      <trkpt lat="46.56675" lon="0.58037">
        <ele>115.2</ele>
        <time>2023-03-19T11:09:25Z</time>
      </trkpt>
      <trkpt lat="46.56686" lon="0.58037">
        <ele>114.8</ele>
        <time>2023-03-19T11:09:27Z</time>
      </trkpt>
      <trkpt lat="46.5669" lon="0.58034">
        <ele>114.8</ele>
        <time>2023-03-19T11:09:28Z</time>
      </trkpt>
      <trkpt lat="46.56693" lon="0.58029">
        <ele>114.8</ele>
        <time>2023-03-19T11:09:29Z</time>
      </trkpt>
      <trkpt lat="46.56696" lon="0.58016">
        <ele>114.6</ele>
        <time>2023-03-19T11:09:31Z</time>
      </trkpt>
      <trkpt lat="46.567" lon="0.57976">
        <ele>115.2</ele>
        <time>2023-03-19T11:09:36Z</time>
      </trkpt>
      <trkpt lat="46.56708" lon="0.57906">
        <ele>115.8</ele>
        <time>2023-03-19T11:09:45Z</time>
      </trkpt>
      <trkpt lat="46.5671" lon="0.57899">
        <ele>115.8</ele>
        <time>2023-03-19T11:09:46Z</time>
      </trkpt>
      <trkpt lat="46.56725" lon="0.57836">
        <ele>115</ele>
        <time>2023-03-19T11:09:54Z</time>
      </trkpt>
      <trkpt lat="46.56733" lon="0.57803">
        <ele>114.2</ele>
        <time>2023-03-19T11:09:58Z</time>
      </trkpt>
      <trkpt lat="46.56742" lon="0.57773">
        <ele>114</ele>
        <time>2023-03-19T11:10:02Z</time>
      </trkpt>
      <trkpt lat="46.56753" lon="0.57744">
        <ele>113</ele>
        <time>2023-03-19T11:10:06Z</time>
      </trkpt>
      <trkpt lat="46.56766" lon="0.57718">
        <ele>112.6</ele>
        <time>2023-03-19T11:10:10Z</time>
      </trkpt>
      <trkpt lat="46.56781" lon="0.57693">
        <ele>112</ele>
        <time>2023-03-19T11:10:14Z</time>
      </trkpt>
      <trkpt lat="46.56791" lon="0.57678">
        <ele>111.6</ele>
        <time>2023-03-19T11:10:17Z</time>
      </trkpt>
      <trkpt lat="46.56797" lon="0.57671">
        <ele>111.2</ele>
        <time>2023-03-19T11:10:19Z</time>
      </trkpt>
      <trkpt lat="46.56804" lon="0.57666">
        <ele>110.8</ele>
        <time>2023-03-19T11:10:21Z</time>
      </trkpt>
      <trkpt lat="46.56808" lon="0.57657">
        <ele>110.4</ele>
        <time>2023-03-19T11:10:23Z</time>
      </trkpt>
      <trkpt lat="46.56809" lon="0.57651">
        <ele>110</ele>
        <time>2023-03-19T11:10:24Z</time>
      </trkpt>
      <trkpt lat="46.56809" lon="0.57644">
        <ele>109.8</ele>
        <time>2023-03-19T11:10:25Z</time>
      </trkpt>
      <trkpt lat="46.56808" lon="0.57637">
        <ele>109.8</ele>
        <time>2023-03-19T11:10:26Z</time>
      </trkpt>
      <trkpt lat="46.56807" lon="0.57614">
        <ele>109.2</ele>
        <time>2023-03-19T11:10:29Z</time>
      </trkpt>
      <trkpt lat="46.56806" lon="0.57597">
        <ele>108.6</ele>
        <time>2023-03-19T11:10:31Z</time>
      </trkpt>
      <trkpt lat="46.56807" lon="0.57588">
        <ele>108.6</ele>
        <time>2023-03-19T11:10:32Z</time>
      </trkpt>
      <trkpt lat="46.56808" lon="0.57572">
        <ele>108</ele>
        <time>2023-03-19T11:10:34Z</time>
      </trkpt>
      <trkpt lat="46.56809" lon="0.57564">
        <ele>107.6</ele>
        <time>2023-03-19T11:10:35Z</time>
      </trkpt>
      <trkpt lat="46.56815" lon="0.57526">
        <ele>107.2</ele>
        <time>2023-03-19T11:10:40Z</time>
      </trkpt>
      <trkpt lat="46.56823" lon="0.57472">
        <ele>108.6</ele>
        <time>2023-03-19T11:10:48Z</time>
      </trkpt>
      <trkpt lat="46.56833" lon="0.57412">
        <ele>109.8</ele>
        <time>2023-03-19T11:10:58Z</time>
      </trkpt>
      <trkpt lat="46.56842" lon="0.57361">
        <ele>110.4</ele>
        <time>2023-03-19T11:11:07Z</time>
      </trkpt>
      <trkpt lat="46.56854" lon="0.57302">
        <ele>109.8</ele>
        <time>2023-03-19T11:11:17Z</time>
      </trkpt>
      <trkpt lat="46.56868" lon="0.5723">
        <ele>109.4</ele>
        <time>2023-03-19T11:11:29Z</time>
      </trkpt>
      <trkpt lat="46.56878" lon="0.57171">
        <ele>109.4</ele>
        <time>2023-03-19T11:11:39Z</time>
      </trkpt>
      <trkpt lat="46.56886" lon="0.57123">
        <ele>109.2</ele>
        <time>2023-03-19T11:11:47Z</time>
      </trkpt>
      <trkpt lat="46.5689" lon="0.57102">
        <ele>108.8</ele>
        <time>2023-03-19T11:11:50Z</time>
      </trkpt>
      <trkpt lat="46.56896" lon="0.57066">
        <ele>108.2</ele>
        <time>2023-03-19T11:11:55Z</time>
      </trkpt>
      <trkpt lat="46.56905" lon="0.57027">
        <ele>107.4</ele>
        <time>2023-03-19T11:12:01Z</time>
      </trkpt>
      <trkpt lat="46.56907" lon="0.57021">
        <ele>107.2</ele>
        <time>2023-03-19T11:12:02Z</time>
      </trkpt>
      <trkpt lat="46.56912" lon="0.57002">
        <ele>107</ele>
        <time>2023-03-19T11:12:05Z</time>
      </trkpt>
      <trkpt lat="46.5692" lon="0.56983">
        <ele>106.6</ele>
        <time>2023-03-19T11:12:08Z</time>
      </trkpt>
      <trkpt lat="46.56924" lon="0.56977">
        <ele>106.4</ele>
        <time>2023-03-19T11:12:09Z</time>
      </trkpt>
      <trkpt lat="46.56946" lon="0.56951">
        <ele>105.6</ele>
        <time>2023-03-19T11:12:15Z</time>
      </trkpt>
      <trkpt lat="46.56949" lon="0.56947">
        <ele>105.4</ele>
        <time>2023-03-19T11:12:16Z</time>
      </trkpt>
      <trkpt lat="46.56949" lon="0.5694">
        <ele>104.8</ele>
        <time>2023-03-19T11:12:18Z</time>
      </trkpt>
      <trkpt lat="46.56937" lon="0.5693">
        <ele>105</ele>
        <time>2023-03-19T11:12:22Z</time>
      </trkpt>
      <trkpt lat="46.56913" lon="0.56905">
        <ele>105.2</ele>
        <time>2023-03-19T11:12:29Z</time>
      </trkpt>
      <trkpt lat="46.5689" lon="0.56879">
        <ele>105.8</ele>
        <time>2023-03-19T11:12:36Z</time>
      </trkpt>
      <trkpt lat="46.5688" lon="0.56867">
        <ele>106.4</ele>
        <time>2023-03-19T11:12:39Z</time>
      </trkpt>
      <trkpt lat="46.56858" lon="0.5684">
        <ele>107.2</ele>
        <time>2023-03-19T11:12:46Z</time>
      </trkpt>
      <trkpt lat="46.56849" lon="0.56827">
        <ele>107.6</ele>
        <time>2023-03-19T11:12:49Z</time>
      </trkpt>
      <trkpt lat="46.56841" lon="0.5681">
        <ele>107.6</ele>
        <time>2023-03-19T11:12:53Z</time>
      </trkpt>
      <trkpt lat="46.5684" lon="0.56805">
        <ele>107.6</ele>
        <time>2023-03-19T11:12:54Z</time>
      </trkpt>
      <trkpt lat="46.56842" lon="0.56794">
        <ele>107.8</ele>
        <time>2023-03-19T11:12:56Z</time>
      </trkpt>
      <trkpt lat="46.56857" lon="0.5675">
        <ele>107.8</ele>
        <time>2023-03-19T11:13:03Z</time>
      </trkpt>
      <trkpt lat="46.56881" lon="0.56682">
        <ele>106.8</ele>
        <time>2023-03-19T11:13:13Z</time>
      </trkpt>
      <trkpt lat="46.56903" lon="0.56619">
        <ele>107.4</ele>
        <time>2023-03-19T11:13:22Z</time>
      </trkpt>
      <trkpt lat="46.56918" lon="0.56573">
        <ele>107</ele>
        <time>2023-03-19T11:13:29Z</time>
      </trkpt>
      <trkpt lat="46.56936" lon="0.56524">
        <ele>107.6</ele>
        <time>2023-03-19T11:13:37Z</time>
      </trkpt>
      <trkpt lat="46.56941" lon="0.56515">
        <ele>108</ele>
        <time>2023-03-19T11:13:39Z</time>
      </trkpt>
      <trkpt lat="46.56946" lon="0.56507">
        <ele>108.2</ele>
        <time>2023-03-19T11:13:41Z</time>
      </trkpt>
      <trkpt lat="46.56949" lon="0.56504">
        <ele>108.4</ele>
        <time>2023-03-19T11:13:42Z</time>
      </trkpt>
      <trkpt lat="46.56953" lon="0.56501">
        <ele>108.4</ele>
        <time>2023-03-19T11:13:43Z</time>
      </trkpt>
      <trkpt lat="46.56957" lon="0.56499">
        <ele>108.6</ele>
        <time>2023-03-19T11:13:44Z</time>
      </trkpt>
      <trkpt lat="46.5697" lon="0.56493">
        <ele>108.8</ele>
        <time>2023-03-19T11:13:47Z</time>
      </trkpt>
      <trkpt lat="46.56985" lon="0.56489">
        <ele>108.8</ele>
        <time>2023-03-19T11:13:51Z</time>
      </trkpt>
      <trkpt lat="46.5701" lon="0.56482">
        <ele>109</ele>
        <time>2023-03-19T11:13:56Z</time>
      </trkpt>
      <trkpt lat="46.5705" lon="0.56469">
        <ele>108.4</ele>
        <time>2023-03-19T11:14:04Z</time>
      </trkpt>
      <trkpt lat="46.57059" lon="0.56469">
        <ele>108.2</ele>
        <time>2023-03-19T11:14:06Z</time>
      </trkpt>
      <trkpt lat="46.57066" lon="0.56461">
        <ele>108.2</ele>
        <time>2023-03-19T11:14:08Z</time>
      </trkpt>
      <trkpt lat="46.57068" lon="0.56455">
        <ele>108</ele>
        <time>2023-03-19T11:14:09Z</time>
      </trkpt>
      <trkpt lat="46.57072" lon="0.56441">
        <ele>107.8</ele>
        <time>2023-03-19T11:14:11Z</time>
      </trkpt>
      <trkpt lat="46.57073" lon="0.56435">
        <ele>107.8</ele>
        <time>2023-03-19T11:14:12Z</time>
      </trkpt>
      <trkpt lat="46.57082" lon="0.56391">
        <ele>107.8</ele>
        <time>2023-03-19T11:14:17Z</time>
      </trkpt>
      <trkpt lat="46.5709" lon="0.5632">
        <ele>108.4</ele>
        <time>2023-03-19T11:14:25Z</time>
      </trkpt>
      <trkpt lat="46.57099" lon="0.56258">
        <ele>109.2</ele>
        <time>2023-03-19T11:14:33Z</time>
      </trkpt>
      <trkpt lat="46.57101" lon="0.56243">
        <ele>109.6</ele>
        <time>2023-03-19T11:14:35Z</time>
      </trkpt>
      <trkpt lat="46.57108" lon="0.56198">
        <ele>110</ele>
        <time>2023-03-19T11:14:41Z</time>
      </trkpt>
      <trkpt lat="46.57112" lon="0.5617">
        <ele>110.6</ele>
        <time>2023-03-19T11:14:45Z</time>
      </trkpt>
      <trkpt lat="46.57116" lon="0.5615">
        <ele>110.8</ele>
        <time>2023-03-19T11:14:48Z</time>
      </trkpt>
      <trkpt lat="46.5712" lon="0.56131">
        <ele>111</ele>
        <time>2023-03-19T11:14:51Z</time>
      </trkpt>
      <trkpt lat="46.57125" lon="0.56115">
        <ele>111.2</ele>
        <time>2023-03-19T11:14:54Z</time>
      </trkpt>
      <trkpt lat="46.57126" lon="0.56104">
        <ele>111.4</ele>
        <time>2023-03-19T11:14:56Z</time>
      </trkpt>
      <trkpt lat="46.57129" lon="0.56087">
        <ele>111.6</ele>
        <time>2023-03-19T11:14:59Z</time>
      </trkpt>
      <trkpt lat="46.5713" lon="0.56083">
        <ele>111.6</ele>
        <time>2023-03-19T11:15:00Z</time>
      </trkpt>
      <trkpt lat="46.57136" lon="0.56075">
        <ele>111.6</ele>
        <time>2023-03-19T11:15:02Z</time>
      </trkpt>
      <trkpt lat="46.57138" lon="0.56065">
        <ele>111.6</ele>
        <time>2023-03-19T11:15:04Z</time>
      </trkpt>
      <trkpt lat="46.5714" lon="0.56053">
        <ele>111.8</ele>
        <time>2023-03-19T11:15:06Z</time>
      </trkpt>
      <trkpt lat="46.57146" lon="0.55998">
        <ele>112.2</ele>
        <time>2023-03-19T11:15:15Z</time>
      </trkpt>
      <trkpt lat="46.57155" lon="0.55926">
        <ele>112.4</ele>
        <time>2023-03-19T11:15:26Z</time>
      </trkpt>
      <trkpt lat="46.57163" lon="0.55864">
        <ele>112</ele>
        <time>2023-03-19T11:15:35Z</time>
      </trkpt>
      <trkpt lat="46.57165" lon="0.55851">
        <ele>111.8</ele>
        <time>2023-03-19T11:15:37Z</time>
      </trkpt>
      <trkpt lat="46.5717" lon="0.55843">
        <ele>111.8</ele>
        <time>2023-03-19T11:15:39Z</time>
      </trkpt>
      <trkpt lat="46.57181" lon="0.55829">
        <ele>111.8</ele>
        <time>2023-03-19T11:15:44Z</time>
      </trkpt>
      <trkpt lat="46.57193" lon="0.55821">
        <ele>111.4</ele>
        <time>2023-03-19T11:15:49Z</time>
      </trkpt>
      <trkpt lat="46.57195" lon="0.55819">
        <ele>110.8</ele>
        <time>2023-03-19T11:15:53Z</time>
      </trkpt>
      <trkpt lat="46.57195" lon="0.55819">
        <ele>110.8</ele>
        <time>2023-03-19T11:15:54Z</time>
      </trkpt>
      <trkpt lat="46.57195" lon="0.5582">
        <ele>110.6</ele>
        <time>2023-03-19T11:16:06Z</time>
      </trkpt>
      <trkpt lat="46.57195" lon="0.5582">
        <ele>110.6</ele>
        <time>2023-03-19T11:16:08Z</time>
      </trkpt>
    </trkseg>
  </trk>
</gpx>